<?xml version='1.0' encoding='UTF-8'?><gpx version="1.1" creator="JPX - https://github.com/jenetics/jpx" xmlns="http://www.topografix.com/GPX/1/1"><trk><trkseg><trkpt lat="41.68753390176267" lon="-8.435742689568107"><ele>201.99999999999997</ele><time>2026-04-18T13:12:16.999Z</time></trkpt><trkpt lat="41.687540645876645" lon="-8.435868100074904"><ele>202.0</ele><time>2026-04-18T13:12:19.999Z</time></trkpt><trkpt lat="41.687516901414064" lon="-8.435997123412946"><ele>202.0</ele><time>2026-04-18T13:12:22.999Z</time></trkpt><trkpt lat="41.68753829051044" lon="-8.436097885168245"><ele>202.0</ele><time>2026-04-18T13:12:24.999Z</time></trkpt><trkpt lat="41.687567904022984" lon="-8.436195332457471"><ele>201.99999999999997</ele><time>2026-04-18T13:12:26.999Z</time></trkpt><trkpt lat="41.68759160052689" lon="-8.436276792835319"><ele>202.0</ele><time>2026-04-18T13:12:28.999Z</time></trkpt><trkpt lat="41.687602620016996" lon="-8.436369337490026"><ele>203.16666666666666</ele><time>2026-04-18T13:12:30.999Z</time></trkpt><trkpt lat="41.6875308112634" lon="-8.436357359504793"><ele>204.33333333333331</ele><time>2026-04-18T13:12:38.999Z</time></trkpt><trkpt lat="41.687468120038474" lon="-8.436384382833854"><ele>205.5</ele><time>2026-04-18T13:12:40.999Z</time></trkpt><trkpt lat="41.68746531254754" lon="-8.436499982518969"><ele>206.66666666666669</ele><time>2026-04-18T13:12:42.999Z</time></trkpt><trkpt lat="41.68745765882101" lon="-8.436636138645332"><ele>207.83333333333334</ele><time>2026-04-18T13:12:44.999Z</time></trkpt><trkpt lat="41.68744499067307" lon="-8.436725329237857"><ele>209.0</ele><time>2026-04-18T13:12:45.999Z</time></trkpt><trkpt lat="41.68743337739182" lon="-8.436813011159476"><ele>209.0</ele><time>2026-04-18T13:12:46.999Z</time></trkpt><trkpt lat="41.68742579553851" lon="-8.43697066633937"><ele>209.0</ele><time>2026-04-18T13:12:48.999Z</time></trkpt><trkpt lat="41.68743299842456" lon="-8.437112425833911"><ele>209.0</ele><time>2026-04-18T13:12:50.999Z</time></trkpt><trkpt lat="41.68744035891589" lon="-8.437202566477577"><ele>209.0</ele><time>2026-04-18T13:12:52.999Z</time></trkpt><trkpt lat="41.6873722661358" lon="-8.437313856690931"><ele>209.0</ele><time>2026-04-18T13:12:54.999Z</time></trkpt><trkpt lat="41.68725874037102" lon="-8.437362938872319"><ele>208.66666666666669</ele><time>2026-04-18T13:12:56.999Z</time></trkpt><trkpt lat="41.687177236365585" lon="-8.437381252802954"><ele>208.33333333333334</ele><time>2026-04-18T13:12:57.999Z</time></trkpt><trkpt lat="41.687093106117906" lon="-8.437389392419025"><ele>208.0</ele><time>2026-04-18T13:12:58.999Z</time></trkpt><trkpt lat="41.68699880439904" lon="-8.43739333555152"><ele>207.66666666666669</ele><time>2026-04-18T13:12:59.999Z</time></trkpt><trkpt lat="41.68691658384692" lon="-8.437401188157045"><ele>207.33333333333334</ele><time>2026-04-18T13:13:00.999Z</time></trkpt><trkpt lat="41.68684550213779" lon="-8.437407500667941"><ele>207.0</ele><time>2026-04-18T13:13:01.999Z</time></trkpt><trkpt lat="41.68678254550114" lon="-8.437424404893683"><ele>206.6</ele><time>2026-04-18T13:13:02.999Z</time></trkpt><trkpt lat="41.686715910944315" lon="-8.43743602591287"><ele>206.2</ele><time>2026-04-18T13:13:03.999Z</time></trkpt><trkpt lat="41.68660682037096" lon="-8.437451669048931"><ele>205.8</ele><time>2026-04-18T13:13:05.999Z</time></trkpt><trkpt lat="41.68651306292133" lon="-8.437491951872639"><ele>205.4</ele><time>2026-04-18T13:13:07.999Z</time></trkpt><trkpt lat="41.686418377837406" lon="-8.437602460355834"><ele>205.0</ele><time>2026-04-18T13:13:09.999Z</time></trkpt><trkpt lat="41.68636146872248" lon="-8.437682177702357"><ele>205.0</ele><time>2026-04-18T13:13:10.999Z</time></trkpt><trkpt lat="41.68631719451819" lon="-8.437753118365174"><ele>205.0</ele><time>2026-04-18T13:13:11.999Z</time></trkpt><trkpt lat="41.68627753557435" lon="-8.437818717960408"><ele>205.0</ele><time>2026-04-18T13:13:12.999Z</time></trkpt><trkpt lat="41.6861948905747" lon="-8.43793377943057"><ele>205.0</ele><time>2026-04-18T13:13:14.999Z</time></trkpt><trkpt lat="41.686096116806304" lon="-8.438025413750903"><ele>205.0</ele><time>2026-04-18T13:13:16.999Z</time></trkpt><trkpt lat="41.685990042474806" lon="-8.43808539804371"><ele>203.71428571428572</ele><time>2026-04-18T13:13:18.999Z</time></trkpt><trkpt lat="41.68593489267252" lon="-8.438142850876632"><ele>202.42857142857142</ele><time>2026-04-18T13:13:19.999Z</time></trkpt><trkpt lat="41.68588575674665" lon="-8.438211600045582"><ele>201.14285714285714</ele><time>2026-04-18T13:13:20.999Z</time></trkpt><trkpt lat="41.68585259189495" lon="-8.438287109777976"><ele>199.85714285714286</ele><time>2026-04-18T13:13:21.999Z</time></trkpt><trkpt lat="41.68580720329834" lon="-8.438379844860625"><ele>198.57142857142856</ele><time>2026-04-18T13:13:22.999Z</time></trkpt><trkpt lat="41.68575371639909" lon="-8.438470032478183"><ele>197.28571428571428</ele><time>2026-04-18T13:13:23.999Z</time></trkpt><trkpt lat="41.68572255032764" lon="-8.438555965440942"><ele>196.0</ele><time>2026-04-18T13:13:24.999Z</time></trkpt><trkpt lat="41.685685854802976" lon="-8.438628358519596"><ele>196.0</ele><time>2026-04-18T13:13:25.999Z</time></trkpt><trkpt lat="41.68564622940543" lon="-8.438728368620266"><ele>196.0</ele><time>2026-04-18T13:13:26.999Z</time></trkpt><trkpt lat="41.68561097777849" lon="-8.43880666473406"><ele>196.0</ele><time>2026-04-18T13:13:27.999Z</time></trkpt><trkpt lat="41.68556058556859" lon="-8.438963727248343"><ele>196.0</ele><time>2026-04-18T13:13:29.999Z</time></trkpt><trkpt lat="41.68553979111131" lon="-8.439049220830405"><ele>196.0</ele><time>2026-04-18T13:13:30.999Z</time></trkpt><trkpt lat="41.68549024926473" lon="-8.43917967459898"><ele>195.71428571428572</ele><time>2026-04-18T13:13:32.999Z</time></trkpt><trkpt lat="41.68546768160553" lon="-8.439274915407994"><ele>195.42857142857144</ele><time>2026-04-18T13:13:33.999Z</time></trkpt><trkpt lat="41.6854327830249" lon="-8.43934979267551"><ele>195.14285714285714</ele><time>2026-04-18T13:13:34.999Z</time></trkpt><trkpt lat="41.68539642825405" lon="-8.439421797371123"><ele>194.85714285714286</ele><time>2026-04-18T13:13:35.999Z</time></trkpt><trkpt lat="41.68533540602086" lon="-8.439501948208196"><ele>194.57142857142858</ele><time>2026-04-18T13:13:36.999Z</time></trkpt><trkpt lat="41.68528234505584" lon="-8.439577779803821"><ele>194.28571428571428</ele><time>2026-04-18T13:13:37.998Z</time></trkpt><trkpt lat="41.685227602576745" lon="-8.439652855210202"><ele>194.0</ele><time>2026-04-18T13:13:38.998Z</time></trkpt><trkpt lat="41.68518411518629" lon="-8.439730266024888"><ele>194.0</ele><time>2026-04-18T13:13:39.998Z</time></trkpt><trkpt lat="41.6851290552719" lon="-8.439816145927866"><ele>194.0</ele><time>2026-04-18T13:13:41.998Z</time></trkpt><trkpt lat="41.68505948962128" lon="-8.4398895249158"><ele>194.0</ele><time>2026-04-18T13:13:45.998Z</time></trkpt><trkpt lat="41.685030600556345" lon="-8.439990415683871"><ele>194.0</ele><time>2026-04-18T13:13:47.998Z</time></trkpt><trkpt lat="41.68502217335181" lon="-8.440170924393378"><ele>194.0</ele><time>2026-04-18T13:13:49.998Z</time></trkpt><trkpt lat="41.68501177336653" lon="-8.440306367752443"><ele>194.0</ele><time>2026-04-18T13:13:50.998Z</time></trkpt><trkpt lat="41.68500756306793" lon="-8.44046618417579"><ele>194.0</ele><time>2026-04-18T13:13:51.998Z</time></trkpt><trkpt lat="41.685005541584474" lon="-8.440617343667617"><ele>194.0</ele><time>2026-04-18T13:13:52.998Z</time></trkpt><trkpt lat="41.68499806281865" lon="-8.440737714408387"><ele>194.0</ele><time>2026-04-18T13:13:53.998Z</time></trkpt><trkpt lat="41.68498456545524" lon="-8.440843775628341"><ele>194.0</ele><time>2026-04-18T13:13:54.998Z</time></trkpt><trkpt lat="41.6849664517018" lon="-8.440937980965513"><ele>193.57142857142856</ele><time>2026-04-18T13:13:55.998Z</time></trkpt><trkpt lat="41.684960794898714" lon="-8.441046235605961"><ele>193.14285714285717</ele><time>2026-04-18T13:13:56.998Z</time></trkpt><trkpt lat="41.68493379848136" lon="-8.44114455857837"><ele>192.71428571428572</ele><time>2026-04-18T13:13:57.998Z</time></trkpt><trkpt lat="41.68489537590114" lon="-8.441230343091743"><ele>192.28571428571428</ele><time>2026-04-18T13:13:58.998Z</time></trkpt><trkpt lat="41.684852963067556" lon="-8.441292976223853"><ele>191.85714285714283</ele><time>2026-04-18T13:13:59.998Z</time></trkpt><trkpt lat="41.6848170135437" lon="-8.441367485764783"><ele>191.42857142857144</ele><time>2026-04-18T13:14:00.998Z</time></trkpt><trkpt lat="41.68478852286346" lon="-8.441445457206058"><ele>191.0</ele><time>2026-04-18T13:14:01.998Z</time></trkpt><trkpt lat="41.68477353987444" lon="-8.441586723544814"><ele>190.83333333333331</ele><time>2026-04-18T13:14:03.998Z</time></trkpt><trkpt lat="41.68476723028384" lon="-8.44172456785126"><ele>190.66666666666666</ele><time>2026-04-18T13:14:05.998Z</time></trkpt><trkpt lat="41.68474070447807" lon="-8.441826841065303"><ele>190.5</ele><time>2026-04-18T13:14:06.999Z</time></trkpt><trkpt lat="41.684672055833126" lon="-8.441903601132722"><ele>190.33333333333334</ele><time>2026-04-18T13:14:07.999Z</time></trkpt><trkpt lat="41.68458631903756" lon="-8.44194583114898"><ele>190.16666666666669</ele><time>2026-04-18T13:14:08.999Z</time></trkpt><trkpt lat="41.68450832514303" lon="-8.441970479390777"><ele>190.0</ele><time>2026-04-18T13:14:09.999Z</time></trkpt><trkpt lat="41.68438745574848" lon="-8.442011096062052"><ele>190.0</ele><time>2026-04-18T13:14:11.999Z</time></trkpt><trkpt lat="41.684322710300826" lon="-8.442048154219332"><ele>190.0</ele><time>2026-04-18T13:14:12.999Z</time></trkpt><trkpt lat="41.684266454627206" lon="-8.442103993817353"><ele>190.0</ele><time>2026-04-18T13:14:13.999Z</time></trkpt><trkpt lat="41.684201315998635" lon="-8.442209449813623"><ele>190.0</ele><time>2026-04-18T13:14:15.999Z</time></trkpt><trkpt lat="41.684151382432034" lon="-8.442297900851734"><ele>190.0</ele><time>2026-04-18T13:14:17.999Z</time></trkpt><trkpt lat="41.68410755461917" lon="-8.442385803552261"><ele>190.0</ele><time>2026-04-18T13:14:20.999Z</time></trkpt><trkpt lat="41.68404954355492" lon="-8.44245526711159"><ele>190.0</ele><time>2026-04-18T13:14:25.999Z</time></trkpt><trkpt lat="41.68411393540847" lon="-8.442260065873207"><ele>190.0</ele><time>2026-04-18T13:15:05.999Z</time></trkpt><trkpt lat="41.68415591274581" lon="-8.442190971563882"><ele>190.0</ele><time>2026-04-18T13:15:07.999Z</time></trkpt><trkpt lat="41.684203370291115" lon="-8.44212547731972"><ele>190.0</ele><time>2026-04-18T13:15:09.999Z</time></trkpt><trkpt lat="41.68427190884869" lon="-8.44214988447063"><ele>190.0</ele><time>2026-04-18T13:15:13.999Z</time></trkpt><trkpt lat="41.684279373643875" lon="-8.442266640862615"><ele>193.16666666666669</ele><time>2026-04-18T13:15:16.999Z</time></trkpt><trkpt lat="41.68425962150282" lon="-8.442358088457018"><ele>196.33333333333334</ele><time>2026-04-18T13:15:18.999Z</time></trkpt><trkpt lat="41.684224029647886" lon="-8.442485315317866"><ele>199.5</ele><time>2026-04-18T13:15:21.999Z</time></trkpt><trkpt lat="41.68422074381721" lon="-8.442599780908383"><ele>202.66666666666669</ele><time>2026-04-18T13:15:23.999Z</time></trkpt><trkpt lat="41.684207164686356" lon="-8.442696822671257"><ele>205.83333333333334</ele><time>2026-04-18T13:15:25.999Z</time></trkpt><trkpt lat="41.68419995141116" lon="-8.44282214115073"><ele>209.0</ele><time>2026-04-18T13:15:27.999Z</time></trkpt><trkpt lat="41.6841889072177" lon="-8.442950958745168"><ele>210.0</ele><time>2026-04-18T13:15:29.999Z</time></trkpt><trkpt lat="41.68417546454894" lon="-8.443099097635336"><ele>211.0</ele><time>2026-04-18T13:15:31.999Z</time></trkpt><trkpt lat="41.684173110748965" lon="-8.443253696068288"><ele>211.99999999999997</ele><time>2026-04-18T13:15:33.999Z</time></trkpt><trkpt lat="41.68417919828027" lon="-8.443430893327607"><ele>213.0</ele><time>2026-04-18T13:15:35.999Z</time></trkpt><trkpt lat="41.68415701104999" lon="-8.44351019877669"><ele>214.0</ele><time>2026-04-18T13:15:36.999Z</time></trkpt><trkpt lat="41.684147602387775" lon="-8.443618148536167"><ele>214.0</ele><time>2026-04-18T13:15:38.999Z</time></trkpt><trkpt lat="41.68414380811424" lon="-8.44374524526335"><ele>213.99999999999997</ele><time>2026-04-18T13:15:40.999Z</time></trkpt><trkpt lat="41.684107769812" lon="-8.44386189190673"><ele>213.99999999999997</ele><time>2026-04-18T13:15:42.999Z</time></trkpt><trkpt lat="41.684018902667674" lon="-8.443881895266099"><ele>214.0</ele><time>2026-04-18T13:15:44.999Z</time></trkpt><trkpt lat="41.68395546139674" lon="-8.443862165816684"><ele>214.0</ele><time>2026-04-18T13:15:45.999Z</time></trkpt><trkpt lat="41.68385511807146" lon="-8.443797426703675"><ele>213.99999999999997</ele><time>2026-04-18T13:15:47.999Z</time></trkpt><trkpt lat="41.68380066509506" lon="-8.44375331209169"><ele>214.0</ele><time>2026-04-18T13:15:48.999Z</time></trkpt><trkpt lat="41.6837355966148" lon="-8.44373906744454"><ele>214.0</ele><time>2026-04-18T13:15:49.999Z</time></trkpt><trkpt lat="41.68360038033845" lon="-8.443726134819162"><ele>214.0</ele><time>2026-04-18T13:15:51.999Z</time></trkpt><trkpt lat="41.6835321686794" lon="-8.443723843322"><ele>213.99999999999997</ele><time>2026-04-18T13:15:52.999Z</time></trkpt><trkpt lat="41.683459410315386" lon="-8.443732292035893"><ele>214.0</ele><time>2026-04-18T13:15:53.999Z</time></trkpt><trkpt lat="41.68338245262289" lon="-8.443742240307873"><ele>213.16666666666666</ele><time>2026-04-18T13:15:54.999Z</time></trkpt><trkpt lat="41.68327604763541" lon="-8.44378684959044"><ele>212.33333333333331</ele><time>2026-04-18T13:15:56.999Z</time></trkpt><trkpt lat="41.683204103552484" lon="-8.443825164960321"><ele>211.5</ele><time>2026-04-18T13:15:57.999Z</time></trkpt><trkpt lat="41.68312712761938" lon="-8.443867071738723"><ele>210.66666666666669</ele><time>2026-04-18T13:15:58.999Z</time></trkpt><trkpt lat="41.6830563824103" lon="-8.443915636713973"><ele>209.83333333333334</ele><time>2026-04-18T13:15:59.999Z</time></trkpt><trkpt lat="41.68298037184166" lon="-8.443968873086606"><ele>209.0</ele><time>2026-04-18T13:16:00.999Z</time></trkpt><trkpt lat="41.68291141129936" lon="-8.444028376465637"><ele>209.33333333333334</ele><time>2026-04-18T13:16:01.999Z</time></trkpt><trkpt lat="41.68282899733539" lon="-8.444129798387019"><ele>209.66666666666669</ele><time>2026-04-18T13:16:03.999Z</time></trkpt><trkpt lat="41.6827771905781" lon="-8.444201923235187"><ele>210.0</ele><time>2026-04-18T13:16:04.999Z</time></trkpt><trkpt lat="41.68272961541348" lon="-8.444281396443547"><ele>210.33333333333331</ele><time>2026-04-18T13:16:05.999Z</time></trkpt><trkpt lat="41.68269014649528" lon="-8.444373107044393"><ele>210.66666666666666</ele><time>2026-04-18T13:16:06.999Z</time></trkpt><trkpt lat="41.68266179605768" lon="-8.444512192925263"><ele>211.0</ele><time>2026-04-18T13:16:08.999Z</time></trkpt><trkpt lat="41.68261283979031" lon="-8.44458818398043"><ele>210.99999999999997</ele><time>2026-04-18T13:16:17Z</time></trkpt><trkpt lat="41.682670077636764" lon="-8.4446340056413"><ele>211.0</ele><time>2026-04-18T13:16:19Z</time></trkpt><trkpt lat="41.682746390146704" lon="-8.444542698372695"><ele>211.0</ele><time>2026-04-18T13:16:21Z</time></trkpt><trkpt lat="41.68281256649172" lon="-8.444497047998592"><ele>211.0</ele><time>2026-04-18T13:16:22Z</time></trkpt><trkpt lat="41.68288560549785" lon="-8.444481584810314"><ele>210.99999999999997</ele><time>2026-04-18T13:16:23Z</time></trkpt><trkpt lat="41.68298164541931" lon="-8.444465083848357"><ele>211.0</ele><time>2026-04-18T13:16:24Z</time></trkpt><trkpt lat="41.683059400022266" lon="-8.444456830759622"><ele>214.4</ele><time>2026-04-18T13:16:25Z</time></trkpt><trkpt lat="41.6831534536949" lon="-8.444466514947816"><ele>217.8</ele><time>2026-04-18T13:16:27Z</time></trkpt><trkpt lat="41.6832104685872" lon="-8.444534094492038"><ele>221.20000000000002</ele><time>2026-04-18T13:16:29Z</time></trkpt><trkpt lat="41.68319222609071" lon="-8.444668261764264"><ele>224.60000000000002</ele><time>2026-04-18T13:16:31Z</time></trkpt><trkpt lat="41.683159272646336" lon="-8.444831417516601"><ele>228.0</ele><time>2026-04-18T13:16:33Z</time></trkpt><trkpt lat="41.68313720279994" lon="-8.444924854605073"><ele>230.16666666666666</ele><time>2026-04-18T13:16:34Z</time></trkpt><trkpt lat="41.683111351480754" lon="-8.445023371291422"><ele>232.33333333333331</ele><time>2026-04-18T13:16:35Z</time></trkpt><trkpt lat="41.68307613151866" lon="-8.445113681316496"><ele>234.5</ele><time>2026-04-18T13:16:36Z</time></trkpt><trkpt lat="41.683039332164874" lon="-8.445200976033323"><ele>236.66666666666666</ele><time>2026-04-18T13:16:37Z</time></trkpt><trkpt lat="41.68300992328982" lon="-8.445282315629282"><ele>238.83333333333331</ele><time>2026-04-18T13:16:38Z</time></trkpt><trkpt lat="41.682975651403176" lon="-8.445388747953283"><ele>241.0</ele><time>2026-04-18T13:16:40Z</time></trkpt><trkpt lat="41.68296547208333" lon="-8.445547581491006"><ele>241.60000000000002</ele><time>2026-04-18T13:16:42Z</time></trkpt><trkpt lat="41.68301912201198" lon="-8.44568609540951"><ele>242.20000000000002</ele><time>2026-04-18T13:16:44Z</time></trkpt><trkpt lat="41.683109123164606" lon="-8.445800339517845"><ele>242.79999999999998</ele><time>2026-04-18T13:16:46Z</time></trkpt><trkpt lat="41.68316458031731" lon="-8.445852455732378"><ele>243.39999999999998</ele><time>2026-04-18T13:16:47Z</time></trkpt><trkpt lat="41.68320482324344" lon="-8.445929404131588"><ele>244.0</ele><time>2026-04-18T13:16:48Z</time></trkpt><trkpt lat="41.68319992811492" lon="-8.446034488353362"><ele>244.0</ele><time>2026-04-18T13:16:50Z</time></trkpt><trkpt lat="41.683166186541555" lon="-8.4461783330959"><ele>244.0</ele><time>2026-04-18T13:16:52Z</time></trkpt><trkpt lat="41.683107239056426" lon="-8.44628305853767"><ele>244.0</ele><time>2026-04-18T13:16:54Z</time></trkpt><trkpt lat="41.68300626445683" lon="-8.44638288892383"><ele>244.0</ele><time>2026-04-18T13:16:56Z</time></trkpt><trkpt lat="41.682941525620016" lon="-8.446511380996553"><ele>245.33333333333331</ele><time>2026-04-18T13:16:58Z</time></trkpt><trkpt lat="41.68289291272116" lon="-8.4466439910262"><ele>246.66666666666666</ele><time>2026-04-18T13:17:00Z</time></trkpt><trkpt lat="41.68285728563916" lon="-8.446799928363175"><ele>248.0</ele><time>2026-04-18T13:17:02Z</time></trkpt><trkpt lat="41.682819224273075" lon="-8.4468767065233"><ele>249.33333333333331</ele><time>2026-04-18T13:17:03Z</time></trkpt><trkpt lat="41.68279221018015" lon="-8.446958499576574"><ele>250.66666666666666</ele><time>2026-04-18T13:17:04Z</time></trkpt><trkpt lat="41.68277408429395" lon="-8.447048725994097"><ele>252.0</ele><time>2026-04-18T13:17:05Z</time></trkpt><trkpt lat="41.68276002835487" lon="-8.447223583359944"><ele>254.39999999999998</ele><time>2026-04-18T13:17:07Z</time></trkpt><trkpt lat="41.6827840519368" lon="-8.447413166014536"><ele>256.79999999999995</ele><time>2026-04-18T13:17:09Z</time></trkpt><trkpt lat="41.68277487531498" lon="-8.44749691015484"><ele>259.2</ele><time>2026-04-18T13:17:10Z</time></trkpt><trkpt lat="41.682715728355106" lon="-8.447653424389737"><ele>261.59999999999997</ele><time>2026-04-18T13:17:12Z</time></trkpt><trkpt lat="41.682641692067456" lon="-8.44774660050529"><ele>264.0</ele><time>2026-04-18T13:17:13Z</time></trkpt><trkpt lat="41.68258563743569" lon="-8.447845981019297"><ele>264.0</ele><time>2026-04-18T13:17:14Z</time></trkpt><trkpt lat="41.682538219201604" lon="-8.4479375338106"><ele>264.0</ele><time>2026-04-18T13:17:15Z</time></trkpt><trkpt lat="41.68250387076384" lon="-8.44803443783675"><ele>264.0</ele><time>2026-04-18T13:17:16Z</time></trkpt><trkpt lat="41.68247572023394" lon="-8.448127187087195"><ele>264.0</ele><time>2026-04-18T13:17:17Z</time></trkpt><trkpt lat="41.68249508029256" lon="-8.448221289528437"><ele>264.0</ele><time>2026-04-18T13:17:19Z</time></trkpt><trkpt lat="41.682565327976846" lon="-8.44826883867312"><ele>264.0</ele><time>2026-04-18T13:17:21Z</time></trkpt><trkpt lat="41.682662737470295" lon="-8.448263999821723"><ele>265.4</ele><time>2026-04-18T13:17:23Z</time></trkpt><trkpt lat="41.6827233399019" lon="-8.448230033685215"><ele>266.79999999999995</ele><time>2026-04-18T13:17:24Z</time></trkpt><trkpt lat="41.68282480499495" lon="-8.448188617989672"><ele>268.20000000000005</ele><time>2026-04-18T13:17:26Z</time></trkpt><trkpt lat="41.68294529694537" lon="-8.448181353684259"><ele>269.6</ele><time>2026-04-18T13:17:28Z</time></trkpt><trkpt lat="41.683021757014714" lon="-8.448160635685326"><ele>271.0</ele><time>2026-04-18T13:17:29Z</time></trkpt><trkpt lat="41.68310583314391" lon="-8.448155939955187"><ele>272.6</ele><time>2026-04-18T13:17:31Z</time></trkpt><trkpt lat="41.68317497953859" lon="-8.448184331056012"><ele>274.20000000000005</ele><time>2026-04-18T13:17:32Z</time></trkpt><trkpt lat="41.683226757483105" lon="-8.44823900490538"><ele>275.79999999999995</ele><time>2026-04-18T13:17:33Z</time></trkpt><trkpt lat="41.68328226907925" lon="-8.448382058663615"><ele>277.4</ele><time>2026-04-18T13:17:35Z</time></trkpt><trkpt lat="41.68336182082348" lon="-8.448436584262616"><ele>279.0</ele><time>2026-04-18T13:17:37Z</time></trkpt><trkpt lat="41.68346841819946" lon="-8.448484678780087"><ele>279.0</ele><time>2026-04-18T13:17:39Z</time></trkpt><trkpt lat="41.68358201943705" lon="-8.448509985992638"><ele>279.0</ele><time>2026-04-18T13:17:40.999Z</time></trkpt><trkpt lat="41.68364430219663" lon="-8.448541987640374"><ele>279.0</ele><time>2026-04-18T13:17:41.999Z</time></trkpt><trkpt lat="41.683760276844936" lon="-8.448609187006909"><ele>279.0</ele><time>2026-04-18T13:17:43.999Z</time></trkpt><trkpt lat="41.68381008203034" lon="-8.44866391034506"><ele>279.0</ele><time>2026-04-18T13:17:44.999Z</time></trkpt><trkpt lat="41.68388212222269" lon="-8.44870312282036"><ele>280.8</ele><time>2026-04-18T13:17:46.999Z</time></trkpt><trkpt lat="41.683953595254025" lon="-8.448702659796897"><ele>282.59999999999997</ele><time>2026-04-18T13:17:47.999Z</time></trkpt><trkpt lat="41.68405950923819" lon="-8.44865729093728"><ele>284.4</ele><time>2026-04-18T13:17:49.999Z</time></trkpt><trkpt lat="41.68411318943768" lon="-8.448608898918891"><ele>286.2</ele><time>2026-04-18T13:17:50.999Z</time></trkpt><trkpt lat="41.684189484952505" lon="-8.448487198560958"><ele>288.0</ele><time>2026-04-18T13:17:52.999Z</time></trkpt><trkpt lat="41.68426971623402" lon="-8.44836417783173"><ele>288.0</ele><time>2026-04-18T13:17:54.999Z</time></trkpt><trkpt lat="41.6843230237058" lon="-8.448312277253745"><ele>288.0</ele><time>2026-04-18T13:17:55.999Z</time></trkpt><trkpt lat="41.68441407955835" lon="-8.448247639298387"><ele>288.0</ele><time>2026-04-18T13:17:57.999Z</time></trkpt><trkpt lat="41.68452797090729" lon="-8.448173786995262"><ele>288.0</ele><time>2026-04-18T13:17:59.999Z</time></trkpt><trkpt lat="41.68459905076453" lon="-8.448134126435475"><ele>288.0</ele><time>2026-04-18T13:18:00.999Z</time></trkpt><trkpt lat="41.68465960554718" lon="-8.448110858485219"><ele>288.0</ele><time>2026-04-18T13:18:01.999Z</time></trkpt><trkpt lat="41.684766502363075" lon="-8.448078757617004"><ele>288.4</ele><time>2026-04-18T13:18:03.999Z</time></trkpt><trkpt lat="41.68487199071843" lon="-8.44801119518729"><ele>288.8</ele><time>2026-04-18T13:18:05.999Z</time></trkpt><trkpt lat="41.68495494742925" lon="-8.447902082839656"><ele>289.2</ele><time>2026-04-18T13:18:07.999Z</time></trkpt><trkpt lat="41.68499801237466" lon="-8.447816757661911"><ele>289.6</ele><time>2026-04-18T13:18:08.999Z</time></trkpt><trkpt lat="41.6850251950579" lon="-8.447733524268688"><ele>290.0</ele><time>2026-04-18T13:18:09.999Z</time></trkpt><trkpt lat="41.68508741883679" lon="-8.447587841581534"><ele>290.0</ele><time>2026-04-18T13:18:11.999Z</time></trkpt><trkpt lat="41.6851495583181" lon="-8.447522891329633"><ele>290.0</ele><time>2026-04-18T13:18:12.999Z</time></trkpt><trkpt lat="41.685209409430115" lon="-8.447488534591642"><ele>290.0</ele><time>2026-04-18T13:18:13.999Z</time></trkpt><trkpt lat="41.6852708872207" lon="-8.447470355026107"><ele>290.0</ele><time>2026-04-18T13:18:14.999Z</time></trkpt><trkpt lat="41.68538548224143" lon="-8.447407223588069"><ele>290.0</ele><time>2026-04-18T13:18:16.999Z</time></trkpt><trkpt lat="41.68546275994069" lon="-8.447365560253917"><ele>290.0</ele><time>2026-04-18T13:18:17.999Z</time></trkpt><trkpt lat="41.685529980027106" lon="-8.447330586888732"><ele>292.5</ele><time>2026-04-18T13:18:19Z</time></trkpt><trkpt lat="41.68560318275677" lon="-8.44728547014881"><ele>295.0</ele><time>2026-04-18T13:18:20Z</time></trkpt><trkpt lat="41.68566435379747" lon="-8.44722476831475"><ele>297.5</ele><time>2026-04-18T13:18:21Z</time></trkpt><trkpt lat="41.685718313308435" lon="-8.447145651376228"><ele>300.0</ele><time>2026-04-18T13:18:22Z</time></trkpt><trkpt lat="41.685784297940764" lon="-8.447070596227801"><ele>302.5</ele><time>2026-04-18T13:18:23Z</time></trkpt><trkpt lat="41.68584394738187" lon="-8.447001950779718"><ele>305.0</ele><time>2026-04-18T13:18:24Z</time></trkpt><trkpt lat="41.68588667200777" lon="-8.446923299793042"><ele>305.0</ele><time>2026-04-18T13:18:25Z</time></trkpt><trkpt lat="41.68595642376631" lon="-8.446885219789474"><ele>305.0</ele><time>2026-04-18T13:18:26Z</time></trkpt><trkpt lat="41.68602391102953" lon="-8.446842118342754"><ele>305.0</ele><time>2026-04-18T13:18:27Z</time></trkpt><trkpt lat="41.68612309408754" lon="-8.446760169767236"><ele>305.0</ele><time>2026-04-18T13:18:29Z</time></trkpt><trkpt lat="41.68622352404821" lon="-8.446656740646336"><ele>305.0</ele><time>2026-04-18T13:18:31Z</time></trkpt><trkpt lat="41.68632870869074" lon="-8.44656190565565"><ele>308.1666666666667</ele><time>2026-04-18T13:18:33Z</time></trkpt><trkpt lat="41.68639751581553" lon="-8.446519053703634"><ele>311.33333333333337</ele><time>2026-04-18T13:18:34Z</time></trkpt><trkpt lat="41.686487470311825" lon="-8.446474678633795"><ele>314.5</ele><time>2026-04-18T13:18:35Z</time></trkpt><trkpt lat="41.68656209711682" lon="-8.446436183015118"><ele>317.6666666666667</ele><time>2026-04-18T13:18:36Z</time></trkpt><trkpt lat="41.686637035021434" lon="-8.44638280374438"><ele>320.8333333333333</ele><time>2026-04-18T13:18:37Z</time></trkpt><trkpt lat="41.68670035085429" lon="-8.44636965866342"><ele>324.0</ele><time>2026-04-18T13:18:38Z</time></trkpt><trkpt lat="41.68677627669314" lon="-8.446372270975424"><ele>324.0</ele><time>2026-04-18T13:18:39Z</time></trkpt><trkpt lat="41.68684975578862" lon="-8.446405389634128"><ele>324.0</ele><time>2026-04-18T13:18:40Z</time></trkpt><trkpt lat="41.68692692372263" lon="-8.446451749783566"><ele>324.0</ele><time>2026-04-18T13:18:41Z</time></trkpt><trkpt lat="41.687001206472495" lon="-8.446511449679504"><ele>324.0</ele><time>2026-04-18T13:18:42Z</time></trkpt><trkpt lat="41.68704629418809" lon="-8.446572918702522"><ele>324.0</ele><time>2026-04-18T13:18:43Z</time></trkpt><trkpt lat="41.68713352984544" lon="-8.446704368392547"><ele>324.0</ele><time>2026-04-18T13:18:45Z</time></trkpt><trkpt lat="41.687191883804" lon="-8.446772764447491"><ele>326.0</ele><time>2026-04-18T13:18:46Z</time></trkpt><trkpt lat="41.687252864148526" lon="-8.446825605626467"><ele>328.0</ele><time>2026-04-18T13:18:47Z</time></trkpt><trkpt lat="41.68731925142088" lon="-8.446868855904587"><ele>330.0</ele><time>2026-04-18T13:18:48Z</time></trkpt><trkpt lat="41.687383744260465" lon="-8.446927611839527"><ele>332.0</ele><time>2026-04-18T13:18:49Z</time></trkpt><trkpt lat="41.68745748939048" lon="-8.44697660766199"><ele>334.0</ele><time>2026-04-18T13:18:50Z</time></trkpt><trkpt lat="41.68757370618307" lon="-8.447038210958052"><ele>336.0</ele><time>2026-04-18T13:18:52Z</time></trkpt><trkpt lat="41.687639965855816" lon="-8.447070127559842"><ele>337.6</ele><time>2026-04-18T13:18:53Z</time></trkpt><trkpt lat="41.6877279760212" lon="-8.447129909062665"><ele>339.20000000000005</ele><time>2026-04-18T13:18:55Z</time></trkpt><trkpt lat="41.68783549992882" lon="-8.447213510329494"><ele>340.79999999999995</ele><time>2026-04-18T13:18:57Z</time></trkpt><trkpt lat="41.68791628409986" lon="-8.447270414843093"><ele>342.4</ele><time>2026-04-18T13:18:58Z</time></trkpt><trkpt lat="41.68800017900832" lon="-8.447340831022503"><ele>344.0</ele><time>2026-04-18T13:18:59Z</time></trkpt><trkpt lat="41.68806234783569" lon="-8.447406342684326"><ele>346.0</ele><time>2026-04-18T13:19:00Z</time></trkpt><trkpt lat="41.68813569620161" lon="-8.447472132540703"><ele>348.0</ele><time>2026-04-18T13:19:01Z</time></trkpt><trkpt lat="41.68820118585537" lon="-8.44754077732448"><ele>350.0</ele><time>2026-04-18T13:19:02Z</time></trkpt><trkpt lat="41.68827030555883" lon="-8.447586755566235"><ele>352.0</ele><time>2026-04-18T13:19:03Z</time></trkpt><trkpt lat="41.688336629351134" lon="-8.447631823809093"><ele>354.0</ele><time>2026-04-18T13:19:04Z</time></trkpt><trkpt lat="41.68839572003266" lon="-8.447668785838074"><ele>356.0</ele><time>2026-04-18T13:19:05Z</time></trkpt><trkpt lat="41.68846681203252" lon="-8.447704420075661"><ele>356.0</ele><time>2026-04-18T13:19:06Z</time></trkpt><trkpt lat="41.6885366870343" lon="-8.447731376905983"><ele>356.0</ele><time>2026-04-18T13:19:07Z</time></trkpt><trkpt lat="41.688622414676345" lon="-8.447779830505176"><ele>356.0</ele><time>2026-04-18T13:19:08Z</time></trkpt><trkpt lat="41.68868694043325" lon="-8.447831398101576"><ele>356.0</ele><time>2026-04-18T13:19:09Z</time></trkpt><trkpt lat="41.68879206935084" lon="-8.447867766910706"><ele>356.0</ele><time>2026-04-18T13:19:11Z</time></trkpt><trkpt lat="41.68886455594391" lon="-8.447911066572706"><ele>356.0</ele><time>2026-04-18T13:19:13Z</time></trkpt><trkpt lat="41.68891935763405" lon="-8.44799706587752"><ele>357.1666666666667</ele><time>2026-04-18T13:19:15Z</time></trkpt><trkpt lat="41.6889642273029" lon="-8.448080398139009"><ele>358.33333333333337</ele><time>2026-04-18T13:19:16Z</time></trkpt><trkpt lat="41.68901136034764" lon="-8.44815503447378"><ele>359.5</ele><time>2026-04-18T13:19:17Z</time></trkpt><trkpt lat="41.689003525827886" lon="-8.448299815321112"><ele>360.6666666666667</ele><time>2026-04-18T13:19:19Z</time></trkpt><trkpt lat="41.688964722400435" lon="-8.4483985794536"><ele>361.8333333333333</ele><time>2026-04-18T13:19:20Z</time></trkpt><trkpt lat="41.68894886819746" lon="-8.448518566432849"><ele>363.0</ele><time>2026-04-18T13:19:21Z</time></trkpt><trkpt lat="41.68894706388816" lon="-8.44865820934006"><ele>363.0</ele><time>2026-04-18T13:19:22Z</time></trkpt><trkpt lat="41.688940578564335" lon="-8.448790091027705"><ele>363.0</ele><time>2026-04-18T13:19:23Z</time></trkpt><trkpt lat="41.68893412117784" lon="-8.448897940138146"><ele>363.0</ele><time>2026-04-18T13:19:24Z</time></trkpt><trkpt lat="41.68890609661444" lon="-8.4490124716904"><ele>363.0</ele><time>2026-04-18T13:19:25Z</time></trkpt><trkpt lat="41.68886890351676" lon="-8.449132154132057"><ele>363.0</ele><time>2026-04-18T13:19:27Z</time></trkpt><trkpt lat="41.68885195364942" lon="-8.44923266797952"><ele>363.0</ele><time>2026-04-18T13:19:30Z</time></trkpt><trkpt lat="41.68880066992047" lon="-8.44943273117708"><ele>364.5</ele><time>2026-04-18T13:19:51Z</time></trkpt><trkpt lat="41.68875711753995" lon="-8.449513758356202"><ele>366.0</ele><time>2026-04-18T13:19:52Z</time></trkpt><trkpt lat="41.68870871236886" lon="-8.449589545077684"><ele>367.5</ele><time>2026-04-18T13:19:53Z</time></trkpt><trkpt lat="41.68866049522107" lon="-8.449683702531006"><ele>369.0</ele><time>2026-04-18T13:19:54Z</time></trkpt><trkpt lat="41.688615910934345" lon="-8.449787255098812"><ele>370.5</ele><time>2026-04-18T13:19:55Z</time></trkpt><trkpt lat="41.68857616613315" lon="-8.44990826355216"><ele>372.0</ele><time>2026-04-18T13:19:56Z</time></trkpt><trkpt lat="41.68853180162801" lon="-8.450023421533558"><ele>372.0</ele><time>2026-04-18T13:19:57Z</time></trkpt><trkpt lat="41.68848922389981" lon="-8.450142754432635"><ele>372.0</ele><time>2026-04-18T13:19:58Z</time></trkpt><trkpt lat="41.68845496707927" lon="-8.450259029046103"><ele>372.0</ele><time>2026-04-18T13:19:59Z</time></trkpt><trkpt lat="41.688417476111944" lon="-8.450365950705116"><ele>372.0</ele><time>2026-04-18T13:20:00Z</time></trkpt><trkpt lat="41.688385587100626" lon="-8.45047383713347"><ele>372.0</ele><time>2026-04-18T13:20:01Z</time></trkpt><trkpt lat="41.688355845851255" lon="-8.450562952754884"><ele>372.0</ele><time>2026-04-18T13:20:02Z</time></trkpt><trkpt lat="41.68832709437028" lon="-8.450640415659532"><ele>374.3333333333333</ele><time>2026-04-18T13:20:03Z</time></trkpt><trkpt lat="41.68826894567281" lon="-8.450715390960672"><ele>376.66666666666663</ele><time>2026-04-18T13:20:06Z</time></trkpt><trkpt lat="41.68822319943989" lon="-8.450773908978672"><ele>379.0</ele><time>2026-04-18T13:20:07Z</time></trkpt><trkpt lat="41.68817363367388" lon="-8.450839056681094"><ele>381.3333333333333</ele><time>2026-04-18T13:20:08Z</time></trkpt><trkpt lat="41.68810893926745" lon="-8.450905514513833"><ele>383.66666666666663</ele><time>2026-04-18T13:20:10Z</time></trkpt><trkpt lat="41.68805532946847" lon="-8.450999283485473"><ele>386.0</ele><time>2026-04-18T13:20:13Z</time></trkpt><trkpt lat="41.688020208088005" lon="-8.451091794200572"><ele>386.0</ele><time>2026-04-18T13:22:04Z</time></trkpt><trkpt lat="41.68797104600131" lon="-8.451218268313811"><ele>386.0</ele><time>2026-04-18T13:22:06Z</time></trkpt><trkpt lat="41.687943908166595" lon="-8.451314966096792"><ele>386.0</ele><time>2026-04-18T13:22:07Z</time></trkpt><trkpt lat="41.68791738615524" lon="-8.451420047931586"><ele>386.0</ele><time>2026-04-18T13:22:08Z</time></trkpt><trkpt lat="41.68788458302464" lon="-8.451540889384386"><ele>386.0</ele><time>2026-04-18T13:22:09Z</time></trkpt><trkpt lat="41.68784458975386" lon="-8.451674679048944"><ele>387.3333333333333</ele><time>2026-04-18T13:22:10Z</time></trkpt><trkpt lat="41.68780179188503" lon="-8.451813465839965"><ele>388.66666666666663</ele><time>2026-04-18T13:22:11Z</time></trkpt><trkpt lat="41.687758848137754" lon="-8.45192510290512"><ele>390.0</ele><time>2026-04-18T13:22:12Z</time></trkpt><trkpt lat="41.6877239863414" lon="-8.452022069302377"><ele>391.33333333333337</ele><time>2026-04-18T13:22:13Z</time></trkpt><trkpt lat="41.68769740027075" lon="-8.452109002163104"><ele>392.6666666666667</ele><time>2026-04-18T13:22:14Z</time></trkpt><trkpt lat="41.68766964833675" lon="-8.452203551165907"><ele>394.0</ele><time>2026-04-18T13:22:15Z</time></trkpt><trkpt lat="41.68764336536242" lon="-8.452315535459967"><ele>390.79999999999995</ele><time>2026-04-18T13:22:16Z</time></trkpt><trkpt lat="41.68763062075989" lon="-8.4524197390153"><ele>387.59999999999997</ele><time>2026-04-18T13:22:17Z</time></trkpt><trkpt lat="41.687624110609214" lon="-8.452583891462085"><ele>384.4</ele><time>2026-04-18T13:22:19Z</time></trkpt><trkpt lat="41.68763639908125" lon="-8.452750605132705"><ele>381.2</ele><time>2026-04-18T13:22:21Z</time></trkpt><trkpt lat="41.68764607618668" lon="-8.45290556541838"><ele>378.0</ele><time>2026-04-18T13:22:23Z</time></trkpt><trkpt lat="41.68765506623115" lon="-8.453044152335712"><ele>377.8333333333333</ele><time>2026-04-18T13:22:25Z</time></trkpt><trkpt lat="41.68767208129047" lon="-8.453189472571712"><ele>377.6666666666667</ele><time>2026-04-18T13:22:27Z</time></trkpt><trkpt lat="41.687692190218726" lon="-8.453293885546723"><ele>377.5</ele><time>2026-04-18T13:22:29Z</time></trkpt><trkpt lat="41.687717639677984" lon="-8.453376266271002"><ele>377.33333333333337</ele><time>2026-04-18T13:22:31Z</time></trkpt><trkpt lat="41.68775748022413" lon="-8.453479599672606"><ele>377.1666666666667</ele><time>2026-04-18T13:22:34Z</time></trkpt><trkpt lat="41.68779988369166" lon="-8.453575808040545"><ele>377.0</ele><time>2026-04-18T13:22:36Z</time></trkpt><trkpt lat="41.6878243233413" lon="-8.453674203036815"><ele>378.0</ele><time>2026-04-18T13:22:38Z</time></trkpt><trkpt lat="41.68786793426847" lon="-8.453780445808441"><ele>379.0</ele><time>2026-04-18T13:22:55Z</time></trkpt><trkpt lat="41.68789482174654" lon="-8.45386489711918"><ele>380.0</ele><time>2026-04-18T13:22:58Z</time></trkpt><trkpt lat="41.68791328705117" lon="-8.453946866073341"><ele>381.0</ele><time>2026-04-18T13:23:01Z</time></trkpt><trkpt lat="41.68785786645687" lon="-8.453869884695896"><ele>382.0</ele><time>2026-04-18T13:23:05Z</time></trkpt><trkpt lat="41.68784403734668" lon="-8.45376101331168"><ele>383.0</ele><time>2026-04-18T13:23:08Z</time></trkpt><trkpt lat="41.68785341061072" lon="-8.453650409633596"><ele>384.4</ele><time>2026-04-18T13:23:11Z</time></trkpt><trkpt lat="41.68796615585701" lon="-8.453642070781314"><ele>385.79999999999995</ele><time>2026-04-18T13:23:14Z</time></trkpt><trkpt lat="41.68805553312569" lon="-8.453642665966226"><ele>387.2</ele><time>2026-04-18T13:23:16Z</time></trkpt><trkpt lat="41.6881404103469" lon="-8.453653876294192"><ele>388.6</ele><time>2026-04-18T13:23:18Z</time></trkpt><trkpt lat="41.68822229110842" lon="-8.453660193959587"><ele>390.0</ele><time>2026-04-18T13:23:20Z</time></trkpt><trkpt lat="41.68830767479086" lon="-8.453662607270687"><ele>390.0</ele><time>2026-04-18T13:23:22Z</time></trkpt><trkpt lat="41.688396592370154" lon="-8.45365913915575"><ele>390.0</ele><time>2026-04-18T13:23:24Z</time></trkpt><trkpt lat="41.6884791854877" lon="-8.45366549289156"><ele>390.0</ele><time>2026-04-18T13:23:26Z</time></trkpt><trkpt lat="41.688569456662194" lon="-8.453688241570708"><ele>390.0</ele><time>2026-04-18T13:23:28Z</time></trkpt><trkpt lat="41.68865859439935" lon="-8.453698335950717"><ele>390.0</ele><time>2026-04-18T13:23:31Z</time></trkpt><trkpt lat="41.68871826613879" lon="-8.453732656475227"><ele>390.0</ele><time>2026-04-18T13:23:33Z</time></trkpt><trkpt lat="41.68881320433803" lon="-8.45376557151801"><ele>390.6666666666667</ele><time>2026-04-18T13:23:36Z</time></trkpt><trkpt lat="41.68889313481989" lon="-8.453812746435256"><ele>391.33333333333337</ele><time>2026-04-18T13:23:38Z</time></trkpt><trkpt lat="41.68895590120258" lon="-8.453854369252925"><ele>392.0</ele><time>2026-04-18T13:23:40Z</time></trkpt><trkpt lat="41.68903289837116" lon="-8.453898961058657"><ele>392.6666666666667</ele><time>2026-04-18T13:23:42Z</time></trkpt><trkpt lat="41.68911476350588" lon="-8.453913677994926"><ele>393.33333333333337</ele><time>2026-04-18T13:23:44Z</time></trkpt><trkpt lat="41.68918592363866" lon="-8.453922820945936"><ele>394.0</ele><time>2026-04-18T13:23:46Z</time></trkpt><trkpt lat="41.68927263414292" lon="-8.453959111106958"><ele>394.0</ele><time>2026-04-18T13:23:49Z</time></trkpt><trkpt lat="41.68933529091881" lon="-8.453986395690448"><ele>394.0</ele><time>2026-04-18T13:23:51Z</time></trkpt><trkpt lat="41.68940594085698" lon="-8.454023096341109"><ele>394.0</ele><time>2026-04-18T13:23:54Z</time></trkpt><trkpt lat="41.689470585252856" lon="-8.454057455573224"><ele>394.0</ele><time>2026-04-18T13:23:56Z</time></trkpt><trkpt lat="41.68954593345798" lon="-8.454084191127015"><ele>394.0</ele><time>2026-04-18T13:23:59Z</time></trkpt><trkpt lat="41.68961114169719" lon="-8.454101736482741"><ele>394.0</ele><time>2026-04-18T13:24:01Z</time></trkpt><trkpt lat="41.68966973858452" lon="-8.454134694816277"><ele>394.0</ele><time>2026-04-18T13:24:03Z</time></trkpt><trkpt lat="41.68975422756627" lon="-8.454161309561893"><ele>396.1666666666667</ele><time>2026-04-18T13:24:05Z</time></trkpt><trkpt lat="41.689838979430384" lon="-8.454188031241902"><ele>398.33333333333337</ele><time>2026-04-18T13:24:07Z</time></trkpt><trkpt lat="41.6899235227748" lon="-8.454239533960362"><ele>400.5</ele><time>2026-04-18T13:24:09Z</time></trkpt><trkpt lat="41.690008252807154" lon="-8.45430190370923"><ele>402.66666666666663</ele><time>2026-04-18T13:24:11Z</time></trkpt><trkpt lat="41.69009156022929" lon="-8.454335181284236"><ele>404.8333333333333</ele><time>2026-04-18T13:24:13Z</time></trkpt><trkpt lat="41.69016317282328" lon="-8.454364160551116"><ele>407.0</ele><time>2026-04-18T13:24:15Z</time></trkpt><trkpt lat="41.69024088267163" lon="-8.454394693987435"><ele>407.99999999999994</ele><time>2026-04-18T13:24:17Z</time></trkpt><trkpt lat="41.690323468796" lon="-8.454416489221021"><ele>409.0</ele><time>2026-04-18T13:24:19Z</time></trkpt><trkpt lat="41.690393080040955" lon="-8.454441527483095"><ele>410.0</ele><time>2026-04-18T13:24:21Z</time></trkpt><trkpt lat="41.6904735969086" lon="-8.454469971023835"><ele>411.0</ele><time>2026-04-18T13:24:23Z</time></trkpt><trkpt lat="41.69057466148467" lon="-8.454529824624528"><ele>411.99999999999994</ele><time>2026-04-18T13:24:25Z</time></trkpt><trkpt lat="41.690655813401065" lon="-8.454575559130998"><ele>413.0</ele><time>2026-04-18T13:24:28Z</time></trkpt><trkpt lat="41.690716001722144" lon="-8.454621803630785"><ele>412.99999999999994</ele><time>2026-04-18T13:24:31Z</time></trkpt><trkpt lat="41.69078938950026" lon="-8.454673638124428"><ele>413.0</ele><time>2026-04-18T13:25:18Z</time></trkpt><trkpt lat="41.69073252549721" lon="-8.454616234210384"><ele>413.0</ele><time>2026-04-18T13:27:52.999Z</time></trkpt><trkpt lat="41.69065433169369" lon="-8.454558050747492"><ele>413.0</ele><time>2026-04-18T13:27:55.999Z</time></trkpt><trkpt lat="41.69055945725936" lon="-8.454514194164537"><ele>412.99999999999994</ele><time>2026-04-18T13:27:57.999Z</time></trkpt><trkpt lat="41.69049459723828" lon="-8.454497369870642"><ele>413.0</ele><time>2026-04-18T13:27:58.999Z</time></trkpt><trkpt lat="41.69042092838441" lon="-8.45447407867806"><ele>411.99999999999994</ele><time>2026-04-18T13:28:00.999Z</time></trkpt><trkpt lat="41.69033663322293" lon="-8.454434721029527"><ele>411.0</ele><time>2026-04-18T13:28:03.999Z</time></trkpt><trkpt lat="41.69026353899979" lon="-8.454413341425536"><ele>410.0</ele><time>2026-04-18T13:28:05.999Z</time></trkpt><trkpt lat="41.69017958101902" lon="-8.45439829386538"><ele>409.0</ele><time>2026-04-18T13:28:07.999Z</time></trkpt><trkpt lat="41.69010613350165" lon="-8.454367049591443"><ele>407.99999999999994</ele><time>2026-04-18T13:28:09.999Z</time></trkpt><trkpt lat="41.69002479652014" lon="-8.454311893694216"><ele>407.0</ele><time>2026-04-18T13:28:11.999Z</time></trkpt><trkpt lat="41.6899535239531" lon="-8.454253102451165"><ele>407.0</ele><time>2026-04-18T13:28:13.999Z</time></trkpt><trkpt lat="41.68984291473514" lon="-8.454197374920298"><ele>407.0</ele><time>2026-04-18T13:28:15.999Z</time></trkpt><trkpt lat="41.689730280739255" lon="-8.454164295869077"><ele>407.0</ele><time>2026-04-18T13:28:17.999Z</time></trkpt><trkpt lat="41.689647251985484" lon="-8.454134394175828"><ele>407.0</ele><time>2026-04-18T13:28:19.999Z</time></trkpt><trkpt lat="41.68956625141615" lon="-8.454086158011648"><ele>407.0</ele><time>2026-04-18T13:28:21.999Z</time></trkpt><trkpt lat="41.68950450675711" lon="-8.454060091363123"><ele>406.99999999999994</ele><time>2026-04-18T13:28:22.999Z</time></trkpt><trkpt lat="41.689433197695124" lon="-8.454028050415832"><ele>407.0</ele><time>2026-04-18T13:28:24.999Z</time></trkpt><trkpt lat="41.68937028727078" lon="-8.453992830276784"><ele>407.0</ele><time>2026-04-18T13:28:28.999Z</time></trkpt><trkpt lat="41.68929621499613" lon="-8.453960648811814"><ele>407.0</ele><time>2026-04-18T13:28:50.999Z</time></trkpt><trkpt lat="41.68922773828149" lon="-8.453944491900025"><ele>406.99999999999994</ele><time>2026-04-18T13:28:52.999Z</time></trkpt><trkpt lat="41.68915822802848" lon="-8.45391673592398"><ele>407.0</ele><time>2026-04-18T13:28:54.999Z</time></trkpt><trkpt lat="41.689070164154884" lon="-8.453901457982655"><ele>406.49999999999994</ele><time>2026-04-18T13:28:56.999Z</time></trkpt><trkpt lat="41.688994335406186" lon="-8.453893761022309"><ele>406.0</ele><time>2026-04-18T13:28:58.999Z</time></trkpt><trkpt lat="41.68889998133455" lon="-8.453831313353202"><ele>405.5</ele><time>2026-04-18T13:29:00.999Z</time></trkpt><trkpt lat="41.68881081321635" lon="-8.453770229404386"><ele>405.0</ele><time>2026-04-18T13:29:02.999Z</time></trkpt><trkpt lat="41.68872194188657" lon="-8.453735849334747"><ele>404.49999999999994</ele><time>2026-04-18T13:29:04.999Z</time></trkpt><trkpt lat="41.68865342627749" lon="-8.453699612316228"><ele>404.0</ele><time>2026-04-18T13:29:07.999Z</time></trkpt><trkpt lat="41.68855812176317" lon="-8.45368418261218"><ele>401.66666666666663</ele><time>2026-04-18T13:29:09.999Z</time></trkpt><trkpt lat="41.68846292194973" lon="-8.453671443525195"><ele>399.3333333333333</ele><time>2026-04-18T13:29:11.999Z</time></trkpt><trkpt lat="41.6883954066078" lon="-8.453661922394762"><ele>397.0</ele><time>2026-04-18T13:29:12.999Z</time></trkpt><trkpt lat="41.688323868277905" lon="-8.453661282928579"><ele>394.66666666666663</ele><time>2026-04-18T13:29:13.999Z</time></trkpt><trkpt lat="41.688255882959844" lon="-8.453661541376153"><ele>392.3333333333333</ele><time>2026-04-18T13:29:14.999Z</time></trkpt><trkpt lat="41.688181223593354" lon="-8.453660719394994"><ele>390.0</ele><time>2026-04-18T13:29:15.999Z</time></trkpt><trkpt lat="41.68805903565078" lon="-8.453642878624288"><ele>390.0</ele><time>2026-04-18T13:29:17.999Z</time></trkpt><trkpt lat="41.68799191300104" lon="-8.453634211172634"><ele>390.0</ele><time>2026-04-18T13:29:18.999Z</time></trkpt><trkpt lat="41.68792345872751" lon="-8.453639114834294"><ele>390.0</ele><time>2026-04-18T13:29:19.999Z</time></trkpt><trkpt lat="41.687824995865746" lon="-8.453633511713635"><ele>390.0</ele><time>2026-04-18T13:29:21.999Z</time></trkpt><trkpt lat="41.68779814753214" lon="-8.453553729259589"><ele>390.0</ele><time>2026-04-18T13:29:23.999Z</time></trkpt><trkpt lat="41.687761093561484" lon="-8.453440883957454"><ele>390.0</ele><time>2026-04-18T13:29:24.999Z</time></trkpt><trkpt lat="41.68772794844932" lon="-8.453368063692576"><ele>388.0</ele><time>2026-04-18T13:29:25.999Z</time></trkpt><trkpt lat="41.68769879930443" lon="-8.453262732710348"><ele>386.0</ele><time>2026-04-18T13:29:27.999Z</time></trkpt><trkpt lat="41.687681317227096" lon="-8.453162906769908"><ele>384.0</ele><time>2026-04-18T13:29:29.999Z</time></trkpt><trkpt lat="41.68767028745332" lon="-8.453070440395743"><ele>382.0</ele><time>2026-04-18T13:29:31.999Z</time></trkpt><trkpt lat="41.687659513507455" lon="-8.452969568823283"><ele>380.0</ele><time>2026-04-18T13:29:33.999Z</time></trkpt><trkpt lat="41.68765164406236" lon="-8.45286568840541"><ele>378.0</ele><time>2026-04-18T13:29:35.999Z</time></trkpt><trkpt lat="41.68764349563688" lon="-8.452750110089013"><ele>378.0</ele><time>2026-04-18T13:29:38.999Z</time></trkpt><trkpt lat="41.68763897073691" lon="-8.452647997188071"><ele>378.0</ele><time>2026-04-18T13:29:40.999Z</time></trkpt><trkpt lat="41.687637957441474" lon="-8.452513100812512"><ele>378.0</ele><time>2026-04-18T13:29:42.999Z</time></trkpt><trkpt lat="41.68765127207675" lon="-8.452378395623185"><ele>378.0</ele><time>2026-04-18T13:29:43.999Z</time></trkpt><trkpt lat="41.68767465333864" lon="-8.45222401680634"><ele>378.0</ele><time>2026-04-18T13:29:44.999Z</time></trkpt><trkpt lat="41.68772203626924" lon="-8.452060252517049"><ele>382.0</ele><time>2026-04-18T13:29:45.999Z</time></trkpt><trkpt lat="41.68778982789128" lon="-8.45188338817922"><ele>386.0</ele><time>2026-04-18T13:29:46.999Z</time></trkpt><trkpt lat="41.68785316118222" lon="-8.451703182011105"><ele>390.0</ele><time>2026-04-18T13:29:47.999Z</time></trkpt><trkpt lat="41.68790724539006" lon="-8.451518573687865"><ele>394.0</ele><time>2026-04-18T13:29:48.999Z</time></trkpt><trkpt lat="41.68794861744401" lon="-8.451359792644716"><ele>392.4</ele><time>2026-04-18T13:29:49.999Z</time></trkpt><trkpt lat="41.687989697857745" lon="-8.451220275805834"><ele>390.79999999999995</ele><time>2026-04-18T13:29:50.999Z</time></trkpt><trkpt lat="41.68802322211997" lon="-8.451103808927877"><ele>389.20000000000005</ele><time>2026-04-18T13:29:51.999Z</time></trkpt><trkpt lat="41.688062681549916" lon="-8.451013561712063"><ele>387.6</ele><time>2026-04-18T13:29:52.999Z</time></trkpt><trkpt lat="41.68811131102086" lon="-8.450927707246302"><ele>386.0</ele><time>2026-04-18T13:29:53.999Z</time></trkpt><trkpt lat="41.688176497258766" lon="-8.450838876964514"><ele>386.0</ele><time>2026-04-18T13:29:54.999Z</time></trkpt><trkpt lat="41.68825615863945" lon="-8.450761862108987"><ele>386.0</ele><time>2026-04-18T13:29:55.999Z</time></trkpt><trkpt lat="41.688340377339976" lon="-8.450691072931708"><ele>386.0</ele><time>2026-04-18T13:29:56.999Z</time></trkpt><trkpt lat="41.68842266166852" lon="-8.450636264916191"><ele>386.0</ele><time>2026-04-18T13:29:57.999Z</time></trkpt><trkpt lat="41.68851126413189" lon="-8.450581439626943"><ele>386.0</ele><time>2026-04-18T13:29:58.999Z</time></trkpt><trkpt lat="41.68859251615861" lon="-8.450531554338387"><ele>388.3333333333333</ele><time>2026-04-18T13:29:59.999Z</time></trkpt><trkpt lat="41.688670170486844" lon="-8.45050315871469"><ele>390.66666666666663</ele><time>2026-04-18T13:30:00.999Z</time></trkpt><trkpt lat="41.68875767185658" lon="-8.45047472083487"><ele>393.0</ele><time>2026-04-18T13:30:01.999Z</time></trkpt><trkpt lat="41.68884352201504" lon="-8.450461962226283"><ele>395.33333333333337</ele><time>2026-04-18T13:30:02.999Z</time></trkpt><trkpt lat="41.68892436546225" lon="-8.4504683024152"><ele>397.6666666666667</ele><time>2026-04-18T13:30:03.999Z</time></trkpt><trkpt lat="41.68899909804624" lon="-8.450490873254443"><ele>400.0</ele><time>2026-04-18T13:30:04.999Z</time></trkpt><trkpt lat="41.68906810680316" lon="-8.450501620773053"><ele>400.00000000000006</ele><time>2026-04-18T13:30:05.999Z</time></trkpt><trkpt lat="41.689143365058634" lon="-8.450513356850186"><ele>400.0</ele><time>2026-04-18T13:30:06.999Z</time></trkpt><trkpt lat="41.68921547189455" lon="-8.450532551187505"><ele>400.0</ele><time>2026-04-18T13:30:07.999Z</time></trkpt><trkpt lat="41.689284161207034" lon="-8.450547383649425"><ele>400.0</ele><time>2026-04-18T13:30:08.999Z</time></trkpt><trkpt lat="41.68936542452333" lon="-8.45056743898897"><ele>400.00000000000006</ele><time>2026-04-18T13:30:09.999Z</time></trkpt><trkpt lat="41.689451816652976" lon="-8.45059805573382"><ele>400.0</ele><time>2026-04-18T13:30:10.999Z</time></trkpt><trkpt lat="41.68953025782375" lon="-8.450634195114903"><ele>401.83333333333337</ele><time>2026-04-18T13:30:11.999Z</time></trkpt><trkpt lat="41.68960149078526" lon="-8.450676685274667"><ele>403.6666666666667</ele><time>2026-04-18T13:30:12.999Z</time></trkpt><trkpt lat="41.6896774982379" lon="-8.450728143944625"><ele>405.5</ele><time>2026-04-18T13:30:13.999Z</time></trkpt><trkpt lat="41.6897482971821" lon="-8.450782006681074"><ele>407.33333333333337</ele><time>2026-04-18T13:30:14.999Z</time></trkpt><trkpt lat="41.68982795154923" lon="-8.450833065801197"><ele>409.1666666666667</ele><time>2026-04-18T13:30:15.999Z</time></trkpt><trkpt lat="41.68991040267238" lon="-8.450864899237665"><ele>411.0</ele><time>2026-04-18T13:30:16.999Z</time></trkpt><trkpt lat="41.69000755150107" lon="-8.450898154531242"><ele>411.0</ele><time>2026-04-18T13:30:17.999Z</time></trkpt><trkpt lat="41.69008528291286" lon="-8.450912547766007"><ele>411.0</ele><time>2026-04-18T13:30:18.999Z</time></trkpt><trkpt lat="41.69015810027587" lon="-8.450931143624622"><ele>411.0</ele><time>2026-04-18T13:30:19.999Z</time></trkpt><trkpt lat="41.69024449496628" lon="-8.450962667529351"><ele>411.0</ele><time>2026-04-18T13:30:20.999Z</time></trkpt><trkpt lat="41.69032271608954" lon="-8.450953031949009"><ele>411.0</ele><time>2026-04-18T13:30:21.999Z</time></trkpt><trkpt lat="41.69039542632645" lon="-8.450919343183728"><ele>411.0</ele><time>2026-04-18T13:30:22.999Z</time></trkpt><trkpt lat="41.69048360096092" lon="-8.450874236040825"><ele>413.8</ele><time>2026-04-18T13:30:23.999Z</time></trkpt><trkpt lat="41.690566904349105" lon="-8.45081663443019"><ele>416.6</ele><time>2026-04-18T13:30:24.999Z</time></trkpt><trkpt lat="41.69065818484131" lon="-8.45074562747837"><ele>419.4</ele><time>2026-04-18T13:30:25.999Z</time></trkpt><trkpt lat="41.69073886784073" lon="-8.450673858998421"><ele>422.2</ele><time>2026-04-18T13:30:26.999Z</time></trkpt><trkpt lat="41.69081957748291" lon="-8.450624447984362"><ele>425.0</ele><time>2026-04-18T13:30:27.999Z</time></trkpt><trkpt lat="41.69089252470367" lon="-8.45059131978138"><ele>424.99999999999994</ele><time>2026-04-18T13:30:28.999Z</time></trkpt><trkpt lat="41.69096799898679" lon="-8.450571568933624"><ele>425.0</ele><time>2026-04-18T13:30:29.999Z</time></trkpt><trkpt lat="41.69105273721707" lon="-8.450556526153893"><ele>425.0</ele><time>2026-04-18T13:30:30.999Z</time></trkpt><trkpt lat="41.691118105535324" lon="-8.45055525044101"><ele>425.0</ele><time>2026-04-18T13:30:31.999Z</time></trkpt><trkpt lat="41.69117601519937" lon="-8.450592118556617"><ele>424.99999999999994</ele><time>2026-04-18T13:30:32.999Z</time></trkpt><trkpt lat="41.691253846452625" lon="-8.450665424497837"><ele>425.0</ele><time>2026-04-18T13:30:33.999Z</time></trkpt><trkpt lat="41.69133363936799" lon="-8.450717670984817"><ele>426.16666666666663</ele><time>2026-04-18T13:30:34.999Z</time></trkpt><trkpt lat="41.69142488770991" lon="-8.450724476876811"><ele>427.3333333333333</ele><time>2026-04-18T13:30:35.999Z</time></trkpt><trkpt lat="41.69151678612653" lon="-8.450716283246665"><ele>428.5</ele><time>2026-04-18T13:30:36.999Z</time></trkpt><trkpt lat="41.691593890392475" lon="-8.450699556394447"><ele>429.66666666666663</ele><time>2026-04-18T13:30:37.999Z</time></trkpt><trkpt lat="41.691657714359685" lon="-8.450682581509302"><ele>430.8333333333333</ele><time>2026-04-18T13:30:38.999Z</time></trkpt><trkpt lat="41.69177046085851" lon="-8.450648222642423"><ele>432.0</ele><time>2026-04-18T13:30:40.999Z</time></trkpt><trkpt lat="41.691863827591106" lon="-8.450637146778039"><ele>433.0</ele><time>2026-04-18T13:30:42.999Z</time></trkpt><trkpt lat="41.69194815550901" lon="-8.450623786508748"><ele>434.0</ele><time>2026-04-18T13:30:44.999Z</time></trkpt><trkpt lat="41.692029224862765" lon="-8.450585582203255"><ele>435.0</ele><time>2026-04-18T13:30:47.999Z</time></trkpt><trkpt lat="41.692101076391616" lon="-8.450554997184842"><ele>436.0</ele><time>2026-04-18T13:30:51.999Z</time></trkpt><trkpt lat="41.69217693003231" lon="-8.45049508041494"><ele>437.0</ele><time>2026-04-18T13:30:55Z</time></trkpt><trkpt lat="41.69224011187372" lon="-8.450458510440308"><ele>438.0</ele><time>2026-04-18T13:30:58Z</time></trkpt><trkpt lat="41.69230426811737" lon="-8.450436502166456"><ele>432.59999999999997</ele><time>2026-04-18T13:31:00Z</time></trkpt><trkpt lat="41.692407398613646" lon="-8.4503841947549"><ele>427.19999999999993</ele><time>2026-04-18T13:31:03Z</time></trkpt><trkpt lat="41.692516024845155" lon="-8.45033614173906"><ele>421.8</ele><time>2026-04-18T13:31:05Z</time></trkpt><trkpt lat="41.692581258266735" lon="-8.450287745585984"><ele>416.4</ele><time>2026-04-18T13:31:06Z</time></trkpt><trkpt lat="41.692653050110216" lon="-8.450220279190965"><ele>411.0</ele><time>2026-04-18T13:31:07Z</time></trkpt><trkpt lat="41.69271630528066" lon="-8.450145460771079"><ele>411.3333333333333</ele><time>2026-04-18T13:31:08Z</time></trkpt><trkpt lat="41.69277508440267" lon="-8.450066175145707"><ele>411.66666666666663</ele><time>2026-04-18T13:31:09Z</time></trkpt><trkpt lat="41.69282953903093" lon="-8.449982914404552"><ele>412.0</ele><time>2026-04-18T13:31:10Z</time></trkpt><trkpt lat="41.692870126583124" lon="-8.449905011464192"><ele>412.3333333333333</ele><time>2026-04-18T13:31:11Z</time></trkpt><trkpt lat="41.69292606437995" lon="-8.44976813745624"><ele>412.66666666666663</ele><time>2026-04-18T13:31:13Z</time></trkpt><trkpt lat="41.692957713812945" lon="-8.449671062053183"><ele>413.0</ele><time>2026-04-18T13:31:14Z</time></trkpt><trkpt lat="41.69298236887287" lon="-8.44957362273859"><ele>412.99999999999994</ele><time>2026-04-18T13:31:15Z</time></trkpt><trkpt lat="41.693026247952595" lon="-8.449442193189098"><ele>413.0</ele><time>2026-04-18T13:31:17Z</time></trkpt><trkpt lat="41.69306131532155" lon="-8.449366187718356"><ele>413.0</ele><time>2026-04-18T13:31:19Z</time></trkpt><trkpt lat="41.69311572137881" lon="-8.449296328128751"><ele>413.0</ele><time>2026-04-18T13:31:23Z</time></trkpt><trkpt lat="41.6931974424548" lon="-8.449286625185024"><ele>412.99999999999994</ele><time>2026-04-18T13:31:49Z</time></trkpt><trkpt lat="41.69328078008684" lon="-8.449327037489832"><ele>413.0</ele><time>2026-04-18T13:31:50Z</time></trkpt><trkpt lat="41.69333934302427" lon="-8.449440280172121"><ele>413.0</ele><time>2026-04-18T13:31:52Z</time></trkpt><trkpt lat="41.69342650826776" lon="-8.44958070321567"><ele>413.0</ele><time>2026-04-18T13:31:54Z</time></trkpt><trkpt lat="41.693483033390365" lon="-8.449641693246088"><ele>413.0</ele><time>2026-04-18T13:31:55Z</time></trkpt><trkpt lat="41.69356299764313" lon="-8.44973656773335"><ele>413.0</ele><time>2026-04-18T13:31:57Z</time></trkpt><trkpt lat="41.693649750324674" lon="-8.449812575047392"><ele>413.0</ele><time>2026-04-18T13:31:59Z</time></trkpt><trkpt lat="41.69376158303246" lon="-8.449912403474382"><ele>415.99999999999994</ele><time>2026-04-18T13:32:01Z</time></trkpt><trkpt lat="41.69381958931106" lon="-8.449962782744223"><ele>419.0</ele><time>2026-04-18T13:32:02Z</time></trkpt><trkpt lat="41.693931216844405" lon="-8.450051002412778"><ele>422.0</ele><time>2026-04-18T13:32:04Z</time></trkpt><trkpt lat="41.69399843218915" lon="-8.450102017522756"><ele>425.0</ele><time>2026-04-18T13:32:05Z</time></trkpt><trkpt lat="41.69405916620764" lon="-8.450140884643174"><ele>427.99999999999994</ele><time>2026-04-18T13:32:06Z</time></trkpt><trkpt lat="41.69412786907328" lon="-8.450166950516687"><ele>431.0</ele><time>2026-04-18T13:32:07Z</time></trkpt><trkpt lat="41.694191898477435" lon="-8.450203228822517"><ele>431.0</ele><time>2026-04-18T13:32:08Z</time></trkpt><trkpt lat="41.69425014182639" lon="-8.450254974563375"><ele>431.0</ele><time>2026-04-18T13:32:09Z</time></trkpt><trkpt lat="41.69430371246464" lon="-8.450305507107876"><ele>431.0</ele><time>2026-04-18T13:32:10Z</time></trkpt><trkpt lat="41.69436094250539" lon="-8.45036898235852"><ele>431.0</ele><time>2026-04-18T13:32:11Z</time></trkpt><trkpt lat="41.69441290740134" lon="-8.450427019277862"><ele>431.0</ele><time>2026-04-18T13:32:12Z</time></trkpt><trkpt lat="41.69447329146667" lon="-8.450472681876526"><ele>431.0</ele><time>2026-04-18T13:32:13Z</time></trkpt><trkpt lat="41.69454833991055" lon="-8.450519517478478"><ele>431.0</ele><time>2026-04-18T13:32:14Z</time></trkpt><trkpt lat="41.694630014561895" lon="-8.45057580815804"><ele>433.49999999999994</ele><time>2026-04-18T13:32:15Z</time></trkpt><trkpt lat="41.69470648906447" lon="-8.450640641369414"><ele>436.0</ele><time>2026-04-18T13:32:16Z</time></trkpt><trkpt lat="41.694765193867184" lon="-8.450690127023417"><ele>438.5</ele><time>2026-04-18T13:32:17Z</time></trkpt><trkpt lat="41.69482795169314" lon="-8.450737478415665"><ele>441.0</ele><time>2026-04-18T13:32:18Z</time></trkpt><trkpt lat="41.69490299488973" lon="-8.450802932354836"><ele>443.49999999999994</ele><time>2026-04-18T13:32:19Z</time></trkpt><trkpt lat="41.69496589823656" lon="-8.450886925706092"><ele>446.0</ele><time>2026-04-18T13:32:20Z</time></trkpt><trkpt lat="41.69501789276954" lon="-8.450989169180728"><ele>445.99999999999994</ele><time>2026-04-18T13:32:21Z</time></trkpt><trkpt lat="41.695061630722186" lon="-8.451096228663177"><ele>446.0</ele><time>2026-04-18T13:32:22Z</time></trkpt><trkpt lat="41.69510206670256" lon="-8.45116791786062"><ele>446.0</ele><time>2026-04-18T13:32:23Z</time></trkpt><trkpt lat="41.69516127986467" lon="-8.451248159226505"><ele>446.0</ele><time>2026-04-18T13:32:24Z</time></trkpt><trkpt lat="41.695226120931395" lon="-8.451318003107625"><ele>445.99999999999994</ele><time>2026-04-18T13:32:25Z</time></trkpt><trkpt lat="41.69529593966109" lon="-8.45138851924168"><ele>446.0</ele><time>2026-04-18T13:32:26Z</time></trkpt><trkpt lat="41.69538897817765" lon="-8.451420028892867"><ele>449.4</ele><time>2026-04-18T13:32:27Z</time></trkpt><trkpt lat="41.69549080315643" lon="-8.451437818792995"><ele>452.8</ele><time>2026-04-18T13:32:28Z</time></trkpt><trkpt lat="41.695586859461606" lon="-8.451457325869429"><ele>456.19999999999993</ele><time>2026-04-18T13:32:29Z</time></trkpt><trkpt lat="41.695679225133475" lon="-8.45146018582821"><ele>459.59999999999997</ele><time>2026-04-18T13:32:30Z</time></trkpt><trkpt lat="41.695762346824566" lon="-8.45146646104398"><ele>463.0</ele><time>2026-04-18T13:32:31Z</time></trkpt><trkpt lat="41.69584693345234" lon="-8.45151167339392"><ele>463.0</ele><time>2026-04-18T13:32:32Z</time></trkpt><trkpt lat="41.695931661526885" lon="-8.451568254472884"><ele>462.99999999999994</ele><time>2026-04-18T13:32:33Z</time></trkpt><trkpt lat="41.696009093835826" lon="-8.451637092959453"><ele>462.99999999999994</ele><time>2026-04-18T13:32:34Z</time></trkpt><trkpt lat="41.69605747642738" lon="-8.451693027786638"><ele>463.0</ele><time>2026-04-18T13:32:35Z</time></trkpt><trkpt lat="41.696108584331" lon="-8.451845571108127"><ele>463.0</ele><time>2026-04-18T13:32:37Z</time></trkpt><trkpt lat="41.69612533699294" lon="-8.452004465961249"><ele>464.79999999999995</ele><time>2026-04-18T13:32:39Z</time></trkpt><trkpt lat="41.69619122920678" lon="-8.45214355666946"><ele>466.59999999999997</ele><time>2026-04-18T13:32:41Z</time></trkpt><trkpt lat="41.69625408754474" lon="-8.45228035872649"><ele>468.40000000000003</ele><time>2026-04-18T13:32:43Z</time></trkpt><trkpt lat="41.6962992653746" lon="-8.45236257241011"><ele>470.20000000000005</ele><time>2026-04-18T13:32:44Z</time></trkpt><trkpt lat="41.69632782011269" lon="-8.452447426267376"><ele>472.0</ele><time>2026-04-18T13:32:45Z</time></trkpt><trkpt lat="41.69635932647595" lon="-8.452574995945524"><ele>472.00000000000006</ele><time>2026-04-18T13:32:47Z</time></trkpt><trkpt lat="41.696384314354866" lon="-8.452659657940991"><ele>472.0</ele><time>2026-04-18T13:32:49Z</time></trkpt><trkpt lat="41.69639226688049" lon="-8.452748581082426"><ele>472.0</ele><time>2026-04-18T13:32:51Z</time></trkpt><trkpt lat="41.69645237866584" lon="-8.4527889151244"><ele>472.0</ele><time>2026-04-18T13:33:31Z</time></trkpt><trkpt lat="41.696563105067106" lon="-8.452754523793173"><ele>472.00000000000006</ele><time>2026-04-18T13:33:34Z</time></trkpt><trkpt lat="41.69663865333154" lon="-8.45271694812631"><ele>472.0</ele><time>2026-04-18T13:33:36Z</time></trkpt><trkpt lat="41.69678145110514" lon="-8.452668274157363"><ele>472.00000000000006</ele><time>2026-04-18T13:33:38Z</time></trkpt><trkpt lat="41.69686681123472" lon="-8.45261694289174"><ele>472.0</ele><time>2026-04-18T13:33:39Z</time></trkpt><trkpt lat="41.696937022987704" lon="-8.4525676355108"><ele>472.0</ele><time>2026-04-18T13:33:40Z</time></trkpt><trkpt lat="41.69698972872876" lon="-8.452519801965934"><ele>472.0</ele><time>2026-04-18T13:33:41Z</time></trkpt><trkpt lat="41.69708178723735" lon="-8.452429391394169"><ele>472.00000000000006</ele><time>2026-04-18T13:33:43Z</time></trkpt><trkpt lat="41.69713875890024" lon="-8.452389286132126"><ele>472.0</ele><time>2026-04-18T13:33:44Z</time></trkpt><trkpt lat="41.6971982705949" lon="-8.452353680541083"><ele>471.50000000000006</ele><time>2026-04-18T13:33:45Z</time></trkpt><trkpt lat="41.69726297516929" lon="-8.452312783859467"><ele>471.0</ele><time>2026-04-18T13:33:46Z</time></trkpt><trkpt lat="41.69732668964409" lon="-8.45226807190851"><ele>470.5</ele><time>2026-04-18T13:33:47Z</time></trkpt><trkpt lat="41.69739813918256" lon="-8.452231011195785"><ele>470.0</ele><time>2026-04-18T13:33:48Z</time></trkpt><trkpt lat="41.69747502229367" lon="-8.452204561835032"><ele>469.50000000000006</ele><time>2026-04-18T13:33:49Z</time></trkpt><trkpt lat="41.69755429274118" lon="-8.452190542065807"><ele>469.0</ele><time>2026-04-18T13:33:50Z</time></trkpt><trkpt lat="41.69764163559574" lon="-8.452174784289888"><ele>469.0</ele><time>2026-04-18T13:33:51Z</time></trkpt><trkpt lat="41.69773243942168" lon="-8.452168094668496"><ele>469.0</ele><time>2026-04-18T13:33:52Z</time></trkpt><trkpt lat="41.697836398168974" lon="-8.452155561694802"><ele>469.0</ele><time>2026-04-18T13:33:53Z</time></trkpt><trkpt lat="41.6979303889627" lon="-8.45215395919112"><ele>469.0</ele><time>2026-04-18T13:33:54Z</time></trkpt><trkpt lat="41.69801557634698" lon="-8.452155088995866"><ele>469.0</ele><time>2026-04-18T13:33:55Z</time></trkpt><trkpt lat="41.69810921603988" lon="-8.452145400577553"><ele>468.79999999999995</ele><time>2026-04-18T13:33:56Z</time></trkpt><trkpt lat="41.69820333705039" lon="-8.452125776653244"><ele>468.59999999999997</ele><time>2026-04-18T13:33:57Z</time></trkpt><trkpt lat="41.69829239850374" lon="-8.452114705227306"><ele>468.4</ele><time>2026-04-18T13:33:58Z</time></trkpt><trkpt lat="41.6983770675194" lon="-8.452103908986604"><ele>468.2</ele><time>2026-04-18T13:33:59Z</time></trkpt><trkpt lat="41.69846463847361" lon="-8.4521027393739"><ele>468.0</ele><time>2026-04-18T13:34:00Z</time></trkpt><trkpt lat="41.698561964513736" lon="-8.452117438603414"><ele>468.0</ele><time>2026-04-18T13:34:01Z</time></trkpt><trkpt lat="41.6986601520209" lon="-8.452124082131169"><ele>468.0</ele><time>2026-04-18T13:34:02Z</time></trkpt><trkpt lat="41.69875485633011" lon="-8.452104557831525"><ele>468.0</ele><time>2026-04-18T13:34:03Z</time></trkpt><trkpt lat="41.69884221927133" lon="-8.45207416456658"><ele>468.0</ele><time>2026-04-18T13:34:04Z</time></trkpt><trkpt lat="41.69890735183915" lon="-8.452030483434212"><ele>468.0</ele><time>2026-04-18T13:34:05Z</time></trkpt><trkpt lat="41.69895624262242" lon="-8.451964904649191"><ele>468.0</ele><time>2026-04-18T13:34:06Z</time></trkpt><trkpt lat="41.69900749798304" lon="-8.451867021130289"><ele>467.79999999999995</ele><time>2026-04-18T13:34:07Z</time></trkpt><trkpt lat="41.69904562394164" lon="-8.45174887242436"><ele>467.59999999999997</ele><time>2026-04-18T13:34:08Z</time></trkpt><trkpt lat="41.69907906117811" lon="-8.451624270755577"><ele>467.40000000000003</ele><time>2026-04-18T13:34:09Z</time></trkpt><trkpt lat="41.699118550496024" lon="-8.451492155272247"><ele>467.20000000000005</ele><time>2026-04-18T13:34:10Z</time></trkpt><trkpt lat="41.69915614138752" lon="-8.451348565777318"><ele>467.0</ele><time>2026-04-18T13:34:11Z</time></trkpt><trkpt lat="41.699194487502254" lon="-8.451205284009975"><ele>467.0</ele><time>2026-04-18T13:34:12Z</time></trkpt><trkpt lat="41.699242875239975" lon="-8.451067014218768"><ele>467.00000000000006</ele><time>2026-04-18T13:34:13Z</time></trkpt><trkpt lat="41.6992809906054" lon="-8.450949447479553"><ele>467.00000000000006</ele><time>2026-04-18T13:34:14Z</time></trkpt><trkpt lat="41.69931953962258" lon="-8.450833376809273"><ele>467.0</ele><time>2026-04-18T13:34:15Z</time></trkpt><trkpt lat="41.69936288972467" lon="-8.450730423102423"><ele>467.0</ele><time>2026-04-18T13:34:16Z</time></trkpt><trkpt lat="41.69941527452211" lon="-8.450610311918597"><ele>468.25</ele><time>2026-04-18T13:34:17Z</time></trkpt><trkpt lat="41.69946387146943" lon="-8.450474719938187"><ele>469.5</ele><time>2026-04-18T13:34:18Z</time></trkpt><trkpt lat="41.69949912831763" lon="-8.450315686104364"><ele>470.75</ele><time>2026-04-18T13:34:19Z</time></trkpt><trkpt lat="41.699537171938445" lon="-8.450158720743309"><ele>472.0</ele><time>2026-04-18T13:34:20Z</time></trkpt><trkpt lat="41.69958119690045" lon="-8.44998535101503"><ele>472.0</ele><time>2026-04-18T13:34:21Z</time></trkpt><trkpt lat="41.69962152654922" lon="-8.44982091811029"><ele>472.00000000000006</ele><time>2026-04-18T13:34:22Z</time></trkpt><trkpt lat="41.69965635427015" lon="-8.449687706785198"><ele>472.00000000000006</ele><time>2026-04-18T13:34:23Z</time></trkpt><trkpt lat="41.69969851245406" lon="-8.449570617719777"><ele>472.0</ele><time>2026-04-18T13:34:24Z</time></trkpt><trkpt lat="41.69972107926644" lon="-8.44946833396471"><ele>472.0</ele><time>2026-04-18T13:34:25Z</time></trkpt><trkpt lat="41.69972545265079" lon="-8.449376871284286"><ele>471.00000000000006</ele><time>2026-04-18T13:34:26Z</time></trkpt><trkpt lat="41.699737890748544" lon="-8.449293739380764"><ele>470.0</ele><time>2026-04-18T13:34:27Z</time></trkpt><trkpt lat="41.699846647435066" lon="-8.449193188315062"><ele>469.0</ele><time>2026-04-18T13:34:29Z</time></trkpt><trkpt lat="41.699921247051336" lon="-8.449148579272174"><ele>468.0</ele><time>2026-04-18T13:34:30Z</time></trkpt><trkpt lat="41.69998932852898" lon="-8.449117304419904"><ele>467.00000000000006</ele><time>2026-04-18T13:34:31Z</time></trkpt><trkpt lat="41.70005343463608" lon="-8.449086894132213"><ele>466.0</ele><time>2026-04-18T13:34:32Z</time></trkpt><trkpt lat="41.7001159307586" lon="-8.449048589350946"><ele>466.00000000000006</ele><time>2026-04-18T13:34:33Z</time></trkpt><trkpt lat="41.700187727342" lon="-8.449014406565"><ele>466.0</ele><time>2026-04-18T13:34:34Z</time></trkpt><trkpt lat="41.70026725540326" lon="-8.449002607805554"><ele>466.0</ele><time>2026-04-18T13:34:35Z</time></trkpt><trkpt lat="41.70034418134155" lon="-8.448993441157935"><ele>466.0</ele><time>2026-04-18T13:34:36Z</time></trkpt><trkpt lat="41.700454308122424" lon="-8.44896205425906"><ele>466.00000000000006</ele><time>2026-04-18T13:34:38Z</time></trkpt><trkpt lat="41.70054261575443" lon="-8.448929813359245"><ele>466.0</ele><time>2026-04-18T13:34:40Z</time></trkpt><trkpt lat="41.700649539948" lon="-8.448890996206334"><ele>467.50000000000006</ele><time>2026-04-18T13:34:42Z</time></trkpt><trkpt lat="41.70076846228495" lon="-8.448860245334522"><ele>469.0</ele><time>2026-04-18T13:34:44Z</time></trkpt><trkpt lat="41.70084133541708" lon="-8.448838182537571"><ele>470.5</ele><time>2026-04-18T13:34:45Z</time></trkpt><trkpt lat="41.700912296436435" lon="-8.448808791367936"><ele>472.0</ele><time>2026-04-18T13:34:46Z</time></trkpt><trkpt lat="41.70098265338277" lon="-8.448780127211817"><ele>473.50000000000006</ele><time>2026-04-18T13:34:47Z</time></trkpt><trkpt lat="41.701046213210006" lon="-8.448764110461438"><ele>475.0</ele><time>2026-04-18T13:34:48Z</time></trkpt><trkpt lat="41.701164673312256" lon="-8.448743598168795"><ele>471.00000000000006</ele><time>2026-04-18T13:34:50Z</time></trkpt><trkpt lat="41.701253184200745" lon="-8.448700036735298"><ele>467.0</ele><time>2026-04-18T13:34:52Z</time></trkpt><trkpt lat="41.70132662319271" lon="-8.448696026131252"><ele>463.0</ele><time>2026-04-18T13:34:54Z</time></trkpt><trkpt lat="41.701419638664156" lon="-8.44868739945021"><ele>459.0</ele><time>2026-04-18T13:34:56Z</time></trkpt><trkpt lat="41.70150398912762" lon="-8.448658350194128"><ele>455.00000000000006</ele><time>2026-04-18T13:34:58Z</time></trkpt><trkpt lat="41.701593862558774" lon="-8.448659813944017"><ele>451.0</ele><time>2026-04-18T13:35:00Z</time></trkpt><trkpt lat="41.701661062532075" lon="-8.44862903558339"><ele>451.00000000000006</ele><time>2026-04-18T13:35:01Z</time></trkpt><trkpt lat="41.70172829594615" lon="-8.448583119688568"><ele>451.0</ele><time>2026-04-18T13:35:02Z</time></trkpt><trkpt lat="41.7017987784465" lon="-8.44855738710545"><ele>451.0</ele><time>2026-04-18T13:35:03Z</time></trkpt><trkpt lat="41.701860601735426" lon="-8.448517909774777"><ele>451.0</ele><time>2026-04-18T13:35:04Z</time></trkpt><trkpt lat="41.70193897760415" lon="-8.448471538941149"><ele>451.00000000000006</ele><time>2026-04-18T13:35:05Z</time></trkpt><trkpt lat="41.70202965004715" lon="-8.448428905845141"><ele>451.0</ele><time>2026-04-18T13:35:06Z</time></trkpt><trkpt lat="41.70212445164562" lon="-8.448392810005384"><ele>452.20000000000005</ele><time>2026-04-18T13:35:07.001Z</time></trkpt><trkpt lat="41.70222934929176" lon="-8.448380015884604"><ele>453.40000000000003</ele><time>2026-04-18T13:35:08.001Z</time></trkpt><trkpt lat="41.70233469306069" lon="-8.448378665973262"><ele>454.6</ele><time>2026-04-18T13:35:09.001Z</time></trkpt><trkpt lat="41.70243694129965" lon="-8.44837763192965"><ele>455.8</ele><time>2026-04-18T13:35:10.001Z</time></trkpt><trkpt lat="41.702523778459884" lon="-8.44838314540489"><ele>457.0</ele><time>2026-04-18T13:35:11.001Z</time></trkpt><trkpt lat="41.702599951009226" lon="-8.448385242761866"><ele>457.00000000000006</ele><time>2026-04-18T13:35:12.001Z</time></trkpt><trkpt lat="41.7026884953448" lon="-8.448364822435824"><ele>457.0</ele><time>2026-04-18T13:35:13.001Z</time></trkpt><trkpt lat="41.702780552439336" lon="-8.448323485330286"><ele>457.0</ele><time>2026-04-18T13:35:14.001Z</time></trkpt><trkpt lat="41.7028634347321" lon="-8.448287059817224"><ele>457.0</ele><time>2026-04-18T13:35:15.001Z</time></trkpt><trkpt lat="41.70294477005627" lon="-8.448263002151197"><ele>457.00000000000006</ele><time>2026-04-18T13:35:16.001Z</time></trkpt><trkpt lat="41.7030234639009" lon="-8.44824942824829"><ele>457.0</ele><time>2026-04-18T13:35:17.001Z</time></trkpt><trkpt lat="41.70310043213334" lon="-8.4482326102889"><ele>457.33333333333337</ele><time>2026-04-18T13:35:18.001Z</time></trkpt><trkpt lat="41.703178533067536" lon="-8.448200002147146"><ele>457.6666666666667</ele><time>2026-04-18T13:35:19.001Z</time></trkpt><trkpt lat="41.703263764743525" lon="-8.448167821901706"><ele>458.0</ele><time>2026-04-18T13:35:20.001Z</time></trkpt><trkpt lat="41.70335163967627" lon="-8.448146196669711"><ele>458.33333333333337</ele><time>2026-04-18T13:35:21.001Z</time></trkpt><trkpt lat="41.703421831136986" lon="-8.448119048307156"><ele>458.6666666666667</ele><time>2026-04-18T13:35:22Z</time></trkpt><trkpt lat="41.70349276044677" lon="-8.448079747823352"><ele>459.0</ele><time>2026-04-18T13:35:23Z</time></trkpt><trkpt lat="41.70355482697989" lon="-8.448052291533056"><ele>459.4</ele><time>2026-04-18T13:35:24Z</time></trkpt><trkpt lat="41.703641208042576" lon="-8.448009236503655"><ele>459.79999999999995</ele><time>2026-04-18T13:35:26Z</time></trkpt><trkpt lat="41.70373003326526" lon="-8.447943772551334"><ele>460.20000000000005</ele><time>2026-04-18T13:35:28Z</time></trkpt><trkpt lat="41.7037774153942" lon="-8.447886420979486"><ele>460.6</ele><time>2026-04-18T13:35:29Z</time></trkpt><trkpt lat="41.70387468160707" lon="-8.447767680073268"><ele>461.0</ele><time>2026-04-18T13:35:31Z</time></trkpt><trkpt lat="41.70396869874065" lon="-8.44767582265275"><ele>460.99999999999994</ele><time>2026-04-18T13:35:33Z</time></trkpt><trkpt lat="41.7040524598976" lon="-8.447591307784103"><ele>461.0</ele><time>2026-04-18T13:35:35Z</time></trkpt><trkpt lat="41.70412950851446" lon="-8.447485001996188"><ele>461.0</ele><time>2026-04-18T13:35:37Z</time></trkpt><trkpt lat="41.70417302673758" lon="-8.44741483254403"><ele>461.0</ele><time>2026-04-18T13:35:38Z</time></trkpt><trkpt lat="41.70420971706584" lon="-8.447334594089002"><ele>460.99999999999994</ele><time>2026-04-18T13:35:39Z</time></trkpt><trkpt lat="41.704244737668134" lon="-8.44723849414904"><ele>461.0</ele><time>2026-04-18T13:35:40Z</time></trkpt><trkpt lat="41.70428045025471" lon="-8.447116097801157"><ele>461.16666666666663</ele><time>2026-04-18T13:35:42Z</time></trkpt><trkpt lat="41.704288050774984" lon="-8.447002437706312"><ele>461.3333333333333</ele><time>2026-04-18T13:35:44Z</time></trkpt><trkpt lat="41.70429521995489" lon="-8.446865606005048"><ele>461.5</ele><time>2026-04-18T13:35:46Z</time></trkpt><trkpt lat="41.70429151155225" lon="-8.446770277504516"><ele>461.66666666666663</ele><time>2026-04-18T13:35:48Z</time></trkpt><trkpt lat="41.70428346903538" lon="-8.446652928162278"><ele>461.8333333333333</ele><time>2026-04-18T13:35:50Z</time></trkpt><trkpt lat="41.70429151651941" lon="-8.446546654481061"><ele>462.0</ele><time>2026-04-18T13:35:52Z</time></trkpt><trkpt lat="41.70428205250615" lon="-8.446461171318946"><ele>462.0</ele><time>2026-04-18T13:35:54Z</time></trkpt><trkpt lat="41.70428690918359" lon="-8.446352788623125"><ele>462.0</ele><time>2026-04-18T13:35:56Z</time></trkpt><trkpt lat="41.704305875272034" lon="-8.446248165365457"><ele>462.0</ele><time>2026-04-18T13:35:58Z</time></trkpt><trkpt lat="41.70432493466596" lon="-8.446143229616647"><ele>462.0</ele><time>2026-04-18T13:36:00Z</time></trkpt><trkpt lat="41.70434799961933" lon="-8.44602834658636"><ele>462.0</ele><time>2026-04-18T13:36:02Z</time></trkpt><trkpt lat="41.70437719017907" lon="-8.445912274248169"><ele>462.0</ele><time>2026-04-18T13:36:04Z</time></trkpt><trkpt lat="41.70441578620611" lon="-8.445792497346341"><ele>462.0</ele><time>2026-04-18T13:36:06Z</time></trkpt><trkpt lat="41.704461865225234" lon="-8.445677005345486"><ele>462.00000000000006</ele><time>2026-04-18T13:36:08Z</time></trkpt><trkpt lat="41.704509681096596" lon="-8.445523057888549"><ele>462.00000000000006</ele><time>2026-04-18T13:36:10Z</time></trkpt><trkpt lat="41.70453248812739" lon="-8.445434406859487"><ele>462.0</ele><time>2026-04-18T13:36:11Z</time></trkpt><trkpt lat="41.704546342338574" lon="-8.445344526677282"><ele>462.0</ele><time>2026-04-18T13:36:12Z</time></trkpt><trkpt lat="41.704575854217865" lon="-8.44517917846962"><ele>462.0</ele><time>2026-04-18T13:36:14Z</time></trkpt><trkpt lat="41.70459316647388" lon="-8.4450273296898"><ele>462.00000000000006</ele><time>2026-04-18T13:36:16Z</time></trkpt><trkpt lat="41.7046054033092" lon="-8.44486860613377"><ele>462.00000000000006</ele><time>2026-04-18T13:36:18Z</time></trkpt><trkpt lat="41.70460744041618" lon="-8.444700639210687"><ele>462.0</ele><time>2026-04-18T13:36:20Z</time></trkpt><trkpt lat="41.70460750440729" lon="-8.444606174767468"><ele>462.0</ele><time>2026-04-18T13:36:21Z</time></trkpt><trkpt lat="41.70460375666767" lon="-8.444511274344606"><ele>459.40000000000003</ele><time>2026-04-18T13:36:22Z</time></trkpt><trkpt lat="41.7045925607995" lon="-8.444425762713287"><ele>456.80000000000007</ele><time>2026-04-18T13:36:23Z</time></trkpt><trkpt lat="41.70457239663937" lon="-8.444269189747843"><ele>454.2</ele><time>2026-04-18T13:36:25Z</time></trkpt><trkpt lat="41.70457493865097" lon="-8.444138682585905"><ele>451.6</ele><time>2026-04-18T13:36:27Z</time></trkpt><trkpt lat="41.704616318291365" lon="-8.444031484677858"><ele>449.0</ele><time>2026-04-18T13:36:29Z</time></trkpt><trkpt lat="41.704701293231736" lon="-8.443921884930809"><ele>448.99999999999994</ele><time>2026-04-18T13:36:31Z</time></trkpt><trkpt lat="41.70475575067442" lon="-8.443870644063352"><ele>449.0</ele><time>2026-04-18T13:36:32Z</time></trkpt><trkpt lat="41.70482407975577" lon="-8.443815636751799"><ele>449.0</ele><time>2026-04-18T13:36:33Z</time></trkpt><trkpt lat="41.704898765508524" lon="-8.443776004066319"><ele>449.0</ele><time>2026-04-18T13:36:34Z</time></trkpt><trkpt lat="41.704976284835006" lon="-8.443740164180683"><ele>448.99999999999994</ele><time>2026-04-18T13:36:35Z</time></trkpt><trkpt lat="41.705049413838104" lon="-8.443711703781638"><ele>449.0</ele><time>2026-04-18T13:36:36Z</time></trkpt><trkpt lat="41.70512269475022" lon="-8.443685076290276"><ele>447.16666666666663</ele><time>2026-04-18T13:36:37Z</time></trkpt><trkpt lat="41.70519187388758" lon="-8.443657664211708"><ele>445.3333333333333</ele><time>2026-04-18T13:36:38Z</time></trkpt><trkpt lat="41.705261465257074" lon="-8.443630173708414"><ele>443.5</ele><time>2026-04-18T13:36:39Z</time></trkpt><trkpt lat="41.70532987037732" lon="-8.443589156112544"><ele>441.66666666666663</ele><time>2026-04-18T13:36:40Z</time></trkpt><trkpt lat="41.705403786214504" lon="-8.443536942826439"><ele>439.8333333333333</ele><time>2026-04-18T13:36:41Z</time></trkpt><trkpt lat="41.70547633924018" lon="-8.4434680788997"><ele>438.0</ele><time>2026-04-18T13:36:42Z</time></trkpt><trkpt lat="41.7055409640966" lon="-8.44338997169852"><ele>438.0</ele><time>2026-04-18T13:36:43Z</time></trkpt><trkpt lat="41.70559315451382" lon="-8.443314310969852"><ele>438.0</ele><time>2026-04-18T13:36:44Z</time></trkpt><trkpt lat="41.70564134014528" lon="-8.443239535811621"><ele>438.0</ele><time>2026-04-18T13:36:45Z</time></trkpt><trkpt lat="41.70568851853207" lon="-8.443179290879932"><ele>438.0</ele><time>2026-04-18T13:36:46Z</time></trkpt><trkpt lat="41.70574756962894" lon="-8.443133271719857"><ele>438.0</ele><time>2026-04-18T13:36:48Z</time></trkpt><trkpt lat="41.705820259780715" lon="-8.443090689621387"><ele>438.0</ele><time>2026-04-18T13:36:50Z</time></trkpt><trkpt lat="41.70593140504279" lon="-8.44305112184716"><ele>438.0</ele><time>2026-04-18T13:36:52Z</time></trkpt><trkpt lat="41.7060352280969" lon="-8.4430509655088"><ele>438.0</ele><time>2026-04-18T13:36:54Z</time></trkpt><trkpt lat="41.70610133420003" lon="-8.443061728063281"><ele>438.0</ele><time>2026-04-18T13:36:55Z</time></trkpt><trkpt lat="41.70616624457123" lon="-8.443068935036557"><ele>438.0</ele><time>2026-04-18T13:36:56Z</time></trkpt><trkpt lat="41.70623568148089" lon="-8.443068709620967"><ele>438.0</ele><time>2026-04-18T13:36:57Z</time></trkpt><trkpt lat="41.70629829863752" lon="-8.443056585196768"><ele>438.0</ele><time>2026-04-18T13:36:58Z</time></trkpt><trkpt lat="41.70636622498127" lon="-8.443030760421653"><ele>438.0</ele><time>2026-04-18T13:36:59Z</time></trkpt><trkpt lat="41.70644941609765" lon="-8.442995672831174"><ele>434.5</ele><time>2026-04-18T13:37:00Z</time></trkpt><trkpt lat="41.70654616878739" lon="-8.442938283835124"><ele>431.0</ele><time>2026-04-18T13:37:01Z</time></trkpt><trkpt lat="41.70662357980424" lon="-8.44288553150987"><ele>427.5</ele><time>2026-04-18T13:37:02Z</time></trkpt><trkpt lat="41.70669615202231" lon="-8.442836431949848"><ele>424.0</ele><time>2026-04-18T13:37:03Z</time></trkpt><trkpt lat="41.70676035395203" lon="-8.44280993322293"><ele>420.5</ele><time>2026-04-18T13:37:04Z</time></trkpt><trkpt lat="41.70682166743713" lon="-8.442777353233224"><ele>417.0</ele><time>2026-04-18T13:37:05Z</time></trkpt><trkpt lat="41.70687875396401" lon="-8.442737594839747"><ele>419.40000000000003</ele><time>2026-04-18T13:37:06Z</time></trkpt><trkpt lat="41.70697855783614" lon="-8.442674140889274"><ele>421.8</ele><time>2026-04-18T13:37:08Z</time></trkpt><trkpt lat="41.70707988364049" lon="-8.442597830828195"><ele>424.2</ele><time>2026-04-18T13:37:10Z</time></trkpt><trkpt lat="41.70714368908487" lon="-8.442550027342131"><ele>426.6</ele><time>2026-04-18T13:37:11Z</time></trkpt><trkpt lat="41.70721642196856" lon="-8.44249726603039"><ele>429.0</ele><time>2026-04-18T13:37:12Z</time></trkpt><trkpt lat="41.70728875092098" lon="-8.442447716999927"><ele>429.0</ele><time>2026-04-18T13:37:13.001Z</time></trkpt><trkpt lat="41.7073568864809" lon="-8.442389888880045"><ele>429.0</ele><time>2026-04-18T13:37:14.001Z</time></trkpt><trkpt lat="41.70741617027479" lon="-8.442340629603343"><ele>429.0</ele><time>2026-04-18T13:37:15.001Z</time></trkpt><trkpt lat="41.7074761965675" lon="-8.44229629079702"><ele>429.0</ele><time>2026-04-18T13:37:16.001Z</time></trkpt><trkpt lat="41.70754515398864" lon="-8.442245553444916"><ele>429.0</ele><time>2026-04-18T13:37:17.001Z</time></trkpt><trkpt lat="41.707611240816036" lon="-8.44219051195137"><ele>429.0</ele><time>2026-04-18T13:37:18.001Z</time></trkpt><trkpt lat="41.70772120173283" lon="-8.442112612325776"><ele>426.2</ele><time>2026-04-18T13:37:20.001Z</time></trkpt><trkpt lat="41.70782006597146" lon="-8.442049557545479"><ele>423.4</ele><time>2026-04-18T13:37:22.001Z</time></trkpt><trkpt lat="41.70788115597941" lon="-8.44201706235634"><ele>420.6</ele><time>2026-04-18T13:37:23.001Z</time></trkpt><trkpt lat="41.707981426852726" lon="-8.441962092186337"><ele>417.8</ele><time>2026-04-18T13:37:25Z</time></trkpt><trkpt lat="41.70806645829239" lon="-8.441926156712212"><ele>415.0</ele><time>2026-04-18T13:37:27Z</time></trkpt><trkpt lat="41.70814754103045" lon="-8.441890752495992"><ele>415.0</ele><time>2026-04-18T13:37:29Z</time></trkpt><trkpt lat="41.70823527539612" lon="-8.44182921232076"><ele>415.0</ele><time>2026-04-18T13:37:31Z</time></trkpt><trkpt lat="41.70833624193964" lon="-8.441770734247394"><ele>415.0</ele><time>2026-04-18T13:37:33Z</time></trkpt><trkpt lat="41.70843544940625" lon="-8.441748486807096"><ele>415.0</ele><time>2026-04-18T13:37:35Z</time></trkpt><trkpt lat="41.70852382088128" lon="-8.441730870719752"><ele>415.0</ele><time>2026-04-18T13:37:37Z</time></trkpt><trkpt lat="41.7085870765303" lon="-8.44171706454658"><ele>417.00000000000006</ele><time>2026-04-18T13:37:38Z</time></trkpt><trkpt lat="41.70865670379806" lon="-8.441692978991858"><ele>419.0</ele><time>2026-04-18T13:37:39Z</time></trkpt><trkpt lat="41.70872525196025" lon="-8.441666086063568"><ele>421.0</ele><time>2026-04-18T13:37:40Z</time></trkpt><trkpt lat="41.70879739409443" lon="-8.441635140298585"><ele>423.0</ele><time>2026-04-18T13:37:41Z</time></trkpt><trkpt lat="41.70887010021709" lon="-8.441598182830486"><ele>425.00000000000006</ele><time>2026-04-18T13:37:42Z</time></trkpt><trkpt lat="41.70896951437408" lon="-8.441533174701156"><ele>427.0</ele><time>2026-04-18T13:37:44Z</time></trkpt><trkpt lat="41.709081935245806" lon="-8.441494853381712"><ele>427.00000000000006</ele><time>2026-04-18T13:37:46Z</time></trkpt><trkpt lat="41.70914924543866" lon="-8.441473191584702"><ele>427.0</ele><time>2026-04-18T13:37:47Z</time></trkpt><trkpt lat="41.70921656583392" lon="-8.441451850989678"><ele>427.0</ele><time>2026-04-18T13:37:48Z</time></trkpt><trkpt lat="41.70932881600452" lon="-8.441407652499274"><ele>427.0</ele><time>2026-04-18T13:37:50Z</time></trkpt><trkpt lat="41.709390069601845" lon="-8.441377739980716"><ele>427.00000000000006</ele><time>2026-04-18T13:37:51Z</time></trkpt><trkpt lat="41.70946239862202" lon="-8.441345167453637"><ele>427.0</ele><time>2026-04-18T13:37:52Z</time></trkpt><trkpt lat="41.70954937085229" lon="-8.441322479544146"><ele>427.14285714285717</ele><time>2026-04-18T13:37:53Z</time></trkpt><trkpt lat="41.70962699037721" lon="-8.4413189924306"><ele>427.2857142857143</ele><time>2026-04-18T13:37:54Z</time></trkpt><trkpt lat="41.709697167226125" lon="-8.441331695805763"><ele>427.42857142857144</ele><time>2026-04-18T13:37:55Z</time></trkpt><trkpt lat="41.70977061216273" lon="-8.441349380567214"><ele>427.57142857142856</ele><time>2026-04-18T13:37:56Z</time></trkpt><trkpt lat="41.709833140157464" lon="-8.441368279385573"><ele>427.7142857142857</ele><time>2026-04-18T13:37:57Z</time></trkpt><trkpt lat="41.70989366226632" lon="-8.44140259857999"><ele>427.8571428571429</ele><time>2026-04-18T13:37:58Z</time></trkpt><trkpt lat="41.70995378316487" lon="-8.441445993362468"><ele>428.0</ele><time>2026-04-18T13:37:59Z</time></trkpt><trkpt lat="41.71002231239962" lon="-8.441506558599034"><ele>427.99999999999994</ele><time>2026-04-18T13:38:00Z</time></trkpt><trkpt lat="41.71008330138486" lon="-8.441563670594922"><ele>428.0</ele><time>2026-04-18T13:38:01Z</time></trkpt><trkpt lat="41.710156000439866" lon="-8.44163913950369"><ele>428.0</ele><time>2026-04-18T13:38:02Z</time></trkpt><trkpt lat="41.710231916471514" lon="-8.441728620343403"><ele>428.0</ele><time>2026-04-18T13:38:03Z</time></trkpt><trkpt lat="41.71028993755013" lon="-8.441795134227872"><ele>427.99999999999994</ele><time>2026-04-18T13:38:04Z</time></trkpt><trkpt lat="41.71035961688893" lon="-8.44187729203767"><ele>428.0</ele><time>2026-04-18T13:38:05Z</time></trkpt><trkpt lat="41.7104262435855" lon="-8.441957538822983"><ele>428.16666666666663</ele><time>2026-04-18T13:38:06Z</time></trkpt><trkpt lat="41.710499659677524" lon="-8.442026674380841"><ele>428.3333333333333</ele><time>2026-04-18T13:38:07Z</time></trkpt><trkpt lat="41.710568008263124" lon="-8.44209136800468"><ele>428.5</ele><time>2026-04-18T13:38:08Z</time></trkpt><trkpt lat="41.71064460855682" lon="-8.442154976567483"><ele>428.66666666666663</ele><time>2026-04-18T13:38:09Z</time></trkpt><trkpt lat="41.7107310049727" lon="-8.442203440742725"><ele>428.8333333333333</ele><time>2026-04-18T13:38:11Z</time></trkpt><trkpt lat="41.71079322229949" lon="-8.442249739144184"><ele>429.0</ele><time>2026-04-18T13:38:13Z</time></trkpt><trkpt lat="41.71085382646358" lon="-8.442272583643053"><ele>429.0</ele><time>2026-04-18T13:38:15Z</time></trkpt><trkpt lat="41.71092541111303" lon="-8.442273998062447"><ele>429.0</ele><time>2026-04-18T13:38:19Z</time></trkpt><trkpt lat="41.71098369958145" lon="-8.442324714896646"><ele>429.0</ele><time>2026-04-18T13:38:22Z</time></trkpt><trkpt lat="41.7110672322275" lon="-8.442354470443073"><ele>429.0</ele><time>2026-04-18T13:38:24Z</time></trkpt><trkpt lat="41.71117895265161" lon="-8.442346352593773"><ele>429.0</ele><time>2026-04-18T13:38:26Z</time></trkpt><trkpt lat="41.71124462342498" lon="-8.442340560359959"><ele>429.0</ele><time>2026-04-18T13:38:27Z</time></trkpt><trkpt lat="41.711314835919005" lon="-8.442334638556444"><ele>429.14285714285717</ele><time>2026-04-18T13:38:28Z</time></trkpt><trkpt lat="41.71138573888302" lon="-8.442353094919898"><ele>429.28571428571433</ele><time>2026-04-18T13:38:29Z</time></trkpt><trkpt lat="41.711451800558294" lon="-8.442362898621624"><ele>429.42857142857144</ele><time>2026-04-18T13:38:30Z</time></trkpt><trkpt lat="41.711519660290975" lon="-8.442357543429834"><ele>429.57142857142856</ele><time>2026-04-18T13:38:31Z</time></trkpt><trkpt lat="41.711595052413735" lon="-8.442333206090298"><ele>429.7142857142857</ele><time>2026-04-18T13:38:32Z</time></trkpt><trkpt lat="41.711660101375024" lon="-8.442279488745335"><ele>429.85714285714283</ele><time>2026-04-18T13:38:33Z</time></trkpt><trkpt lat="41.71171883117526" lon="-8.442217396911182"><ele>430.0</ele><time>2026-04-18T13:38:34Z</time></trkpt><trkpt lat="41.71179478776578" lon="-8.442171983022194"><ele>430.0</ele><time>2026-04-18T13:38:35Z</time></trkpt><trkpt lat="41.711873611225705" lon="-8.44216815492557"><ele>430.0</ele><time>2026-04-18T13:38:36Z</time></trkpt><trkpt lat="41.71196873840534" lon="-8.44218632146533"><ele>430.0</ele><time>2026-04-18T13:38:37Z</time></trkpt><trkpt lat="41.71206338708367" lon="-8.442210833619326"><ele>430.0</ele><time>2026-04-18T13:38:38Z</time></trkpt><trkpt lat="41.71215516358643" lon="-8.442234494722541"><ele>430.0</ele><time>2026-04-18T13:38:39Z</time></trkpt><trkpt lat="41.71224857891224" lon="-8.44226019425886"><ele>431.50000000000006</ele><time>2026-04-18T13:38:40Z</time></trkpt><trkpt lat="41.712329069930135" lon="-8.44230209780982"><ele>433.0</ele><time>2026-04-18T13:38:41Z</time></trkpt><trkpt lat="41.712402674924235" lon="-8.442357459386356"><ele>434.5</ele><time>2026-04-18T13:38:42Z</time></trkpt><trkpt lat="41.71245979211349" lon="-8.442438133564112"><ele>436.0</ele><time>2026-04-18T13:38:43Z</time></trkpt><trkpt lat="41.71250184797214" lon="-8.442533421661247"><ele>437.50000000000006</ele><time>2026-04-18T13:38:44Z</time></trkpt><trkpt lat="41.71253737577794" lon="-8.442635366405707"><ele>439.0</ele><time>2026-04-18T13:38:45Z</time></trkpt><trkpt lat="41.71258830911808" lon="-8.44273042385371"><ele>439.0</ele><time>2026-04-18T13:38:46Z</time></trkpt><trkpt lat="41.71264868730406" lon="-8.44280953696748"><ele>439.0</ele><time>2026-04-18T13:38:47Z</time></trkpt><trkpt lat="41.712716556038195" lon="-8.442883415593574"><ele>439.0</ele><time>2026-04-18T13:38:48Z</time></trkpt><trkpt lat="41.712790394282486" lon="-8.442946339130494"><ele>439.0</ele><time>2026-04-18T13:38:49Z</time></trkpt><trkpt lat="41.712857738460436" lon="-8.442992260657297"><ele>439.0</ele><time>2026-04-18T13:38:50Z</time></trkpt><trkpt lat="41.71296826558074" lon="-8.443055118639222"><ele>437.75</ele><time>2026-04-18T13:38:52Z</time></trkpt><trkpt lat="41.71310768583688" lon="-8.443067068147872"><ele>436.5</ele><time>2026-04-18T13:38:54Z</time></trkpt><trkpt lat="41.71320245833509" lon="-8.44306190800909"><ele>435.25</ele><time>2026-04-18T13:38:55Z</time></trkpt><trkpt lat="41.71330736923856" lon="-8.443044948179447"><ele>434.0</ele><time>2026-04-18T13:38:56Z</time></trkpt><trkpt lat="41.71342499418501" lon="-8.443019645078753"><ele>434.0</ele><time>2026-04-18T13:38:57Z</time></trkpt><trkpt lat="41.71356335387739" lon="-8.443006698431939"><ele>434.0</ele><time>2026-04-18T13:38:58Z</time></trkpt><trkpt lat="41.71369717316073" lon="-8.44301318261984"><ele>434.0</ele><time>2026-04-18T13:38:59Z</time></trkpt><trkpt lat="41.71383444129686" lon="-8.443042816916552"><ele>434.0</ele><time>2026-04-18T13:39:00Z</time></trkpt><trkpt lat="41.71396027891545" lon="-8.443064681967773"><ele>434.4</ele><time>2026-04-18T13:39:01Z</time></trkpt><trkpt lat="41.71407662277357" lon="-8.443081744810097"><ele>434.79999999999995</ele><time>2026-04-18T13:39:02Z</time></trkpt><trkpt lat="41.71417570714002" lon="-8.44310438391264"><ele>435.20000000000005</ele><time>2026-04-18T13:39:03Z</time></trkpt><trkpt lat="41.714271791089445" lon="-8.44312661864025"><ele>435.6</ele><time>2026-04-18T13:39:04Z</time></trkpt><trkpt lat="41.71435757989377" lon="-8.443139814613414"><ele>436.0</ele><time>2026-04-18T13:39:05Z</time></trkpt><trkpt lat="41.71442340787901" lon="-8.443140917558031"><ele>436.0</ele><time>2026-04-18T13:39:06Z</time></trkpt><trkpt lat="41.71448982416166" lon="-8.443130769904245"><ele>436.0</ele><time>2026-04-18T13:39:07Z</time></trkpt><trkpt lat="41.714600630730914" lon="-8.443041307812093"><ele>436.0</ele><time>2026-04-18T13:39:09Z</time></trkpt><trkpt lat="41.71467237771859" lon="-8.442970753781047"><ele>436.0</ele><time>2026-04-18T13:39:10Z</time></trkpt><trkpt lat="41.714757346798365" lon="-8.442892353011521"><ele>436.0</ele><time>2026-04-18T13:39:11Z</time></trkpt><trkpt lat="41.714834507919" lon="-8.442821893044464"><ele>437.1666666666667</ele><time>2026-04-18T13:39:12Z</time></trkpt><trkpt lat="41.71491690032175" lon="-8.442765872148035"><ele>438.33333333333337</ele><time>2026-04-18T13:39:13Z</time></trkpt><trkpt lat="41.71501406604098" lon="-8.442743921332477"><ele>439.5</ele><time>2026-04-18T13:39:14Z</time></trkpt><trkpt lat="41.715106785593136" lon="-8.44274945697165"><ele>440.66666666666663</ele><time>2026-04-18T13:39:15Z</time></trkpt><trkpt lat="41.71518508092594" lon="-8.442749126275782"><ele>441.8333333333333</ele><time>2026-04-18T13:39:16Z</time></trkpt><trkpt lat="41.715252772145575" lon="-8.442760097880065"><ele>443.0</ele><time>2026-04-18T13:39:17Z</time></trkpt><trkpt lat="41.715366430621955" lon="-8.442774084497051"><ele>443.0</ele><time>2026-04-18T13:39:19Z</time></trkpt><trkpt lat="41.71548030372956" lon="-8.442771178633157"><ele>442.99999999999994</ele><time>2026-04-18T13:39:21Z</time></trkpt><trkpt lat="41.715562978723405" lon="-8.442766984980455"><ele>442.99999999999994</ele><time>2026-04-18T13:39:23Z</time></trkpt><trkpt lat="41.715660997075204" lon="-8.44279777797799"><ele>443.0</ele><time>2026-04-18T13:39:25Z</time></trkpt><trkpt lat="41.715749242840936" lon="-8.442833741945659"><ele>443.0</ele><time>2026-04-18T13:39:27Z</time></trkpt><trkpt lat="41.715838657986474" lon="-8.442886829780694"><ele>442.3333333333333</ele><time>2026-04-18T13:39:29Z</time></trkpt><trkpt lat="41.715898628598445" lon="-8.442968874140696"><ele>441.66666666666663</ele><time>2026-04-18T13:39:32Z</time></trkpt><trkpt lat="41.71587297395444" lon="-8.44304921225831"><ele>441.0</ele><time>2026-04-18T13:39:34Z</time></trkpt><trkpt lat="41.71576285403476" lon="-8.44307700353335"><ele>440.33333333333337</ele><time>2026-04-18T13:39:36Z</time></trkpt><trkpt lat="41.7156808558811" lon="-8.443115225043785"><ele>439.6666666666667</ele><time>2026-04-18T13:39:38Z</time></trkpt><trkpt lat="41.715584882186995" lon="-8.443133861363426"><ele>439.0</ele><time>2026-04-18T13:39:40Z</time></trkpt><trkpt lat="41.71551166670683" lon="-8.44310520019498"><ele>439.0</ele><time>2026-04-18T13:39:43Z</time></trkpt><trkpt lat="41.715436410934714" lon="-8.44308449387354"><ele>439.0</ele><time>2026-04-18T13:39:46Z</time></trkpt><trkpt lat="41.71536938412313" lon="-8.443075630640811"><ele>439.0</ele><time>2026-04-18T13:40:09Z</time></trkpt><trkpt lat="41.71532542289196" lon="-8.443154650043109"><ele>439.0</ele><time>2026-04-18T13:40:56.999Z</time></trkpt><trkpt lat="41.71537986286404" lon="-8.443106911433091"><ele>439.0</ele><time>2026-04-18T13:42:06.999Z</time></trkpt><trkpt lat="41.715454933831666" lon="-8.443099565818455"><ele>439.0</ele><time>2026-04-18T13:44:06.999Z</time></trkpt><trkpt lat="41.71551172996793" lon="-8.4431439494754"><ele>439.0</ele><time>2026-04-18T13:44:12.999Z</time></trkpt><trkpt lat="41.715585740460675" lon="-8.44317703007463"><ele>439.0</ele><time>2026-04-18T13:44:19.999Z</time></trkpt><trkpt lat="41.71564633110683" lon="-8.44320504529001"><ele>439.0</ele><time>2026-04-18T13:44:31.999Z</time></trkpt><trkpt lat="41.71556964372218" lon="-8.443224784382974"><ele>439.0</ele><time>2026-04-18T13:45:24.999Z</time></trkpt><trkpt lat="41.71563751200127" lon="-8.443228123227437"><ele>439.0</ele><time>2026-04-18T13:47:58Z</time></trkpt><trkpt lat="41.715569095461355" lon="-8.443179688824047"><ele>439.0</ele><time>2026-04-18T13:48:54Z</time></trkpt><trkpt lat="41.71550935325478" lon="-8.443141436533946"><ele>439.0</ele><time>2026-04-18T13:49:01Z</time></trkpt><trkpt lat="41.71546179679503" lon="-8.443081849218851"><ele>439.0</ele><time>2026-04-18T13:49:39.001Z</time></trkpt><trkpt lat="41.715382476651456" lon="-8.443042523244056"><ele>439.6666666666667</ele><time>2026-04-18T13:50:39Z</time></trkpt><trkpt lat="41.71536470018847" lon="-8.44294309204853"><ele>440.33333333333337</ele><time>2026-04-18T13:50:41Z</time></trkpt><trkpt lat="41.715410197942205" lon="-8.44283712053819"><ele>441.0</ele><time>2026-04-18T13:50:57.001Z</time></trkpt><trkpt lat="41.7155030220413" lon="-8.442778121945686"><ele>441.66666666666663</ele><time>2026-04-18T13:50:59.001Z</time></trkpt><trkpt lat="41.71558456940548" lon="-8.442789560056976"><ele>442.3333333333333</ele><time>2026-04-18T13:51:00.001Z</time></trkpt><trkpt lat="41.71566831505387" lon="-8.442815590209529"><ele>443.0</ele><time>2026-04-18T13:51:01.001Z</time></trkpt><trkpt lat="41.71575107301965" lon="-8.442844457034871"><ele>443.0</ele><time>2026-04-18T13:51:02.001Z</time></trkpt><trkpt lat="41.71585018769236" lon="-8.442903218309306"><ele>443.0</ele><time>2026-04-18T13:51:03.001Z</time></trkpt><trkpt lat="41.71595612042093" lon="-8.442997215563407"><ele>443.0</ele><time>2026-04-18T13:51:04.001Z</time></trkpt><trkpt lat="41.71607070252327" lon="-8.443132567074658"><ele>443.0</ele><time>2026-04-18T13:51:05.001Z</time></trkpt><trkpt lat="41.716186412724404" lon="-8.44327105857555"><ele>443.0</ele><time>2026-04-18T13:51:06.001Z</time></trkpt><trkpt lat="41.71630609315795" lon="-8.443411999043544"><ele>443.0</ele><time>2026-04-18T13:51:07.001Z</time></trkpt><trkpt lat="41.71642314618444" lon="-8.443544892641635"><ele>443.0</ele><time>2026-04-18T13:51:08.001Z</time></trkpt><trkpt lat="41.71654544173871" lon="-8.443666609648275"><ele>443.0</ele><time>2026-04-18T13:51:09.001Z</time></trkpt><trkpt lat="41.71666256032556" lon="-8.443793709598971"><ele>443.0</ele><time>2026-04-18T13:51:10.001Z</time></trkpt><trkpt lat="41.71676998810678" lon="-8.443903379879995"><ele>443.0</ele><time>2026-04-18T13:51:11.001Z</time></trkpt><trkpt lat="41.71687210027062" lon="-8.443987054956303"><ele>443.0</ele><time>2026-04-18T13:51:12.001Z</time></trkpt><trkpt lat="41.716977696631176" lon="-8.44405941789212"><ele>442.66666666666663</ele><time>2026-04-18T13:51:13.001Z</time></trkpt><trkpt lat="41.717069306299656" lon="-8.444108844524882"><ele>442.3333333333333</ele><time>2026-04-18T13:51:14.001Z</time></trkpt><trkpt lat="41.71715213538958" lon="-8.444145762764617"><ele>442.0</ele><time>2026-04-18T13:51:15.001Z</time></trkpt><trkpt lat="41.71722261262601" lon="-8.444188645717187"><ele>441.66666666666663</ele><time>2026-04-18T13:51:16.001Z</time></trkpt><trkpt lat="41.717276321506375" lon="-8.444236521614094"><ele>441.3333333333333</ele><time>2026-04-18T13:51:17.001Z</time></trkpt><trkpt lat="41.71735700606667" lon="-8.44432140850147"><ele>441.0</ele><time>2026-04-18T13:51:19.001Z</time></trkpt><trkpt lat="41.7174129075148" lon="-8.444377789218096"><ele>441.0</ele><time>2026-04-18T13:51:22.001Z</time></trkpt><trkpt lat="41.717469459413046" lon="-8.444419130256367"><ele>441.0</ele><time>2026-04-18T13:51:26.001Z</time></trkpt><trkpt lat="41.71750032289388" lon="-8.444494963587951"><ele>441.0</ele><time>2026-04-18T13:51:27.001Z</time></trkpt><trkpt lat="41.71753956003587" lon="-8.444629526132161"><ele>441.0</ele><time>2026-04-18T13:51:29.001Z</time></trkpt><trkpt lat="41.71755861293294" lon="-8.44471578476519"><ele>441.0</ele><time>2026-04-18T13:51:30.001Z</time></trkpt><trkpt lat="41.71758477855708" lon="-8.444868741596178"><ele>441.0</ele><time>2026-04-18T13:51:32.001Z</time></trkpt><trkpt lat="41.71759977124963" lon="-8.444967945830285"><ele>440.8</ele><time>2026-04-18T13:51:33.001Z</time></trkpt><trkpt lat="41.71760782791782" lon="-8.445085454795045"><ele>440.6</ele><time>2026-04-18T13:51:34.001Z</time></trkpt><trkpt lat="41.717596109757636" lon="-8.445196128831512"><ele>440.4</ele><time>2026-04-18T13:51:35.001Z</time></trkpt><trkpt lat="41.71757612777914" lon="-8.445292521111393"><ele>440.2</ele><time>2026-04-18T13:51:36.001Z</time></trkpt><trkpt lat="41.71753009923396" lon="-8.445401317459236"><ele>440.0</ele><time>2026-04-18T13:51:37.001Z</time></trkpt><trkpt lat="41.7174717552674" lon="-8.445528520273538"><ele>441.4</ele><time>2026-04-18T13:51:38.001Z</time></trkpt><trkpt lat="41.71743684446587" lon="-8.445656229098502"><ele>442.8</ele><time>2026-04-18T13:51:39.001Z</time></trkpt><trkpt lat="41.71742265662069" lon="-8.445785497602282"><ele>444.20000000000005</ele><time>2026-04-18T13:51:40.001Z</time></trkpt><trkpt lat="41.71742015500507" lon="-8.445922792709137"><ele>445.6</ele><time>2026-04-18T13:51:41.001Z</time></trkpt><trkpt lat="41.71742290397368" lon="-8.446054806160781"><ele>447.0</ele><time>2026-04-18T13:51:42.001Z</time></trkpt><trkpt lat="41.717415518753015" lon="-8.44616062998784"><ele>447.20000000000005</ele><time>2026-04-18T13:51:43.001Z</time></trkpt><trkpt lat="41.71742529796465" lon="-8.446300439033934"><ele>447.40000000000003</ele><time>2026-04-18T13:51:44.001Z</time></trkpt><trkpt lat="41.71743238911714" lon="-8.446417096020433"><ele>447.59999999999997</ele><time>2026-04-18T13:51:45.001Z</time></trkpt><trkpt lat="41.717468803635576" lon="-8.446518662060518"><ele>447.79999999999995</ele><time>2026-04-18T13:51:46.001Z</time></trkpt><trkpt lat="41.71753551687789" lon="-8.4466140079143"><ele>448.0</ele><time>2026-04-18T13:51:47.001Z</time></trkpt><trkpt lat="41.71762718431724" lon="-8.44669331389753"><ele>448.0</ele><time>2026-04-18T13:51:48.001Z</time></trkpt><trkpt lat="41.71770781699723" lon="-8.446737847199188"><ele>447.99999999999994</ele><time>2026-04-18T13:51:49.001Z</time></trkpt><trkpt lat="41.717810214493525" lon="-8.446814180928031"><ele>447.99999999999994</ele><time>2026-04-18T13:51:51.001Z</time></trkpt><trkpt lat="41.71790710671909" lon="-8.446888851360184"><ele>448.0</ele><time>2026-04-18T13:51:53.001Z</time></trkpt><trkpt lat="41.71800598911929" lon="-8.446947342777964"><ele>448.0</ele><time>2026-04-18T13:51:55.001Z</time></trkpt><trkpt lat="41.71807758106091" lon="-8.447007231399239"><ele>448.59999999999997</ele><time>2026-04-18T13:51:57.001Z</time></trkpt><trkpt lat="41.718160210941996" lon="-8.447094750893818"><ele>449.19999999999993</ele><time>2026-04-18T13:51:59.001Z</time></trkpt><trkpt lat="41.7182565811659" lon="-8.447180784757881"><ele>449.8</ele><time>2026-04-18T13:52:01.001Z</time></trkpt><trkpt lat="41.718325667869074" lon="-8.447276034757484"><ele>450.4</ele><time>2026-04-18T13:52:03.001Z</time></trkpt><trkpt lat="41.71841046819844" lon="-8.447403581770843"><ele>451.0</ele><time>2026-04-18T13:52:05.001Z</time></trkpt><trkpt lat="41.718498319803494" lon="-8.447490013235804"><ele>453.0</ele><time>2026-04-18T13:52:07.001Z</time></trkpt><trkpt lat="41.718577809083534" lon="-8.447531792799824"><ele>455.0</ele><time>2026-04-18T13:52:09.001Z</time></trkpt><trkpt lat="41.71864969958915" lon="-8.447542885338663"><ele>457.0</ele><time>2026-04-18T13:52:11.001Z</time></trkpt><trkpt lat="41.71874443518628" lon="-8.447541398282791"><ele>459.0</ele><time>2026-04-18T13:52:13.001Z</time></trkpt><trkpt lat="41.7188359239568" lon="-8.447507762707376"><ele>461.0</ele><time>2026-04-18T13:52:15.001Z</time></trkpt><trkpt lat="41.718960844873784" lon="-8.4474789014525"><ele>460.99999999999994</ele><time>2026-04-18T13:52:17.001Z</time></trkpt><trkpt lat="41.71903503608595" lon="-8.447470893057936"><ele>461.0</ele><time>2026-04-18T13:52:18.001Z</time></trkpt><trkpt lat="41.719107337767944" lon="-8.447470466647873"><ele>461.0</ele><time>2026-04-18T13:52:19.001Z</time></trkpt><trkpt lat="41.71922693564089" lon="-8.447554350465541"><ele>461.0</ele><time>2026-04-18T13:52:21.001Z</time></trkpt><trkpt lat="41.71927193794062" lon="-8.447621551603874"><ele>460.99999999999994</ele><time>2026-04-18T13:52:22.001Z</time></trkpt><trkpt lat="41.71929208683254" lon="-8.447701827070803"><ele>461.0</ele><time>2026-04-18T13:52:23.001Z</time></trkpt><trkpt lat="41.71929157406386" lon="-8.44780146014167"><ele>460.99999999999994</ele><time>2026-04-18T13:52:24.001Z</time></trkpt><trkpt lat="41.7192797305424" lon="-8.447914436199047"><ele>461.0</ele><time>2026-04-18T13:52:25.001Z</time></trkpt><trkpt lat="41.71924759458203" lon="-8.448016261425364"><ele>461.0</ele><time>2026-04-18T13:52:26.001Z</time></trkpt><trkpt lat="41.71920114918891" lon="-8.44811290796167"><ele>461.0</ele><time>2026-04-18T13:52:27.001Z</time></trkpt><trkpt lat="41.71915273298629" lon="-8.44819572758624"><ele>460.99999999999994</ele><time>2026-04-18T13:52:28.001Z</time></trkpt><trkpt lat="41.71909537721578" lon="-8.448273771600018"><ele>461.0</ele><time>2026-04-18T13:52:29.001Z</time></trkpt><trkpt lat="41.71902390771037" lon="-8.44834384062542"><ele>461.20000000000005</ele><time>2026-04-18T13:52:30.001Z</time></trkpt><trkpt lat="41.71894813946594" lon="-8.448426181792124"><ele>461.40000000000003</ele><time>2026-04-18T13:52:31.001Z</time></trkpt><trkpt lat="41.7188576089823" lon="-8.448497664910999"><ele>461.6</ele><time>2026-04-18T13:52:32.001Z</time></trkpt><trkpt lat="41.718781399664344" lon="-8.448580531012821"><ele>461.8</ele><time>2026-04-18T13:52:33.001Z</time></trkpt><trkpt lat="41.7187122463859" lon="-8.448685119960192"><ele>462.0</ele><time>2026-04-18T13:52:34.001Z</time></trkpt><trkpt lat="41.718656690522124" lon="-8.448797403883729"><ele>462.0</ele><time>2026-04-18T13:52:35.001Z</time></trkpt><trkpt lat="41.71861290592138" lon="-8.448901817951404"><ele>462.00000000000006</ele><time>2026-04-18T13:52:36.001Z</time></trkpt><trkpt lat="41.718555435240845" lon="-8.449005753692573"><ele>462.00000000000006</ele><time>2026-04-18T13:52:37.001Z</time></trkpt><trkpt lat="41.718511508968945" lon="-8.44910819112061"><ele>462.0</ele><time>2026-04-18T13:52:38.001Z</time></trkpt><trkpt lat="41.718461738545464" lon="-8.449204785467648"><ele>462.0</ele><time>2026-04-18T13:52:39.001Z</time></trkpt><trkpt lat="41.718408500476045" lon="-8.449320009966959"><ele>462.0</ele><time>2026-04-18T13:52:40.001Z</time></trkpt><trkpt lat="41.718356052295306" lon="-8.44942185570923"><ele>462.0</ele><time>2026-04-18T13:52:41.001Z</time></trkpt><trkpt lat="41.71832507763324" lon="-8.449536015983842"><ele>462.0</ele><time>2026-04-18T13:52:42.001Z</time></trkpt><trkpt lat="41.71831118982121" lon="-8.449665321124828"><ele>462.0</ele><time>2026-04-18T13:52:43.001Z</time></trkpt><trkpt lat="41.71830568316757" lon="-8.449772301773693"><ele>462.0</ele><time>2026-04-18T13:52:44.001Z</time></trkpt><trkpt lat="41.718277331441506" lon="-8.449878318588183"><ele>462.0</ele><time>2026-04-18T13:52:45.001Z</time></trkpt><trkpt lat="41.718233504683" lon="-8.44996758576938"><ele>463.1666666666667</ele><time>2026-04-18T13:52:46.001Z</time></trkpt><trkpt lat="41.718188055420455" lon="-8.450034637298923"><ele>464.33333333333337</ele><time>2026-04-18T13:52:47.001Z</time></trkpt><trkpt lat="41.71812003131708" lon="-8.450117509197957"><ele>465.5</ele><time>2026-04-18T13:52:48.001Z</time></trkpt><trkpt lat="41.71804550506451" lon="-8.450197021452347"><ele>466.6666666666667</ele><time>2026-04-18T13:52:49.001Z</time></trkpt><trkpt lat="41.717969366333584" lon="-8.450279610920504"><ele>467.83333333333337</ele><time>2026-04-18T13:52:50.001Z</time></trkpt><trkpt lat="41.71791249770434" lon="-8.450373962509731"><ele>469.0</ele><time>2026-04-18T13:52:51.001Z</time></trkpt><trkpt lat="41.71786290677805" lon="-8.450446794174422"><ele>470.0</ele><time>2026-04-18T13:52:52.001Z</time></trkpt><trkpt lat="41.71780197876579" lon="-8.450492157606513"><ele>471.0</ele><time>2026-04-18T13:52:53.001Z</time></trkpt><trkpt lat="41.71772782393076" lon="-8.450503508726655"><ele>472.0</ele><time>2026-04-18T13:52:54.001Z</time></trkpt><trkpt lat="41.7176437744803" lon="-8.45048558360927"><ele>473.0</ele><time>2026-04-18T13:52:55.001Z</time></trkpt><trkpt lat="41.7175657838863" lon="-8.450472073070264"><ele>474.0</ele><time>2026-04-18T13:52:56.001Z</time></trkpt><trkpt lat="41.71749817876855" lon="-8.450479824779412"><ele>475.0</ele><time>2026-04-18T13:52:57.001Z</time></trkpt><trkpt lat="41.717438316889165" lon="-8.450533059405524"><ele>476.0</ele><time>2026-04-18T13:52:58.001Z</time></trkpt><trkpt lat="41.71739661787318" lon="-8.450623565261367"><ele>473.42857142857144</ele><time>2026-04-18T13:52:59.001Z</time></trkpt><trkpt lat="41.71736738189588" lon="-8.450705200029423"><ele>470.8571428571429</ele><time>2026-04-18T13:53:00.001Z</time></trkpt><trkpt lat="41.71733731304302" lon="-8.450791906278242"><ele>468.2857142857143</ele><time>2026-04-18T13:53:01.001Z</time></trkpt><trkpt lat="41.71729525949758" lon="-8.450872226617278"><ele>465.7142857142857</ele><time>2026-04-18T13:53:02.001Z</time></trkpt><trkpt lat="41.71726013565179" lon="-8.450951358264595"><ele>463.14285714285717</ele><time>2026-04-18T13:53:03.001Z</time></trkpt><trkpt lat="41.71722816272233" lon="-8.45108015611221"><ele>460.57142857142856</ele><time>2026-04-18T13:53:05.001Z</time></trkpt><trkpt lat="41.71723587051348" lon="-8.4511669676129"><ele>458.0</ele><time>2026-04-18T13:53:07.001Z</time></trkpt><trkpt lat="41.717302700029194" lon="-8.451229211545401"><ele>457.99999999999994</ele><time>2026-04-18T13:53:09.001Z</time></trkpt><trkpt lat="41.717389377671466" lon="-8.451250935417725"><ele>458.0</ele><time>2026-04-18T13:53:11.001Z</time></trkpt><trkpt lat="41.7174542982452" lon="-8.451273874967212"><ele>458.0</ele><time>2026-04-18T13:53:12.001Z</time></trkpt><trkpt lat="41.717525187650864" lon="-8.451348505798078"><ele>458.0</ele><time>2026-04-18T13:53:14.001Z</time></trkpt><trkpt lat="41.71754853578342" lon="-8.451498540378845"><ele>457.99999999999994</ele><time>2026-04-18T13:53:16.001Z</time></trkpt><trkpt lat="41.717553728444045" lon="-8.451605565480923"><ele>458.0</ele><time>2026-04-18T13:53:17.001Z</time></trkpt><trkpt lat="41.71754563582871" lon="-8.451696099412398"><ele>458.25</ele><time>2026-04-18T13:53:18.001Z</time></trkpt><trkpt lat="41.717548893072106" lon="-8.451791097921461"><ele>458.5</ele><time>2026-04-18T13:53:19.001Z</time></trkpt><trkpt lat="41.71754686242965" lon="-8.451963575531861"><ele>458.75</ele><time>2026-04-18T13:53:21.001Z</time></trkpt><trkpt lat="41.717552431226245" lon="-8.452136739011573"><ele>459.0</ele><time>2026-04-18T13:53:23.001Z</time></trkpt><trkpt lat="41.71756868445417" lon="-8.452303840278237"><ele>459.0</ele><time>2026-04-18T13:53:25.001Z</time></trkpt><trkpt lat="41.71758438165164" lon="-8.45239640545802"><ele>459.0</ele><time>2026-04-18T13:53:26.001Z</time></trkpt><trkpt lat="41.71760066219221" lon="-8.452478910969969"><ele>459.0</ele><time>2026-04-18T13:53:27.001Z</time></trkpt><trkpt lat="41.7176138146656" lon="-8.452563870023354"><ele>459.0</ele><time>2026-04-18T13:53:28.001Z</time></trkpt><trkpt lat="41.7176472807422" lon="-8.452696319508316"><ele>459.0</ele><time>2026-04-18T13:53:30.001Z</time></trkpt><trkpt lat="41.7176785905952" lon="-8.452770157943009"><ele>459.0</ele><time>2026-04-18T13:53:31.001Z</time></trkpt><trkpt lat="41.71775396966814" lon="-8.452857429890088"><ele>463.6</ele><time>2026-04-18T13:53:33.001Z</time></trkpt><trkpt lat="41.71785794511799" lon="-8.452894831908678"><ele>468.2</ele><time>2026-04-18T13:53:35.001Z</time></trkpt><trkpt lat="41.71797932206464" lon="-8.452902823215194"><ele>472.80000000000007</ele><time>2026-04-18T13:53:37.001Z</time></trkpt><trkpt lat="41.71805374742085" lon="-8.452883091503503"><ele>477.40000000000003</ele><time>2026-04-18T13:53:39.001Z</time></trkpt><trkpt lat="41.718147877331" lon="-8.452872115581416"><ele>482.0</ele><time>2026-04-18T13:53:41.001Z</time></trkpt><trkpt lat="41.718238786154195" lon="-8.45283622427668"><ele>482.0</ele><time>2026-04-18T13:53:43.001Z</time></trkpt><trkpt lat="41.718343832652806" lon="-8.452810471892894"><ele>482.00000000000006</ele><time>2026-04-18T13:53:45.001Z</time></trkpt><trkpt lat="41.71845501674331" lon="-8.45279944168086"><ele>482.00000000000006</ele><time>2026-04-18T13:53:47.001Z</time></trkpt><trkpt lat="41.71853259988872" lon="-8.452801880194892"><ele>482.0</ele><time>2026-04-18T13:53:49.001Z</time></trkpt><trkpt lat="41.71864188365352" lon="-8.452821530582332"><ele>482.0</ele><time>2026-04-18T13:53:51.001Z</time></trkpt><trkpt lat="41.71874344196142" lon="-8.452861356995895"><ele>484.0</ele><time>2026-04-18T13:53:53.001Z</time></trkpt><trkpt lat="41.71881648480713" lon="-8.452904195754423"><ele>486.00000000000006</ele><time>2026-04-18T13:53:55.001Z</time></trkpt><trkpt lat="41.718918532322434" lon="-8.452931477228383"><ele>488.00000000000006</ele><time>2026-04-18T13:53:57.001Z</time></trkpt><trkpt lat="41.71902900874793" lon="-8.453013047068966"><ele>490.0</ele><time>2026-04-18T13:53:59.001Z</time></trkpt><trkpt lat="41.719100079224425" lon="-8.453107811026626"><ele>492.0</ele><time>2026-04-18T13:54:01.002Z</time></trkpt><trkpt lat="41.71916214940583" lon="-8.453202705722562"><ele>492.0</ele><time>2026-04-18T13:54:03.002Z</time></trkpt><trkpt lat="41.71919884703254" lon="-8.453283211001203"><ele>492.0</ele><time>2026-04-18T13:54:04.002Z</time></trkpt><trkpt lat="41.71921419833384" lon="-8.453369964525365"><ele>492.0</ele><time>2026-04-18T13:54:05.002Z</time></trkpt><trkpt lat="41.71920480211788" lon="-8.453513906229317"><ele>492.0</ele><time>2026-04-18T13:54:07.002Z</time></trkpt><trkpt lat="41.71917625811585" lon="-8.453617917249412"><ele>492.0</ele><time>2026-04-18T13:54:08.002Z</time></trkpt><trkpt lat="41.71914178186127" lon="-8.45373250484969"><ele>492.0</ele><time>2026-04-18T13:54:09.002Z</time></trkpt><trkpt lat="41.719132311703646" lon="-8.453826881543968"><ele>493.1666666666667</ele><time>2026-04-18T13:54:10.002Z</time></trkpt><trkpt lat="41.719129860409" lon="-8.453914157460622"><ele>494.33333333333337</ele><time>2026-04-18T13:54:11.002Z</time></trkpt><trkpt lat="41.719130852202895" lon="-8.454004780418112"><ele>495.5</ele><time>2026-04-18T13:54:12.002Z</time></trkpt><trkpt lat="41.71915066631363" lon="-8.454100017294513"><ele>496.6666666666667</ele><time>2026-04-18T13:54:13.001Z</time></trkpt><trkpt lat="41.7191682091539" lon="-8.454218303678447"><ele>497.83333333333337</ele><time>2026-04-18T13:54:14.001Z</time></trkpt><trkpt lat="41.71917933760608" lon="-8.454340884487026"><ele>499.0</ele><time>2026-04-18T13:54:15.001Z</time></trkpt><trkpt lat="41.71919485417361" lon="-8.4544282931584"><ele>499.00000000000006</ele><time>2026-04-18T13:54:16.001Z</time></trkpt><trkpt lat="41.71920920199049" lon="-8.45453174644623"><ele>499.0</ele><time>2026-04-18T13:54:17.001Z</time></trkpt><trkpt lat="41.719200376661" lon="-8.454641908574215"><ele>499.0</ele><time>2026-04-18T13:54:18.001Z</time></trkpt><trkpt lat="41.719180527181386" lon="-8.454748208398225"><ele>499.0</ele><time>2026-04-18T13:54:19.001Z</time></trkpt><trkpt lat="41.719164920351496" lon="-8.454858231880879"><ele>499.00000000000006</ele><time>2026-04-18T13:54:20.001Z</time></trkpt><trkpt lat="41.7191523003086" lon="-8.454976421786736"><ele>499.0</ele><time>2026-04-18T13:54:21.001Z</time></trkpt><trkpt lat="41.71914070687084" lon="-8.455085854075902"><ele>501.4</ele><time>2026-04-18T13:54:22.001Z</time></trkpt><trkpt lat="41.71913452893497" lon="-8.45525584303561"><ele>503.79999999999995</ele><time>2026-04-18T13:54:24.001Z</time></trkpt><trkpt lat="41.71912858828578" lon="-8.455395853046012"><ele>506.20000000000005</ele><time>2026-04-18T13:54:26.001Z</time></trkpt><trkpt lat="41.719169735296546" lon="-8.455489139138542"><ele>508.6</ele><time>2026-04-18T13:54:28.001Z</time></trkpt><trkpt lat="41.719229146031964" lon="-8.455594515424313"><ele>511.0</ele><time>2026-04-18T13:54:30.001Z</time></trkpt><trkpt lat="41.71929827523742" lon="-8.455701038583411"><ele>511.6666666666667</ele><time>2026-04-18T13:54:32.001Z</time></trkpt><trkpt lat="41.71934417420405" lon="-8.45576432881548"><ele>512.3333333333334</ele><time>2026-04-18T13:54:33.001Z</time></trkpt><trkpt lat="41.719417500634194" lon="-8.455859240716611"><ele>513.0</ele><time>2026-04-18T13:54:35.001Z</time></trkpt><trkpt lat="41.71951088617492" lon="-8.455959824829284"><ele>513.6666666666666</ele><time>2026-04-18T13:54:37.001Z</time></trkpt><trkpt lat="41.719568776370174" lon="-8.456016544381601"><ele>514.3333333333333</ele><time>2026-04-18T13:54:38.001Z</time></trkpt><trkpt lat="41.71962862160687" lon="-8.456081182126807"><ele>515.0</ele><time>2026-04-18T13:54:39.001Z</time></trkpt><trkpt lat="41.719703434559264" lon="-8.45614389285353"><ele>518.6666666666666</ele><time>2026-04-18T13:54:40.001Z</time></trkpt><trkpt lat="41.71977695954761" lon="-8.456204017286398"><ele>522.3333333333333</ele><time>2026-04-18T13:54:41.001Z</time></trkpt><trkpt lat="41.71984073160479" lon="-8.456264627015925"><ele>526.0</ele><time>2026-04-18T13:54:42.001Z</time></trkpt><trkpt lat="41.71989943167092" lon="-8.456324741278555"><ele>529.6666666666666</ele><time>2026-04-18T13:54:43.001Z</time></trkpt><trkpt lat="41.71995150820099" lon="-8.456382557825878"><ele>533.3333333333334</ele><time>2026-04-18T13:54:44.001Z</time></trkpt><trkpt lat="41.720017341143325" lon="-8.456452366147108"><ele>537.0</ele><time>2026-04-18T13:54:46.001Z</time></trkpt><trkpt lat="41.72002232211918" lon="-8.456547794038606"><ele>537.0</ele><time>2026-04-18T13:54:50.001Z</time></trkpt><trkpt lat="41.72010332804901" lon="-8.456531570645298"><ele>537.0</ele><time>2026-04-18T13:55:06.001Z</time></trkpt><trkpt lat="41.720164670425454" lon="-8.456586690154985"><ele>537.0</ele><time>2026-04-18T13:55:08.001Z</time></trkpt><trkpt lat="41.7202197436578" lon="-8.456656613160082"><ele>537.0</ele><time>2026-04-18T13:55:10.001Z</time></trkpt><trkpt lat="41.720275795071" lon="-8.45672660992899"><ele>537.0</ele><time>2026-04-18T13:55:12.001Z</time></trkpt><trkpt lat="41.720336860892594" lon="-8.456827002728522"><ele>537.0</ele><time>2026-04-18T13:55:14.001Z</time></trkpt><trkpt lat="41.72040578684362" lon="-8.456918084940018"><ele>538.2</ele><time>2026-04-18T13:55:16.001Z</time></trkpt><trkpt lat="41.72047092349075" lon="-8.457013211290231"><ele>539.4000000000001</ele><time>2026-04-18T13:55:18.001Z</time></trkpt><trkpt lat="41.72055706068652" lon="-8.4570833290366"><ele>540.5999999999999</ele><time>2026-04-18T13:55:20.001Z</time></trkpt><trkpt lat="41.720615631960065" lon="-8.457172347497849"><ele>541.8</ele><time>2026-04-18T13:55:22.001Z</time></trkpt><trkpt lat="41.72065890090583" lon="-8.457270978037593"><ele>543.0</ele><time>2026-04-18T13:55:24.001Z</time></trkpt><trkpt lat="41.72068047191793" lon="-8.457385012920879"><ele>543.0</ele><time>2026-04-18T13:55:26.001Z</time></trkpt><trkpt lat="41.720686231673156" lon="-8.457478688970099"><ele>543.0</ele><time>2026-04-18T13:55:28.001Z</time></trkpt><trkpt lat="41.72066946719443" lon="-8.457600698505578"><ele>543.0</ele><time>2026-04-18T13:55:31.001Z</time></trkpt><trkpt lat="41.720658840201516" lon="-8.457729811934602"><ele>543.0</ele><time>2026-04-18T13:55:34.001Z</time></trkpt><trkpt lat="41.72064021750122" lon="-8.457810835162743"><ele>543.0</ele><time>2026-04-18T13:55:36.001Z</time></trkpt><trkpt lat="41.72061867985269" lon="-8.457901470326451"><ele>543.0</ele><time>2026-04-18T13:55:38.001Z</time></trkpt><trkpt lat="41.72061258196391" lon="-8.457987142385324"><ele>540.8571428571429</ele><time>2026-04-18T13:55:40.001Z</time></trkpt><trkpt lat="41.72062513235554" lon="-8.458073311440968"><ele>538.7142857142857</ele><time>2026-04-18T13:55:42.001Z</time></trkpt><trkpt lat="41.720637694895586" lon="-8.458156705425711"><ele>536.5714285714286</ele><time>2026-04-18T13:55:44.001Z</time></trkpt><trkpt lat="41.720657040840564" lon="-8.458245766891498"><ele>534.4285714285714</ele><time>2026-04-18T13:55:46.001Z</time></trkpt><trkpt lat="41.72065863209167" lon="-8.458346692705494"><ele>532.2857142857143</ele><time>2026-04-18T13:55:48.001Z</time></trkpt><trkpt lat="41.720664208535695" lon="-8.45843563172585"><ele>530.1428571428571</ele><time>2026-04-18T13:55:50.001Z</time></trkpt><trkpt lat="41.720671162224335" lon="-8.458529317735433"><ele>528.0</ele><time>2026-04-18T13:55:52.001Z</time></trkpt><trkpt lat="41.720696332091535" lon="-8.458619672319909"><ele>528.0</ele><time>2026-04-18T13:55:55.001Z</time></trkpt><trkpt lat="41.72070022927882" lon="-8.458730452493972"><ele>528.0</ele><time>2026-04-18T13:55:58.001Z</time></trkpt><trkpt lat="41.720696810117715" lon="-8.458821352518717"><ele>528.0</ele><time>2026-04-18T13:56:01.001Z</time></trkpt><trkpt lat="41.72067753089369" lon="-8.458919644667409"><ele>528.0</ele><time>2026-04-18T13:56:04.001Z</time></trkpt><trkpt lat="41.72065572049525" lon="-8.45900838926319"><ele>528.0</ele><time>2026-04-18T13:56:07.002Z</time></trkpt><trkpt lat="41.72062086443552" lon="-8.459100901560491"><ele>528.0</ele><time>2026-04-18T13:56:10.002Z</time></trkpt><trkpt lat="41.720590551176244" lon="-8.45931411748339"><ele>525.1999999999999</ele><time>2026-04-18T13:57:52.001Z</time></trkpt><trkpt lat="41.72056724100819" lon="-8.45942790424761"><ele>522.4</ele><time>2026-04-18T13:57:55.001Z</time></trkpt><trkpt lat="41.72055278578473" lon="-8.459560886733275"><ele>519.5999999999999</ele><time>2026-04-18T13:57:57.001Z</time></trkpt><trkpt lat="41.720548364857805" lon="-8.459653377770602"><ele>516.8</ele><time>2026-04-18T13:57:58.001Z</time></trkpt><trkpt lat="41.720538028856986" lon="-8.459811536571374"><ele>514.0</ele><time>2026-04-18T13:58:00.001Z</time></trkpt><trkpt lat="41.72048984213922" lon="-8.45993576415134"><ele>512.0</ele><time>2026-04-18T13:58:02.001Z</time></trkpt><trkpt lat="41.72036433481566" lon="-8.46001477431453"><ele>510.0</ele><time>2026-04-18T13:58:04.001Z</time></trkpt><trkpt lat="41.72030287502614" lon="-8.46007834569092"><ele>508.0</ele><time>2026-04-18T13:58:05.001Z</time></trkpt><trkpt lat="41.720239887098664" lon="-8.460154818022975"><ele>506.0</ele><time>2026-04-18T13:58:06.001Z</time></trkpt><trkpt lat="41.720183641156424" lon="-8.460215741710359"><ele>504.0</ele><time>2026-04-18T13:58:07.001Z</time></trkpt><trkpt lat="41.72008415902867" lon="-8.460301535146403"><ele>502.4</ele><time>2026-04-18T13:58:09.001Z</time></trkpt><trkpt lat="41.71998502043646" lon="-8.460351942654654"><ele>500.79999999999995</ele><time>2026-04-18T13:58:11.001Z</time></trkpt><trkpt lat="41.71987604642305" lon="-8.46038370928017"><ele>499.20000000000005</ele><time>2026-04-18T13:58:13.001Z</time></trkpt><trkpt lat="41.7197661973107" lon="-8.460411375309974"><ele>497.6</ele><time>2026-04-18T13:58:15.001Z</time></trkpt><trkpt lat="41.719649824588934" lon="-8.460387720026745"><ele>496.0</ele><time>2026-04-18T13:58:17.001Z</time></trkpt><trkpt lat="41.71958204356938" lon="-8.460361845457303"><ele>496.00000000000006</ele><time>2026-04-18T13:58:18.001Z</time></trkpt><trkpt lat="41.7195110403377" lon="-8.460314010870595"><ele>496.0</ele><time>2026-04-18T13:58:19.001Z</time></trkpt><trkpt lat="41.719442846610804" lon="-8.460273413502263"><ele>496.0</ele><time>2026-04-18T13:58:20Z</time></trkpt><trkpt lat="41.719376551758046" lon="-8.460218845897609"><ele>496.0</ele><time>2026-04-18T13:58:21Z</time></trkpt><trkpt lat="41.71929757174302" lon="-8.460163141182443"><ele>496.00000000000006</ele><time>2026-04-18T13:58:22Z</time></trkpt><trkpt lat="41.71923693659101" lon="-8.460115111564177"><ele>496.0</ele><time>2026-04-18T13:58:23Z</time></trkpt><trkpt lat="41.719172054534376" lon="-8.460077724499579"><ele>496.00000000000006</ele><time>2026-04-18T13:58:24Z</time></trkpt><trkpt lat="41.719092738074" lon="-8.460024924003921"><ele>496.0</ele><time>2026-04-18T13:58:25Z</time></trkpt><trkpt lat="41.71900804073457" lon="-8.459995166248884"><ele>496.0</ele><time>2026-04-18T13:58:26Z</time></trkpt><trkpt lat="41.71892135056754" lon="-8.459973533415619"><ele>496.0</ele><time>2026-04-18T13:58:27Z</time></trkpt><trkpt lat="41.7188441209965" lon="-8.459949128207278"><ele>496.00000000000006</ele><time>2026-04-18T13:58:28Z</time></trkpt><trkpt lat="41.71875452557033" lon="-8.45991756833314"><ele>496.0</ele><time>2026-04-18T13:58:29Z</time></trkpt><trkpt lat="41.71867271518991" lon="-8.459875666292458"><ele>496.00000000000006</ele><time>2026-04-18T13:58:30Z</time></trkpt><trkpt lat="41.71858397723128" lon="-8.459832503032835"><ele>496.0</ele><time>2026-04-18T13:58:31Z</time></trkpt><trkpt lat="41.71850041366605" lon="-8.459786524214028"><ele>496.0</ele><time>2026-04-18T13:58:32Z</time></trkpt><trkpt lat="41.71841814995272" lon="-8.459744786054669"><ele>496.0</ele><time>2026-04-18T13:58:33Z</time></trkpt><trkpt lat="41.71833880507069" lon="-8.459711847263389"><ele>496.00000000000006</ele><time>2026-04-18T13:58:34Z</time></trkpt><trkpt lat="41.71825760782898" lon="-8.459692100601755"><ele>496.0</ele><time>2026-04-18T13:58:35Z</time></trkpt><trkpt lat="41.718167882690935" lon="-8.459677352500128"><ele>496.6</ele><time>2026-04-18T13:58:36Z</time></trkpt><trkpt lat="41.718082612884125" lon="-8.459657557999382"><ele>497.20000000000005</ele><time>2026-04-18T13:58:37Z</time></trkpt><trkpt lat="41.71798706632302" lon="-8.45961890394258"><ele>497.79999999999995</ele><time>2026-04-18T13:58:38Z</time></trkpt><trkpt lat="41.71789776877818" lon="-8.4595775688064"><ele>498.4</ele><time>2026-04-18T13:58:39Z</time></trkpt><trkpt lat="41.71781196881159" lon="-8.459532009094932"><ele>499.0</ele><time>2026-04-18T13:58:40Z</time></trkpt><trkpt lat="41.71773085700816" lon="-8.459501461224074"><ele>495.1666666666667</ele><time>2026-04-18T13:58:41Z</time></trkpt><trkpt lat="41.7176419442504" lon="-8.459498558514088"><ele>491.33333333333337</ele><time>2026-04-18T13:58:42Z</time></trkpt><trkpt lat="41.71754923036059" lon="-8.459512346658931"><ele>487.5</ele><time>2026-04-18T13:58:43Z</time></trkpt><trkpt lat="41.71746022087425" lon="-8.459537223301135"><ele>483.66666666666663</ele><time>2026-04-18T13:58:44Z</time></trkpt><trkpt lat="41.71738385267657" lon="-8.459541510033162"><ele>479.8333333333333</ele><time>2026-04-18T13:58:45Z</time></trkpt><trkpt lat="41.71731956849516" lon="-8.45955906594044"><ele>476.0</ele><time>2026-04-18T13:58:46Z</time></trkpt><trkpt lat="41.71725054201951" lon="-8.459590571225505"><ele>478.66666666666663</ele><time>2026-04-18T13:58:47Z</time></trkpt><trkpt lat="41.71718523745625" lon="-8.459635271265228"><ele>481.3333333333333</ele><time>2026-04-18T13:58:48Z</time></trkpt><trkpt lat="41.717100797256116" lon="-8.459759200751737"><ele>484.0</ele><time>2026-04-18T13:58:50Z</time></trkpt><trkpt lat="41.717062243138216" lon="-8.459852751847109"><ele>486.66666666666663</ele><time>2026-04-18T13:58:51Z</time></trkpt><trkpt lat="41.71704793068604" lon="-8.45995212878809"><ele>489.3333333333333</ele><time>2026-04-18T13:58:52Z</time></trkpt><trkpt lat="41.71704038855598" lon="-8.460061487864248"><ele>492.0</ele><time>2026-04-18T13:58:53Z</time></trkpt><trkpt lat="41.717026583952766" lon="-8.460183804470288"><ele>492.0</ele><time>2026-04-18T13:58:54Z</time></trkpt><trkpt lat="41.71701083053161" lon="-8.460271110195414"><ele>492.0</ele><time>2026-04-18T13:58:55Z</time></trkpt><trkpt lat="41.71697474109608" lon="-8.460351987848503"><ele>492.0</ele><time>2026-04-18T13:58:56Z</time></trkpt><trkpt lat="41.716927928102926" lon="-8.46043777568321"><ele>492.0</ele><time>2026-04-18T13:58:57Z</time></trkpt><trkpt lat="41.71686414083884" lon="-8.46054679293687"><ele>492.0</ele><time>2026-04-18T13:58:58Z</time></trkpt><trkpt lat="41.716835533301506" lon="-8.460642160297445"><ele>492.0</ele><time>2026-04-18T13:58:59Z</time></trkpt><trkpt lat="41.71682259421842" lon="-8.460756864035984"><ele>492.1666666666667</ele><time>2026-04-18T13:59:00Z</time></trkpt><trkpt lat="41.716822121800966" lon="-8.46086831036991"><ele>492.33333333333337</ele><time>2026-04-18T13:59:01Z</time></trkpt><trkpt lat="41.71683456003801" lon="-8.46098249580569"><ele>492.5</ele><time>2026-04-18T13:59:02Z</time></trkpt><trkpt lat="41.716849713289264" lon="-8.46110701382821"><ele>492.6666666666667</ele><time>2026-04-18T13:59:03Z</time></trkpt><trkpt lat="41.71686683374571" lon="-8.461218933214973"><ele>492.83333333333337</ele><time>2026-04-18T13:59:04Z</time></trkpt><trkpt lat="41.716875946533776" lon="-8.461318783293507"><ele>493.0</ele><time>2026-04-18T13:59:05Z</time></trkpt><trkpt lat="41.71690049534455" lon="-8.461405909138366"><ele>495.4</ele><time>2026-04-18T13:59:06Z</time></trkpt><trkpt lat="41.716942199886816" lon="-8.461482482050128"><ele>497.79999999999995</ele><time>2026-04-18T13:59:07Z</time></trkpt><trkpt lat="41.717034914895855" lon="-8.461610845793965"><ele>500.2</ele><time>2026-04-18T13:59:09Z</time></trkpt><trkpt lat="41.717128715964705" lon="-8.461694755771456"><ele>502.6</ele><time>2026-04-18T13:59:11Z</time></trkpt><trkpt lat="41.717239381830026" lon="-8.461770222371028"><ele>505.0</ele><time>2026-04-18T13:59:13Z</time></trkpt><trkpt lat="41.71730650858219" lon="-8.461863129342287"><ele>505.0</ele><time>2026-04-18T13:59:15Z</time></trkpt><trkpt lat="41.717332950881115" lon="-8.461983091182534"><ele>505.0</ele><time>2026-04-18T13:59:17Z</time></trkpt><trkpt lat="41.71735631516774" lon="-8.462080861244187"><ele>505.0</ele><time>2026-04-18T13:59:18Z</time></trkpt><trkpt lat="41.71737896158932" lon="-8.462195599440141"><ele>505.0</ele><time>2026-04-18T13:59:19Z</time></trkpt><trkpt lat="41.717401068579186" lon="-8.46232672813443"><ele>505.0</ele><time>2026-04-18T13:59:20Z</time></trkpt><trkpt lat="41.71741884293985" lon="-8.462446813282828"><ele>505.83333333333337</ele><time>2026-04-18T13:59:21Z</time></trkpt><trkpt lat="41.71744105579287" lon="-8.46255755536205"><ele>506.6666666666667</ele><time>2026-04-18T13:59:22Z</time></trkpt><trkpt lat="41.71746233560791" lon="-8.462668465554934"><ele>507.5</ele><time>2026-04-18T13:59:23Z</time></trkpt><trkpt lat="41.71748800192692" lon="-8.462770249274472"><ele>508.33333333333337</ele><time>2026-04-18T13:59:24Z</time></trkpt><trkpt lat="41.717507427608645" lon="-8.462872088574386"><ele>509.1666666666667</ele><time>2026-04-18T13:59:25Z</time></trkpt><trkpt lat="41.71753498924052" lon="-8.462966967511107"><ele>510.0</ele><time>2026-04-18T13:59:26Z</time></trkpt><trkpt lat="41.71757525430532" lon="-8.463087137836562"><ele>510.5714285714286</ele><time>2026-04-18T13:59:27Z</time></trkpt><trkpt lat="41.71759391104974" lon="-8.463187543322878"><ele>511.1428571428572</ele><time>2026-04-18T13:59:28Z</time></trkpt><trkpt lat="41.717631156479364" lon="-8.463287600638598"><ele>511.7142857142857</ele><time>2026-04-18T13:59:30Z</time></trkpt><trkpt lat="41.71769534400919" lon="-8.46334168784002"><ele>512.2857142857143</ele><time>2026-04-18T13:59:32Z</time></trkpt><trkpt lat="41.71775214687857" lon="-8.463386173232815"><ele>512.8571428571429</ele><time>2026-04-18T13:59:33Z</time></trkpt><trkpt lat="41.71780768046003" lon="-8.46343071986128"><ele>513.4285714285714</ele><time>2026-04-18T13:59:34Z</time></trkpt><trkpt lat="41.71787201637909" lon="-8.463498153922545"><ele>514.0</ele><time>2026-04-18T13:59:35Z</time></trkpt><trkpt lat="41.71792314139287" lon="-8.4635650383332"><ele>517.0</ele><time>2026-04-18T13:59:36Z</time></trkpt><trkpt lat="41.717998399270655" lon="-8.463684388019745"><ele>520.0</ele><time>2026-04-18T13:59:38Z</time></trkpt><trkpt lat="41.71802505993898" lon="-8.463773531384009"><ele>523.0</ele><time>2026-04-18T13:59:39Z</time></trkpt><trkpt lat="41.71803308988998" lon="-8.46386435686926"><ele>526.0</ele><time>2026-04-18T13:59:40Z</time></trkpt><trkpt lat="41.718032170411405" lon="-8.463959321242497"><ele>529.0</ele><time>2026-04-18T13:59:41Z</time></trkpt><trkpt lat="41.71802135878605" lon="-8.464059637053447"><ele>532.0</ele><time>2026-04-18T13:59:42Z</time></trkpt><trkpt lat="41.71800852871486" lon="-8.46417244951556"><ele>534.4</ele><time>2026-04-18T13:59:43Z</time></trkpt><trkpt lat="41.717989790722655" lon="-8.464268655044643"><ele>536.8000000000001</ele><time>2026-04-18T13:59:44Z</time></trkpt><trkpt lat="41.71795667560934" lon="-8.464367944479843"><ele>539.2</ele><time>2026-04-18T13:59:45Z</time></trkpt><trkpt lat="41.7179254802359" lon="-8.464453998387443"><ele>541.6</ele><time>2026-04-18T13:59:46Z</time></trkpt><trkpt lat="41.71791611868011" lon="-8.464599895309256"><ele>544.0</ele><time>2026-04-18T13:59:48Z</time></trkpt><trkpt lat="41.717923614490594" lon="-8.464771485088123"><ele>546.3333333333334</ele><time>2026-04-18T13:59:50Z</time></trkpt><trkpt lat="41.7179120783717" lon="-8.464881201830904"><ele>548.6666666666667</ele><time>2026-04-18T13:59:51Z</time></trkpt><trkpt lat="41.71790164692712" lon="-8.465002293592638"><ele>551.0</ele><time>2026-04-18T13:59:52Z</time></trkpt><trkpt lat="41.71788289834666" lon="-8.465099686590325"><ele>553.3333333333334</ele><time>2026-04-18T13:59:53Z</time></trkpt><trkpt lat="41.71784066555658" lon="-8.465206910586264"><ele>555.6666666666666</ele><time>2026-04-18T13:59:55Z</time></trkpt><trkpt lat="41.717808204009124" lon="-8.465287896709215"><ele>558.0</ele><time>2026-04-18T13:59:59Z</time></trkpt><trkpt lat="41.717799308921606" lon="-8.46538123118048"><ele>558.8</ele><time>2026-04-18T14:00:38Z</time></trkpt><trkpt lat="41.71776117280443" lon="-8.465508005398355"><ele>559.5999999999999</ele><time>2026-04-18T14:00:40Z</time></trkpt><trkpt lat="41.717726367176276" lon="-8.465626017437147"><ele>560.4000000000001</ele><time>2026-04-18T14:00:42Z</time></trkpt><trkpt lat="41.7176983640334" lon="-8.465741459257927"><ele>561.2</ele><time>2026-04-18T14:00:44Z</time></trkpt><trkpt lat="41.71766122314764" lon="-8.465864038419094"><ele>562.0</ele><time>2026-04-18T14:00:46Z</time></trkpt><trkpt lat="41.71761842523894" lon="-8.466014806350184"><ele>558.1428571428572</ele><time>2026-04-18T14:00:48Z</time></trkpt><trkpt lat="41.71760343702802" lon="-8.466102121602153"><ele>554.2857142857143</ele><time>2026-04-18T14:00:49Z</time></trkpt><trkpt lat="41.71760175158496" lon="-8.466191579567294"><ele>550.4285714285714</ele><time>2026-04-18T14:00:50Z</time></trkpt><trkpt lat="41.71759427536368" lon="-8.466283212996746"><ele>546.5714285714287</ele><time>2026-04-18T14:00:51Z</time></trkpt><trkpt lat="41.71759003954842" lon="-8.466373580528504"><ele>542.7142857142858</ele><time>2026-04-18T14:00:52Z</time></trkpt><trkpt lat="41.717585912409724" lon="-8.466473997383186"><ele>538.8571428571429</ele><time>2026-04-18T14:00:53Z</time></trkpt><trkpt lat="41.7175788762913" lon="-8.46657347160418"><ele>535.0</ele><time>2026-04-18T14:00:54Z</time></trkpt><trkpt lat="41.71757428106015" lon="-8.466692502984131"><ele>534.0</ele><time>2026-04-18T14:00:55Z</time></trkpt><trkpt lat="41.7175658242393" lon="-8.466790557467895"><ele>533.0</ele><time>2026-04-18T14:00:56Z</time></trkpt><trkpt lat="41.717547958564055" lon="-8.466879185281904"><ele>532.0</ele><time>2026-04-18T14:00:57Z</time></trkpt><trkpt lat="41.717528323633495" lon="-8.466965678589114"><ele>531.0</ele><time>2026-04-18T14:00:58Z</time></trkpt><trkpt lat="41.717508089556404" lon="-8.46706391090193"><ele>530.0</ele><time>2026-04-18T14:00:59Z</time></trkpt><trkpt lat="41.717480143224186" lon="-8.467188270204472"><ele>529.0</ele><time>2026-04-18T14:01:00Z</time></trkpt><trkpt lat="41.71745762041086" lon="-8.467311789094468"><ele>528.0</ele><time>2026-04-18T14:01:01Z</time></trkpt><trkpt lat="41.717442114622536" lon="-8.467419517392075"><ele>527.0</ele><time>2026-04-18T14:01:02Z</time></trkpt><trkpt lat="41.717414239052175" lon="-8.467533428258117"><ele>526.0</ele><time>2026-04-18T14:01:03Z</time></trkpt><trkpt lat="41.71740479474806" lon="-8.46763592241167"><ele>525.0</ele><time>2026-04-18T14:01:04Z</time></trkpt><trkpt lat="41.717399604916025" lon="-8.467746190551235"><ele>524.0</ele><time>2026-04-18T14:01:05Z</time></trkpt><trkpt lat="41.71741550825817" lon="-8.467856079783052"><ele>523.0</ele><time>2026-04-18T14:01:06Z</time></trkpt><trkpt lat="41.717439433720294" lon="-8.467973544517235"><ele>522.3333333333334</ele><time>2026-04-18T14:01:07Z</time></trkpt><trkpt lat="41.71747936024136" lon="-8.468077699358892"><ele>521.6666666666667</ele><time>2026-04-18T14:01:08Z</time></trkpt><trkpt lat="41.71753015484243" lon="-8.468164830994459"><ele>521.0</ele><time>2026-04-18T14:01:09Z</time></trkpt><trkpt lat="41.71758996161501" lon="-8.468236276288184"><ele>520.3333333333334</ele><time>2026-04-18T14:01:10Z</time></trkpt><trkpt lat="41.717631600619995" lon="-8.468311587855279"><ele>519.6666666666666</ele><time>2026-04-18T14:01:11Z</time></trkpt><trkpt lat="41.71764248238615" lon="-8.468399007389438"><ele>519.0</ele><time>2026-04-18T14:01:12Z</time></trkpt><trkpt lat="41.71762530638955" lon="-8.46849575715968"><ele>519.0</ele><time>2026-04-18T14:01:13Z</time></trkpt><trkpt lat="41.71759215084829" lon="-8.468594418134526"><ele>519.0</ele><time>2026-04-18T14:01:14Z</time></trkpt><trkpt lat="41.71755739778493" lon="-8.46870342410872"><ele>519.0</ele><time>2026-04-18T14:01:15Z</time></trkpt><trkpt lat="41.717517309140156" lon="-8.468811688802372"><ele>519.0</ele><time>2026-04-18T14:01:16Z</time></trkpt><trkpt lat="41.717481047181806" lon="-8.468902580706937"><ele>519.0</ele><time>2026-04-18T14:01:17Z</time></trkpt><trkpt lat="41.71744978749455" lon="-8.46899130031854"><ele>519.0</ele><time>2026-04-18T14:01:18Z</time></trkpt><trkpt lat="41.71741441815093" lon="-8.469092057920044"><ele>519.8</ele><time>2026-04-18T14:01:19Z</time></trkpt><trkpt lat="41.717372850703654" lon="-8.469156020749455"><ele>520.5999999999999</ele><time>2026-04-18T14:01:20Z</time></trkpt><trkpt lat="41.71726327357657" lon="-8.469247776994374"><ele>521.4</ele><time>2026-04-18T14:01:22Z</time></trkpt><trkpt lat="41.717165257386796" lon="-8.469326343123235"><ele>522.1999999999999</ele><time>2026-04-18T14:01:24Z</time></trkpt><trkpt lat="41.71707381988435" lon="-8.469403220767813"><ele>523.0</ele><time>2026-04-18T14:01:26Z</time></trkpt><trkpt lat="41.71702046674306" lon="-8.469470789150948"><ele>523.0</ele><time>2026-04-18T14:01:27Z</time></trkpt><trkpt lat="41.71695419676766" lon="-8.469534497044892"><ele>523.0</ele><time>2026-04-18T14:01:28Z</time></trkpt><trkpt lat="41.71688637646398" lon="-8.469599461197998"><ele>523.0</ele><time>2026-04-18T14:01:29Z</time></trkpt><trkpt lat="41.71683352777042" lon="-8.469648354182425"><ele>523.0</ele><time>2026-04-18T14:01:30Z</time></trkpt><trkpt lat="41.716782604990435" lon="-8.469715438816612"><ele>523.0</ele><time>2026-04-18T14:01:31Z</time></trkpt><trkpt lat="41.71670152393335" lon="-8.469773877999783"><ele>523.0</ele><time>2026-04-18T14:01:33Z</time></trkpt><trkpt lat="41.71659186061599" lon="-8.469808743041025"><ele>519.6666666666667</ele><time>2026-04-18T14:01:35Z</time></trkpt><trkpt lat="41.716498542443205" lon="-8.46982349506619"><ele>516.3333333333334</ele><time>2026-04-18T14:01:37Z</time></trkpt><trkpt lat="41.716441104152445" lon="-8.469954142369664"><ele>513.0</ele><time>2026-04-18T14:01:39Z</time></trkpt><trkpt lat="41.71642085202895" lon="-8.470034303946548"><ele>509.66666666666663</ele><time>2026-04-18T14:01:40Z</time></trkpt><trkpt lat="41.7163885503312" lon="-8.470131801822205"><ele>506.3333333333333</ele><time>2026-04-18T14:01:41Z</time></trkpt><trkpt lat="41.71634760638474" lon="-8.47021679902139"><ele>503.0</ele><time>2026-04-18T14:01:42Z</time></trkpt><trkpt lat="41.7163169966641" lon="-8.470305500979391"><ele>502.99999999999994</ele><time>2026-04-18T14:01:43Z</time></trkpt><trkpt lat="41.716289480590895" lon="-8.470403922317988"><ele>503.0</ele><time>2026-04-18T14:01:44Z</time></trkpt><trkpt lat="41.71625979486036" lon="-8.470510475646776"><ele>503.0</ele><time>2026-04-18T14:01:45Z</time></trkpt><trkpt lat="41.716239046726784" lon="-8.470603414413942"><ele>503.0</ele><time>2026-04-18T14:01:46Z</time></trkpt><trkpt lat="41.716221592358735" lon="-8.470700705110858"><ele>502.99999999999994</ele><time>2026-04-18T14:01:47Z</time></trkpt><trkpt lat="41.71617128681472" lon="-8.470834315157191"><ele>503.0</ele><time>2026-04-18T14:01:49Z</time></trkpt><trkpt lat="41.716125946259055" lon="-8.470931741232745"><ele>502.49999999999994</ele><time>2026-04-18T14:01:51Z</time></trkpt><trkpt lat="41.71607070635787" lon="-8.470995632703607"><ele>502.0</ele><time>2026-04-18T14:01:53Z</time></trkpt><trkpt lat="41.71601765220527" lon="-8.471045462327229"><ele>501.5</ele><time>2026-04-18T14:01:55Z</time></trkpt><trkpt lat="41.715936566270166" lon="-8.47111512753274"><ele>501.0</ele><time>2026-04-18T14:01:57Z</time></trkpt><trkpt lat="41.71586240890858" lon="-8.471179495258657"><ele>500.49999999999994</ele><time>2026-04-18T14:01:59Z</time></trkpt><trkpt lat="41.7157814483505" lon="-8.471275032550148"><ele>500.0</ele><time>2026-04-18T14:02:01Z</time></trkpt><trkpt lat="41.71574578388327" lon="-8.47141562145573"><ele>497.4</ele><time>2026-04-18T14:02:03Z</time></trkpt><trkpt lat="41.71576782694146" lon="-8.471547968875253"><ele>494.8</ele><time>2026-04-18T14:02:05Z</time></trkpt><trkpt lat="41.715849913053056" lon="-8.471654842560062"><ele>492.20000000000005</ele><time>2026-04-18T14:02:07Z</time></trkpt><trkpt lat="41.715930034139454" lon="-8.471733768432822"><ele>489.6</ele><time>2026-04-18T14:02:09Z</time></trkpt><trkpt lat="41.71598279292209" lon="-8.471826955673487"><ele>487.0</ele><time>2026-04-18T14:02:11Z</time></trkpt><trkpt lat="41.71601502867479" lon="-8.471958722703846"><ele>487.0</ele><time>2026-04-18T14:02:13Z</time></trkpt><trkpt lat="41.71604145483916" lon="-8.47209180572377"><ele>487.00000000000006</ele><time>2026-04-18T14:02:15Z</time></trkpt><trkpt lat="41.716071832256546" lon="-8.472233807451367"><ele>487.00000000000006</ele><time>2026-04-18T14:02:17Z</time></trkpt><trkpt lat="41.716108746665455" lon="-8.472379038471022"><ele>487.0</ele><time>2026-04-18T14:02:19Z</time></trkpt><trkpt lat="41.71614827024437" lon="-8.472523742535229"><ele>487.0</ele><time>2026-04-18T14:02:21Z</time></trkpt><trkpt lat="41.716187692287576" lon="-8.472655557040843"><ele>487.1666666666667</ele><time>2026-04-18T14:02:23Z</time></trkpt><trkpt lat="41.71621421550196" lon="-8.472773374132913"><ele>487.33333333333337</ele><time>2026-04-18T14:02:25.001Z</time></trkpt><trkpt lat="41.716227029530494" lon="-8.472892530102293"><ele>487.5</ele><time>2026-04-18T14:02:27.001Z</time></trkpt><trkpt lat="41.716245109767755" lon="-8.472990863823558"><ele>487.66666666666663</ele><time>2026-04-18T14:02:29.001Z</time></trkpt><trkpt lat="41.71627419437475" lon="-8.473071131051306"><ele>487.8333333333333</ele><time>2026-04-18T14:02:31.001Z</time></trkpt><trkpt lat="41.7163530318017" lon="-8.473124844847066"><ele>488.0</ele><time>2026-04-18T14:02:33.001Z</time></trkpt><trkpt lat="41.716436368570605" lon="-8.47322767239253"><ele>485.8333333333333</ele><time>2026-04-18T14:02:35.001Z</time></trkpt><trkpt lat="41.716487106187714" lon="-8.473343024513317"><ele>483.66666666666663</ele><time>2026-04-18T14:02:37.001Z</time></trkpt><trkpt lat="41.71654516935807" lon="-8.473426886797933"><ele>481.5</ele><time>2026-04-18T14:02:39.001Z</time></trkpt><trkpt lat="41.716595672979594" lon="-8.473489686564717"><ele>479.33333333333337</ele><time>2026-04-18T14:02:41.001Z</time></trkpt><trkpt lat="41.716696127853254" lon="-8.473526845801752"><ele>477.1666666666667</ele><time>2026-04-18T14:02:43.001Z</time></trkpt><trkpt lat="41.71676938998031" lon="-8.473573484936752"><ele>475.0</ele><time>2026-04-18T14:02:44Z</time></trkpt><trkpt lat="41.7168398193493" lon="-8.473614537182199"><ele>475.00000000000006</ele><time>2026-04-18T14:02:45Z</time></trkpt><trkpt lat="41.71690217267614" lon="-8.473639476976278"><ele>475.0</ele><time>2026-04-18T14:02:46Z</time></trkpt><trkpt lat="41.71696227618123" lon="-8.473671298159255"><ele>475.0</ele><time>2026-04-18T14:02:47Z</time></trkpt><trkpt lat="41.71707185171356" lon="-8.473748171695082"><ele>475.0</ele><time>2026-04-18T14:02:49Z</time></trkpt><trkpt lat="41.717135296579826" lon="-8.473760995856665"><ele>475.00000000000006</ele><time>2026-04-18T14:02:50Z</time></trkpt><trkpt lat="41.717204475684106" lon="-8.473755261204598"><ele>475.0</ele><time>2026-04-18T14:02:51Z</time></trkpt><trkpt lat="41.717271275962304" lon="-8.473760110827023"><ele>476.00000000000006</ele><time>2026-04-18T14:02:52Z</time></trkpt><trkpt lat="41.717337654346146" lon="-8.473771260162055"><ele>477.0</ele><time>2026-04-18T14:02:53Z</time></trkpt><trkpt lat="41.71739608309933" lon="-8.473809517205872"><ele>478.0</ele><time>2026-04-18T14:02:54Z</time></trkpt><trkpt lat="41.717469859064565" lon="-8.473894688492871"><ele>479.0</ele><time>2026-04-18T14:02:56Z</time></trkpt><trkpt lat="41.71754520358225" lon="-8.47399171741239"><ele>480.00000000000006</ele><time>2026-04-18T14:02:58Z</time></trkpt><trkpt lat="41.71759923130403" lon="-8.474038006246587"><ele>481.0</ele><time>2026-04-18T14:02:59Z</time></trkpt><trkpt lat="41.71765715842812" lon="-8.47407870672106"><ele>481.0</ele><time>2026-04-18T14:03:00Z</time></trkpt><trkpt lat="41.71771262222936" lon="-8.474119315094587"><ele>481.0</ele><time>2026-04-18T14:03:01Z</time></trkpt><trkpt lat="41.71781284357091" lon="-8.474198055474417"><ele>481.0</ele><time>2026-04-18T14:03:03Z</time></trkpt><trkpt lat="41.71792098738079" lon="-8.474288977737277"><ele>481.0</ele><time>2026-04-18T14:03:05Z</time></trkpt><trkpt lat="41.71798027670302" lon="-8.474324467124141"><ele>481.0</ele><time>2026-04-18T14:03:06Z</time></trkpt><trkpt lat="41.718086716602144" lon="-8.474386147071705"><ele>484.20000000000005</ele><time>2026-04-18T14:03:08Z</time></trkpt><trkpt lat="41.71814571464367" lon="-8.474431314743399"><ele>487.40000000000003</ele><time>2026-04-18T14:03:09Z</time></trkpt><trkpt lat="41.71821033854365" lon="-8.474452243589306"><ele>490.6</ele><time>2026-04-18T14:03:10Z</time></trkpt><trkpt lat="41.71831899756766" lon="-8.474500867437053"><ele>493.8</ele><time>2026-04-18T14:03:12Z</time></trkpt><trkpt lat="41.71844393744667" lon="-8.474559148495207"><ele>497.0</ele><time>2026-04-18T14:03:14Z</time></trkpt><trkpt lat="41.71850792993077" lon="-8.474598256231333"><ele>495.7142857142857</ele><time>2026-04-18T14:03:15Z</time></trkpt><trkpt lat="41.71856399089618" lon="-8.474643809193187"><ele>494.42857142857144</ele><time>2026-04-18T14:03:16Z</time></trkpt><trkpt lat="41.71862428381058" lon="-8.47468703466576"><ele>493.1428571428571</ele><time>2026-04-18T14:03:17Z</time></trkpt><trkpt lat="41.71868086580738" lon="-8.474735409470261"><ele>491.85714285714283</ele><time>2026-04-18T14:03:18Z</time></trkpt><trkpt lat="41.718741292138084" lon="-8.47478622943529"><ele>490.57142857142856</ele><time>2026-04-18T14:03:19Z</time></trkpt><trkpt lat="41.718794636741876" lon="-8.474836477857862"><ele>489.2857142857142</ele><time>2026-04-18T14:03:20Z</time></trkpt><trkpt lat="41.71885062603337" lon="-8.474889760731838"><ele>487.99999999999994</ele><time>2026-04-18T14:03:21Z</time></trkpt><trkpt lat="41.71895599766458" lon="-8.474945524163141"><ele>487.99999999999994</ele><time>2026-04-18T14:03:23Z</time></trkpt><trkpt lat="41.71903003291834" lon="-8.474982700045745"><ele>488.0</ele><time>2026-04-18T14:03:24Z</time></trkpt><trkpt lat="41.719102810342875" lon="-8.475023553249525"><ele>488.0</ele><time>2026-04-18T14:03:25Z</time></trkpt><trkpt lat="41.7191709952509" lon="-8.4750600969529"><ele>488.0</ele><time>2026-04-18T14:03:26Z</time></trkpt><trkpt lat="41.71924741095765" lon="-8.475084789321"><ele>487.99999999999994</ele><time>2026-04-18T14:03:27Z</time></trkpt><trkpt lat="41.71932415725689" lon="-8.475120655788102"><ele>488.0</ele><time>2026-04-18T14:03:28Z</time></trkpt><trkpt lat="41.71939937640706" lon="-8.47516442027243"><ele>487.16666666666663</ele><time>2026-04-18T14:03:29Z</time></trkpt><trkpt lat="41.719470389815875" lon="-8.475218548105564"><ele>486.3333333333333</ele><time>2026-04-18T14:03:30Z</time></trkpt><trkpt lat="41.71953376280217" lon="-8.475272610644327"><ele>485.5</ele><time>2026-04-18T14:03:31Z</time></trkpt><trkpt lat="41.7196032895537" lon="-8.475329423193312"><ele>484.66666666666663</ele><time>2026-04-18T14:03:32Z</time></trkpt><trkpt lat="41.71966913300228" lon="-8.47539238248372"><ele>483.8333333333333</ele><time>2026-04-18T14:03:33Z</time></trkpt><trkpt lat="41.71973550638507" lon="-8.475467843252078"><ele>483.0</ele><time>2026-04-18T14:03:34Z</time></trkpt><trkpt lat="41.71979752465554" lon="-8.475544537527469"><ele>483.0</ele><time>2026-04-18T14:03:35Z</time></trkpt><trkpt lat="41.719862017419885" lon="-8.475610620782586"><ele>483.0</ele><time>2026-04-18T14:03:36Z</time></trkpt><trkpt lat="41.719923470766524" lon="-8.475671771837387"><ele>483.0</ele><time>2026-04-18T14:03:37Z</time></trkpt><trkpt lat="41.71998983181873" lon="-8.475717502369687"><ele>483.0</ele><time>2026-04-18T14:03:38Z</time></trkpt><trkpt lat="41.720069466859236" lon="-8.47574735327916"><ele>483.0</ele><time>2026-04-18T14:03:39Z</time></trkpt><trkpt lat="41.72015118763725" lon="-8.475765240557823"><ele>483.0</ele><time>2026-04-18T14:03:40Z</time></trkpt><trkpt lat="41.72023487372757" lon="-8.475771461494304"><ele>484.1666666666667</ele><time>2026-04-18T14:03:41Z</time></trkpt><trkpt lat="41.7203133555146" lon="-8.475781189085412"><ele>485.33333333333337</ele><time>2026-04-18T14:03:42Z</time></trkpt><trkpt lat="41.72038697631618" lon="-8.47578947431458"><ele>486.5</ele><time>2026-04-18T14:03:43Z</time></trkpt><trkpt lat="41.720468616923405" lon="-8.47579182750595"><ele>487.6666666666667</ele><time>2026-04-18T14:03:44Z</time></trkpt><trkpt lat="41.72055213745368" lon="-8.475789184032958"><ele>488.83333333333337</ele><time>2026-04-18T14:03:45Z</time></trkpt><trkpt lat="41.72063846863905" lon="-8.475784791512522"><ele>490.0</ele><time>2026-04-18T14:03:46Z</time></trkpt><trkpt lat="41.7207218633725" lon="-8.475769108204805"><ele>490.00000000000006</ele><time>2026-04-18T14:03:47Z</time></trkpt><trkpt lat="41.7208020095546" lon="-8.475749786265201"><ele>490.0</ele><time>2026-04-18T14:03:48Z</time></trkpt><trkpt lat="41.72088026619638" lon="-8.47575506765755"><ele>490.0</ele><time>2026-04-18T14:03:49Z</time></trkpt><trkpt lat="41.72095120910405" lon="-8.475790934627149"><ele>490.0</ele><time>2026-04-18T14:03:50Z</time></trkpt><trkpt lat="41.721022959663784" lon="-8.475842458571279"><ele>490.00000000000006</ele><time>2026-04-18T14:03:51Z</time></trkpt><trkpt lat="41.721108168335874" lon="-8.475882589880001"><ele>490.0</ele><time>2026-04-18T14:03:52Z</time></trkpt><trkpt lat="41.72118879761843" lon="-8.475898157605238"><ele>491.33333333333337</ele><time>2026-04-18T14:03:53Z</time></trkpt><trkpt lat="41.7212768825459" lon="-8.475906307700173"><ele>492.6666666666667</ele><time>2026-04-18T14:03:54Z</time></trkpt><trkpt lat="41.7213678088131" lon="-8.475899862754352"><ele>494.0</ele><time>2026-04-18T14:03:55Z</time></trkpt><trkpt lat="41.72145149605469" lon="-8.475884920483981"><ele>495.33333333333337</ele><time>2026-04-18T14:03:56Z</time></trkpt><trkpt lat="41.721538780835786" lon="-8.47586225209748"><ele>496.6666666666667</ele><time>2026-04-18T14:03:57Z</time></trkpt><trkpt lat="41.72162710275263" lon="-8.475861931781147"><ele>498.0</ele><time>2026-04-18T14:03:58Z</time></trkpt><trkpt lat="41.72171247802642" lon="-8.475906467834134"><ele>498.0</ele><time>2026-04-18T14:03:59Z</time></trkpt><trkpt lat="41.721776468255094" lon="-8.475971862819573"><ele>497.99999999999994</ele><time>2026-04-18T14:04:00Z</time></trkpt><trkpt lat="41.72184841757515" lon="-8.476047585315422"><ele>497.99999999999994</ele><time>2026-04-18T14:04:01Z</time></trkpt><trkpt lat="41.721923656900124" lon="-8.476118447742206"><ele>498.0</ele><time>2026-04-18T14:04:02Z</time></trkpt><trkpt lat="41.722010422132186" lon="-8.476186545000532"><ele>498.0</ele><time>2026-04-18T14:04:03Z</time></trkpt><trkpt lat="41.722089119444185" lon="-8.47624820820506"><ele>497.5</ele><time>2026-04-18T14:04:04Z</time></trkpt><trkpt lat="41.72216827313788" lon="-8.476297237705015"><ele>497.0</ele><time>2026-04-18T14:04:05Z</time></trkpt><trkpt lat="41.7222465315245" lon="-8.476340845298019"><ele>496.5</ele><time>2026-04-18T14:04:06Z</time></trkpt><trkpt lat="41.72233037687997" lon="-8.476394002546872"><ele>496.0</ele><time>2026-04-18T14:04:07Z</time></trkpt><trkpt lat="41.722410403521764" lon="-8.476453807281224"><ele>495.5</ele><time>2026-04-18T14:04:08Z</time></trkpt><trkpt lat="41.7224903560605" lon="-8.476507424773473"><ele>495.0</ele><time>2026-04-18T14:04:09Z</time></trkpt><trkpt lat="41.72256297550986" lon="-8.476564385469342"><ele>495.0</ele><time>2026-04-18T14:04:10Z</time></trkpt><trkpt lat="41.72263808829692" lon="-8.476630094166058"><ele>495.0</ele><time>2026-04-18T14:04:11Z</time></trkpt><trkpt lat="41.72272639079198" lon="-8.476676708161916"><ele>495.0</ele><time>2026-04-18T14:04:12Z</time></trkpt><trkpt lat="41.722819364231974" lon="-8.47670454788021"><ele>495.0</ele><time>2026-04-18T14:04:13Z</time></trkpt><trkpt lat="41.72291583179499" lon="-8.476728852452297"><ele>495.0</ele><time>2026-04-18T14:04:14Z</time></trkpt><trkpt lat="41.723004465210145" lon="-8.476776973570658"><ele>494.0</ele><time>2026-04-18T14:04:15Z</time></trkpt><trkpt lat="41.72308514381468" lon="-8.476838958971529"><ele>493.0</ele><time>2026-04-18T14:04:16Z</time></trkpt><trkpt lat="41.72316179152211" lon="-8.476910505231169"><ele>492.0</ele><time>2026-04-18T14:04:17Z</time></trkpt><trkpt lat="41.72322611141481" lon="-8.47697437713268"><ele>491.0</ele><time>2026-04-18T14:04:18Z</time></trkpt><trkpt lat="41.7232870430305" lon="-8.477025120748426"><ele>490.0</ele><time>2026-04-18T14:04:19Z</time></trkpt><trkpt lat="41.72337728611082" lon="-8.47710740002306"><ele>489.0</ele><time>2026-04-18T14:04:21Z</time></trkpt><trkpt lat="41.7234548747449" lon="-8.477134693586533"><ele>489.0</ele><time>2026-04-18T14:04:23Z</time></trkpt><trkpt lat="41.72354690298559" lon="-8.477140572066766"><ele>489.0</ele><time>2026-04-18T14:04:25Z</time></trkpt><trkpt lat="41.72365281885805" lon="-8.477135054127634"><ele>489.0</ele><time>2026-04-18T14:04:27Z</time></trkpt><trkpt lat="41.72374998436959" lon="-8.477096734304265"><ele>489.0</ele><time>2026-04-18T14:04:29Z</time></trkpt><trkpt lat="41.7238527091961" lon="-8.4770674153357"><ele>489.0</ele><time>2026-04-18T14:04:31.001Z</time></trkpt><trkpt lat="41.72395748692271" lon="-8.477035696283277"><ele>494.6</ele><time>2026-04-18T14:04:33.001Z</time></trkpt><trkpt lat="41.724055231336365" lon="-8.476988454303209"><ele>500.2</ele><time>2026-04-18T14:04:35.001Z</time></trkpt><trkpt lat="41.72414857975162" lon="-8.476942281091775"><ele>505.80000000000007</ele><time>2026-04-18T14:04:37.001Z</time></trkpt><trkpt lat="41.72424511932428" lon="-8.476917803450329"><ele>511.40000000000003</ele><time>2026-04-18T14:04:39.001Z</time></trkpt><trkpt lat="41.724339482600016" lon="-8.476876276661978"><ele>517.0</ele><time>2026-04-18T14:04:41.001Z</time></trkpt><trkpt lat="41.72442966905074" lon="-8.476802884056248"><ele>517.0</ele><time>2026-04-18T14:04:43.001Z</time></trkpt><trkpt lat="41.72449345010951" lon="-8.476751166272804"><ele>517.0</ele><time>2026-04-18T14:04:45Z</time></trkpt><trkpt lat="41.724553332841076" lon="-8.476689588540776"><ele>517.0</ele><time>2026-04-18T14:04:47Z</time></trkpt><trkpt lat="41.724602462571575" lon="-8.476627303524262"><ele>517.0</ele><time>2026-04-18T14:04:49Z</time></trkpt><trkpt lat="41.72467122003127" lon="-8.476554262494346"><ele>517.0</ele><time>2026-04-18T14:04:51Z</time></trkpt><trkpt lat="41.72474802001573" lon="-8.47651717403781"><ele>517.0</ele><time>2026-04-18T14:04:53Z</time></trkpt><trkpt lat="41.72483908687281" lon="-8.476489668070851"><ele>517.0</ele><time>2026-04-18T14:04:55Z</time></trkpt><trkpt lat="41.724934182517394" lon="-8.476542455310103"><ele>517.0</ele><time>2026-04-18T14:04:57Z</time></trkpt><trkpt lat="41.725000665044725" lon="-8.47666317873825"><ele>517.0</ele><time>2026-04-18T14:04:59Z</time></trkpt><trkpt lat="41.725070915802796" lon="-8.476745875526449"><ele>517.0</ele><time>2026-04-18T14:05:01Z</time></trkpt><trkpt lat="41.72514114254693" lon="-8.47682963713712"><ele>517.0</ele><time>2026-04-18T14:05:03Z</time></trkpt><trkpt lat="41.72519334858155" lon="-8.476911791057985"><ele>518.8000000000001</ele><time>2026-04-18T14:05:05Z</time></trkpt><trkpt lat="41.72527811973671" lon="-8.476989404711194"><ele>520.6</ele><time>2026-04-18T14:05:08Z</time></trkpt><trkpt lat="41.72536764954052" lon="-8.477079594960184"><ele>522.4000000000001</ele><time>2026-04-18T14:05:10Z</time></trkpt><trkpt lat="41.725461767683555" lon="-8.477115599870888"><ele>524.2</ele><time>2026-04-18T14:05:12Z</time></trkpt><trkpt lat="41.72555316336392" lon="-8.477154859447603"><ele>526.0</ele><time>2026-04-18T14:05:14Z</time></trkpt><trkpt lat="41.725648707154846" lon="-8.47721883196697"><ele>526.8333333333334</ele><time>2026-04-18T14:05:16Z</time></trkpt><trkpt lat="41.725744474623916" lon="-8.477284797645883"><ele>527.6666666666667</ele><time>2026-04-18T14:05:18Z</time></trkpt><trkpt lat="41.72582782449707" lon="-8.477401153258363"><ele>528.5</ele><time>2026-04-18T14:05:20Z</time></trkpt><trkpt lat="41.7258719474025" lon="-8.477462269295236"><ele>529.3333333333334</ele><time>2026-04-18T14:05:21Z</time></trkpt><trkpt lat="41.725921942632134" lon="-8.477533439886901"><ele>530.1666666666666</ele><time>2026-04-18T14:05:22Z</time></trkpt><trkpt lat="41.72597007798374" lon="-8.477601254412544"><ele>531.0</ele><time>2026-04-18T14:05:23Z</time></trkpt><trkpt lat="41.726045457714214" lon="-8.477723845292207"><ele>533.0</ele><time>2026-04-18T14:05:25Z</time></trkpt><trkpt lat="41.72611463440598" lon="-8.477866646784047"><ele>535.0</ele><time>2026-04-18T14:05:27Z</time></trkpt><trkpt lat="41.726148999375006" lon="-8.47795248321638"><ele>537.0</ele><time>2026-04-18T14:05:28Z</time></trkpt><trkpt lat="41.7261822889191" lon="-8.478038799215192"><ele>539.0</ele><time>2026-04-18T14:05:29Z</time></trkpt><trkpt lat="41.726213779461126" lon="-8.478116597809509"><ele>541.0</ele><time>2026-04-18T14:05:30Z</time></trkpt><trkpt lat="41.72630021737241" lon="-8.478229879173522"><ele>542.6</ele><time>2026-04-18T14:05:32Z</time></trkpt><trkpt lat="41.726355653213986" lon="-8.478345698370244"><ele>544.2</ele><time>2026-04-18T14:05:34Z</time></trkpt><trkpt lat="41.726366951200156" lon="-8.478441311459907"><ele>545.8</ele><time>2026-04-18T14:05:36Z</time></trkpt><trkpt lat="41.726374898635996" lon="-8.478580170627952"><ele>547.4</ele><time>2026-04-18T14:05:38Z</time></trkpt><trkpt lat="41.726355799426244" lon="-8.478740102506102"><ele>549.0</ele><time>2026-04-18T14:05:40Z</time></trkpt><trkpt lat="41.72634072594402" lon="-8.47884119185623"><ele>549.8</ele><time>2026-04-18T14:05:42Z</time></trkpt><trkpt lat="41.72629759388357" lon="-8.478960763644547"><ele>550.5999999999999</ele><time>2026-04-18T14:05:44Z</time></trkpt><trkpt lat="41.72623625803354" lon="-8.479087946824132"><ele>551.4</ele><time>2026-04-18T14:05:46Z</time></trkpt><trkpt lat="41.72621921987537" lon="-8.479201411013808"><ele>552.1999999999999</ele><time>2026-04-18T14:05:48Z</time></trkpt><trkpt lat="41.726189693480656" lon="-8.479347473117523"><ele>553.0</ele><time>2026-04-18T14:05:50Z</time></trkpt><trkpt lat="41.72617967229412" lon="-8.4794880804289"><ele>553.0</ele><time>2026-04-18T14:05:52Z</time></trkpt><trkpt lat="41.72615688976201" lon="-8.479628602031942"><ele>553.0</ele><time>2026-04-18T14:05:54Z</time></trkpt><trkpt lat="41.72612053662843" lon="-8.479735950431795"><ele>553.0</ele><time>2026-04-18T14:05:56Z</time></trkpt><trkpt lat="41.72605110031237" lon="-8.479837275551395"><ele>553.0</ele><time>2026-04-18T14:05:59Z</time></trkpt><trkpt lat="41.725976218898516" lon="-8.479875668622354"><ele>553.0</ele><time>2026-04-18T14:06:01Z</time></trkpt><trkpt lat="41.72591258751241" lon="-8.479878727811478"><ele>553.0</ele><time>2026-04-18T14:06:03Z</time></trkpt><trkpt lat="41.725826236750756" lon="-8.479900359164839"><ele>551.1999999999999</ele><time>2026-04-18T14:06:05Z</time></trkpt><trkpt lat="41.725736529545685" lon="-8.479969992373848"><ele>549.4</ele><time>2026-04-18T14:06:07Z</time></trkpt><trkpt lat="41.72567872543205" lon="-8.480076788550337"><ele>547.5999999999999</ele><time>2026-04-18T14:06:09Z</time></trkpt><trkpt lat="41.725644331939066" lon="-8.480192510730031"><ele>545.8</ele><time>2026-04-18T14:06:11Z</time></trkpt><trkpt lat="41.72562242447199" lon="-8.480304254327901"><ele>544.0</ele><time>2026-04-18T14:06:13Z</time></trkpt><trkpt lat="41.72558740149484" lon="-8.480396777716969"><ele>545.6666666666667</ele><time>2026-04-18T14:06:15Z</time></trkpt><trkpt lat="41.72553573507092" lon="-8.480466114120398"><ele>547.3333333333334</ele><time>2026-04-18T14:06:17Z</time></trkpt><trkpt lat="41.72546970291914" lon="-8.480560429752957"><ele>549.0</ele><time>2026-04-18T14:06:20Z</time></trkpt><trkpt lat="41.72541059430147" lon="-8.480645441929221"><ele>550.6666666666666</ele><time>2026-04-18T14:06:23Z</time></trkpt><trkpt lat="41.725357677118595" lon="-8.480730946823005"><ele>552.3333333333333</ele><time>2026-04-18T14:06:25.999Z</time></trkpt><trkpt lat="41.72531016860631" lon="-8.480811456464"><ele>554.0</ele><time>2026-04-18T14:06:27.999Z</time></trkpt><trkpt lat="41.72529605012169" lon="-8.48093042238707"><ele>554.0</ele><time>2026-04-18T14:06:29.999Z</time></trkpt><trkpt lat="41.72532577425527" lon="-8.481026098186774"><ele>554.0</ele><time>2026-04-18T14:06:31.999Z</time></trkpt><trkpt lat="41.72538638201601" lon="-8.481107288408795"><ele>554.0</ele><time>2026-04-18T14:07:14Z</time></trkpt><trkpt lat="41.72552544078519" lon="-8.481084808905164"><ele>554.0</ele><time>2026-04-18T14:07:16Z</time></trkpt><trkpt lat="41.72563297590841" lon="-8.48104139487356"><ele>554.0</ele><time>2026-04-18T14:07:18Z</time></trkpt><trkpt lat="41.72570736101894" lon="-8.481027692185142"><ele>554.0</ele><time>2026-04-18T14:07:20Z</time></trkpt><trkpt lat="41.72577000534041" lon="-8.48098812505916"><ele>554.0</ele><time>2026-04-18T14:07:24Z</time></trkpt><trkpt lat="41.72583566460968" lon="-8.480978986292323"><ele>554.0</ele><time>2026-04-18T14:07:27Z</time></trkpt><trkpt lat="41.725910991484014" lon="-8.480983760571366"><ele>554.0</ele><time>2026-04-18T14:07:30Z</time></trkpt><trkpt lat="41.72600254888499" lon="-8.481010767407852"><ele>554.0</ele><time>2026-04-18T14:07:32Z</time></trkpt><trkpt lat="41.72611473316847" lon="-8.48101557048187"><ele>554.0</ele><time>2026-04-18T14:07:34Z</time></trkpt><trkpt lat="41.72621770963479" lon="-8.481028415911453"><ele>555.0</ele><time>2026-04-18T14:07:36Z</time></trkpt><trkpt lat="41.72629272485051" lon="-8.480994616907463"><ele>556.0</ele><time>2026-04-18T14:07:38Z</time></trkpt><trkpt lat="41.726374075714496" lon="-8.480928963765658"><ele>557.0</ele><time>2026-04-18T14:07:40Z</time></trkpt><trkpt lat="41.726458884226155" lon="-8.480850199103898"><ele>558.0</ele><time>2026-04-18T14:07:42Z</time></trkpt><trkpt lat="41.72653448984018" lon="-8.480739740176215"><ele>559.0</ele><time>2026-04-18T14:07:44Z</time></trkpt><trkpt lat="41.72661915558438" lon="-8.480625788490475"><ele>559.0</ele><time>2026-04-18T14:07:46Z</time></trkpt><trkpt lat="41.72669909941793" lon="-8.480526568664125"><ele>559.0</ele><time>2026-04-18T14:07:48Z</time></trkpt><trkpt lat="41.72679808222692" lon="-8.480424229500334"><ele>559.0</ele><time>2026-04-18T14:07:50Z</time></trkpt><trkpt lat="41.72688589144192" lon="-8.480364592545525"><ele>559.0</ele><time>2026-04-18T14:07:52Z</time></trkpt><trkpt lat="41.72697977786858" lon="-8.480306785408462"><ele>559.0</ele><time>2026-04-18T14:07:54Z</time></trkpt><trkpt lat="41.72708564320291" lon="-8.480261942061409"><ele>559.2</ele><time>2026-04-18T14:07:56Z</time></trkpt><trkpt lat="41.72719811619435" lon="-8.480231873127588"><ele>559.4</ele><time>2026-04-18T14:07:58Z</time></trkpt><trkpt lat="41.727325940818766" lon="-8.480228406216867"><ele>559.6</ele><time>2026-04-18T14:08:00Z</time></trkpt><trkpt lat="41.72739415088392" lon="-8.480235760865696"><ele>559.8</ele><time>2026-04-18T14:08:01Z</time></trkpt><trkpt lat="41.72751626857223" lon="-8.480265977186574"><ele>560.0</ele><time>2026-04-18T14:08:03Z</time></trkpt><trkpt lat="41.727580002409354" lon="-8.48028048058031"><ele>560.0</ele><time>2026-04-18T14:08:04Z</time></trkpt><trkpt lat="41.72770455919736" lon="-8.48030801154075"><ele>560.0</ele><time>2026-04-18T14:08:06Z</time></trkpt><trkpt lat="41.72782622585826" lon="-8.480333473325107"><ele>560.0</ele><time>2026-04-18T14:08:08Z</time></trkpt><trkpt lat="41.72794616579259" lon="-8.48034121307065"><ele>560.0</ele><time>2026-04-18T14:08:10Z</time></trkpt><trkpt lat="41.728052602553" lon="-8.480314798853334"><ele>560.0</ele><time>2026-04-18T14:08:12Z</time></trkpt><trkpt lat="41.72811762370996" lon="-8.480268646337029"><ele>560.0</ele><time>2026-04-18T14:08:13Z</time></trkpt><trkpt lat="41.7281919477702" lon="-8.480196107404854"><ele>560.0</ele><time>2026-04-18T14:08:14Z</time></trkpt><trkpt lat="41.72826066379713" lon="-8.48011981059496"><ele>560.0</ele><time>2026-04-18T14:08:15Z</time></trkpt><trkpt lat="41.72833054378946" lon="-8.480040340176066"><ele>560.0</ele><time>2026-04-18T14:08:15.999Z</time></trkpt><trkpt lat="41.72839437709312" lon="-8.479964372200739"><ele>560.0</ele><time>2026-04-18T14:08:16.999Z</time></trkpt><trkpt lat="41.72845689782374" lon="-8.479881334115866"><ele>560.0</ele><time>2026-04-18T14:08:17.999Z</time></trkpt><trkpt lat="41.72852586627035" lon="-8.479771749731146"><ele>560.0</ele><time>2026-04-18T14:08:18.999Z</time></trkpt><trkpt lat="41.72858186311984" lon="-8.4796610159777"><ele>560.0</ele><time>2026-04-18T14:08:19.999Z</time></trkpt><trkpt lat="41.72862662353217" lon="-8.479564948705779"><ele>560.0</ele><time>2026-04-18T14:08:20.999Z</time></trkpt><trkpt lat="41.728661428966994" lon="-8.4794822451803"><ele>560.0</ele><time>2026-04-18T14:08:21.999Z</time></trkpt><trkpt lat="41.728720663738414" lon="-8.479366906392375"><ele>560.8333333333333</ele><time>2026-04-18T14:08:23.999Z</time></trkpt><trkpt lat="41.728765226003894" lon="-8.479300311470695"><ele>561.6666666666666</ele><time>2026-04-18T14:08:25.999Z</time></trkpt><trkpt lat="41.72882632190235" lon="-8.479200602587284"><ele>562.5</ele><time>2026-04-18T14:08:27.999Z</time></trkpt><trkpt lat="41.72892617498173" lon="-8.479081872127612"><ele>563.3333333333334</ele><time>2026-04-18T14:08:29.999Z</time></trkpt><trkpt lat="41.72897646088357" lon="-8.479019627674948"><ele>564.1666666666667</ele><time>2026-04-18T14:08:30.999Z</time></trkpt><trkpt lat="41.729021634801825" lon="-8.47895333074638"><ele>565.0</ele><time>2026-04-18T14:08:31.999Z</time></trkpt><trkpt lat="41.72911426957369" lon="-8.478877332882464"><ele>565.0</ele><time>2026-04-18T14:08:33.999Z</time></trkpt><trkpt lat="41.72923970415707" lon="-8.4788177033802"><ele>565.0</ele><time>2026-04-18T14:08:35.999Z</time></trkpt><trkpt lat="41.729304861575585" lon="-8.4788014841973"><ele>565.0</ele><time>2026-04-18T14:08:36.999Z</time></trkpt><trkpt lat="41.72940944006017" lon="-8.478754887268096"><ele>565.0</ele><time>2026-04-18T14:08:38.999Z</time></trkpt><trkpt lat="41.729460610001844" lon="-8.478691200023087"><ele>565.0</ele><time>2026-04-18T14:08:39.999Z</time></trkpt><trkpt lat="41.7295066596718" lon="-8.478614679473301"><ele>566.1666666666667</ele><time>2026-04-18T14:08:40.999Z</time></trkpt><trkpt lat="41.729538064002156" lon="-8.478536765743915"><ele>567.3333333333334</ele><time>2026-04-18T14:08:41.999Z</time></trkpt><trkpt lat="41.729595793355" lon="-8.478408951487648"><ele>568.5</ele><time>2026-04-18T14:08:44Z</time></trkpt><trkpt lat="41.72964353131995" lon="-8.478344770526679"><ele>569.6666666666666</ele><time>2026-04-18T14:08:45Z</time></trkpt><trkpt lat="41.72969584220548" lon="-8.4782735201157"><ele>570.8333333333333</ele><time>2026-04-18T14:08:46Z</time></trkpt><trkpt lat="41.72979041023537" lon="-8.478165064531272"><ele>572.0</ele><time>2026-04-18T14:08:48Z</time></trkpt><trkpt lat="41.72985842734174" lon="-8.478110224425206"><ele>572.0</ele><time>2026-04-18T14:08:49Z</time></trkpt><trkpt lat="41.729919206623755" lon="-8.478047857196719"><ele>572.0</ele><time>2026-04-18T14:08:50Z</time></trkpt><trkpt lat="41.72996077255188" lon="-8.477983866808538"><ele>572.0</ele><time>2026-04-18T14:08:51Z</time></trkpt><trkpt lat="41.73004979942564" lon="-8.477876784509403"><ele>572.0</ele><time>2026-04-18T14:08:53Z</time></trkpt><trkpt lat="41.73019172788829" lon="-8.477817230564394"><ele>572.0</ele><time>2026-04-18T14:08:55Z</time></trkpt><trkpt lat="41.7302666045193" lon="-8.47779521421988"><ele>573.0</ele><time>2026-04-18T14:08:56Z</time></trkpt><trkpt lat="41.73033938493616" lon="-8.477777818914825"><ele>574.0</ele><time>2026-04-18T14:08:57Z</time></trkpt><trkpt lat="41.730409090353774" lon="-8.477760110263695"><ele>575.0</ele><time>2026-04-18T14:08:58Z</time></trkpt><trkpt lat="41.73049188701223" lon="-8.477733222674674"><ele>576.0</ele><time>2026-04-18T14:08:59Z</time></trkpt><trkpt lat="41.73056283803054" lon="-8.47770527168968"><ele>577.0</ele><time>2026-04-18T14:09:00Z</time></trkpt><trkpt lat="41.73063632357876" lon="-8.477675295996262"><ele>578.0</ele><time>2026-04-18T14:09:01Z</time></trkpt><trkpt lat="41.73070800822917" lon="-8.477652464572982"><ele>578.0</ele><time>2026-04-18T14:09:02Z</time></trkpt><trkpt lat="41.730782887755446" lon="-8.477631838002035"><ele>578.0</ele><time>2026-04-18T14:09:03Z</time></trkpt><trkpt lat="41.730861995086336" lon="-8.477609664202925"><ele>578.0</ele><time>2026-04-18T14:09:04Z</time></trkpt><trkpt lat="41.730938198396714" lon="-8.477575451920943"><ele>578.0</ele><time>2026-04-18T14:09:05Z</time></trkpt><trkpt lat="41.731004620061235" lon="-8.477536755112995"><ele>578.0</ele><time>2026-04-18T14:09:06Z</time></trkpt><trkpt lat="41.731070580580706" lon="-8.477496126603706"><ele>578.0</ele><time>2026-04-18T14:09:07Z</time></trkpt><trkpt lat="41.73114377972591" lon="-8.477459839742787"><ele>578.0</ele><time>2026-04-18T14:09:08Z</time></trkpt><trkpt lat="41.731236453067" lon="-8.477419118860537"><ele>578.0</ele><time>2026-04-18T14:09:10Z</time></trkpt><trkpt lat="41.73131950405707" lon="-8.477373944814273"><ele>578.0</ele><time>2026-04-18T14:09:12Z</time></trkpt><trkpt lat="41.73142970256613" lon="-8.477320985112515"><ele>578.0</ele><time>2026-04-18T14:09:14Z</time></trkpt><trkpt lat="41.73154046791383" lon="-8.477280037703457"><ele>578.0</ele><time>2026-04-18T14:09:16Z</time></trkpt><trkpt lat="41.731646188774576" lon="-8.477258451367526"><ele>578.0</ele><time>2026-04-18T14:09:18Z</time></trkpt><trkpt lat="41.73174499412974" lon="-8.477226082729421"><ele>578.0</ele><time>2026-04-18T14:09:20Z</time></trkpt><trkpt lat="41.73184395500759" lon="-8.477185267238546"><ele>578.0</ele><time>2026-04-18T14:09:22Z</time></trkpt><trkpt lat="41.731935510772814" lon="-8.477157084470193"><ele>578.0</ele><time>2026-04-18T14:09:24Z</time></trkpt><trkpt lat="41.73201747795872" lon="-8.477141852819218"><ele>578.0</ele><time>2026-04-18T14:09:26Z</time></trkpt><trkpt lat="41.732061657381664" lon="-8.477011788826411"><ele>578.1999999999999</ele><time>2026-04-18T14:09:29Z</time></trkpt><trkpt lat="41.73199388067245" lon="-8.47689751107608"><ele>578.4</ele><time>2026-04-18T14:09:31Z</time></trkpt><trkpt lat="41.73193684535557" lon="-8.476774239476796"><ele>578.5999999999999</ele><time>2026-04-18T14:09:33Z</time></trkpt><trkpt lat="41.7319012826122" lon="-8.476652079911094"><ele>578.8</ele><time>2026-04-18T14:09:35Z</time></trkpt><trkpt lat="41.7318721781099" lon="-8.476572644063443"><ele>579.0</ele><time>2026-04-18T14:09:36Z</time></trkpt><trkpt lat="41.73184540336446" lon="-8.476447019462576"><ele>579.4</ele><time>2026-04-18T14:09:38Z</time></trkpt><trkpt lat="41.73180098294663" lon="-8.476341745107637"><ele>579.8</ele><time>2026-04-18T14:09:40Z</time></trkpt><trkpt lat="41.73173725083083" lon="-8.476232834637964"><ele>580.2</ele><time>2026-04-18T14:09:42Z</time></trkpt><trkpt lat="41.73169782265623" lon="-8.47613763458008"><ele>580.6</ele><time>2026-04-18T14:09:44Z</time></trkpt><trkpt lat="41.731667415012595" lon="-8.47601144919586"><ele>581.0</ele><time>2026-04-18T14:09:46Z</time></trkpt><trkpt lat="41.73163626813129" lon="-8.475870509508928"><ele>581.6</ele><time>2026-04-18T14:09:48Z</time></trkpt><trkpt lat="41.73154733976485" lon="-8.475763678198824"><ele>582.2</ele><time>2026-04-18T14:09:50Z</time></trkpt><trkpt lat="41.73148906665177" lon="-8.475713473126088"><ele>582.8</ele><time>2026-04-18T14:09:51Z</time></trkpt><trkpt lat="41.7314354014624" lon="-8.47565395623239"><ele>583.4</ele><time>2026-04-18T14:09:52Z</time></trkpt><trkpt lat="41.73135516665982" lon="-8.475520783311191"><ele>584.0</ele><time>2026-04-18T14:09:54Z</time></trkpt><trkpt lat="41.73131006669323" lon="-8.475439636898962"><ele>584.0</ele><time>2026-04-18T14:09:55Z</time></trkpt><trkpt lat="41.73126630596113" lon="-8.47535025307831"><ele>584.0</ele><time>2026-04-18T14:09:56Z</time></trkpt><trkpt lat="41.73121312050079" lon="-8.475227786460371"><ele>584.0</ele><time>2026-04-18T14:09:58Z</time></trkpt><trkpt lat="41.73111116284391" lon="-8.475153734298114"><ele>584.0</ele><time>2026-04-18T14:10:00Z</time></trkpt><trkpt lat="41.7310705549227" lon="-8.475077256556014"><ele>584.0</ele><time>2026-04-18T14:10:01Z</time></trkpt><trkpt lat="41.731044607385336" lon="-8.474990887061221"><ele>584.0</ele><time>2026-04-18T14:10:01.999Z</time></trkpt><trkpt lat="41.731010646043295" lon="-8.474904468360496"><ele>584.7142857142857</ele><time>2026-04-18T14:10:02.999Z</time></trkpt><trkpt lat="41.73096105157609" lon="-8.474834357630195"><ele>585.4285714285714</ele><time>2026-04-18T14:10:03.999Z</time></trkpt><trkpt lat="41.730919052222106" lon="-8.474759027399614"><ele>586.1428571428571</ele><time>2026-04-18T14:10:04.999Z</time></trkpt><trkpt lat="41.73088649130867" lon="-8.474673490160832"><ele>586.8571428571429</ele><time>2026-04-18T14:10:05.999Z</time></trkpt><trkpt lat="41.730845647814256" lon="-8.474594875729082"><ele>587.5714285714286</ele><time>2026-04-18T14:10:06.999Z</time></trkpt><trkpt lat="41.73081107700555" lon="-8.474515752524594"><ele>588.2857142857142</ele><time>2026-04-18T14:10:07.999Z</time></trkpt><trkpt lat="41.73076778476281" lon="-8.474437838935863"><ele>589.0</ele><time>2026-04-18T14:10:08.999Z</time></trkpt><trkpt lat="41.73072212357309" lon="-8.474367741569461"><ele>589.0</ele><time>2026-04-18T14:10:09.999Z</time></trkpt><trkpt lat="41.730679516247875" lon="-8.474279046753812"><ele>589.0</ele><time>2026-04-18T14:10:10.999Z</time></trkpt><trkpt lat="41.730637817478225" lon="-8.474120923346005"><ele>589.0</ele><time>2026-04-18T14:10:12.999Z</time></trkpt><trkpt lat="41.730583709167576" lon="-8.473968146011488"><ele>589.0</ele><time>2026-04-18T14:10:14.999Z</time></trkpt><trkpt lat="41.730554302247924" lon="-8.473892645703332"><ele>589.0</ele><time>2026-04-18T14:10:15.999Z</time></trkpt><trkpt lat="41.730527864504154" lon="-8.473811578814837"><ele>589.2</ele><time>2026-04-18T14:10:16.999Z</time></trkpt><trkpt lat="41.73050253307721" lon="-8.473643689472027"><ele>589.4</ele><time>2026-04-18T14:10:18.999Z</time></trkpt><trkpt lat="41.73048822088044" lon="-8.473551711732282"><ele>589.6</ele><time>2026-04-18T14:10:19.999Z</time></trkpt><trkpt lat="41.730479656114845" lon="-8.4734123907137"><ele>589.8</ele><time>2026-04-18T14:10:21.999Z</time></trkpt><trkpt lat="41.73043519291555" lon="-8.473265389561032"><ele>590.0</ele><time>2026-04-18T14:10:23.999Z</time></trkpt><trkpt lat="41.73035672121789" lon="-8.473173548049207"><ele>590.0</ele><time>2026-04-18T14:10:25.999Z</time></trkpt><trkpt lat="41.730342211957975" lon="-8.473063261601355"><ele>590.0</ele><time>2026-04-18T14:10:27.999Z</time></trkpt><trkpt lat="41.730365188951616" lon="-8.472981601656924"><ele>590.0</ele><time>2026-04-18T14:10:28.999Z</time></trkpt><trkpt lat="41.73036213740747" lon="-8.472860296863951"><ele>590.0</ele><time>2026-04-18T14:10:30.999Z</time></trkpt><trkpt lat="41.730298537751835" lon="-8.472832628344644"><ele>590.0</ele><time>2026-04-18T14:10:32.999Z</time></trkpt><trkpt lat="41.730216237276906" lon="-8.472762882466778"><ele>590.0</ele><time>2026-04-18T14:10:34.999Z</time></trkpt><trkpt lat="41.7301976060255" lon="-8.472664195581876"><ele>591.2</ele><time>2026-04-18T14:10:36.999Z</time></trkpt><trkpt lat="41.730198326050534" lon="-8.472517851100513"><ele>592.4</ele><time>2026-04-18T14:10:38.999Z</time></trkpt><trkpt lat="41.73014208958845" lon="-8.472442835079768"><ele>593.6</ele><time>2026-04-18T14:10:40.999Z</time></trkpt><trkpt lat="41.73009058076901" lon="-8.472355296161162"><ele>594.8</ele><time>2026-04-18T14:10:42.999Z</time></trkpt><trkpt lat="41.73003754979261" lon="-8.472268917807737"><ele>596.0</ele><time>2026-04-18T14:10:44.999Z</time></trkpt><trkpt lat="41.729949814923145" lon="-8.47218810877846"><ele>596.0</ele><time>2026-04-18T14:10:47.999Z</time></trkpt><trkpt lat="41.729865533102355" lon="-8.47211574603778"><ele>596.0</ele><time>2026-04-18T14:10:50Z</time></trkpt><trkpt lat="41.72980461493694" lon="-8.472025277095797"><ele>596.0</ele><time>2026-04-18T14:10:52Z</time></trkpt><trkpt lat="41.72974470438586" lon="-8.471911068643083"><ele>596.0</ele><time>2026-04-18T14:10:54Z</time></trkpt><trkpt lat="41.72968691587965" lon="-8.471785469466344"><ele>596.0</ele><time>2026-04-18T14:10:56Z</time></trkpt><trkpt lat="41.7296499147491" lon="-8.471676888702646"><ele>596.6666666666666</ele><time>2026-04-18T14:10:58Z</time></trkpt><trkpt lat="41.72965089690008" lon="-8.471562685264384"><ele>597.3333333333333</ele><time>2026-04-18T14:11:00Z</time></trkpt><trkpt lat="41.72965605730927" lon="-8.471460286006662"><ele>598.0</ele><time>2026-04-18T14:11:02Z</time></trkpt><trkpt lat="41.729689261753485" lon="-8.471374617792401"><ele>598.6666666666666</ele><time>2026-04-18T14:11:04Z</time></trkpt><trkpt lat="41.729743108468305" lon="-8.47127344562388"><ele>599.3333333333334</ele><time>2026-04-18T14:11:06Z</time></trkpt><trkpt lat="41.72980529437025" lon="-8.471208264506679"><ele>600.0</ele><time>2026-04-18T14:11:08Z</time></trkpt><trkpt lat="41.729856645028484" lon="-8.471149434234793"><ele>600.4</ele><time>2026-04-18T14:11:10Z</time></trkpt><trkpt lat="41.72992742311542" lon="-8.471073426792445"><ele>600.8</ele><time>2026-04-18T14:11:14Z</time></trkpt><trkpt lat="41.729992550552204" lon="-8.47100001806625"><ele>601.2</ele><time>2026-04-18T14:11:17Z</time></trkpt><trkpt lat="41.730045937988244" lon="-8.470922362635708"><ele>601.6</ele><time>2026-04-18T14:11:19Z</time></trkpt><trkpt lat="41.730128345528584" lon="-8.4708434711586"><ele>602.0</ele><time>2026-04-18T14:11:21Z</time></trkpt><trkpt lat="41.730223188727834" lon="-8.470792186749682"><ele>603.0</ele><time>2026-04-18T14:11:23Z</time></trkpt><trkpt lat="41.7302896517914" lon="-8.470750207113536"><ele>604.0</ele><time>2026-04-18T14:11:25Z</time></trkpt><trkpt lat="41.730318153144715" lon="-8.470663070139459"><ele>605.0</ele><time>2026-04-18T14:11:27Z</time></trkpt><trkpt lat="41.730285648002884" lon="-8.470534427969499"><ele>606.0</ele><time>2026-04-18T14:11:29Z</time></trkpt><trkpt lat="41.73028789939996" lon="-8.470423887939244"><ele>607.0</ele><time>2026-04-18T14:11:31Z</time></trkpt><trkpt lat="41.730341600813254" lon="-8.470342638009178"><ele>608.0</ele><time>2026-04-18T14:11:33Z</time></trkpt><trkpt lat="41.730403422973865" lon="-8.470278020967779"><ele>608.0</ele><time>2026-04-18T14:11:35Z</time></trkpt><trkpt lat="41.73042006223385" lon="-8.470194106429975"><ele>608.0</ele><time>2026-04-18T14:11:39Z</time></trkpt><trkpt lat="41.73040583539396" lon="-8.470099922917464"><ele>608.0</ele><time>2026-04-18T14:11:42Z</time></trkpt><trkpt lat="41.7303487215333" lon="-8.470050182037573"><ele>608.0</ele><time>2026-04-18T14:11:44Z</time></trkpt><trkpt lat="41.73027183568962" lon="-8.470062044139976"><ele>608.0</ele><time>2026-04-18T14:11:46Z</time></trkpt><trkpt lat="41.730195503688286" lon="-8.470010769818698"><ele>608.0</ele><time>2026-04-18T14:11:48Z</time></trkpt><trkpt lat="41.730115566738704" lon="-8.469942057410176"><ele>607.5</ele><time>2026-04-18T14:11:50Z</time></trkpt><trkpt lat="41.73005809203315" lon="-8.46986938007514"><ele>607.0</ele><time>2026-04-18T14:11:52Z</time></trkpt><trkpt lat="41.73003587641987" lon="-8.469761735007049"><ele>606.5</ele><time>2026-04-18T14:11:54Z</time></trkpt><trkpt lat="41.73001115724047" lon="-8.46964367522042"><ele>606.0</ele><time>2026-04-18T14:11:56Z</time></trkpt><trkpt lat="41.73000570314028" lon="-8.469555887550372"><ele>605.5</ele><time>2026-04-18T14:11:58Z</time></trkpt><trkpt lat="41.72999101853538" lon="-8.469448540892614"><ele>605.0</ele><time>2026-04-18T14:12:00Z</time></trkpt><trkpt lat="41.73001067649019" lon="-8.469359618597878"><ele>606.3333333333333</ele><time>2026-04-18T14:12:02Z</time></trkpt><trkpt lat="41.72995134713583" lon="-8.46923591144624"><ele>607.6666666666666</ele><time>2026-04-18T14:12:05Z</time></trkpt><trkpt lat="41.72989415658928" lon="-8.46917458308746"><ele>609.0</ele><time>2026-04-18T14:12:07Z</time></trkpt><trkpt lat="41.72982800783998" lon="-8.469139153301063"><ele>610.3333333333334</ele><time>2026-04-18T14:12:08.999Z</time></trkpt><trkpt lat="41.72975022687918" lon="-8.46915908845917"><ele>611.6666666666667</ele><time>2026-04-18T14:12:10.999Z</time></trkpt><trkpt lat="41.72966632987869" lon="-8.469145906657866"><ele>613.0</ele><time>2026-04-18T14:12:13.999Z</time></trkpt><trkpt lat="41.72962719966562" lon="-8.469051591600344"><ele>613.0</ele><time>2026-04-18T14:12:16.999Z</time></trkpt><trkpt lat="41.72961538138681" lon="-8.46893962007627"><ele>613.0</ele><time>2026-04-18T14:12:19.999Z</time></trkpt><trkpt lat="41.729638903121405" lon="-8.468791506201882"><ele>613.0</ele><time>2026-04-18T14:12:22.999Z</time></trkpt><trkpt lat="41.72961801236409" lon="-8.468659440546741"><ele>613.0</ele><time>2026-04-18T14:12:24.999Z</time></trkpt><trkpt lat="41.729571490233354" lon="-8.468534459444804"><ele>613.0</ele><time>2026-04-18T14:12:26.999Z</time></trkpt><trkpt lat="41.72954373200067" lon="-8.468380998328533"><ele>615.0</ele><time>2026-04-18T14:12:28.999Z</time></trkpt><trkpt lat="41.72953004536149" lon="-8.468242649071188"><ele>617.0</ele><time>2026-04-18T14:12:30.999Z</time></trkpt><trkpt lat="41.72945787100338" lon="-8.468200736179426"><ele>619.0</ele><time>2026-04-18T14:12:32.999Z</time></trkpt><trkpt lat="41.72935246474667" lon="-8.46819548680573"><ele>621.0</ele><time>2026-04-18T14:12:34.999Z</time></trkpt><trkpt lat="41.72924509791448" lon="-8.468165068809435"><ele>623.0</ele><time>2026-04-18T14:12:36.999Z</time></trkpt><trkpt lat="41.729182725812905" lon="-8.468147360947077"><ele>623.1999999999999</ele><time>2026-04-18T14:12:38.999Z</time></trkpt><trkpt lat="41.72912039120737" lon="-8.468127694560796"><ele>623.4</ele><time>2026-04-18T14:12:41.999Z</time></trkpt><trkpt lat="41.729040915346054" lon="-8.468083852780131"><ele>623.5999999999999</ele><time>2026-04-18T14:12:43.999Z</time></trkpt><trkpt lat="41.72895512205884" lon="-8.468035399092763"><ele>623.8</ele><time>2026-04-18T14:12:45.999Z</time></trkpt><trkpt lat="41.728852103191485" lon="-8.467995578333895"><ele>624.0</ele><time>2026-04-18T14:12:47.999Z</time></trkpt><trkpt lat="41.728759079634905" lon="-8.467947392177937"><ele>626.75</ele><time>2026-04-18T14:12:49.999Z</time></trkpt><trkpt lat="41.72866650258114" lon="-8.467878783003222"><ele>629.5</ele><time>2026-04-18T14:12:51.999Z</time></trkpt><trkpt lat="41.72855213892317" lon="-8.467820051943082"><ele>632.25</ele><time>2026-04-18T14:12:53.999Z</time></trkpt><trkpt lat="41.7284461718921" lon="-8.46775911226752"><ele>635.0</ele><time>2026-04-18T14:12:56Z</time></trkpt><trkpt lat="41.72834107002296" lon="-8.467710958470407"><ele>635.0</ele><time>2026-04-18T14:12:58Z</time></trkpt><trkpt lat="41.7282411069564" lon="-8.467699005491582"><ele>635.0</ele><time>2026-04-18T14:13:00Z</time></trkpt><trkpt lat="41.728132747842885" lon="-8.46768951057917"><ele>635.0</ele><time>2026-04-18T14:13:02Z</time></trkpt><trkpt lat="41.72803346637296" lon="-8.467686504482359"><ele>635.0</ele><time>2026-04-18T14:13:04Z</time></trkpt><trkpt lat="41.72794866609309" lon="-8.46769924629342"><ele>635.0</ele><time>2026-04-18T14:13:06Z</time></trkpt><trkpt lat="41.72786811863965" lon="-8.467733394396856"><ele>635.0</ele><time>2026-04-18T14:13:08Z</time></trkpt><trkpt lat="41.72777304749317" lon="-8.46774644442306"><ele>635.0</ele><time>2026-04-18T14:13:10Z</time></trkpt><trkpt lat="41.72768513745209" lon="-8.467761883514406"><ele>635.0</ele><time>2026-04-18T14:13:12Z</time></trkpt><trkpt lat="41.72761802381024" lon="-8.467774128479835"><ele>635.0</ele><time>2026-04-18T14:13:14Z</time></trkpt><trkpt lat="41.72754576179571" lon="-8.467802812688445"><ele>635.0</ele><time>2026-04-18T14:13:16Z</time></trkpt><trkpt lat="41.72747250359443" lon="-8.467824318679758"><ele>635.0</ele><time>2026-04-18T14:13:18Z</time></trkpt><trkpt lat="41.727384924798855" lon="-8.467849435827926"><ele>634.3333333333333</ele><time>2026-04-18T14:13:20Z</time></trkpt><trkpt lat="41.727307799813666" lon="-8.467862880914184"><ele>633.6666666666666</ele><time>2026-04-18T14:13:22Z</time></trkpt><trkpt lat="41.727246572205026" lon="-8.467919685906953"><ele>633.0</ele><time>2026-04-18T14:13:25Z</time></trkpt><trkpt lat="41.72724255852711" lon="-8.468013957692001"><ele>632.3333333333334</ele><time>2026-04-18T14:15:44Z</time></trkpt><trkpt lat="41.72727267655936" lon="-8.468114805679038"><ele>631.6666666666667</ele><time>2026-04-18T14:15:46Z</time></trkpt><trkpt lat="41.727203247827504" lon="-8.468086940647236"><ele>631.0</ele><time>2026-04-18T14:15:49Z</time></trkpt><trkpt lat="41.72720367408236" lon="-8.467980427695146"><ele>631.0</ele><time>2026-04-18T14:15:52Z</time></trkpt><trkpt lat="41.72718995913014" lon="-8.467892140761053"><ele>631.0</ele><time>2026-04-18T14:16:03.999Z</time></trkpt><trkpt lat="41.72726102609194" lon="-8.467855620127777"><ele>631.0</ele><time>2026-04-18T14:16:11.999Z</time></trkpt><trkpt lat="41.72726993654068" lon="-8.467942318508136"><ele>631.0</ele><time>2026-04-18T14:16:14.999Z</time></trkpt><trkpt lat="41.727270037037925" lon="-8.468045872272027"><ele>631.0</ele><time>2026-04-18T14:16:17.999Z</time></trkpt><trkpt lat="41.72728159232203" lon="-8.468131595862054"><ele>631.0</ele><time>2026-04-18T14:16:21.999Z</time></trkpt><trkpt lat="41.72723522134876" lon="-8.468074522350943"><ele>631.0</ele><time>2026-04-18T14:16:59.999Z</time></trkpt><trkpt lat="41.72720467343615" lon="-8.467992375453456"><ele>631.0</ele><time>2026-04-18T14:17:11Z</time></trkpt><trkpt lat="41.727216145484626" lon="-8.467859267333214"><ele>631.0</ele><time>2026-04-18T14:24:05.999Z</time></trkpt><trkpt lat="41.72728082187444" lon="-8.467840639668383"><ele>631.0</ele><time>2026-04-18T14:24:19.999Z</time></trkpt><trkpt lat="41.727278422070455" lon="-8.467955787798864"><ele>631.0</ele><time>2026-04-18T14:24:22.999Z</time></trkpt><trkpt lat="41.727202618345885" lon="-8.468020533714792"><ele>631.0</ele><time>2026-04-18T14:24:25.999Z</time></trkpt><trkpt lat="41.727107588853386" lon="-8.468066530666235"><ele>631.0</ele><time>2026-04-18T14:24:27.999Z</time></trkpt><trkpt lat="41.72700743862715" lon="-8.468118456451688"><ele>630.8</ele><time>2026-04-18T14:24:29.999Z</time></trkpt><trkpt lat="41.72690582566993" lon="-8.468196183961735"><ele>630.6</ele><time>2026-04-18T14:24:31.999Z</time></trkpt><trkpt lat="41.72684608127431" lon="-8.468248655668281"><ele>630.4</ele><time>2026-04-18T14:24:34.999Z</time></trkpt><trkpt lat="41.72676558103067" lon="-8.468208073091985"><ele>630.2</ele><time>2026-04-18T14:24:46.999Z</time></trkpt><trkpt lat="41.72672238759662" lon="-8.46809767595187"><ele>630.0</ele><time>2026-04-18T14:24:48.999Z</time></trkpt><trkpt lat="41.72666836049963" lon="-8.467967603797364"><ele>630.0</ele><time>2026-04-18T14:24:50.999Z</time></trkpt><trkpt lat="41.72663649089276" lon="-8.46783756213572"><ele>630.0</ele><time>2026-04-18T14:24:52.999Z</time></trkpt><trkpt lat="41.726605456446826" lon="-8.467721378382283"><ele>630.0</ele><time>2026-04-18T14:24:54.999Z</time></trkpt><trkpt lat="41.726545791205886" lon="-8.467657985810519"><ele>630.0</ele><time>2026-04-18T14:24:56.999Z</time></trkpt><trkpt lat="41.72648689190685" lon="-8.467714278478203"><ele>630.0</ele><time>2026-04-18T14:24:58.999Z</time></trkpt><trkpt lat="41.72646159723409" lon="-8.467861001018955"><ele>630.0</ele><time>2026-04-18T14:25:00.999Z</time></trkpt><trkpt lat="41.72647604370303" lon="-8.468024003432394"><ele>630.0</ele><time>2026-04-18T14:25:02.999Z</time></trkpt><trkpt lat="41.726474610358075" lon="-8.468200807388971"><ele>630.0</ele><time>2026-04-18T14:25:04.999Z</time></trkpt><trkpt lat="41.726464231814916" lon="-8.46837469513285"><ele>630.0</ele><time>2026-04-18T14:25:06.999Z</time></trkpt><trkpt lat="41.72646034788309" lon="-8.468542549854957"><ele>630.0</ele><time>2026-04-18T14:25:08.999Z</time></trkpt><trkpt lat="41.72644707656337" lon="-8.468626749052858"><ele>630.0</ele><time>2026-04-18T14:25:09.999Z</time></trkpt><trkpt lat="41.72640314124301" lon="-8.46878004371225"><ele>630.0</ele><time>2026-04-18T14:25:11.999Z</time></trkpt><trkpt lat="41.7263496619857" lon="-8.468876265816219"><ele>630.0</ele><time>2026-04-18T14:25:13.999Z</time></trkpt><trkpt lat="41.7262601378706" lon="-8.468951134139749"><ele>630.0</ele><time>2026-04-18T14:25:15.999Z</time></trkpt><trkpt lat="41.72620481821214" lon="-8.469002119349819"><ele>630.0</ele><time>2026-04-18T14:25:16.999Z</time></trkpt><trkpt lat="41.72610348320338" lon="-8.469072759068737"><ele>630.4</ele><time>2026-04-18T14:25:18.999Z</time></trkpt><trkpt lat="41.72602922434375" lon="-8.469105861620003"><ele>630.8</ele><time>2026-04-18T14:25:20.999Z</time></trkpt><trkpt lat="41.72594969025254" lon="-8.469124290698637"><ele>631.2</ele><time>2026-04-18T14:25:23.999Z</time></trkpt><trkpt lat="41.725870537903724" lon="-8.469182270883827"><ele>631.6</ele><time>2026-04-18T14:25:26.999Z</time></trkpt><trkpt lat="41.72577267990931" lon="-8.469223485391199"><ele>632.0</ele><time>2026-04-18T14:25:28.999Z</time></trkpt><trkpt lat="41.72567322360551" lon="-8.469288164230564"><ele>632.0</ele><time>2026-04-18T14:25:30.999Z</time></trkpt><trkpt lat="41.72561496054519" lon="-8.46932086124069"><ele>632.0</ele><time>2026-04-18T14:25:31.999Z</time></trkpt><trkpt lat="41.72555609856018" lon="-8.469359566207165"><ele>632.0</ele><time>2026-04-18T14:25:32.999Z</time></trkpt><trkpt lat="41.72544902297736" lon="-8.46944818578482"><ele>632.0</ele><time>2026-04-18T14:25:34.999Z</time></trkpt><trkpt lat="41.725375489588764" lon="-8.469479629090676"><ele>632.0</ele><time>2026-04-18T14:25:35.999Z</time></trkpt><trkpt lat="41.7253047717839" lon="-8.469509131857095"><ele>632.0</ele><time>2026-04-18T14:25:36.999Z</time></trkpt><trkpt lat="41.72523142060842" lon="-8.469547281158569"><ele>632.0</ele><time>2026-04-18T14:25:37.999Z</time></trkpt><trkpt lat="41.725161182748906" lon="-8.469597959926208"><ele>632.0</ele><time>2026-04-18T14:25:38.999Z</time></trkpt><trkpt lat="41.72509068040205" lon="-8.469649676678786"><ele>632.0</ele><time>2026-04-18T14:25:39.999Z</time></trkpt><trkpt lat="41.725013969507714" lon="-8.469697872572738"><ele>632.0</ele><time>2026-04-18T14:25:40.999Z</time></trkpt><trkpt lat="41.72494257862263" lon="-8.469739661839165"><ele>632.0</ele><time>2026-04-18T14:25:41.999Z</time></trkpt><trkpt lat="41.7248664646677" lon="-8.469790493895454"><ele>632.0</ele><time>2026-04-18T14:25:42.999Z</time></trkpt><trkpt lat="41.72479782158503" lon="-8.469861267804545"><ele>631.6666666666666</ele><time>2026-04-18T14:25:43.999Z</time></trkpt><trkpt lat="41.72473021278397" lon="-8.469942110710848"><ele>631.3333333333333</ele><time>2026-04-18T14:25:44.999Z</time></trkpt><trkpt lat="41.7246632877042" lon="-8.470014008037843"><ele>631.0</ele><time>2026-04-18T14:25:45.999Z</time></trkpt><trkpt lat="41.72459866298622" lon="-8.470085303006408"><ele>630.6666666666666</ele><time>2026-04-18T14:25:46.999Z</time></trkpt><trkpt lat="41.724542677891776" lon="-8.470147816553967"><ele>630.3333333333334</ele><time>2026-04-18T14:25:47.999Z</time></trkpt><trkpt lat="41.72450658731306" lon="-8.47022749863866"><ele>630.0</ele><time>2026-04-18T14:25:48.999Z</time></trkpt><trkpt lat="41.72448679896748" lon="-8.470322118567683"><ele>630.0</ele><time>2026-04-18T14:25:49.999Z</time></trkpt><trkpt lat="41.72447138268563" lon="-8.470406990641226"><ele>630.0</ele><time>2026-04-18T14:25:50.999Z</time></trkpt><trkpt lat="41.7244492038032" lon="-8.47048922958901"><ele>630.0</ele><time>2026-04-18T14:25:51.999Z</time></trkpt><trkpt lat="41.72442404660814" lon="-8.470572601198272"><ele>630.0</ele><time>2026-04-18T14:25:52.999Z</time></trkpt><trkpt lat="41.724392311258285" lon="-8.470645686073224"><ele>630.0</ele><time>2026-04-18T14:25:53.999Z</time></trkpt><trkpt lat="41.724339650960104" lon="-8.470779490785317"><ele>630.0</ele><time>2026-04-18T14:25:55.999Z</time></trkpt><trkpt lat="41.72432027828262" lon="-8.470927375285143"><ele>629.5</ele><time>2026-04-18T14:25:57.999Z</time></trkpt><trkpt lat="41.724311753420324" lon="-8.471086257086652"><ele>629.0</ele><time>2026-04-18T14:25:59.999Z</time></trkpt><trkpt lat="41.7242820322008" lon="-8.471198882711516"><ele>628.5</ele><time>2026-04-18T14:26:01.999Z</time></trkpt><trkpt lat="41.72422129084843" lon="-8.471294959772198"><ele>628.0</ele><time>2026-04-18T14:26:04Z</time></trkpt><trkpt lat="41.72414546889347" lon="-8.471301614176761"><ele>627.5</ele><time>2026-04-18T14:26:06Z</time></trkpt><trkpt lat="41.724082805164194" lon="-8.4712792559749"><ele>627.0</ele><time>2026-04-18T14:26:07Z</time></trkpt><trkpt lat="41.72400850681278" lon="-8.471249990407316"><ele>627.0</ele><time>2026-04-18T14:26:09Z</time></trkpt><trkpt lat="41.723926406946475" lon="-8.471253385509616"><ele>627.0</ele><time>2026-04-18T14:26:11Z</time></trkpt><trkpt lat="41.723846004192026" lon="-8.471251408873881"><ele>627.0</ele><time>2026-04-18T14:26:13Z</time></trkpt><trkpt lat="41.72377063533219" lon="-8.471242539634869"><ele>627.0</ele><time>2026-04-18T14:26:15Z</time></trkpt><trkpt lat="41.723728319777244" lon="-8.471139337873256"><ele>627.0</ele><time>2026-04-18T14:26:18Z</time></trkpt><trkpt lat="41.723693597757716" lon="-8.471065475683224"><ele>627.0</ele><time>2026-04-18T14:26:20Z</time></trkpt><trkpt lat="41.72371025329338" lon="-8.470958632896334"><ele>627.0</ele><time>2026-04-18T14:26:23Z</time></trkpt><trkpt lat="41.72374566001497" lon="-8.470870758182896"><ele>627.0</ele><time>2026-04-18T14:26:26Z</time></trkpt><trkpt lat="41.72378950916874" lon="-8.470783942185747"><ele>627.0</ele><time>2026-04-18T14:26:29Z</time></trkpt><trkpt lat="41.72383637553599" lon="-8.470723547021775"><ele>627.0</ele><time>2026-04-18T14:26:32Z</time></trkpt><trkpt lat="41.723892177137635" lon="-8.470634020774705"><ele>627.0</ele><time>2026-04-18T14:26:36Z</time></trkpt><trkpt lat="41.72395892816035" lon="-8.470570660140067"><ele>627.0</ele><time>2026-04-18T14:26:38Z</time></trkpt><trkpt lat="41.724036561798826" lon="-8.47053020357802"><ele>627.0</ele><time>2026-04-18T14:26:40Z</time></trkpt><trkpt lat="41.72409992481301" lon="-8.470487658828223"><ele>627.0</ele><time>2026-04-18T14:26:42Z</time></trkpt><trkpt lat="41.72416531376332" lon="-8.47045769486895"><ele>627.0</ele><time>2026-04-18T14:26:44Z</time></trkpt><trkpt lat="41.72423766395311" lon="-8.4703937989048"><ele>627.0</ele><time>2026-04-18T14:26:46Z</time></trkpt><trkpt lat="41.72431035624345" lon="-8.470317810065064"><ele>627.0</ele><time>2026-04-18T14:26:48Z</time></trkpt><trkpt lat="41.72439646777976" lon="-8.470251405947712"><ele>627.0</ele><time>2026-04-18T14:26:50Z</time></trkpt><trkpt lat="41.724472529986954" lon="-8.470171762521392"><ele>627.5</ele><time>2026-04-18T14:26:52Z</time></trkpt><trkpt lat="41.72452911074345" lon="-8.470112098488466"><ele>628.0</ele><time>2026-04-18T14:26:54Z</time></trkpt><trkpt lat="41.72453539740915" lon="-8.470203248160894"><ele>628.5</ele><time>2026-04-18T14:27:29Z</time></trkpt><trkpt lat="41.724501130115534" lon="-8.470325089454978"><ele>629.0</ele><time>2026-04-18T14:27:31Z</time></trkpt><trkpt lat="41.72453452620257" lon="-8.470414720856377"><ele>629.5</ele><time>2026-04-18T14:27:33Z</time></trkpt><trkpt lat="41.72447019424259" lon="-8.470396307565297"><ele>630.0</ele><time>2026-04-18T14:27:37Z</time></trkpt><trkpt lat="41.724497117892426" lon="-8.470270511474954"><ele>630.0</ele><time>2026-04-18T14:27:40Z</time></trkpt><trkpt lat="41.72452398040627" lon="-8.470188948075261"><ele>630.0</ele><time>2026-04-18T14:27:42Z</time></trkpt><trkpt lat="41.72457510533018" lon="-8.47008646717267"><ele>630.0</ele><time>2026-04-18T14:27:44Z</time></trkpt><trkpt lat="41.72466153461164" lon="-8.470004279269281"><ele>630.0</ele><time>2026-04-18T14:27:46Z</time></trkpt><trkpt lat="41.724755537062855" lon="-8.469913812281218"><ele>630.0</ele><time>2026-04-18T14:27:48Z</time></trkpt><trkpt lat="41.724818765893986" lon="-8.46985115385631"><ele>630.0</ele><time>2026-04-18T14:27:49Z</time></trkpt><trkpt lat="41.72489228777862" lon="-8.469787997044783"><ele>630.0</ele><time>2026-04-18T14:27:50Z</time></trkpt><trkpt lat="41.72497873027954" lon="-8.469726029376906"><ele>630.0</ele><time>2026-04-18T14:27:51Z</time></trkpt><trkpt lat="41.72509343168073" lon="-8.469649123734623"><ele>630.0</ele><time>2026-04-18T14:27:52Z</time></trkpt><trkpt lat="41.725215400224734" lon="-8.469575624079644"><ele>630.0</ele><time>2026-04-18T14:27:53Z</time></trkpt><trkpt lat="41.7253231987707" lon="-8.469496830821507"><ele>630.4</ele><time>2026-04-18T14:27:54Z</time></trkpt><trkpt lat="41.72542823013296" lon="-8.469447575597378"><ele>630.8</ele><time>2026-04-18T14:27:55Z</time></trkpt><trkpt lat="41.72551591823636" lon="-8.469401227810506"><ele>631.2</ele><time>2026-04-18T14:27:56Z</time></trkpt><trkpt lat="41.72559939755109" lon="-8.46934081531879"><ele>631.6</ele><time>2026-04-18T14:27:57Z</time></trkpt><trkpt lat="41.72569928165559" lon="-8.469275451878767"><ele>632.0</ele><time>2026-04-18T14:27:58Z</time></trkpt><trkpt lat="41.725780973814544" lon="-8.469220498291492"><ele>632.0</ele><time>2026-04-18T14:27:59Z</time></trkpt><trkpt lat="41.725863289212384" lon="-8.469182283062663"><ele>632.0</ele><time>2026-04-18T14:28:00Z</time></trkpt><trkpt lat="41.725947881339124" lon="-8.469137803673934"><ele>632.0</ele><time>2026-04-18T14:28:01Z</time></trkpt><trkpt lat="41.726040084423666" lon="-8.469100672437252"><ele>632.0</ele><time>2026-04-18T14:28:02Z</time></trkpt><trkpt lat="41.72613651905791" lon="-8.469062393559689"><ele>632.0</ele><time>2026-04-18T14:28:03Z</time></trkpt><trkpt lat="41.726211156875316" lon="-8.469015158980191"><ele>632.0</ele><time>2026-04-18T14:28:04Z</time></trkpt><trkpt lat="41.72627776450405" lon="-8.468954808464305"><ele>632.0</ele><time>2026-04-18T14:28:05Z</time></trkpt><trkpt lat="41.7263350356593" lon="-8.468884179605247"><ele>632.0</ele><time>2026-04-18T14:28:06Z</time></trkpt><trkpt lat="41.7264106707476" lon="-8.468776193259536"><ele>632.0</ele><time>2026-04-18T14:28:08Z</time></trkpt><trkpt lat="41.726444439957916" lon="-8.46865821249735"><ele>632.0</ele><time>2026-04-18T14:28:10Z</time></trkpt><trkpt lat="41.72646535902016" lon="-8.468533212602365"><ele>631.6</ele><time>2026-04-18T14:28:12Z</time></trkpt><trkpt lat="41.72647310826345" lon="-8.46839950500013"><ele>631.2</ele><time>2026-04-18T14:28:14Z</time></trkpt><trkpt lat="41.726473093903266" lon="-8.468259562592989"><ele>630.8</ele><time>2026-04-18T14:28:16Z</time></trkpt><trkpt lat="41.72647043553902" lon="-8.468129272273552"><ele>630.4</ele><time>2026-04-18T14:28:18Z</time></trkpt><trkpt lat="41.72647783311617" lon="-8.467992777472073"><ele>630.0</ele><time>2026-04-18T14:28:20Z</time></trkpt><trkpt lat="41.726483464108746" lon="-8.46786719554656"><ele>630.0</ele><time>2026-04-18T14:28:22Z</time></trkpt><trkpt lat="41.72649367436706" lon="-8.467766442187404"><ele>630.0</ele><time>2026-04-18T14:28:24Z</time></trkpt><trkpt lat="41.726525714820596" lon="-8.467657241800962"><ele>630.0</ele><time>2026-04-18T14:28:28Z</time></trkpt><trkpt lat="41.72655239070892" lon="-8.467493760351575"><ele>630.0</ele><time>2026-04-18T14:28:30Z</time></trkpt><trkpt lat="41.72655428826201" lon="-8.46734448480302"><ele>630.0</ele><time>2026-04-18T14:28:32Z</time></trkpt><trkpt lat="41.72659296339595" lon="-8.467222917598425"><ele>630.4</ele><time>2026-04-18T14:28:34Z</time></trkpt><trkpt lat="41.726697535954045" lon="-8.467082032083475"><ele>630.8</ele><time>2026-04-18T14:28:36Z</time></trkpt><trkpt lat="41.726800646606186" lon="-8.466976558484863"><ele>631.2</ele><time>2026-04-18T14:28:38Z</time></trkpt><trkpt lat="41.72684786761391" lon="-8.466912234319741"><ele>631.6</ele><time>2026-04-18T14:28:39Z</time></trkpt><trkpt lat="41.72690461828061" lon="-8.466848384608177"><ele>632.0</ele><time>2026-04-18T14:28:40Z</time></trkpt><trkpt lat="41.726951302684284" lon="-8.466775285886614"><ele>632.6666666666666</ele><time>2026-04-18T14:28:41Z</time></trkpt><trkpt lat="41.72700849476313" lon="-8.466691213290513"><ele>633.3333333333333</ele><time>2026-04-18T14:28:42Z</time></trkpt><trkpt lat="41.7270357641473" lon="-8.466611496050303"><ele>634.0</ele><time>2026-04-18T14:28:43Z</time></trkpt><trkpt lat="41.727067692004105" lon="-8.466506649097667"><ele>634.6666666666666</ele><time>2026-04-18T14:28:44Z</time></trkpt><trkpt lat="41.72710278365654" lon="-8.46641655239239"><ele>635.3333333333334</ele><time>2026-04-18T14:28:45Z</time></trkpt><trkpt lat="41.727145372999466" lon="-8.466328356623926"><ele>636.0</ele><time>2026-04-18T14:28:46Z</time></trkpt><trkpt lat="41.727220452195446" lon="-8.46623597206486"><ele>637.0</ele><time>2026-04-18T14:28:47Z</time></trkpt><trkpt lat="41.72728913999418" lon="-8.466135307014351"><ele>638.0</ele><time>2026-04-18T14:28:48Z</time></trkpt><trkpt lat="41.72736224060202" lon="-8.466026975178858"><ele>639.0</ele><time>2026-04-18T14:28:49Z</time></trkpt><trkpt lat="41.72742731072198" lon="-8.465929033294332"><ele>640.0</ele><time>2026-04-18T14:28:50Z</time></trkpt><trkpt lat="41.72748155996252" lon="-8.465839776580403"><ele>641.0</ele><time>2026-04-18T14:28:51Z</time></trkpt><trkpt lat="41.72752447902506" lon="-8.465733594675603"><ele>641.0</ele><time>2026-04-18T14:28:52Z</time></trkpt><trkpt lat="41.72757366194691" lon="-8.465624409848528"><ele>641.0</ele><time>2026-04-18T14:28:53Z</time></trkpt><trkpt lat="41.72763628496252" lon="-8.465550498906952"><ele>641.0</ele><time>2026-04-18T14:28:54Z</time></trkpt><trkpt lat="41.72769937330098" lon="-8.465501603283734"><ele>641.0</ele><time>2026-04-18T14:28:55Z</time></trkpt><trkpt lat="41.72776324605008" lon="-8.465443896605974"><ele>641.0</ele><time>2026-04-18T14:28:56Z</time></trkpt><trkpt lat="41.72784742271285" lon="-8.465330278495898"><ele>641.0</ele><time>2026-04-18T14:28:58Z</time></trkpt><trkpt lat="41.72790785718787" lon="-8.465284324931579"><ele>642.8333333333333</ele><time>2026-04-18T14:28:59Z</time></trkpt><trkpt lat="41.72797984367404" lon="-8.465244534649539"><ele>644.6666666666666</ele><time>2026-04-18T14:29:00Z</time></trkpt><trkpt lat="41.7280658638384" lon="-8.465225143297948"><ele>646.5</ele><time>2026-04-18T14:29:01Z</time></trkpt><trkpt lat="41.72813525941861" lon="-8.465199156210852"><ele>648.3333333333334</ele><time>2026-04-18T14:29:02Z</time></trkpt><trkpt lat="41.728207493667995" lon="-8.465163112753974"><ele>650.1666666666667</ele><time>2026-04-18T14:29:03Z</time></trkpt><trkpt lat="41.72826918817174" lon="-8.465131280281247"><ele>652.0</ele><time>2026-04-18T14:29:04Z</time></trkpt><trkpt lat="41.728349702040376" lon="-8.465087399583021"><ele>652.0</ele><time>2026-04-18T14:29:05Z</time></trkpt><trkpt lat="41.72841454166562" lon="-8.465071245075078"><ele>652.0</ele><time>2026-04-18T14:29:06Z</time></trkpt><trkpt lat="41.728476711163175" lon="-8.465040629638152"><ele>652.0</ele><time>2026-04-18T14:29:07Z</time></trkpt><trkpt lat="41.72855694875822" lon="-8.465016061877813"><ele>652.0</ele><time>2026-04-18T14:29:08Z</time></trkpt><trkpt lat="41.728632128082" lon="-8.4649958563143"><ele>652.0</ele><time>2026-04-18T14:29:09Z</time></trkpt><trkpt lat="41.728719740042564" lon="-8.464977496742895"><ele>652.0</ele><time>2026-04-18T14:29:10Z</time></trkpt><trkpt lat="41.72879707073779" lon="-8.464969605061247"><ele>652.8333333333334</ele><time>2026-04-18T14:29:11Z</time></trkpt><trkpt lat="41.728881893530364" lon="-8.464953053500656"><ele>653.6666666666667</ele><time>2026-04-18T14:29:12Z</time></trkpt><trkpt lat="41.728953561011046" lon="-8.46493582663882"><ele>654.5</ele><time>2026-04-18T14:29:13Z</time></trkpt><trkpt lat="41.72905916303416" lon="-8.464905018614138"><ele>655.3333333333334</ele><time>2026-04-18T14:29:14Z</time></trkpt><trkpt lat="41.72912533287022" lon="-8.46488009956748"><ele>656.1666666666666</ele><time>2026-04-18T14:29:15Z</time></trkpt><trkpt lat="41.72919586473038" lon="-8.464827239325926"><ele>657.0</ele><time>2026-04-18T14:29:16Z</time></trkpt><trkpt lat="41.7292550012269" lon="-8.464782503352671"><ele>657.0</ele><time>2026-04-18T14:29:17Z</time></trkpt><trkpt lat="41.72930548397159" lon="-8.464710693395222"><ele>657.0</ele><time>2026-04-18T14:29:19Z</time></trkpt><trkpt lat="41.729354451933546" lon="-8.464643407551934"><ele>657.0</ele><time>2026-04-18T14:29:22Z</time></trkpt><trkpt lat="41.72940892093636" lon="-8.464707996448938"><ele>657.0</ele><time>2026-04-18T14:30:23Z</time></trkpt><trkpt lat="41.72947581589365" lon="-8.464745286149439"><ele>657.0</ele><time>2026-04-18T14:30:25Z</time></trkpt><trkpt lat="41.72958568891327" lon="-8.46469983020868"><ele>657.0</ele><time>2026-04-18T14:30:27Z</time></trkpt><trkpt lat="41.72964666262175" lon="-8.464649821264759"><ele>657.8333333333334</ele><time>2026-04-18T14:30:28Z</time></trkpt><trkpt lat="41.72971867060411" lon="-8.464601463139584"><ele>658.6666666666666</ele><time>2026-04-18T14:30:29Z</time></trkpt><trkpt lat="41.72978498732702" lon="-8.464589569178544"><ele>659.5</ele><time>2026-04-18T14:30:30Z</time></trkpt><trkpt lat="41.729859924372164" lon="-8.464589673376997"><ele>660.3333333333333</ele><time>2026-04-18T14:30:31Z</time></trkpt><trkpt lat="41.72993220709199" lon="-8.46457672753263"><ele>661.1666666666666</ele><time>2026-04-18T14:30:32Z</time></trkpt><trkpt lat="41.73002486291164" lon="-8.464562867137737"><ele>662.0</ele><time>2026-04-18T14:30:33Z</time></trkpt><trkpt lat="41.73009997269348" lon="-8.464564971667006"><ele>662.0</ele><time>2026-04-18T14:30:34Z</time></trkpt><trkpt lat="41.730163491206135" lon="-8.46457035364147"><ele>662.0</ele><time>2026-04-18T14:30:35Z</time></trkpt><trkpt lat="41.73028311043173" lon="-8.46454301196907"><ele>662.0</ele><time>2026-04-18T14:30:37Z</time></trkpt><trkpt lat="41.73037583148456" lon="-8.464455306606519"><ele>662.0</ele><time>2026-04-18T14:30:39Z</time></trkpt><trkpt lat="41.73044932752887" lon="-8.464363233688555"><ele>662.0</ele><time>2026-04-18T14:30:41Z</time></trkpt><trkpt lat="41.73048603288949" lon="-8.464264214694728"><ele>662.0</ele><time>2026-04-18T14:30:43Z</time></trkpt><trkpt lat="41.73044906316916" lon="-8.464195826410135"><ele>662.0</ele><time>2026-04-18T14:30:45Z</time></trkpt><trkpt lat="41.73036465184426" lon="-8.46413844161139"><ele>662.0</ele><time>2026-04-18T14:30:47Z</time></trkpt><trkpt lat="41.7302956296059" lon="-8.46408259875306"><ele>662.0</ele><time>2026-04-18T14:30:49Z</time></trkpt><trkpt lat="41.730221292760234" lon="-8.464023143287825"><ele>662.0</ele><time>2026-04-18T14:30:51Z</time></trkpt><trkpt lat="41.73013025357908" lon="-8.463961354614101"><ele>662.0</ele><time>2026-04-18T14:30:53Z</time></trkpt><trkpt lat="41.73001390313029" lon="-8.463898353727627"><ele>662.0</ele><time>2026-04-18T14:30:55Z</time></trkpt><trkpt lat="41.72990603759904" lon="-8.463802521829958"><ele>662.0</ele><time>2026-04-18T14:30:57Z</time></trkpt><trkpt lat="41.72985733243328" lon="-8.463747394710529"><ele>662.0</ele><time>2026-04-18T14:30:58Z</time></trkpt><trkpt lat="41.729811481506495" lon="-8.463669622372066"><ele>662.0</ele><time>2026-04-18T14:30:59Z</time></trkpt><trkpt lat="41.72977723962777" lon="-8.463588465264584"><ele>662.0</ele><time>2026-04-18T14:31:00Z</time></trkpt><trkpt lat="41.72974428680422" lon="-8.463494764593975"><ele>662.0</ele><time>2026-04-18T14:31:01Z</time></trkpt><trkpt lat="41.729705595864075" lon="-8.463402203026613"><ele>663.0</ele><time>2026-04-18T14:31:02Z</time></trkpt><trkpt lat="41.72966160825802" lon="-8.46330010202802"><ele>664.0</ele><time>2026-04-18T14:31:03Z</time></trkpt><trkpt lat="41.72961158249219" lon="-8.463204442033668"><ele>665.0</ele><time>2026-04-18T14:31:04Z</time></trkpt><trkpt lat="41.72956917597211" lon="-8.463114271299569"><ele>666.0</ele><time>2026-04-18T14:31:05Z</time></trkpt><trkpt lat="41.7295262028529" lon="-8.463022157046126"><ele>667.0</ele><time>2026-04-18T14:31:06Z</time></trkpt><trkpt lat="41.72949251131281" lon="-8.4629363625496"><ele>668.0</ele><time>2026-04-18T14:31:07Z</time></trkpt><trkpt lat="41.72943970964175" lon="-8.462769656650337"><ele>668.1428571428571</ele><time>2026-04-18T14:31:09Z</time></trkpt><trkpt lat="41.72938861509699" lon="-8.462691893318329"><ele>668.2857142857143</ele><time>2026-04-18T14:31:10Z</time></trkpt><trkpt lat="41.72933613664092" lon="-8.462611932943478"><ele>668.4285714285714</ele><time>2026-04-18T14:31:11Z</time></trkpt><trkpt lat="41.72928787723414" lon="-8.462547284719442"><ele>668.5714285714286</ele><time>2026-04-18T14:31:12Z</time></trkpt><trkpt lat="41.72923528855076" lon="-8.462467874217243"><ele>668.7142857142857</ele><time>2026-04-18T14:31:13Z</time></trkpt><trkpt lat="41.729189433944114" lon="-8.462392941834173"><ele>668.8571428571429</ele><time>2026-04-18T14:31:14Z</time></trkpt><trkpt lat="41.72914957450453" lon="-8.462325975340436"><ele>669.0</ele><time>2026-04-18T14:31:15Z</time></trkpt><trkpt lat="41.72909735607456" lon="-8.462247428917994"><ele>669.0</ele><time>2026-04-18T14:31:16Z</time></trkpt><trkpt lat="41.72904756688374" lon="-8.46219073701795"><ele>669.0</ele><time>2026-04-18T14:31:17Z</time></trkpt><trkpt lat="41.72898743119575" lon="-8.46214567423798"><ele>669.0</ele><time>2026-04-18T14:31:18Z</time></trkpt><trkpt lat="41.72888280026239" lon="-8.462106442731962"><ele>669.0</ele><time>2026-04-18T14:31:20Z</time></trkpt><trkpt lat="41.72879132970324" lon="-8.46207178753569"><ele>669.0</ele><time>2026-04-18T14:31:22Z</time></trkpt><trkpt lat="41.728723669744454" lon="-8.461995404086334"><ele>669.0</ele><time>2026-04-18T14:31:24Z</time></trkpt><trkpt lat="41.72869387624852" lon="-8.461908493543007"><ele>669.6666666666666</ele><time>2026-04-18T14:31:26Z</time></trkpt><trkpt lat="41.72865338476578" lon="-8.461796701716208"><ele>670.3333333333334</ele><time>2026-04-18T14:31:29Z</time></trkpt><trkpt lat="41.72860807809858" lon="-8.461718413988635"><ele>671.0</ele><time>2026-04-18T14:31:32Z</time></trkpt><trkpt lat="41.72855964247202" lon="-8.461656581074754"><ele>671.6666666666667</ele><time>2026-04-18T14:31:34Z</time></trkpt><trkpt lat="41.728493320429614" lon="-8.461601042247047"><ele>672.3333333333334</ele><time>2026-04-18T14:31:36Z</time></trkpt><trkpt lat="41.728425346125526" lon="-8.461547205735688"><ele>673.0</ele><time>2026-04-18T14:31:38Z</time></trkpt><trkpt lat="41.728370444227004" lon="-8.461472022337484"><ele>673.0</ele><time>2026-04-18T14:31:40Z</time></trkpt><trkpt lat="41.72832417462378" lon="-8.461366519870362"><ele>673.0</ele><time>2026-04-18T14:31:42Z</time></trkpt><trkpt lat="41.72830270928564" lon="-8.461254740947279"><ele>673.0</ele><time>2026-04-18T14:31:44Z</time></trkpt><trkpt lat="41.728331041876636" lon="-8.461116036368248"><ele>673.0</ele><time>2026-04-18T14:31:46Z</time></trkpt><trkpt lat="41.72837123896017" lon="-8.461029610757452"><ele>673.0</ele><time>2026-04-18T14:31:48Z</time></trkpt><trkpt lat="41.72844552716555" lon="-8.460939869956338"><ele>676.2</ele><time>2026-04-18T14:31:50Z</time></trkpt><trkpt lat="41.72848568214577" lon="-8.46085779311043"><ele>679.4</ele><time>2026-04-18T14:31:52Z</time></trkpt><trkpt lat="41.728522013708" lon="-8.460735543190566"><ele>682.6</ele><time>2026-04-18T14:31:54Z</time></trkpt><trkpt lat="41.72855719478864" lon="-8.460599891638084"><ele>685.8000000000001</ele><time>2026-04-18T14:31:56Z</time></trkpt><trkpt lat="41.72855902918796" lon="-8.460482792957135"><ele>689.0</ele><time>2026-04-18T14:31:58Z</time></trkpt><trkpt lat="41.728530905286945" lon="-8.460355768239813"><ele>692.6</ele><time>2026-04-18T14:32:00Z</time></trkpt><trkpt lat="41.7285106262518" lon="-8.460217636097466"><ele>696.2</ele><time>2026-04-18T14:32:02Z</time></trkpt><trkpt lat="41.7284764047345" lon="-8.46009125824798"><ele>699.8000000000001</ele><time>2026-04-18T14:32:04Z</time></trkpt><trkpt lat="41.72844980660143" lon="-8.45996618442091"><ele>703.4000000000001</ele><time>2026-04-18T14:32:07Z</time></trkpt><trkpt lat="41.728414840140864" lon="-8.459857365987727"><ele>707.0</ele><time>2026-04-18T14:32:09Z</time></trkpt><trkpt lat="41.7283776650953" lon="-8.459721595405"><ele>707.0</ele><time>2026-04-18T14:32:11Z</time></trkpt><trkpt lat="41.72836573499261" lon="-8.45963690631572"><ele>707.0</ele><time>2026-04-18T14:32:13Z</time></trkpt><trkpt lat="41.728354525490076" lon="-8.459539447887401"><ele>707.0</ele><time>2026-04-18T14:32:15Z</time></trkpt><trkpt lat="41.728375041338595" lon="-8.459450544066977"><ele>707.0</ele><time>2026-04-18T14:32:18Z</time></trkpt><trkpt lat="41.72829477077826" lon="-8.459391914986595"><ele>707.0</ele><time>2026-04-18T14:32:33Z</time></trkpt><trkpt lat="41.72822995664634" lon="-8.459356267631723"><ele>707.0</ele><time>2026-04-18T14:32:35Z</time></trkpt><trkpt lat="41.72816807228396" lon="-8.459270540269326"><ele>707.6666666666666</ele><time>2026-04-18T14:32:37Z</time></trkpt><trkpt lat="41.72815312181188" lon="-8.459174570687582"><ele>708.3333333333333</ele><time>2026-04-18T14:32:40Z</time></trkpt><trkpt lat="41.72807962191494" lon="-8.45915495989249"><ele>709.0</ele><time>2026-04-18T14:32:42Z</time></trkpt><trkpt lat="41.72799396220868" lon="-8.459102082844474"><ele>709.6666666666666</ele><time>2026-04-18T14:32:44Z</time></trkpt><trkpt lat="41.72793053212281" lon="-8.459005929356033"><ele>710.3333333333334</ele><time>2026-04-18T14:32:46Z</time></trkpt><trkpt lat="41.7278650521902" lon="-8.458957705551498"><ele>711.0</ele><time>2026-04-18T14:32:48Z</time></trkpt><trkpt lat="41.72777205145218" lon="-8.45896815920369"><ele>710.5714285714286</ele><time>2026-04-18T14:32:51Z</time></trkpt><trkpt lat="41.72770607212926" lon="-8.458963863844884"><ele>710.1428571428571</ele><time>2026-04-18T14:32:53Z</time></trkpt><trkpt lat="41.72764377736185" lon="-8.45893124742134"><ele>709.7142857142858</ele><time>2026-04-18T14:32:55Z</time></trkpt><trkpt lat="41.72758330841694" lon="-8.458856636811001"><ele>709.2857142857142</ele><time>2026-04-18T14:32:57Z</time></trkpt><trkpt lat="41.72753370145484" lon="-8.458766412813494"><ele>708.8571428571428</ele><time>2026-04-18T14:32:59Z</time></trkpt><trkpt lat="41.72748785166122" lon="-8.458685468825161"><ele>708.4285714285714</ele><time>2026-04-18T14:33:02Z</time></trkpt><trkpt lat="41.727435668051506" lon="-8.458613500846802"><ele>708.0</ele><time>2026-04-18T14:33:05Z</time></trkpt><trkpt lat="41.727387774395" lon="-8.45852908127383"><ele>707.4285714285714</ele><time>2026-04-18T14:33:08Z</time></trkpt><trkpt lat="41.72736457984096" lon="-8.458445138860586"><ele>706.8571428571428</ele><time>2026-04-18T14:33:11Z</time></trkpt><trkpt lat="41.727317578086684" lon="-8.458386583600694"><ele>706.2857142857142</ele><time>2026-04-18T14:33:13Z</time></trkpt><trkpt lat="41.72724149266107" lon="-8.458360595124415"><ele>705.7142857142858</ele><time>2026-04-18T14:33:16Z</time></trkpt><trkpt lat="41.72718105602612" lon="-8.458327273369767"><ele>705.1428571428571</ele><time>2026-04-18T14:33:18Z</time></trkpt><trkpt lat="41.7271061953975" lon="-8.458302640617466"><ele>704.5714285714286</ele><time>2026-04-18T14:33:22Z</time></trkpt><trkpt lat="41.72702748225944" lon="-8.45827764540744"><ele>704.0</ele><time>2026-04-18T14:33:25Z</time></trkpt><trkpt lat="41.7269686866706" lon="-8.458215763707592"><ele>704.0</ele><time>2026-04-18T14:33:29Z</time></trkpt><trkpt lat="41.72690607762096" lon="-8.458190372503175"><ele>704.0</ele><time>2026-04-18T14:33:32Z</time></trkpt><trkpt lat="41.72684331675624" lon="-8.45815209671472"><ele>698.0</ele><time>2026-04-18T14:33:38Z</time></trkpt></trkseg><trkseg><trkpt lat="41.72682286505181" lon="-8.458054953519"><ele>697.9999999999999</ele><time>2026-04-18T15:24:05Z</time></trkpt><trkpt lat="41.72687895135279" lon="-8.458116356308647"><ele>698.0</ele><time>2026-04-18T15:24:15Z</time></trkpt><trkpt lat="41.72693362543967" lon="-8.458068024541772"><ele>698.0</ele><time>2026-04-18T15:24:30.001Z</time></trkpt><trkpt lat="41.7268667734389" lon="-8.458092436675024"><ele>698.0</ele><time>2026-04-18T15:24:44.001Z</time></trkpt><trkpt lat="41.726802043077996" lon="-8.458138602543425"><ele>698.0</ele><time>2026-04-18T15:24:52.001Z</time></trkpt><trkpt lat="41.726744922563256" lon="-8.458102234494906"><ele>697.9999999999999</ele><time>2026-04-18T15:25:17.999Z</time></trkpt><trkpt lat="41.726805274864205" lon="-8.458050436236665"><ele>698.0</ele><time>2026-04-18T15:40:54.999Z</time></trkpt><trkpt lat="41.7268811322268" lon="-8.458082992300659"><ele>697.9999999999999</ele><time>2026-04-18T15:40:57.999Z</time></trkpt><trkpt lat="41.72696601894868" lon="-8.458074294252407"><ele>698.0</ele><time>2026-04-18T15:41:01.999Z</time></trkpt><trkpt lat="41.726935079175206" lon="-8.458157166725695"><ele>698.0</ele><time>2026-04-18T15:41:04.999Z</time></trkpt><trkpt lat="41.726866474726776" lon="-8.458166437107034"><ele>698.0</ele><time>2026-04-18T15:41:08.999Z</time></trkpt><trkpt lat="41.72680715893814" lon="-8.458122070467624"><ele>698.0</ele><time>2026-04-18T15:41:14.999Z</time></trkpt><trkpt lat="41.72682675330235" lon="-8.458019324799528"><ele>697.9999999999999</ele><time>2026-04-18T15:41:19.999Z</time></trkpt><trkpt lat="41.726885302758504" lon="-8.45805151831343"><ele>698.0</ele><time>2026-04-18T15:41:22.999Z</time></trkpt><trkpt lat="41.726943191469445" lon="-8.45811833435981"><ele>697.9999999999999</ele><time>2026-04-18T15:41:26.999Z</time></trkpt><trkpt lat="41.726953315158056" lon="-8.458225657529024"><ele>698.0</ele><time>2026-04-18T15:41:29.999Z</time></trkpt><trkpt lat="41.726903725971184" lon="-8.458280397281502"><ele>698.0</ele><time>2026-04-18T15:41:33.999Z</time></trkpt><trkpt lat="41.72683153301053" lon="-8.45826017026486"><ele>698.0</ele><time>2026-04-18T15:41:38.999Z</time></trkpt><trkpt lat="41.726803518632416" lon="-8.458175649926911"><ele>698.0</ele><time>2026-04-18T15:41:43.999Z</time></trkpt><trkpt lat="41.72675342058765" lon="-8.458103521070882"><ele>697.9999999999999</ele><time>2026-04-18T15:42:24.999Z</time></trkpt><trkpt lat="41.726765656073525" lon="-8.4580204161568"><ele>698.0</ele><time>2026-04-18T15:42:27.999Z</time></trkpt><trkpt lat="41.72683282583065" lon="-8.458073864853464"><ele>699.0</ele><time>2026-04-18T15:42:31.999Z</time></trkpt><trkpt lat="41.72689881302424" lon="-8.458065264593367"><ele>700.0</ele><time>2026-04-18T15:42:34.999Z</time></trkpt><trkpt lat="41.726953366391974" lon="-8.458131318576157"><ele>701.0</ele><time>2026-04-18T15:42:38.999Z</time></trkpt><trkpt lat="41.72695484591364" lon="-8.458233007723972"><ele>702.0</ele><time>2026-04-18T15:42:41.999Z</time></trkpt><trkpt lat="41.7270175023053" lon="-8.458306015299172"><ele>703.0</ele><time>2026-04-18T15:42:44.999Z</time></trkpt><trkpt lat="41.727040944935496" lon="-8.458391586754239"><ele>704.0</ele><time>2026-04-18T15:42:47.999Z</time></trkpt><trkpt lat="41.72711648961815" lon="-8.458446702274122"><ele>704.0</ele><time>2026-04-18T15:42:50.999Z</time></trkpt><trkpt lat="41.72718106505815" lon="-8.458414436895263"><ele>704.0</ele><time>2026-04-18T15:42:53.999Z</time></trkpt><trkpt lat="41.72727836544438" lon="-8.458408273868011"><ele>704.0</ele><time>2026-04-18T15:43:11Z</time></trkpt><trkpt lat="41.72735474512372" lon="-8.458472181126815"><ele>704.0</ele><time>2026-04-18T15:43:13Z</time></trkpt><trkpt lat="41.727423028763205" lon="-8.458545668866286"><ele>704.0</ele><time>2026-04-18T15:43:15Z</time></trkpt><trkpt lat="41.72748466847189" lon="-8.458625248968573"><ele>704.0</ele><time>2026-04-18T15:43:17Z</time></trkpt><trkpt lat="41.72752443870109" lon="-8.458731367066266"><ele>704.0</ele><time>2026-04-18T15:43:19Z</time></trkpt><trkpt lat="41.72749389449619" lon="-8.4588125074688"><ele>704.0</ele><time>2026-04-18T15:43:22Z</time></trkpt><trkpt lat="41.72743267567948" lon="-8.458752972852341"><ele>704.0</ele><time>2026-04-18T15:43:24Z</time></trkpt><trkpt lat="41.727422375255834" lon="-8.458635890064093"><ele>704.0</ele><time>2026-04-18T15:43:26Z</time></trkpt><trkpt lat="41.72736410243577" lon="-8.458554874813016"><ele>704.0</ele><time>2026-04-18T15:43:29Z</time></trkpt><trkpt lat="41.72731840162674" lon="-8.458453427780592"><ele>704.0</ele><time>2026-04-18T15:43:32Z</time></trkpt><trkpt lat="41.72728205198619" lon="-8.45838447750063"><ele>704.0</ele><time>2026-04-18T15:43:34Z</time></trkpt><trkpt lat="41.727204469778954" lon="-8.458340801219066"><ele>704.0</ele><time>2026-04-18T15:43:36Z</time></trkpt><trkpt lat="41.727135320065706" lon="-8.458318745006522"><ele>704.0</ele><time>2026-04-18T15:43:38Z</time></trkpt><trkpt lat="41.727066562797546" lon="-8.458312866086414"><ele>704.0</ele><time>2026-04-18T15:43:40Z</time></trkpt><trkpt lat="41.72699865911131" lon="-8.45827381217728"><ele>704.0</ele><time>2026-04-18T15:43:42Z</time></trkpt><trkpt lat="41.7269388321138" lon="-8.458211205939051"><ele>704.0</ele><time>2026-04-18T15:43:45Z</time></trkpt><trkpt lat="41.72687548663468" lon="-8.45811956147603"><ele>703.1428571428571</ele><time>2026-04-18T15:43:49Z</time></trkpt><trkpt lat="41.72685695896857" lon="-8.45803061605528"><ele>702.2857142857142</ele><time>2026-04-18T15:43:52.998Z</time></trkpt><trkpt lat="41.72687254702778" lon="-8.457921655641272"><ele>701.4285714285713</ele><time>2026-04-18T15:43:56.998Z</time></trkpt><trkpt lat="41.72685483059131" lon="-8.45782481872819"><ele>700.5714285714286</ele><time>2026-04-18T15:44:00.998Z</time></trkpt><trkpt lat="41.726817559226504" lon="-8.457737376332215"><ele>699.7142857142857</ele><time>2026-04-18T15:44:04.999Z</time></trkpt><trkpt lat="41.72677482950096" lon="-8.457665268604138"><ele>698.8571428571428</ele><time>2026-04-18T15:44:09.999Z</time></trkpt><trkpt lat="41.72674061552862" lon="-8.45759201592266"><ele>698.0</ele><time>2026-04-18T15:44:18.999Z</time></trkpt><trkpt lat="41.726680491611226" lon="-8.457560582334006"><ele>697.0</ele><time>2026-04-18T15:44:23.999Z</time></trkpt><trkpt lat="41.726609687774875" lon="-8.457545495568139"><ele>696.0</ele><time>2026-04-18T15:44:29.999Z</time></trkpt><trkpt lat="41.726536388995704" lon="-8.457545366011106"><ele>695.0</ele><time>2026-04-18T15:45:00Z</time></trkpt><trkpt lat="41.72647363539018" lon="-8.457488817019444"><ele>694.0</ele><time>2026-04-18T15:45:07Z</time></trkpt><trkpt lat="41.72653623139486" lon="-8.457539313518753"><ele>693.0</ele><time>2026-04-18T15:45:48Z</time></trkpt><trkpt lat="41.72660608930522" lon="-8.457606845160711"><ele>692.0</ele><time>2026-04-18T15:45:51Z</time></trkpt><trkpt lat="41.726671817597015" lon="-8.457657910286883"><ele>692.0</ele><time>2026-04-18T15:45:53Z</time></trkpt><trkpt lat="41.72673290404284" lon="-8.457727633444911"><ele>692.0</ele><time>2026-04-18T15:45:55Z</time></trkpt><trkpt lat="41.72679669557571" lon="-8.457816295875674"><ele>692.0</ele><time>2026-04-18T15:45:57Z</time></trkpt><trkpt lat="41.72685409339892" lon="-8.457871562301577"><ele>692.0</ele><time>2026-04-18T15:45:58.999Z</time></trkpt><trkpt lat="41.7268770589384" lon="-8.45797332793672"><ele>692.0</ele><time>2026-04-18T15:46:01.999Z</time></trkpt><trkpt lat="41.726875057894034" lon="-8.458109757690885"><ele>692.0</ele><time>2026-04-18T15:46:03.999Z</time></trkpt><trkpt lat="41.726918297926154" lon="-8.458230791925674"><ele>694.4000000000001</ele><time>2026-04-18T15:46:07Z</time></trkpt><trkpt lat="41.7269880600921" lon="-8.458261573774594"><ele>696.8000000000001</ele><time>2026-04-18T15:46:10Z</time></trkpt><trkpt lat="41.7270377192404" lon="-8.458338425918246"><ele>699.2</ele><time>2026-04-18T15:46:13Z</time></trkpt><trkpt lat="41.72712709298359" lon="-8.458383377165884"><ele>701.6</ele><time>2026-04-18T15:46:15Z</time></trkpt><trkpt lat="41.72723447164419" lon="-8.458407813061756"><ele>704.0</ele><time>2026-04-18T15:46:17Z</time></trkpt><trkpt lat="41.7273359203867" lon="-8.458440567524871"><ele>704.0</ele><time>2026-04-18T15:46:19Z</time></trkpt><trkpt lat="41.727381204600356" lon="-8.45850132706331"><ele>704.0</ele><time>2026-04-18T15:46:20Z</time></trkpt><trkpt lat="41.72746211795218" lon="-8.45860307075198"><ele>704.0</ele><time>2026-04-18T15:46:22Z</time></trkpt><trkpt lat="41.727520847584884" lon="-8.458753853858644"><ele>704.0</ele><time>2026-04-18T15:46:24Z</time></trkpt><trkpt lat="41.72754327081655" lon="-8.458845443125181"><ele>704.0</ele><time>2026-04-18T15:46:25Z</time></trkpt><trkpt lat="41.727615569350924" lon="-8.45894328928856"><ele>704.6666666666666</ele><time>2026-04-18T15:46:27Z</time></trkpt><trkpt lat="41.72772042572029" lon="-8.458976940738124"><ele>705.3333333333333</ele><time>2026-04-18T15:46:29Z</time></trkpt><trkpt lat="41.727809539037956" lon="-8.458949199676805"><ele>706.0</ele><time>2026-04-18T15:46:31Z</time></trkpt><trkpt lat="41.72790552607722" lon="-8.45900006004487"><ele>706.6666666666666</ele><time>2026-04-18T15:46:33Z</time></trkpt><trkpt lat="41.727952377331185" lon="-8.459056601504743"><ele>707.3333333333334</ele><time>2026-04-18T15:46:34Z</time></trkpt><trkpt lat="41.72799346586596" lon="-8.459140525305479"><ele>708.0</ele><time>2026-04-18T15:46:36Z</time></trkpt><trkpt lat="41.72806835630031" lon="-8.45910969819944"><ele>708.5</ele><time>2026-04-18T15:46:40Z</time></trkpt><trkpt lat="41.7280425978726" lon="-8.459012766399004"><ele>709.0</ele><time>2026-04-18T15:46:42Z</time></trkpt><trkpt lat="41.72799900364643" lon="-8.458931945055246"><ele>709.5</ele><time>2026-04-18T15:46:44Z</time></trkpt><trkpt lat="41.72797940740596" lon="-8.458830544639202"><ele>710.0</ele><time>2026-04-18T15:46:46Z</time></trkpt><trkpt lat="41.72795774099878" lon="-8.45873750456843"><ele>710.5</ele><time>2026-04-18T15:46:48Z</time></trkpt><trkpt lat="41.727927943850496" lon="-8.458632806265637"><ele>711.0</ele><time>2026-04-18T15:46:50Z</time></trkpt><trkpt lat="41.72791030412649" lon="-8.458522164396653"><ele>708.8333333333334</ele><time>2026-04-18T15:46:52Z</time></trkpt><trkpt lat="41.72790488017801" lon="-8.458414577479624"><ele>706.6666666666666</ele><time>2026-04-18T15:46:54Z</time></trkpt><trkpt lat="41.7278920602201" lon="-8.458294170106496"><ele>704.5</ele><time>2026-04-18T15:46:56Z</time></trkpt><trkpt lat="41.72793593160071" lon="-8.458186808909524"><ele>702.3333333333333</ele><time>2026-04-18T15:46:58Z</time></trkpt><trkpt lat="41.728038223853325" lon="-8.45814974533061"><ele>700.1666666666666</ele><time>2026-04-18T15:47:00Z</time></trkpt><trkpt lat="41.72811438108218" lon="-8.458168470502963"><ele>698.0</ele><time>2026-04-18T15:47:01Z</time></trkpt><trkpt lat="41.728178160678105" lon="-8.458184883753427"><ele>697.9999999999999</ele><time>2026-04-18T15:47:02Z</time></trkpt><trkpt lat="41.72824162246606" lon="-8.458204267769403"><ele>698.0</ele><time>2026-04-18T15:47:03Z</time></trkpt><trkpt lat="41.728307414068595" lon="-8.458221723054171"><ele>698.0</ele><time>2026-04-18T15:47:04Z</time></trkpt><trkpt lat="41.72837333181416" lon="-8.458232849517042"><ele>698.0</ele><time>2026-04-18T15:47:05Z</time></trkpt><trkpt lat="41.72844844545987" lon="-8.458240981065625"><ele>698.0</ele><time>2026-04-18T15:47:06Z</time></trkpt><trkpt lat="41.728518476178415" lon="-8.458236457371084"><ele>697.9999999999999</ele><time>2026-04-18T15:47:07Z</time></trkpt><trkpt lat="41.72858252772642" lon="-8.45823043280971"><ele>698.0</ele><time>2026-04-18T15:47:08Z</time></trkpt><trkpt lat="41.728711537433185" lon="-8.4581804778386"><ele>698.0</ele><time>2026-04-18T15:47:10Z</time></trkpt><trkpt lat="41.728837583399944" lon="-8.458131720557416"><ele>698.0</ele><time>2026-04-18T15:47:12.001Z</time></trkpt><trkpt lat="41.72890610952161" lon="-8.458113828736881"><ele>698.0</ele><time>2026-04-18T15:47:13.001Z</time></trkpt><trkpt lat="41.729018700585826" lon="-8.45803837014348"><ele>698.0</ele><time>2026-04-18T15:47:15.001Z</time></trkpt><trkpt lat="41.729068295509826" lon="-8.457983340155442"><ele>698.0</ele><time>2026-04-18T15:47:16.001Z</time></trkpt><trkpt lat="41.72910303289636" lon="-8.457911675119039"><ele>697.4</ele><time>2026-04-18T15:47:17.001Z</time></trkpt><trkpt lat="41.72912953389529" lon="-8.457766866659664"><ele>696.8</ele><time>2026-04-18T15:47:19.001Z</time></trkpt><trkpt lat="41.72918224300853" lon="-8.457649361754841"><ele>696.2</ele><time>2026-04-18T15:47:21.001Z</time></trkpt><trkpt lat="41.7292598107383" lon="-8.457557341264366"><ele>695.6</ele><time>2026-04-18T15:47:23.001Z</time></trkpt><trkpt lat="41.729343099670004" lon="-8.457455346640023"><ele>695.0</ele><time>2026-04-18T15:47:25.001Z</time></trkpt><trkpt lat="41.729407099612295" lon="-8.457404070626648"><ele>695.0</ele><time>2026-04-18T15:47:26.001Z</time></trkpt><trkpt lat="41.729478932900115" lon="-8.457360491662687"><ele>695.0</ele><time>2026-04-18T15:47:27.001Z</time></trkpt><trkpt lat="41.729553990046895" lon="-8.457312953153028"><ele>695.0</ele><time>2026-04-18T15:47:28.001Z</time></trkpt><trkpt lat="41.729653941717125" lon="-8.45725479141239"><ele>695.0</ele><time>2026-04-18T15:47:29.001Z</time></trkpt><trkpt lat="41.729770542678715" lon="-8.457185422673684"><ele>695.0</ele><time>2026-04-18T15:47:30.001Z</time></trkpt><trkpt lat="41.72990161358711" lon="-8.457100679469132"><ele>693.4</ele><time>2026-04-18T15:47:31.001Z</time></trkpt><trkpt lat="41.730023155625936" lon="-8.45702736597543"><ele>691.8</ele><time>2026-04-18T15:47:32.001Z</time></trkpt><trkpt lat="41.730123927649025" lon="-8.45697044611625"><ele>690.2</ele><time>2026-04-18T15:47:33.001Z</time></trkpt><trkpt lat="41.730208392889644" lon="-8.45690127821466"><ele>688.6</ele><time>2026-04-18T15:47:34.001Z</time></trkpt><trkpt lat="41.7302992359406" lon="-8.456826015394293"><ele>687.0</ele><time>2026-04-18T15:47:35.001Z</time></trkpt><trkpt lat="41.73039341715724" lon="-8.45674792169162"><ele>687.0</ele><time>2026-04-18T15:47:36.001Z</time></trkpt><trkpt lat="41.730482786404416" lon="-8.456700422615311"><ele>687.0</ele><time>2026-04-18T15:47:37.001Z</time></trkpt><trkpt lat="41.73058631911018" lon="-8.456663007709063"><ele>687.0</ele><time>2026-04-18T15:47:38.001Z</time></trkpt><trkpt lat="41.73066142124442" lon="-8.456633183990705"><ele>687.0</ele><time>2026-04-18T15:47:39.001Z</time></trkpt><trkpt lat="41.73071968650786" lon="-8.456597121624934"><ele>687.0</ele><time>2026-04-18T15:47:40.001Z</time></trkpt><trkpt lat="41.73085027392746" lon="-8.45659948848419"><ele>687.0</ele><time>2026-04-18T15:47:42.001Z</time></trkpt><trkpt lat="41.730923883021774" lon="-8.456604240205435"><ele>687.0</ele><time>2026-04-18T15:47:43.001Z</time></trkpt><trkpt lat="41.7309889550248" lon="-8.456597740390114"><ele>687.0</ele><time>2026-04-18T15:47:44.001Z</time></trkpt><trkpt lat="41.731109908015355" lon="-8.45659187336648"><ele>687.0</ele><time>2026-04-18T15:47:46.001Z</time></trkpt><trkpt lat="41.731214422637194" lon="-8.456601131687952"><ele>687.0</ele><time>2026-04-18T15:47:48.001Z</time></trkpt><trkpt lat="41.73134884805485" lon="-8.456586179960503"><ele>685.8333333333334</ele><time>2026-04-18T15:47:50.001Z</time></trkpt><trkpt lat="41.731416859303884" lon="-8.45655130239214"><ele>684.6666666666666</ele><time>2026-04-18T15:47:51.001Z</time></trkpt><trkpt lat="41.73148728282489" lon="-8.456508832307303"><ele>683.5</ele><time>2026-04-18T15:47:52.001Z</time></trkpt><trkpt lat="41.73155142022458" lon="-8.456486818446662"><ele>682.3333333333333</ele><time>2026-04-18T15:47:53.001Z</time></trkpt><trkpt lat="41.731619418699836" lon="-8.456457560984239"><ele>681.1666666666666</ele><time>2026-04-18T15:47:54.001Z</time></trkpt><trkpt lat="41.73170466410803" lon="-8.456426081709786"><ele>680.0</ele><time>2026-04-18T15:47:55.001Z</time></trkpt><trkpt lat="41.73178578138655" lon="-8.456411963876333"><ele>680.0</ele><time>2026-04-18T15:47:56.001Z</time></trkpt><trkpt lat="41.73186920982972" lon="-8.456407115363717"><ele>680.0</ele><time>2026-04-18T15:47:57.001Z</time></trkpt><trkpt lat="41.731959851974125" lon="-8.456396474317954"><ele>680.0</ele><time>2026-04-18T15:47:58.001Z</time></trkpt><trkpt lat="41.73205443370795" lon="-8.456384988772234"><ele>680.0</ele><time>2026-04-18T15:47:59.001Z</time></trkpt><trkpt lat="41.732146477192316" lon="-8.456376489090761"><ele>680.0</ele><time>2026-04-18T15:48:00.001Z</time></trkpt><trkpt lat="41.732224567648586" lon="-8.456380435369763"><ele>680.0</ele><time>2026-04-18T15:48:01.001Z</time></trkpt><trkpt lat="41.73230453408506" lon="-8.456392993771598"><ele>679.5</ele><time>2026-04-18T15:48:02.001Z</time></trkpt><trkpt lat="41.732376029548185" lon="-8.456377770684313"><ele>679.0</ele><time>2026-04-18T15:48:03.001Z</time></trkpt><trkpt lat="41.732456879223975" lon="-8.456335747445616"><ele>678.5</ele><time>2026-04-18T15:48:04Z</time></trkpt><trkpt lat="41.732532488051774" lon="-8.456269752291144"><ele>678.0</ele><time>2026-04-18T15:48:05Z</time></trkpt><trkpt lat="41.73259565027217" lon="-8.456212686577876"><ele>677.5</ele><time>2026-04-18T15:48:06Z</time></trkpt><trkpt lat="41.732680070524" lon="-8.456172052262396"><ele>677.0</ele><time>2026-04-18T15:48:07Z</time></trkpt><trkpt lat="41.732763961712365" lon="-8.456129083050586"><ele>674.6</ele><time>2026-04-18T15:48:08Z</time></trkpt><trkpt lat="41.73284229361624" lon="-8.456100095678067"><ele>672.2</ele><time>2026-04-18T15:48:09Z</time></trkpt><trkpt lat="41.73290913910302" lon="-8.456068902727266"><ele>669.8</ele><time>2026-04-18T15:48:10Z</time></trkpt><trkpt lat="41.733015939784224" lon="-8.45599413603052"><ele>667.4</ele><time>2026-04-18T15:48:12Z</time></trkpt><trkpt lat="41.733110627962766" lon="-8.455933089829067"><ele>665.0</ele><time>2026-04-18T15:48:14Z</time></trkpt><trkpt lat="41.73319041201353" lon="-8.455855644232031"><ele>665.0</ele><time>2026-04-18T15:48:16Z</time></trkpt><trkpt lat="41.73326415403871" lon="-8.45574481403336"><ele>665.0</ele><time>2026-04-18T15:48:18Z</time></trkpt><trkpt lat="41.73332866510275" lon="-8.45563834918011"><ele>665.0</ele><time>2026-04-18T15:48:20Z</time></trkpt><trkpt lat="41.73336287690029" lon="-8.45556374338866"><ele>665.0</ele><time>2026-04-18T15:48:21Z</time></trkpt><trkpt lat="41.733398857263154" lon="-8.45547761187357"><ele>665.0</ele><time>2026-04-18T15:48:22Z</time></trkpt><trkpt lat="41.73344320189806" lon="-8.455394255042242"><ele>665.0</ele><time>2026-04-18T15:48:23Z</time></trkpt><trkpt lat="41.73350670592776" lon="-8.455310807610545"><ele>662.4</ele><time>2026-04-18T15:48:24Z</time></trkpt><trkpt lat="41.73358313734668" lon="-8.455248152993718"><ele>659.8</ele><time>2026-04-18T15:48:25Z</time></trkpt><trkpt lat="41.73365514265189" lon="-8.455163019950481"><ele>657.2</ele><time>2026-04-18T15:48:26Z</time></trkpt><trkpt lat="41.73371378334271" lon="-8.455059268705613"><ele>654.6</ele><time>2026-04-18T15:48:27Z</time></trkpt><trkpt lat="41.733770222057274" lon="-8.454964022721105"><ele>652.0</ele><time>2026-04-18T15:48:28Z</time></trkpt><trkpt lat="41.733813486188495" lon="-8.454879101445586"><ele>652.0</ele><time>2026-04-18T15:48:29Z</time></trkpt><trkpt lat="41.733848072103676" lon="-8.454798612372889"><ele>652.0</ele><time>2026-04-18T15:48:30Z</time></trkpt><trkpt lat="41.73388154646454" lon="-8.454720798529742"><ele>652.0</ele><time>2026-04-18T15:48:31Z</time></trkpt><trkpt lat="41.733901675542256" lon="-8.45463479745171"><ele>652.0</ele><time>2026-04-18T15:48:32Z</time></trkpt><trkpt lat="41.73385238951147" lon="-8.454496088254023"><ele>652.0</ele><time>2026-04-18T15:48:34Z</time></trkpt><trkpt lat="41.733790648645474" lon="-8.454424875174572"><ele>652.0</ele><time>2026-04-18T15:48:35Z</time></trkpt><trkpt lat="41.73372257739768" lon="-8.454370002101905"><ele>652.0</ele><time>2026-04-18T15:48:36Z</time></trkpt><trkpt lat="41.73365030404724" lon="-8.45430679956595"><ele>652.0</ele><time>2026-04-18T15:48:37Z</time></trkpt><trkpt lat="41.73357366402409" lon="-8.454247636449084"><ele>652.0</ele><time>2026-04-18T15:48:38Z</time></trkpt><trkpt lat="41.733495062953786" lon="-8.45420371360526"><ele>652.0</ele><time>2026-04-18T15:48:39Z</time></trkpt><trkpt lat="41.733420710732005" lon="-8.45416797603877"><ele>652.0</ele><time>2026-04-18T15:48:40Z</time></trkpt><trkpt lat="41.73333412361563" lon="-8.454130980715188"><ele>652.0</ele><time>2026-04-18T15:48:41Z</time></trkpt><trkpt lat="41.73325670744796" lon="-8.454106414384292"><ele>651.2</ele><time>2026-04-18T15:48:42Z</time></trkpt><trkpt lat="41.733190847399236" lon="-8.45408402929481"><ele>650.4000000000001</ele><time>2026-04-18T15:48:43Z</time></trkpt><trkpt lat="41.733129003624754" lon="-8.454061447270218"><ele>649.5999999999999</ele><time>2026-04-18T15:48:44Z</time></trkpt><trkpt lat="41.733034621500316" lon="-8.454007604739765"><ele>648.8</ele><time>2026-04-18T15:48:46Z</time></trkpt><trkpt lat="41.73293333383321" lon="-8.453900489726555"><ele>648.0</ele><time>2026-04-18T15:48:48Z</time></trkpt><trkpt lat="41.73285961739211" lon="-8.453748538216033"><ele>647.5</ele><time>2026-04-18T15:48:50Z</time></trkpt><trkpt lat="41.73281914712485" lon="-8.453666856568942"><ele>647.0</ele><time>2026-04-18T15:48:51Z</time></trkpt><trkpt lat="41.732772670536306" lon="-8.453566489309207"><ele>646.5</ele><time>2026-04-18T15:48:52Z</time></trkpt><trkpt lat="41.732734814302354" lon="-8.453459190339299"><ele>646.0</ele><time>2026-04-18T15:48:53Z</time></trkpt><trkpt lat="41.73270669010599" lon="-8.453355050129383"><ele>645.5</ele><time>2026-04-18T15:48:54Z</time></trkpt><trkpt lat="41.732672956426626" lon="-8.453271929810757"><ele>645.0</ele><time>2026-04-18T15:48:55Z</time></trkpt><trkpt lat="41.7326442602324" lon="-8.453189284943551"><ele>643.6666666666666</ele><time>2026-04-18T15:48:56.001Z</time></trkpt><trkpt lat="41.73261668215204" lon="-8.453109779677966"><ele>642.3333333333334</ele><time>2026-04-18T15:48:57.001Z</time></trkpt><trkpt lat="41.73256986519975" lon="-8.452968420390182"><ele>641.0</ele><time>2026-04-18T15:48:59.001Z</time></trkpt><trkpt lat="41.73253634089362" lon="-8.452802786256106"><ele>639.6666666666667</ele><time>2026-04-18T15:49:01.001Z</time></trkpt><trkpt lat="41.73252704396716" lon="-8.452707491599597"><ele>638.3333333333334</ele><time>2026-04-18T15:49:02.001Z</time></trkpt><trkpt lat="41.73252917696582" lon="-8.45262202366143"><ele>637.0</ele><time>2026-04-18T15:49:03.001Z</time></trkpt><trkpt lat="41.732541795964686" lon="-8.45253680738299"><ele>637.8333333333334</ele><time>2026-04-18T15:49:04.001Z</time></trkpt><trkpt lat="41.732577981357" lon="-8.452389738721035"><ele>638.6666666666667</ele><time>2026-04-18T15:49:06.001Z</time></trkpt><trkpt lat="41.73264127888675" lon="-8.45225932651991"><ele>639.5</ele><time>2026-04-18T15:49:08.001Z</time></trkpt><trkpt lat="41.73269480605928" lon="-8.452208502620595"><ele>640.3333333333334</ele><time>2026-04-18T15:49:09.001Z</time></trkpt><trkpt lat="41.73275686898566" lon="-8.452182269782814"><ele>641.1666666666666</ele><time>2026-04-18T15:49:10.001Z</time></trkpt><trkpt lat="41.73282327835606" lon="-8.452164778168504"><ele>642.0</ele><time>2026-04-18T15:49:11.001Z</time></trkpt><trkpt lat="41.7328944530687" lon="-8.452146878171838"><ele>642.0</ele><time>2026-04-18T15:49:12.001Z</time></trkpt><trkpt lat="41.73295645075182" lon="-8.45212686040676"><ele>642.0</ele><time>2026-04-18T15:49:13.001Z</time></trkpt><trkpt lat="41.73302278770795" lon="-8.452096123711774"><ele>642.0</ele><time>2026-04-18T15:49:14.001Z</time></trkpt><trkpt lat="41.733086958150636" lon="-8.452040237102771"><ele>642.0</ele><time>2026-04-18T15:49:15.001Z</time></trkpt><trkpt lat="41.73313805903476" lon="-8.451955604061268"><ele>642.0</ele><time>2026-04-18T15:49:16.001Z</time></trkpt><trkpt lat="41.733178844384106" lon="-8.451857006924024"><ele>642.0</ele><time>2026-04-18T15:49:17.001Z</time></trkpt><trkpt lat="41.733231634934654" lon="-8.451732310865525"><ele>640.4</ele><time>2026-04-18T15:49:18.001Z</time></trkpt><trkpt lat="41.73328659863974" lon="-8.451610054486936"><ele>638.8000000000001</ele><time>2026-04-18T15:49:19.001Z</time></trkpt><trkpt lat="41.73332466743539" lon="-8.451517414271487"><ele>637.2</ele><time>2026-04-18T15:49:20.001Z</time></trkpt><trkpt lat="41.733376871294595" lon="-8.45140938687391"><ele>635.6</ele><time>2026-04-18T15:49:22.001Z</time></trkpt><trkpt lat="41.73343195386209" lon="-8.451279073308719"><ele>634.0</ele><time>2026-04-18T15:49:24.001Z</time></trkpt><trkpt lat="41.733487025474986" lon="-8.451132212965792"><ele>634.5</ele><time>2026-04-18T15:49:26.001Z</time></trkpt><trkpt lat="41.73351849247967" lon="-8.451046855950535"><ele>635.0</ele><time>2026-04-18T15:49:27.001Z</time></trkpt><trkpt lat="41.73353876636676" lon="-8.450962995359784"><ele>635.5</ele><time>2026-04-18T15:49:28.001Z</time></trkpt><trkpt lat="41.73356161626567" lon="-8.450870125737175"><ele>636.0</ele><time>2026-04-18T15:49:29.001Z</time></trkpt><trkpt lat="41.733589922707864" lon="-8.450787991965138"><ele>636.5</ele><time>2026-04-18T15:49:30.001Z</time></trkpt><trkpt lat="41.73362869137531" lon="-8.450651741881966"><ele>637.0</ele><time>2026-04-18T15:49:32.001Z</time></trkpt><trkpt lat="41.73363799443581" lon="-8.450559999745337"><ele>637.0</ele><time>2026-04-18T15:49:33.001Z</time></trkpt><trkpt lat="41.73362243297071" lon="-8.450473388744028"><ele>637.0</ele><time>2026-04-18T15:49:34.001Z</time></trkpt><trkpt lat="41.73358311301652" lon="-8.450401707447893"><ele>637.0</ele><time>2026-04-18T15:49:35.001Z</time></trkpt><trkpt lat="41.73353562306564" lon="-8.45033863339456"><ele>637.0</ele><time>2026-04-18T15:49:36.001Z</time></trkpt><trkpt lat="41.73349249178717" lon="-8.450268422545921"><ele>637.0</ele><time>2026-04-18T15:49:37.001Z</time></trkpt><trkpt lat="41.733445184290844" lon="-8.450155255816378"><ele>637.0</ele><time>2026-04-18T15:49:38.001Z</time></trkpt><trkpt lat="41.73341390400381" lon="-8.450046333804918"><ele>632.2</ele><time>2026-04-18T15:49:39.001Z</time></trkpt><trkpt lat="41.73338329532754" lon="-8.4499350072584"><ele>627.4000000000001</ele><time>2026-04-18T15:49:40.001Z</time></trkpt><trkpt lat="41.733331759463454" lon="-8.449840163596138"><ele>622.5999999999999</ele><time>2026-04-18T15:49:41.001Z</time></trkpt><trkpt lat="41.73326793331485" lon="-8.449745087118327"><ele>617.8</ele><time>2026-04-18T15:49:42.001Z</time></trkpt><trkpt lat="41.73321645130976" lon="-8.449638766391425"><ele>613.0</ele><time>2026-04-18T15:49:43.001Z</time></trkpt><trkpt lat="41.73316656308449" lon="-8.449528049940657"><ele>610.5</ele><time>2026-04-18T15:49:44.001Z</time></trkpt><trkpt lat="41.733116516698985" lon="-8.449429359802664"><ele>608.0</ele><time>2026-04-18T15:49:45.001Z</time></trkpt><trkpt lat="41.733066975661075" lon="-8.449334937535657"><ele>605.5</ele><time>2026-04-18T15:49:46.001Z</time></trkpt><trkpt lat="41.73302800870127" lon="-8.449239919994843"><ele>603.0</ele><time>2026-04-18T15:49:47.001Z</time></trkpt><trkpt lat="41.73300545539502" lon="-8.449147890538576"><ele>600.5</ele><time>2026-04-18T15:49:48.001Z</time></trkpt><trkpt lat="41.73299855142029" lon="-8.449061103444999"><ele>598.0</ele><time>2026-04-18T15:49:49.001Z</time></trkpt><trkpt lat="41.73302432447912" lon="-8.448939187458528"><ele>598.0</ele><time>2026-04-18T15:49:51.001Z</time></trkpt><trkpt lat="41.73308267530043" lon="-8.448885357956442"><ele>598.0</ele><time>2026-04-18T15:49:53.001Z</time></trkpt><trkpt lat="41.733187710603666" lon="-8.448887277043799"><ele>598.0</ele><time>2026-04-18T15:49:55.001Z</time></trkpt><trkpt lat="41.733294744100014" lon="-8.448935031497987"><ele>598.0</ele><time>2026-04-18T15:49:57.001Z</time></trkpt><trkpt lat="41.73335976890963" lon="-8.448927415280528"><ele>598.0</ele><time>2026-04-18T15:49:58.001Z</time></trkpt><trkpt lat="41.733424238395386" lon="-8.44889273456423"><ele>598.0</ele><time>2026-04-18T15:49:59.001Z</time></trkpt><trkpt lat="41.733476465767964" lon="-8.44882994286127"><ele>595.1999999999999</ele><time>2026-04-18T15:50:00.001Z</time></trkpt><trkpt lat="41.73351572500107" lon="-8.448763593307937"><ele>592.4</ele><time>2026-04-18T15:50:01.001Z</time></trkpt><trkpt lat="41.733561675413625" lon="-8.448699533464698"><ele>589.5999999999999</ele><time>2026-04-18T15:50:02.001Z</time></trkpt><trkpt lat="41.73365764968203" lon="-8.448609475980126"><ele>586.8</ele><time>2026-04-18T15:50:04.001Z</time></trkpt><trkpt lat="41.73376296090758" lon="-8.448542357804183"><ele>584.0</ele><time>2026-04-18T15:50:06.001Z</time></trkpt><trkpt lat="41.733844173464746" lon="-8.448412941696764"><ele>584.0</ele><time>2026-04-18T15:50:08.001Z</time></trkpt><trkpt lat="41.73387941022822" lon="-8.448264722877152"><ele>584.0</ele><time>2026-04-18T15:50:10Z</time></trkpt><trkpt lat="41.733826780731995" lon="-8.448153762514002"><ele>584.0</ele><time>2026-04-18T15:50:12Z</time></trkpt><trkpt lat="41.73372168682659" lon="-8.448133177108648"><ele>584.0</ele><time>2026-04-18T15:50:14Z</time></trkpt><trkpt lat="41.73359439702783" lon="-8.448182951353637"><ele>583.5714285714286</ele><time>2026-04-18T15:50:16Z</time></trkpt><trkpt lat="41.73353002835859" lon="-8.44820177477601"><ele>583.1428571428571</ele><time>2026-04-18T15:50:17Z</time></trkpt><trkpt lat="41.73346377065192" lon="-8.448207497913911"><ele>582.7142857142858</ele><time>2026-04-18T15:50:18Z</time></trkpt><trkpt lat="41.73339791719906" lon="-8.448207034468632"><ele>582.2857142857142</ele><time>2026-04-18T15:50:19Z</time></trkpt><trkpt lat="41.73332471430183" lon="-8.448198952293703"><ele>581.8571428571429</ele><time>2026-04-18T15:50:20Z</time></trkpt><trkpt lat="41.73326077272575" lon="-8.448175951485736"><ele>581.4285714285714</ele><time>2026-04-18T15:50:21Z</time></trkpt><trkpt lat="41.733190258319674" lon="-8.448123090305133"><ele>581.0</ele><time>2026-04-18T15:50:22Z</time></trkpt><trkpt lat="41.733097147666" lon="-8.448057589312075"><ele>581.0</ele><time>2026-04-18T15:50:23Z</time></trkpt><trkpt lat="41.73297084630096" lon="-8.447975034389842"><ele>581.0</ele><time>2026-04-18T15:50:24Z</time></trkpt><trkpt lat="41.73285581948734" lon="-8.447900660682992"><ele>581.0</ele><time>2026-04-18T15:50:25Z</time></trkpt><trkpt lat="41.73274213355532" lon="-8.447834179372608"><ele>581.0</ele><time>2026-04-18T15:50:26Z</time></trkpt><trkpt lat="41.7326375185836" lon="-8.447780747614758"><ele>578.25</ele><time>2026-04-18T15:50:27Z</time></trkpt><trkpt lat="41.7325351192417" lon="-8.447734575615463"><ele>575.5</ele><time>2026-04-18T15:50:28Z</time></trkpt><trkpt lat="41.7324233781819" lon="-8.447666396944603"><ele>572.75</ele><time>2026-04-18T15:50:29Z</time></trkpt><trkpt lat="41.73230987994154" lon="-8.44757390779484"><ele>570.0</ele><time>2026-04-18T15:50:30Z</time></trkpt><trkpt lat="41.73220806703412" lon="-8.447470411644591"><ele>570.0</ele><time>2026-04-18T15:50:31Z</time></trkpt><trkpt lat="41.73210230322866" lon="-8.447372894311526"><ele>570.0</ele><time>2026-04-18T15:50:32Z</time></trkpt><trkpt lat="41.7319790969904" lon="-8.44726167731706"><ele>570.0</ele><time>2026-04-18T15:50:33Z</time></trkpt><trkpt lat="41.73187884782008" lon="-8.44716635845153"><ele>570.0</ele><time>2026-04-18T15:50:34Z</time></trkpt><trkpt lat="41.731803747203095" lon="-8.447085813179584"><ele>568.6666666666666</ele><time>2026-04-18T15:50:35Z</time></trkpt><trkpt lat="41.731742282755576" lon="-8.44700918395327"><ele>567.3333333333334</ele><time>2026-04-18T15:50:36Z</time></trkpt><trkpt lat="41.73169727443563" lon="-8.446933257602984"><ele>566.0</ele><time>2026-04-18T15:50:37Z</time></trkpt><trkpt lat="41.73164944886169" lon="-8.446842158240724"><ele>564.6666666666667</ele><time>2026-04-18T15:50:38Z</time></trkpt><trkpt lat="41.73159354871161" lon="-8.446755407920344"><ele>563.3333333333334</ele><time>2026-04-18T15:50:39Z</time></trkpt><trkpt lat="41.731536021163514" lon="-8.446689156812132"><ele>562.0</ele><time>2026-04-18T15:50:40Z</time></trkpt><trkpt lat="41.731475839496234" lon="-8.446641855204646"><ele>562.0</ele><time>2026-04-18T15:50:41Z</time></trkpt><trkpt lat="41.731407883101504" lon="-8.44660360331196"><ele>562.0</ele><time>2026-04-18T15:50:42Z</time></trkpt><trkpt lat="41.73127957446754" lon="-8.446520245748008"><ele>562.0</ele><time>2026-04-18T15:50:44Z</time></trkpt><trkpt lat="41.73120448630725" lon="-8.446467677016338"><ele>562.0</ele><time>2026-04-18T15:50:45Z</time></trkpt><trkpt lat="41.731134815993606" lon="-8.446410314503444"><ele>562.0</ele><time>2026-04-18T15:50:46Z</time></trkpt><trkpt lat="41.731077446805344" lon="-8.446341031353587"><ele>562.1428571428572</ele><time>2026-04-18T15:50:47Z</time></trkpt><trkpt lat="41.73104283275319" lon="-8.446264327703181"><ele>562.2857142857143</ele><time>2026-04-18T15:50:48Z</time></trkpt><trkpt lat="41.7310190625834" lon="-8.44618294917091"><ele>562.4285714285714</ele><time>2026-04-18T15:50:49Z</time></trkpt><trkpt lat="41.73100006498384" lon="-8.446094571258465"><ele>562.5714285714287</ele><time>2026-04-18T15:50:50Z</time></trkpt><trkpt lat="41.73098106018304" lon="-8.445982028591477"><ele>562.7142857142858</ele><time>2026-04-18T15:50:51Z</time></trkpt><trkpt lat="41.73097741402971" lon="-8.44587218324642"><ele>562.8571428571429</ele><time>2026-04-18T15:50:52Z</time></trkpt><trkpt lat="41.73097524525542" lon="-8.445774155673332"><ele>563.0</ele><time>2026-04-18T15:50:53Z</time></trkpt><trkpt lat="41.730952905967314" lon="-8.445684930416302"><ele>563.0</ele><time>2026-04-18T15:50:54Z</time></trkpt><trkpt lat="41.73092961075263" lon="-8.445604569089987"><ele>563.0</ele><time>2026-04-18T15:50:55Z</time></trkpt><trkpt lat="41.730902207288274" lon="-8.445516909538824"><ele>563.0</ele><time>2026-04-18T15:50:56Z</time></trkpt><trkpt lat="41.73087047421324" lon="-8.44542744632257"><ele>563.0</ele><time>2026-04-18T15:50:57Z</time></trkpt><trkpt lat="41.73083651773224" lon="-8.445352191824863"><ele>563.0</ele><time>2026-04-18T15:50:58Z</time></trkpt><trkpt lat="41.73079499799488" lon="-8.445271259137256"><ele>563.0</ele><time>2026-04-18T15:50:59Z</time></trkpt><trkpt lat="41.73073774414213" lon="-8.445200339024302"><ele>563.0</ele><time>2026-04-18T15:51:00Z</time></trkpt><trkpt lat="41.73064542989103" lon="-8.445112482616654"><ele>560.0</ele><time>2026-04-18T15:51:01Z</time></trkpt><trkpt lat="41.73054865748988" lon="-8.445023049640675"><ele>557.0</ele><time>2026-04-18T15:51:02Z</time></trkpt><trkpt lat="41.73045202143219" lon="-8.444918778756199"><ele>554.0</ele><time>2026-04-18T15:51:03.001Z</time></trkpt><trkpt lat="41.73037400108079" lon="-8.444822737942106"><ele>551.0</ele><time>2026-04-18T15:51:04.001Z</time></trkpt><trkpt lat="41.73028967398299" lon="-8.444707254971386"><ele>550.0</ele><time>2026-04-18T15:51:05.001Z</time></trkpt><trkpt lat="41.730215618267586" lon="-8.444613436352801"><ele>549.0</ele><time>2026-04-18T15:51:06.001Z</time></trkpt><trkpt lat="41.730139114052285" lon="-8.444549567589037"><ele>548.0</ele><time>2026-04-18T15:51:07.001Z</time></trkpt><trkpt lat="41.730064852482435" lon="-8.444512127891956"><ele>547.0</ele><time>2026-04-18T15:51:08.001Z</time></trkpt><trkpt lat="41.72999403343952" lon="-8.444507815409567"><ele>546.0</ele><time>2026-04-18T15:51:09.001Z</time></trkpt><trkpt lat="41.72991440802622" lon="-8.44448656070224"><ele>545.0</ele><time>2026-04-18T15:51:10.001Z</time></trkpt><trkpt lat="41.729836298194634" lon="-8.444458943614237"><ele>545.0</ele><time>2026-04-18T15:51:11.001Z</time></trkpt><trkpt lat="41.72975123568417" lon="-8.44442227531027"><ele>545.0</ele><time>2026-04-18T15:51:12.001Z</time></trkpt><trkpt lat="41.729670133059905" lon="-8.444393508386225"><ele>545.0</ele><time>2026-04-18T15:51:13.001Z</time></trkpt><trkpt lat="41.72958397549311" lon="-8.444367759154966"><ele>545.0</ele><time>2026-04-18T15:51:14.001Z</time></trkpt><trkpt lat="41.72950033022847" lon="-8.444346628856792"><ele>545.0</ele><time>2026-04-18T15:51:15.001Z</time></trkpt><trkpt lat="41.729414699166064" lon="-8.444311343797436"><ele>545.0</ele><time>2026-04-18T15:51:16.001Z</time></trkpt><trkpt lat="41.7293370473173" lon="-8.4442659927172"><ele>543.7142857142858</ele><time>2026-04-18T15:51:17.001Z</time></trkpt><trkpt lat="41.729272495120135" lon="-8.444209707016206"><ele>542.4285714285714</ele><time>2026-04-18T15:51:18.001Z</time></trkpt><trkpt lat="41.72921615381782" lon="-8.444148268512249"><ele>541.1428571428571</ele><time>2026-04-18T15:51:19.001Z</time></trkpt><trkpt lat="41.72914972986351" lon="-8.444099278444977"><ele>539.8571428571429</ele><time>2026-04-18T15:51:20.001Z</time></trkpt><trkpt lat="41.72909902124163" lon="-8.444041106291442"><ele>538.5714285714286</ele><time>2026-04-18T15:51:21.001Z</time></trkpt><trkpt lat="41.72906362050233" lon="-8.443955903113832"><ele>537.2857142857143</ele><time>2026-04-18T15:51:22.001Z</time></trkpt><trkpt lat="41.72902735716012" lon="-8.443870988547125"><ele>536.0</ele><time>2026-04-18T15:51:23.001Z</time></trkpt><trkpt lat="41.72899352493949" lon="-8.443784143354735"><ele>535.1666666666666</ele><time>2026-04-18T15:51:24.001Z</time></trkpt><trkpt lat="41.72896351722849" lon="-8.443685404231797"><ele>534.3333333333333</ele><time>2026-04-18T15:51:25.001Z</time></trkpt><trkpt lat="41.72891867399575" lon="-8.443580739600051"><ele>533.5</ele><time>2026-04-18T15:51:26.001Z</time></trkpt><trkpt lat="41.72885929351277" lon="-8.44348955442098"><ele>532.6666666666666</ele><time>2026-04-18T15:51:27.001Z</time></trkpt><trkpt lat="41.728807069448365" lon="-8.44340789387744"><ele>531.8333333333334</ele><time>2026-04-18T15:51:28.001Z</time></trkpt><trkpt lat="41.728771621378094" lon="-8.443316794996203"><ele>531.0</ele><time>2026-04-18T15:51:29.001Z</time></trkpt><trkpt lat="41.72873863179974" lon="-8.443192758906687"><ele>531.0</ele><time>2026-04-18T15:51:30.001Z</time></trkpt><trkpt lat="41.72871829921894" lon="-8.443068816996208"><ele>531.0</ele><time>2026-04-18T15:51:31.001Z</time></trkpt><trkpt lat="41.728693401240264" lon="-8.44294371666646"><ele>531.0</ele><time>2026-04-18T15:51:32.001Z</time></trkpt><trkpt lat="41.728661068142216" lon="-8.442820712721794"><ele>531.0</ele><time>2026-04-18T15:51:33.001Z</time></trkpt><trkpt lat="41.72862354275313" lon="-8.44269982140827"><ele>531.0</ele><time>2026-04-18T15:51:34.001Z</time></trkpt><trkpt lat="41.728596531395084" lon="-8.442586055431496"><ele>530.6666666666666</ele><time>2026-04-18T15:51:35.001Z</time></trkpt><trkpt lat="41.72858710965584" lon="-8.442478768251325"><ele>530.3333333333334</ele><time>2026-04-18T15:51:36.001Z</time></trkpt><trkpt lat="41.728592077329736" lon="-8.44237850243206"><ele>530.0</ele><time>2026-04-18T15:51:37.001Z</time></trkpt><trkpt lat="41.72860318192675" lon="-8.442285862777672"><ele>529.6666666666667</ele><time>2026-04-18T15:51:38.001Z</time></trkpt><trkpt lat="41.72860863364969" lon="-8.442185203522298"><ele>529.3333333333334</ele><time>2026-04-18T15:51:39.001Z</time></trkpt><trkpt lat="41.728607211695596" lon="-8.442074645650646"><ele>529.0</ele><time>2026-04-18T15:51:40.001Z</time></trkpt><trkpt lat="41.728596963858564" lon="-8.441957710437174"><ele>526.8333333333334</ele><time>2026-04-18T15:51:41.001Z</time></trkpt><trkpt lat="41.728578190667704" lon="-8.441855730934948"><ele>524.6666666666667</ele><time>2026-04-18T15:51:42.001Z</time></trkpt><trkpt lat="41.72856014595963" lon="-8.441759766174007"><ele>522.5</ele><time>2026-04-18T15:51:43.001Z</time></trkpt><trkpt lat="41.728542098422146" lon="-8.441676582431716"><ele>520.3333333333334</ele><time>2026-04-18T15:51:44.001Z</time></trkpt><trkpt lat="41.72850996693825" lon="-8.441597702860228"><ele>518.1666666666666</ele><time>2026-04-18T15:51:45.001Z</time></trkpt><trkpt lat="41.72846124109757" lon="-8.44153547661338"><ele>516.0</ele><time>2026-04-18T15:51:46.001Z</time></trkpt><trkpt lat="41.72837055658137" lon="-8.441443455270337"><ele>512.4</ele><time>2026-04-18T15:51:48.001Z</time></trkpt><trkpt lat="41.72831621588308" lon="-8.4413167947871"><ele>508.8</ele><time>2026-04-18T15:51:50.001Z</time></trkpt><trkpt lat="41.72829269130636" lon="-8.441179901378403"><ele>505.19999999999993</ele><time>2026-04-18T15:51:52.001Z</time></trkpt><trkpt lat="41.728253140566615" lon="-8.44106088336828"><ele>501.59999999999997</ele><time>2026-04-18T15:51:54.001Z</time></trkpt><trkpt lat="41.728192908421285" lon="-8.440974616172769"><ele>498.0</ele><time>2026-04-18T15:51:57.001Z</time></trkpt><trkpt lat="41.72816495878757" lon="-8.440878157494971"><ele>496.5</ele><time>2026-04-18T15:52:01.001Z</time></trkpt><trkpt lat="41.72818370880956" lon="-8.440782201273663"><ele>495.0</ele><time>2026-04-18T15:52:04.001Z</time></trkpt><trkpt lat="41.728215669742845" lon="-8.440703296697702"><ele>493.5</ele><time>2026-04-18T15:52:08.001Z</time></trkpt><trkpt lat="41.72824220393291" lon="-8.440625134056686"><ele>492.0</ele><time>2026-04-18T15:52:11.001Z</time></trkpt><trkpt lat="41.72820334522666" lon="-8.440726038879168"><ele>490.5</ele><time>2026-04-18T15:52:18Z</time></trkpt><trkpt lat="41.728177086459766" lon="-8.440838631388432"><ele>489.0</ele><time>2026-04-18T15:52:20Z</time></trkpt><trkpt lat="41.72819329040314" lon="-8.440947352441285"><ele>489.0</ele><time>2026-04-18T15:52:22Z</time></trkpt><trkpt lat="41.72823665735926" lon="-8.44105396909397"><ele>489.0</ele><time>2026-04-18T15:52:23Z</time></trkpt><trkpt lat="41.72826340581453" lon="-8.441158037575534"><ele>489.0</ele><time>2026-04-18T15:52:26Z</time></trkpt><trkpt lat="41.72823934069027" lon="-8.44104673694686"><ele>489.0</ele><time>2026-04-18T15:52:27Z</time></trkpt><trkpt lat="41.728286671802216" lon="-8.441152982494792"><ele>489.0</ele><time>2026-04-18T15:53:25.001Z</time></trkpt><trkpt lat="41.72833254322533" lon="-8.441292949843335"><ele>491.25</ele><time>2026-04-18T15:53:27.001Z</time></trkpt><trkpt lat="41.72838830164441" lon="-8.441437568036605"><ele>493.5</ele><time>2026-04-18T15:53:29.001Z</time></trkpt><trkpt lat="41.72846830047872" lon="-8.441547881306803"><ele>495.75</ele><time>2026-04-18T15:53:31.001Z</time></trkpt><trkpt lat="41.728552621478904" lon="-8.441661202695839"><ele>498.0</ele><time>2026-04-18T15:53:33.001Z</time></trkpt><trkpt lat="41.72858944268003" lon="-8.441806351372307"><ele>501.59999999999997</ele><time>2026-04-18T15:53:35.001Z</time></trkpt><trkpt lat="41.72860767147293" lon="-8.441964335872273"><ele>505.19999999999993</ele><time>2026-04-18T15:53:37.001Z</time></trkpt><trkpt lat="41.728622771954" lon="-8.44207089148512"><ele>508.8</ele><time>2026-04-18T15:53:38.001Z</time></trkpt><trkpt lat="41.728629928525955" lon="-8.442191762292133"><ele>512.4</ele><time>2026-04-18T15:53:39.001Z</time></trkpt><trkpt lat="41.72862235896267" lon="-8.442328367966523"><ele>516.0</ele><time>2026-04-18T15:53:40.001Z</time></trkpt><trkpt lat="41.72861297179427" lon="-8.442463097105927"><ele>518.6</ele><time>2026-04-18T15:53:41.001Z</time></trkpt><trkpt lat="41.72861637911068" lon="-8.442607021115965"><ele>521.2</ele><time>2026-04-18T15:53:42.001Z</time></trkpt><trkpt lat="41.728643143419944" lon="-8.442746445827085"><ele>523.8</ele><time>2026-04-18T15:53:43.001Z</time></trkpt><trkpt lat="41.728684027698016" lon="-8.442871299905656"><ele>526.4</ele><time>2026-04-18T15:53:44.001Z</time></trkpt><trkpt lat="41.728711717134054" lon="-8.442987874407073"><ele>529.0</ele><time>2026-04-18T15:53:45.001Z</time></trkpt><trkpt lat="41.72873584948164" lon="-8.443116147839028"><ele>529.4</ele><time>2026-04-18T15:53:46.001Z</time></trkpt><trkpt lat="41.72876395520729" lon="-8.443242816486757"><ele>529.8</ele><time>2026-04-18T15:53:47.001Z</time></trkpt><trkpt lat="41.72881134095647" lon="-8.443371172872672"><ele>530.2</ele><time>2026-04-18T15:53:48.001Z</time></trkpt><trkpt lat="41.72887366224234" lon="-8.443501820064295"><ele>530.6</ele><time>2026-04-18T15:53:49.001Z</time></trkpt><trkpt lat="41.72893639910147" lon="-8.443628649414626"><ele>531.0</ele><time>2026-04-18T15:53:50.001Z</time></trkpt><trkpt lat="41.728995922554844" lon="-8.443757142696072"><ele>531.8333333333334</ele><time>2026-04-18T15:53:51.001Z</time></trkpt><trkpt lat="41.72904324901394" lon="-8.443875951599997"><ele>532.6666666666666</ele><time>2026-04-18T15:53:52.001Z</time></trkpt><trkpt lat="41.729087885879956" lon="-8.443980395700926"><ele>533.5</ele><time>2026-04-18T15:53:53.001Z</time></trkpt><trkpt lat="41.729135295460516" lon="-8.44406635978539"><ele>534.3333333333333</ele><time>2026-04-18T15:53:54.001Z</time></trkpt><trkpt lat="41.72921127672177" lon="-8.444142306888912"><ele>535.1666666666666</ele><time>2026-04-18T15:53:56.001Z</time></trkpt><trkpt lat="41.72927469918866" lon="-8.444180476750725"><ele>536.0</ele><time>2026-04-18T15:53:57.001Z</time></trkpt><trkpt lat="41.72933995339206" lon="-8.444225355427339"><ele>537.8</ele><time>2026-04-18T15:53:58.001Z</time></trkpt><trkpt lat="41.729405223924466" lon="-8.4442865697752"><ele>539.6</ele><time>2026-04-18T15:53:59.001Z</time></trkpt><trkpt lat="41.72948536573828" lon="-8.444337179961515"><ele>541.4</ele><time>2026-04-18T15:54:00.001Z</time></trkpt><trkpt lat="41.72957271570404" lon="-8.444362403217903"><ele>543.2</ele><time>2026-04-18T15:54:01.001Z</time></trkpt><trkpt lat="41.72966700381542" lon="-8.444376205524419"><ele>545.0</ele><time>2026-04-18T15:54:02.001Z</time></trkpt><trkpt lat="41.72976626156272" lon="-8.444403776098207"><ele>545.0</ele><time>2026-04-18T15:54:03.001Z</time></trkpt><trkpt lat="41.729863272144286" lon="-8.444446836361738"><ele>545.0</ele><time>2026-04-18T15:54:04.001Z</time></trkpt><trkpt lat="41.72996102007697" lon="-8.444490269588732"><ele>545.0</ele><time>2026-04-18T15:54:05.001Z</time></trkpt><trkpt lat="41.730047958800654" lon="-8.444514411121853"><ele>545.0</ele><time>2026-04-18T15:54:06.001Z</time></trkpt><trkpt lat="41.73013238979558" lon="-8.444541254421127"><ele>545.0</ele><time>2026-04-18T15:54:07.001Z</time></trkpt><trkpt lat="41.730211618684635" lon="-8.444591540146533"><ele>546.5</ele><time>2026-04-18T15:54:08.001Z</time></trkpt><trkpt lat="41.730291002129135" lon="-8.444677613842488"><ele>548.0</ele><time>2026-04-18T15:54:09.001Z</time></trkpt><trkpt lat="41.73037443561057" lon="-8.444778481981226"><ele>549.5</ele><time>2026-04-18T15:54:10.001Z</time></trkpt><trkpt lat="41.73046140590766" lon="-8.444886488007597"><ele>551.0</ele><time>2026-04-18T15:54:11.001Z</time></trkpt><trkpt lat="41.730551043280386" lon="-8.444992058108335"><ele>551.0</ele><time>2026-04-18T15:54:12.001Z</time></trkpt><trkpt lat="41.73063554721063" lon="-8.44508175060127"><ele>551.0</ele><time>2026-04-18T15:54:13.001Z</time></trkpt><trkpt lat="41.73070812386478" lon="-8.445148040505302"><ele>551.0</ele><time>2026-04-18T15:54:14.001Z</time></trkpt><trkpt lat="41.730776456396036" lon="-8.445216771876984"><ele>551.0</ele><time>2026-04-18T15:54:15.001Z</time></trkpt><trkpt lat="41.73083500876403" lon="-8.445298554464868"><ele>551.0</ele><time>2026-04-18T15:54:16.001Z</time></trkpt><trkpt lat="41.730879618110635" lon="-8.445389231481835"><ele>551.0</ele><time>2026-04-18T15:54:17.001Z</time></trkpt><trkpt lat="41.73091406239292" lon="-8.445490127131224"><ele>553.4</ele><time>2026-04-18T15:54:18.001Z</time></trkpt><trkpt lat="41.730939005391086" lon="-8.445588474375127"><ele>555.8</ele><time>2026-04-18T15:54:19.001Z</time></trkpt><trkpt lat="41.73096387162846" lon="-8.44567302221985"><ele>558.1999999999999</ele><time>2026-04-18T15:54:20.001Z</time></trkpt><trkpt lat="41.73099436314581" lon="-8.44580436664261"><ele>560.6</ele><time>2026-04-18T15:54:22.001Z</time></trkpt><trkpt lat="41.730996038177416" lon="-8.445951435628952"><ele>563.0</ele><time>2026-04-18T15:54:24.001Z</time></trkpt><trkpt lat="41.73100209756041" lon="-8.446100457405613"><ele>563.0</ele><time>2026-04-18T15:54:26.001Z</time></trkpt><trkpt lat="41.73103464252915" lon="-8.446231277424241"><ele>563.0</ele><time>2026-04-18T15:54:28.001Z</time></trkpt><trkpt lat="41.73107956685355" lon="-8.446379888450616"><ele>563.0</ele><time>2026-04-18T15:54:30.001Z</time></trkpt><trkpt lat="41.73107483641479" lon="-8.44652731237096"><ele>563.0</ele><time>2026-04-18T15:54:32.001Z</time></trkpt><trkpt lat="41.73109190104684" lon="-8.446619541351671"><ele>563.0</ele><time>2026-04-18T15:54:33.001Z</time></trkpt><trkpt lat="41.73111667404296" lon="-8.44676408496921"><ele>562.8</ele><time>2026-04-18T15:54:35Z</time></trkpt><trkpt lat="41.73111836685432" lon="-8.446910513779656"><ele>562.5999999999999</ele><time>2026-04-18T15:54:37Z</time></trkpt><trkpt lat="41.73109110717041" lon="-8.447037461825417"><ele>562.4000000000001</ele><time>2026-04-18T15:54:39Z</time></trkpt><trkpt lat="41.731045021122874" lon="-8.44715314605115"><ele>562.2</ele><time>2026-04-18T15:54:41Z</time></trkpt><trkpt lat="41.7309681154677" lon="-8.447251299344401"><ele>562.0</ele><time>2026-04-18T15:54:43Z</time></trkpt><trkpt lat="41.73090929859825" lon="-8.44730465475626"><ele>563.0</ele><time>2026-04-18T15:54:44Z</time></trkpt><trkpt lat="41.73083740745641" lon="-8.447420336962502"><ele>564.0</ele><time>2026-04-18T15:54:46Z</time></trkpt><trkpt lat="41.730802482725245" lon="-8.447492725670795"><ele>565.0</ele><time>2026-04-18T15:54:47Z</time></trkpt><trkpt lat="41.73074305017623" lon="-8.447614689966016"><ele>566.0</ele><time>2026-04-18T15:54:49Z</time></trkpt><trkpt lat="41.73068695063357" lon="-8.447703541754123"><ele>567.0</ele><time>2026-04-18T15:54:51Z</time></trkpt><trkpt lat="41.73069113343195" lon="-8.447825957278377"><ele>567.0</ele><time>2026-04-18T15:54:53Z</time></trkpt><trkpt lat="41.730772223348474" lon="-8.447943684278394"><ele>567.0</ele><time>2026-04-18T15:54:55Z</time></trkpt><trkpt lat="41.730877687742314" lon="-8.448011211697471"><ele>567.0</ele><time>2026-04-18T15:54:57.001Z</time></trkpt><trkpt lat="41.73097924991264" lon="-8.448091896674631"><ele>567.0</ele><time>2026-04-18T15:54:59.001Z</time></trkpt><trkpt lat="41.731030492650234" lon="-8.44819886441008"><ele>567.0</ele><time>2026-04-18T15:55:01.001Z</time></trkpt><trkpt lat="41.73104890093954" lon="-8.448331478689008"><ele>566.8000000000001</ele><time>2026-04-18T15:55:03.001Z</time></trkpt><trkpt lat="41.73102876643324" lon="-8.44849362046776"><ele>566.6</ele><time>2026-04-18T15:55:05.001Z</time></trkpt><trkpt lat="41.73101870547169" lon="-8.448577925695432"><ele>566.4000000000001</ele><time>2026-04-18T15:55:06.001Z</time></trkpt><trkpt lat="41.73101126980115" lon="-8.448729844513576"><ele>566.2</ele><time>2026-04-18T15:55:08.001Z</time></trkpt><trkpt lat="41.73098052813124" lon="-8.448888097793652"><ele>566.0</ele><time>2026-04-18T15:55:10.001Z</time></trkpt><trkpt lat="41.730934044454976" lon="-8.449040002795487"><ele>566.6</ele><time>2026-04-18T15:55:12.001Z</time></trkpt><trkpt lat="41.7309058086607" lon="-8.449208938556293"><ele>567.2</ele><time>2026-04-18T15:55:14.001Z</time></trkpt><trkpt lat="41.73089543852969" lon="-8.449299868008271"><ele>567.8</ele><time>2026-04-18T15:55:15.001Z</time></trkpt><trkpt lat="41.73088539584632" lon="-8.449454706806053"><ele>568.4</ele><time>2026-04-18T15:55:17.001Z</time></trkpt><trkpt lat="41.73088161913671" lon="-8.44954992038819"><ele>569.0</ele><time>2026-04-18T15:55:18.001Z</time></trkpt><trkpt lat="41.73083291558083" lon="-8.449680922196459"><ele>571.0</ele><time>2026-04-18T15:55:20.001Z</time></trkpt><trkpt lat="41.73074390145706" lon="-8.449704872764901"><ele>573.0</ele><time>2026-04-18T15:55:22.001Z</time></trkpt><trkpt lat="41.73064404375381" lon="-8.449697553272017"><ele>575.0</ele><time>2026-04-18T15:55:24.001Z</time></trkpt><trkpt lat="41.73058563488978" lon="-8.449755122344744"><ele>577.0</ele><time>2026-04-18T15:55:26.001Z</time></trkpt><trkpt lat="41.73050277659057" lon="-8.449820451248385"><ele>579.0</ele><time>2026-04-18T15:55:28.001Z</time></trkpt><trkpt lat="41.73042675656697" lon="-8.449913065306472"><ele>579.0</ele><time>2026-04-18T15:55:30.001Z</time></trkpt><trkpt lat="41.730359427054125" lon="-8.449959798622485"><ele>579.0</ele><time>2026-04-18T15:55:31.001Z</time></trkpt><trkpt lat="41.73029871215424" lon="-8.450022672594766"><ele>579.0</ele><time>2026-04-18T15:55:32.001Z</time></trkpt><trkpt lat="41.73024124145894" lon="-8.450067497388922"><ele>579.0</ele><time>2026-04-18T15:55:33.001Z</time></trkpt><trkpt lat="41.73014459183823" lon="-8.45015932588961"><ele>579.0</ele><time>2026-04-18T15:55:35.001Z</time></trkpt><trkpt lat="41.73008611804489" lon="-8.450289984525925"><ele>578.2</ele><time>2026-04-18T15:55:37.001Z</time></trkpt><trkpt lat="41.730069966208795" lon="-8.450387161781247"><ele>577.4</ele><time>2026-04-18T15:55:38.001Z</time></trkpt><trkpt lat="41.730041315456674" lon="-8.450509641833914"><ele>576.6</ele><time>2026-04-18T15:55:40.001Z</time></trkpt><trkpt lat="41.73002119905645" lon="-8.450671291280626"><ele>575.8</ele><time>2026-04-18T15:55:42.001Z</time></trkpt><trkpt lat="41.730022112088285" lon="-8.450818814252967"><ele>575.0</ele><time>2026-04-18T15:55:44.001Z</time></trkpt><trkpt lat="41.730030990221195" lon="-8.450929901266859"><ele>575.0</ele><time>2026-04-18T15:55:46.001Z</time></trkpt><trkpt lat="41.73001039167704" lon="-8.451051948595738"><ele>575.0</ele><time>2026-04-18T15:55:48.001Z</time></trkpt><trkpt lat="41.72999252229391" lon="-8.451184806870156"><ele>575.0</ele><time>2026-04-18T15:55:50.001Z</time></trkpt><trkpt lat="41.72997712439793" lon="-8.451341401265873"><ele>575.0</ele><time>2026-04-18T15:55:52.001Z</time></trkpt><trkpt lat="41.72996744594391" lon="-8.451432695496205"><ele>575.0</ele><time>2026-04-18T15:55:53.001Z</time></trkpt><trkpt lat="41.72994264543187" lon="-8.451560858913686"><ele>576.4</ele><time>2026-04-18T15:55:55.001Z</time></trkpt><trkpt lat="41.72992325697935" lon="-8.45170245727366"><ele>577.8</ele><time>2026-04-18T15:55:57.001Z</time></trkpt><trkpt lat="41.72989347098651" lon="-8.451777265643496"><ele>579.2</ele><time>2026-04-18T15:55:59.001Z</time></trkpt><trkpt lat="41.72979932113054" lon="-8.451721676026178"><ele>580.6</ele><time>2026-04-18T15:56:02.001Z</time></trkpt><trkpt lat="41.729735389650564" lon="-8.451606399905549"><ele>582.0</ele><time>2026-04-18T15:56:04.001Z</time></trkpt><trkpt lat="41.72966407899976" lon="-8.45150249968652"><ele>582.0</ele><time>2026-04-18T15:56:06.001Z</time></trkpt><trkpt lat="41.729622532198675" lon="-8.45143780272246"><ele>582.0</ele><time>2026-04-18T15:56:07.001Z</time></trkpt><trkpt lat="41.7295769533185" lon="-8.451368118143913"><ele>582.0</ele><time>2026-04-18T15:56:08.001Z</time></trkpt><trkpt lat="41.72954224064136" lon="-8.45128580511805"><ele>582.0</ele><time>2026-04-18T15:56:09.001Z</time></trkpt><trkpt lat="41.729462762314355" lon="-8.451155688922318"><ele>582.0</ele><time>2026-04-18T15:56:11.001Z</time></trkpt><trkpt lat="41.72937915949231" lon="-8.451039135105352"><ele>580.0</ele><time>2026-04-18T15:56:13.001Z</time></trkpt><trkpt lat="41.72933178724502" lon="-8.45097313918222"><ele>578.0</ele><time>2026-04-18T15:56:14.001Z</time></trkpt><trkpt lat="41.729263771825934" lon="-8.450873043952297"><ele>576.0</ele><time>2026-04-18T15:56:16.001Z</time></trkpt><trkpt lat="41.729199660740875" lon="-8.450817866725336"><ele>574.0</ele><time>2026-04-18T15:56:18.001Z</time></trkpt><trkpt lat="41.729087224575565" lon="-8.450791198043605"><ele>572.0</ele><time>2026-04-18T15:56:20.001Z</time></trkpt><trkpt lat="41.72902496948117" lon="-8.45081318546716"><ele>570.0</ele><time>2026-04-18T15:56:21.001Z</time></trkpt><trkpt lat="41.72895429170709" lon="-8.450858517784683"><ele>570.0</ele><time>2026-04-18T15:56:22.001Z</time></trkpt><trkpt lat="41.72888921327577" lon="-8.450884511531912"><ele>570.0</ele><time>2026-04-18T15:56:23.001Z</time></trkpt><trkpt lat="41.72881599740438" lon="-8.45089519320326"><ele>570.0</ele><time>2026-04-18T15:56:24.001Z</time></trkpt><trkpt lat="41.72873498310652" lon="-8.450903225199186"><ele>570.0</ele><time>2026-04-18T15:56:25.001Z</time></trkpt><trkpt lat="41.72866244342886" lon="-8.45089140873982"><ele>570.0</ele><time>2026-04-18T15:56:26.001Z</time></trkpt><trkpt lat="41.728578739984414" lon="-8.450870964815294"><ele>570.0</ele><time>2026-04-18T15:56:27.001Z</time></trkpt><trkpt lat="41.72848723886117" lon="-8.450851643145096"><ele>569.3333333333334</ele><time>2026-04-18T15:56:28.001Z</time></trkpt><trkpt lat="41.72839347180705" lon="-8.450830755298607"><ele>568.6666666666666</ele><time>2026-04-18T15:56:29.001Z</time></trkpt><trkpt lat="41.72831014933165" lon="-8.450832399589986"><ele>568.0</ele><time>2026-04-18T15:56:30.001Z</time></trkpt><trkpt lat="41.72823342586773" lon="-8.450838133592145"><ele>567.3333333333333</ele><time>2026-04-18T15:56:31.001Z</time></trkpt><trkpt lat="41.72811584079893" lon="-8.450860685234753"><ele>566.6666666666666</ele><time>2026-04-18T15:56:33.001Z</time></trkpt><trkpt lat="41.72805417170541" lon="-8.450880554251265"><ele>566.0</ele><time>2026-04-18T15:56:34.001Z</time></trkpt><trkpt lat="41.72799561485439" lon="-8.45092106074612"><ele>566.0</ele><time>2026-04-18T15:56:35.001Z</time></trkpt><trkpt lat="41.72792720754784" lon="-8.45097471968361"><ele>566.0</ele><time>2026-04-18T15:56:36.001Z</time></trkpt><trkpt lat="41.72785073093595" lon="-8.451056040368085"><ele>566.0</ele><time>2026-04-18T15:56:38.001Z</time></trkpt><trkpt lat="41.727815431604654" lon="-8.451162182688677"><ele>566.0</ele><time>2026-04-18T15:56:40.001Z</time></trkpt><trkpt lat="41.727771696485675" lon="-8.451298345937563"><ele>566.0</ele><time>2026-04-18T15:56:42.001Z</time></trkpt><trkpt lat="41.72773940713363" lon="-8.451424465588"><ele>567.6</ele><time>2026-04-18T15:56:44Z</time></trkpt><trkpt lat="41.72772145708759" lon="-8.451546462750516"><ele>569.2</ele><time>2026-04-18T15:56:46Z</time></trkpt><trkpt lat="41.72770138343653" lon="-8.451689350131085"><ele>570.8</ele><time>2026-04-18T15:56:48Z</time></trkpt><trkpt lat="41.72767511167882" lon="-8.451805818074405"><ele>572.4</ele><time>2026-04-18T15:56:50Z</time></trkpt><trkpt lat="41.727656568185104" lon="-8.451915072957409"><ele>574.0</ele><time>2026-04-18T15:56:52Z</time></trkpt><trkpt lat="41.72761639658695" lon="-8.452053657007882"><ele>576.0</ele><time>2026-04-18T15:56:54Z</time></trkpt><trkpt lat="41.727566527134485" lon="-8.45215358084125"><ele>578.0</ele><time>2026-04-18T15:56:56Z</time></trkpt><trkpt lat="41.727503554331506" lon="-8.452238828149786"><ele>580.0</ele><time>2026-04-18T15:56:58Z</time></trkpt><trkpt lat="41.72743841320419" lon="-8.452336750960425"><ele>582.0</ele><time>2026-04-18T15:57:00Z</time></trkpt><trkpt lat="41.72736084573418" lon="-8.452452687242763"><ele>584.0</ele><time>2026-04-18T15:57:02Z</time></trkpt><trkpt lat="41.72727299590446" lon="-8.452525530863102"><ele>584.0</ele><time>2026-04-18T15:57:04Z</time></trkpt><trkpt lat="41.7271420653684" lon="-8.452546067607864"><ele>584.0</ele><time>2026-04-18T15:57:06Z</time></trkpt><trkpt lat="41.727052457397946" lon="-8.45256176257205"><ele>584.0</ele><time>2026-04-18T15:57:08Z</time></trkpt><trkpt lat="41.726985119757046" lon="-8.452597148443893"><ele>584.0</ele><time>2026-04-18T15:57:11.001Z</time></trkpt><trkpt lat="41.72692880446347" lon="-8.452645532491392"><ele>584.0</ele><time>2026-04-18T15:57:14.001Z</time></trkpt><trkpt lat="41.72686104729403" lon="-8.452689956796007"><ele>584.0</ele><time>2026-04-18T15:57:17.001Z</time></trkpt><trkpt lat="41.726791951606586" lon="-8.452732784045695"><ele>583.2</ele><time>2026-04-18T15:57:22.001Z</time></trkpt><trkpt lat="41.72671144762593" lon="-8.452790575688477"><ele>582.4</ele><time>2026-04-18T15:57:25.001Z</time></trkpt><trkpt lat="41.726658698904245" lon="-8.452840253767278"><ele>581.6</ele><time>2026-04-18T15:57:27.001Z</time></trkpt><trkpt lat="41.72656913361733" lon="-8.452856160769556"><ele>580.8</ele><time>2026-04-18T15:57:30.001Z</time></trkpt><trkpt lat="41.72646452946661" lon="-8.452780368396802"><ele>580.0</ele><time>2026-04-18T15:57:32.001Z</time></trkpt><trkpt lat="41.72635740352567" lon="-8.452677008457718"><ele>580.0</ele><time>2026-04-18T15:57:34.001Z</time></trkpt><trkpt lat="41.72629156567934" lon="-8.452630707687574"><ele>580.0</ele><time>2026-04-18T15:57:36.001Z</time></trkpt><trkpt lat="41.72622074950437" lon="-8.452575997484772"><ele>580.0</ele><time>2026-04-18T15:58:30.001Z</time></trkpt><trkpt lat="41.72614689560229" lon="-8.452540611926075"><ele>580.0</ele><time>2026-04-18T15:58:32.001Z</time></trkpt><trkpt lat="41.72606453340519" lon="-8.452492045699989"><ele>580.0</ele><time>2026-04-18T15:58:34Z</time></trkpt><trkpt lat="41.72597608552137" lon="-8.45242343144345"><ele>580.0</ele><time>2026-04-18T15:58:36Z</time></trkpt><trkpt lat="41.72590631909745" lon="-8.452379319372064"><ele>581.1666666666667</ele><time>2026-04-18T15:58:38Z</time></trkpt><trkpt lat="41.72585119393843" lon="-8.452325510965737"><ele>582.3333333333334</ele><time>2026-04-18T15:58:40Z</time></trkpt><trkpt lat="41.725781596160296" lon="-8.45227054634318"><ele>583.5</ele><time>2026-04-18T15:58:43Z</time></trkpt><trkpt lat="41.72571477047363" lon="-8.452228137420068"><ele>584.6666666666666</ele><time>2026-04-18T15:58:53Z</time></trkpt><trkpt lat="41.72561747434392" lon="-8.452175226707329"><ele>585.8333333333333</ele><time>2026-04-18T15:58:55Z</time></trkpt><trkpt lat="41.725549647790686" lon="-8.452125354436479"><ele>587.0</ele><time>2026-04-18T15:58:57Z</time></trkpt><trkpt lat="41.72547226878829" lon="-8.45206127981582"><ele>584.5</ele><time>2026-04-18T15:58:59Z</time></trkpt><trkpt lat="41.725378855540924" lon="-8.452020951137202"><ele>582.0</ele><time>2026-04-18T15:59:01Z</time></trkpt><trkpt lat="41.72530041430548" lon="-8.451946791445634"><ele>579.5</ele><time>2026-04-18T15:59:03Z</time></trkpt><trkpt lat="41.72526479291878" lon="-8.451865987524718"><ele>577.0</ele><time>2026-04-18T15:59:05Z</time></trkpt><trkpt lat="41.72524121860515" lon="-8.451780560094946"><ele>574.5</ele><time>2026-04-18T15:59:07Z</time></trkpt><trkpt lat="41.725215070919404" lon="-8.451694568024003"><ele>572.0</ele><time>2026-04-18T15:59:09Z</time></trkpt><trkpt lat="41.72517030126571" lon="-8.451618631059656"><ele>572.0</ele><time>2026-04-18T15:59:11Z</time></trkpt><trkpt lat="41.725107534378246" lon="-8.451530660334146"><ele>572.0</ele><time>2026-04-18T15:59:13Z</time></trkpt><trkpt lat="41.72504826467641" lon="-8.451438155998275"><ele>572.0</ele><time>2026-04-18T15:59:15Z</time></trkpt><trkpt lat="41.72499895939357" lon="-8.451357542435858"><ele>572.0</ele><time>2026-04-18T15:59:17Z</time></trkpt><trkpt lat="41.72493428634913" lon="-8.45127649159803"><ele>572.0</ele><time>2026-04-18T15:59:19Z</time></trkpt><trkpt lat="41.72482056702648" lon="-8.451179784683955"><ele>569.6</ele><time>2026-04-18T15:59:21Z</time></trkpt><trkpt lat="41.724727337922204" lon="-8.451097850962483"><ele>567.2</ele><time>2026-04-18T15:59:23Z</time></trkpt><trkpt lat="41.72463708296327" lon="-8.450999582763544"><ele>564.8</ele><time>2026-04-18T15:59:25Z</time></trkpt><trkpt lat="41.7245461952848" lon="-8.450911580080263"><ele>562.4</ele><time>2026-04-18T15:59:27Z</time></trkpt><trkpt lat="41.724479250052035" lon="-8.450875444509672"><ele>560.0</ele><time>2026-04-18T15:59:29Z</time></trkpt><trkpt lat="41.724404941307384" lon="-8.450859005316733"><ele>560.6666666666666</ele><time>2026-04-18T15:59:32Z</time></trkpt><trkpt lat="41.72435876599643" lon="-8.45091841653227"><ele>561.3333333333333</ele><time>2026-04-18T15:59:34Z</time></trkpt><trkpt lat="41.72430311657164" lon="-8.450995203988267"><ele>562.0</ele><time>2026-04-18T15:59:36Z</time></trkpt><trkpt lat="41.724234486776" lon="-8.451037512323255"><ele>562.6666666666666</ele><time>2026-04-18T15:59:38Z</time></trkpt><trkpt lat="41.72416600110165" lon="-8.451050520494052"><ele>563.3333333333334</ele><time>2026-04-18T15:59:40.001Z</time></trkpt><trkpt lat="41.724051252586385" lon="-8.451115485296262"><ele>564.0</ele><time>2026-04-18T15:59:42.001Z</time></trkpt><trkpt lat="41.72394303154725" lon="-8.451239422374112"><ele>564.8571428571429</ele><time>2026-04-18T15:59:44.001Z</time></trkpt><trkpt lat="41.72389021411532" lon="-8.451309151148227"><ele>565.7142857142857</ele><time>2026-04-18T15:59:45.001Z</time></trkpt><trkpt lat="41.72383827435908" lon="-8.451369239773365"><ele>566.5714285714286</ele><time>2026-04-18T15:59:46.001Z</time></trkpt><trkpt lat="41.72378775593375" lon="-8.4514323698611"><ele>567.4285714285714</ele><time>2026-04-18T15:59:47.001Z</time></trkpt><trkpt lat="41.72374250645203" lon="-8.45150253261058"><ele>568.2857142857143</ele><time>2026-04-18T15:59:48.001Z</time></trkpt><trkpt lat="41.72369477634568" lon="-8.451581947502284"><ele>569.1428571428571</ele><time>2026-04-18T15:59:49.001Z</time></trkpt><trkpt lat="41.723647337572594" lon="-8.451654099709511"><ele>570.0</ele><time>2026-04-18T15:59:50.001Z</time></trkpt><trkpt lat="41.72356679007045" lon="-8.451748594933655"><ele>569.5</ele><time>2026-04-18T15:59:52.001Z</time></trkpt><trkpt lat="41.72347840075556" lon="-8.451772343219904"><ele>569.0</ele><time>2026-04-18T15:59:55.001Z</time></trkpt><trkpt lat="41.72340140221751" lon="-8.451738622065044"><ele>568.5</ele><time>2026-04-18T15:59:58.001Z</time></trkpt><trkpt lat="41.7233332520944" lon="-8.451732967082906"><ele>568.0</ele><time>2026-04-18T16:00:11.001Z</time></trkpt><trkpt lat="41.7232371446793" lon="-8.451751533857188"><ele>567.5</ele><time>2026-04-18T16:00:13.001Z</time></trkpt><trkpt lat="41.723158726813324" lon="-8.451778759662453"><ele>567.0</ele><time>2026-04-18T16:00:15.001Z</time></trkpt><trkpt lat="41.72304419100169" lon="-8.451806412800403"><ele>567.0</ele><time>2026-04-18T16:00:17.001Z</time></trkpt><trkpt lat="41.72292393337578" lon="-8.451790645239948"><ele>567.0</ele><time>2026-04-18T16:00:19.001Z</time></trkpt><trkpt lat="41.722858576383985" lon="-8.451780913405234"><ele>567.0</ele><time>2026-04-18T16:00:20.001Z</time></trkpt><trkpt lat="41.722784800546606" lon="-8.45178762854888"><ele>567.0</ele><time>2026-04-18T16:00:21.001Z</time></trkpt><trkpt lat="41.72272211509337" lon="-8.45181961183581"><ele>567.0</ele><time>2026-04-18T16:00:22.001Z</time></trkpt><trkpt lat="41.722656602695075" lon="-8.451836704539529"><ele>567.0</ele><time>2026-04-18T16:00:23.001Z</time></trkpt><trkpt lat="41.72257232862519" lon="-8.451855248316637"><ele>567.6666666666666</ele><time>2026-04-18T16:00:24.001Z</time></trkpt><trkpt lat="41.72248330659279" lon="-8.451869920706299"><ele>568.3333333333334</ele><time>2026-04-18T16:00:25.001Z</time></trkpt><trkpt lat="41.72240583065873" lon="-8.451892769854213"><ele>569.0</ele><time>2026-04-18T16:00:26.001Z</time></trkpt><trkpt lat="41.72233835128923" lon="-8.451927199692939"><ele>569.6666666666667</ele><time>2026-04-18T16:00:27.001Z</time></trkpt><trkpt lat="41.7222629581741" lon="-8.451960169247787"><ele>570.3333333333334</ele><time>2026-04-18T16:00:28.001Z</time></trkpt><trkpt lat="41.72219032518442" lon="-8.452003689991471"><ele>571.0</ele><time>2026-04-18T16:00:29.001Z</time></trkpt><trkpt lat="41.722112551233394" lon="-8.452048735503679"><ele>571.0</ele><time>2026-04-18T16:00:30.001Z</time></trkpt><trkpt lat="41.72204006304889" lon="-8.452089399636737"><ele>571.0</ele><time>2026-04-18T16:00:31.001Z</time></trkpt><trkpt lat="41.72197548082817" lon="-8.452091827899883"><ele>571.0</ele><time>2026-04-18T16:00:32.001Z</time></trkpt><trkpt lat="41.721903014799786" lon="-8.452063336610045"><ele>571.0</ele><time>2026-04-18T16:00:33.001Z</time></trkpt><trkpt lat="41.72182783106958" lon="-8.45206426023801"><ele>571.0</ele><time>2026-04-18T16:00:35.001Z</time></trkpt><trkpt lat="41.72179781950248" lon="-8.452164198556648"><ele>571.0</ele><time>2026-04-18T16:00:39.001Z</time></trkpt><trkpt lat="41.721802543885744" lon="-8.452254237065077"><ele>571.0</ele><time>2026-04-18T16:00:42Z</time></trkpt><trkpt lat="41.721804321023" lon="-8.452350006798556"><ele>571.5</ele><time>2026-04-18T16:00:52Z</time></trkpt><trkpt lat="41.72175614661867" lon="-8.452459408827352"><ele>572.0</ele><time>2026-04-18T16:00:55Z</time></trkpt><trkpt lat="41.72167599022583" lon="-8.452469498430158"><ele>572.5</ele><time>2026-04-18T16:00:57Z</time></trkpt><trkpt lat="41.721595360467255" lon="-8.452484529338317"><ele>573.0</ele><time>2026-04-18T16:00:59Z</time></trkpt><trkpt lat="41.7215474571262" lon="-8.452554611945514"><ele>573.5</ele><time>2026-04-18T16:01:01Z</time></trkpt><trkpt lat="41.72152289335203" lon="-8.452691177773389"><ele>574.0</ele><time>2026-04-18T16:01:03Z</time></trkpt><trkpt lat="41.721468591840356" lon="-8.45283980235217"><ele>574.0</ele><time>2026-04-18T16:01:05Z</time></trkpt><trkpt lat="41.721421648483755" lon="-8.45291487417535"><ele>574.0</ele><time>2026-04-18T16:01:06Z</time></trkpt><trkpt lat="41.72138049291783" lon="-8.45305743320762"><ele>574.0</ele><time>2026-04-18T16:01:08Z</time></trkpt><trkpt lat="41.72141186309514" lon="-8.453233054458218"><ele>574.0</ele><time>2026-04-18T16:01:10Z</time></trkpt><trkpt lat="41.72139505989516" lon="-8.453382531950119"><ele>574.0</ele><time>2026-04-18T16:01:12Z</time></trkpt><trkpt lat="41.721397939471" lon="-8.453508076112515"><ele>576.1666666666667</ele><time>2026-04-18T16:01:14Z</time></trkpt><trkpt lat="41.72143546835932" lon="-8.45359087193625"><ele>578.3333333333334</ele><time>2026-04-18T16:01:16Z</time></trkpt><trkpt lat="41.721419086534816" lon="-8.453705001460424"><ele>580.5</ele><time>2026-04-18T16:01:19Z</time></trkpt><trkpt lat="41.72138709969588" lon="-8.453809069027674"><ele>582.6666666666666</ele><time>2026-04-18T16:01:21Z</time></trkpt><trkpt lat="41.721370332160745" lon="-8.453944406441838"><ele>584.8333333333333</ele><time>2026-04-18T16:01:23Z</time></trkpt><trkpt lat="41.7213510188927" lon="-8.454066617894977"><ele>587.0</ele><time>2026-04-18T16:01:25Z</time></trkpt><trkpt lat="41.72133894950474" lon="-8.454157890260893"><ele>587.6666666666666</ele><time>2026-04-18T16:01:27Z</time></trkpt><trkpt lat="41.721285652586054" lon="-8.454230339700894"><ele>588.3333333333333</ele><time>2026-04-18T16:01:29Z</time></trkpt><trkpt lat="41.72126745739941" lon="-8.454331338223032"><ele>589.0</ele><time>2026-04-18T16:01:31Z</time></trkpt><trkpt lat="41.72121665156002" lon="-8.454422817192548"><ele>589.6666666666666</ele><time>2026-04-18T16:01:33Z</time></trkpt><trkpt lat="41.72118557192343" lon="-8.454567428774837"><ele>590.3333333333334</ele><time>2026-04-18T16:01:35Z</time></trkpt><trkpt lat="41.721180463350805" lon="-8.45465821729047"><ele>591.0</ele><time>2026-04-18T16:01:37Z</time></trkpt><trkpt lat="41.72121145906876" lon="-8.45473569476515"><ele>591.0</ele><time>2026-04-18T16:03:23Z</time></trkpt><trkpt lat="41.72127646587725" lon="-8.454680559624288"><ele>591.0</ele><time>2026-04-18T16:03:26Z</time></trkpt><trkpt lat="41.72120328287343" lon="-8.454673061141435"><ele>591.0</ele><time>2026-04-18T16:05:03Z</time></trkpt><trkpt lat="41.721239534929985" lon="-8.45474997893993"><ele>591.0</ele><time>2026-04-18T16:05:25Z</time></trkpt><trkpt lat="41.72125513386825" lon="-8.454663811491816"><ele>591.0</ele><time>2026-04-18T16:05:28Z</time></trkpt><trkpt lat="41.72121268802631" lon="-8.454744318777342"><ele>591.0</ele><time>2026-04-18T16:05:39Z</time></trkpt><trkpt lat="41.72117668914788" lon="-8.454814017338789"><ele>591.0</ele><time>2026-04-18T16:05:56Z</time></trkpt><trkpt lat="41.721098227460466" lon="-8.454790924838386"><ele>588.3333333333334</ele><time>2026-04-18T16:06:08.001Z</time></trkpt><trkpt lat="41.72101381441838" lon="-8.454815585843074"><ele>585.6666666666666</ele><time>2026-04-18T16:06:11.001Z</time></trkpt><trkpt lat="41.7209338464515" lon="-8.45483466047271"><ele>583.0</ele><time>2026-04-18T16:06:14.001Z</time></trkpt><trkpt lat="41.72082548087787" lon="-8.45485899632329"><ele>580.3333333333333</ele><time>2026-04-18T16:06:17.001Z</time></trkpt><trkpt lat="41.720732603874694" lon="-8.454884301283894"><ele>577.6666666666666</ele><time>2026-04-18T16:06:19.001Z</time></trkpt><trkpt lat="41.72065855500693" lon="-8.45490976884128"><ele>575.0</ele><time>2026-04-18T16:06:21.001Z</time></trkpt><trkpt lat="41.72065894814535" lon="-8.455069617046743"><ele>575.0</ele><time>2026-04-18T16:06:30.001Z</time></trkpt><trkpt lat="41.720686043510504" lon="-8.455182775007856"><ele>575.0</ele><time>2026-04-18T16:06:31.001Z</time></trkpt><trkpt lat="41.720722311618246" lon="-8.455317355906562"><ele>575.0</ele><time>2026-04-18T16:06:32.001Z</time></trkpt><trkpt lat="41.72075905121273" lon="-8.455431965954306"><ele>575.0</ele><time>2026-04-18T16:06:33.001Z</time></trkpt><trkpt lat="41.72079024767509" lon="-8.455538165436089"><ele>575.0</ele><time>2026-04-18T16:06:34.001Z</time></trkpt><trkpt lat="41.72082494445586" lon="-8.455679453741046"><ele>573.6666666666666</ele><time>2026-04-18T16:06:36.001Z</time></trkpt><trkpt lat="41.72084902997409" lon="-8.4557767821412"><ele>572.3333333333333</ele><time>2026-04-18T16:06:38.001Z</time></trkpt><trkpt lat="41.7208501022585" lon="-8.45587763278702"><ele>571.0</ele><time>2026-04-18T16:06:40.001Z</time></trkpt><trkpt lat="41.72080656314514" lon="-8.455991283586563"><ele>569.6666666666666</ele><time>2026-04-18T16:06:42.001Z</time></trkpt><trkpt lat="41.7207278810831" lon="-8.456070132772117"><ele>568.3333333333334</ele><time>2026-04-18T16:06:44.001Z</time></trkpt><trkpt lat="41.72066076413993" lon="-8.456092898836749"><ele>567.0</ele><time>2026-04-18T16:06:46.001Z</time></trkpt><trkpt lat="41.7205940633613" lon="-8.456068432771739"><ele>567.0</ele><time>2026-04-18T16:06:48.001Z</time></trkpt><trkpt lat="41.72051366587534" lon="-8.456022021661967"><ele>567.0</ele><time>2026-04-18T16:06:51.001Z</time></trkpt><trkpt lat="41.72043764698564" lon="-8.455974529289488"><ele>567.0</ele><time>2026-04-18T16:06:54.001Z</time></trkpt><trkpt lat="41.7203606739629" lon="-8.455922296086637"><ele>567.0</ele><time>2026-04-18T16:06:57.001Z</time></trkpt><trkpt lat="41.72030749993548" lon="-8.45586701240249"><ele>567.0</ele><time>2026-04-18T16:06:59Z</time></trkpt><trkpt lat="41.720249137255344" lon="-8.455823078746985"><ele>567.0</ele><time>2026-04-18T16:07:01Z</time></trkpt><trkpt lat="41.720181886096306" lon="-8.455777683758502"><ele>563.4</ele><time>2026-04-18T16:07:03Z</time></trkpt><trkpt lat="41.72008390861748" lon="-8.455703270491666"><ele>559.8000000000001</ele><time>2026-04-18T16:07:05Z</time></trkpt><trkpt lat="41.720009543927986" lon="-8.455646427734695"><ele>556.2</ele><time>2026-04-18T16:07:07Z</time></trkpt><trkpt lat="41.71993775898251" lon="-8.455583797417868"><ele>552.6</ele><time>2026-04-18T16:07:09Z</time></trkpt><trkpt lat="41.71985356875354" lon="-8.455503667099988"><ele>549.0</ele><time>2026-04-18T16:07:12Z</time></trkpt><trkpt lat="41.71978400312649" lon="-8.455453177405754"><ele>549.0</ele><time>2026-04-18T16:07:14Z</time></trkpt><trkpt lat="41.71973873261993" lon="-8.455390255594986"><ele>549.0</ele><time>2026-04-18T16:07:22Z</time></trkpt><trkpt lat="41.719670017505784" lon="-8.45551029744105"><ele>549.0</ele><time>2026-04-18T16:08:08Z</time></trkpt><trkpt lat="41.71968411829227" lon="-8.455610548720394"><ele>549.0</ele><time>2026-04-18T16:08:10Z</time></trkpt><trkpt lat="41.719700534674715" lon="-8.455708180280944"><ele>549.0</ele><time>2026-04-18T16:08:13Z</time></trkpt><trkpt lat="41.719745812566536" lon="-8.45581921439841"><ele>549.0</ele><time>2026-04-18T16:08:16Z</time></trkpt><trkpt lat="41.71979007031514" lon="-8.455897229962373"><ele>548.4</ele><time>2026-04-18T16:08:18Z</time></trkpt><trkpt lat="41.71983616962645" lon="-8.45602111015699"><ele>547.8</ele><time>2026-04-18T16:08:20Z</time></trkpt><trkpt lat="41.71989668569296" lon="-8.456133115076005"><ele>547.2</ele><time>2026-04-18T16:08:22Z</time></trkpt><trkpt lat="41.71994793774743" lon="-8.45625215199976"><ele>546.6</ele><time>2026-04-18T16:08:24Z</time></trkpt><trkpt lat="41.71999342899999" lon="-8.456333994293509"><ele>546.0</ele><time>2026-04-18T16:08:26Z</time></trkpt><trkpt lat="41.719985479403405" lon="-8.456481728301473"><ele>546.0</ele><time>2026-04-18T16:09:39Z</time></trkpt><trkpt lat="41.71994276755455" lon="-8.456379522176498"><ele>546.0</ele><time>2026-04-18T16:09:42Z</time></trkpt><trkpt lat="41.719874110978076" lon="-8.456277501344237"><ele>546.0</ele><time>2026-04-18T16:09:44Z</time></trkpt><trkpt lat="41.71976785368706" lon="-8.456193366067257"><ele>546.0</ele><time>2026-04-18T16:09:46Z</time></trkpt><trkpt lat="41.719661851028846" lon="-8.456100303581435"><ele>546.0</ele><time>2026-04-18T16:09:48Z</time></trkpt><trkpt lat="41.71957117161885" lon="-8.456010536832602"><ele>546.0</ele><time>2026-04-18T16:09:50Z</time></trkpt><trkpt lat="41.719483208189224" lon="-8.455919429069306"><ele>546.0</ele><time>2026-04-18T16:09:52Z</time></trkpt><trkpt lat="41.71940437121751" lon="-8.455831792733072"><ele>546.0</ele><time>2026-04-18T16:09:54Z</time></trkpt><trkpt lat="41.719328176538156" lon="-8.455735569947374"><ele>546.0</ele><time>2026-04-18T16:09:56Z</time></trkpt><trkpt lat="41.71926739717662" lon="-8.4556315509234"><ele>546.0</ele><time>2026-04-18T16:09:58Z</time></trkpt><trkpt lat="41.71921353612948" lon="-8.45554281255674"><ele>539.0</ele><time>2026-04-18T16:10:00Z</time></trkpt><trkpt lat="41.71917328387258" lon="-8.455436647792407"><ele>532.0</ele><time>2026-04-18T16:10:02Z</time></trkpt><trkpt lat="41.719150262410025" lon="-8.455304382551184"><ele>525.0</ele><time>2026-04-18T16:10:04Z</time></trkpt><trkpt lat="41.719149378430004" lon="-8.455168566957175"><ele>518.0</ele><time>2026-04-18T16:10:06Z</time></trkpt><trkpt lat="41.719163991745624" lon="-8.455014745410974"><ele>511.0</ele><time>2026-04-18T16:10:08Z</time></trkpt><trkpt lat="41.71917393284364" lon="-8.45486279132367"><ele>511.0</ele><time>2026-04-18T16:10:10Z</time></trkpt><trkpt lat="41.719187463009725" lon="-8.454770978833306"><ele>511.0</ele><time>2026-04-18T16:10:11Z</time></trkpt><trkpt lat="41.71919766493543" lon="-8.45467522090728"><ele>511.0</ele><time>2026-04-18T16:10:12Z</time></trkpt><trkpt lat="41.71921132464586" lon="-8.45456056242766"><ele>511.0</ele><time>2026-04-18T16:10:13Z</time></trkpt><trkpt lat="41.719214553510604" lon="-8.454460330915657"><ele>511.0</ele><time>2026-04-18T16:10:14Z</time></trkpt><trkpt lat="41.71920902304895" lon="-8.454362647747034"><ele>511.0</ele><time>2026-04-18T16:10:15Z</time></trkpt><trkpt lat="41.71919042177784" lon="-8.454269783918841"><ele>511.0</ele><time>2026-04-18T16:10:16Z</time></trkpt><trkpt lat="41.71917379137577" lon="-8.45415918021781"><ele>509.00000000000006</ele><time>2026-04-18T16:10:17Z</time></trkpt><trkpt lat="41.71915422082614" lon="-8.454052468648326"><ele>507.0</ele><time>2026-04-18T16:10:18Z</time></trkpt><trkpt lat="41.71914592700441" lon="-8.45395439896151"><ele>505.0</ele><time>2026-04-18T16:10:19Z</time></trkpt><trkpt lat="41.719155479160776" lon="-8.453800246834147"><ele>503.0</ele><time>2026-04-18T16:10:21Z</time></trkpt><trkpt lat="41.71916318616986" lon="-8.453698667425673"><ele>501.00000000000006</ele><time>2026-04-18T16:10:22Z</time></trkpt><trkpt lat="41.719174147219306" lon="-8.453610170126481"><ele>499.0</ele><time>2026-04-18T16:10:23Z</time></trkpt><trkpt lat="41.71919195474295" lon="-8.453528636521467"><ele>497.83333333333337</ele><time>2026-04-18T16:10:24Z</time></trkpt><trkpt lat="41.719219572186425" lon="-8.453449200679001"><ele>496.6666666666667</ele><time>2026-04-18T16:10:25Z</time></trkpt><trkpt lat="41.71922614544427" lon="-8.45330566201955"><ele>495.5</ele><time>2026-04-18T16:10:27Z</time></trkpt><trkpt lat="41.71919620216596" lon="-8.453221081710288"><ele>494.33333333333337</ele><time>2026-04-18T16:10:28Z</time></trkpt><trkpt lat="41.719160370099175" lon="-8.453141490784517"><ele>493.1666666666667</ele><time>2026-04-18T16:10:29Z</time></trkpt><trkpt lat="41.71909986635245" lon="-8.45306258221001"><ele>492.0</ele><time>2026-04-18T16:10:30Z</time></trkpt><trkpt lat="41.71903005197055" lon="-8.453004148685512"><ele>490.3333333333333</ele><time>2026-04-18T16:10:31Z</time></trkpt><trkpt lat="41.718969706316265" lon="-8.452950395793806"><ele>488.66666666666663</ele><time>2026-04-18T16:10:32Z</time></trkpt><trkpt lat="41.71889120460179" lon="-8.452911942138861"><ele>487.0</ele><time>2026-04-18T16:10:33Z</time></trkpt><trkpt lat="41.71880158819814" lon="-8.45288218662546"><ele>485.3333333333333</ele><time>2026-04-18T16:10:34Z</time></trkpt><trkpt lat="41.71872887252368" lon="-8.452861917796735"><ele>483.66666666666663</ele><time>2026-04-18T16:10:35Z</time></trkpt><trkpt lat="41.71865108690789" lon="-8.452837255460892"><ele>482.0</ele><time>2026-04-18T16:10:36Z</time></trkpt><trkpt lat="41.71853932549646" lon="-8.452807816105162"><ele>482.0</ele><time>2026-04-18T16:10:38Z</time></trkpt><trkpt lat="41.71843437146501" lon="-8.45279760188396"><ele>482.00000000000006</ele><time>2026-04-18T16:10:40Z</time></trkpt><trkpt lat="41.718339078427086" lon="-8.452800672644065"><ele>482.00000000000006</ele><time>2026-04-18T16:10:42.001Z</time></trkpt><trkpt lat="41.71824621210793" lon="-8.452819185432219"><ele>482.0</ele><time>2026-04-18T16:10:44.001Z</time></trkpt><trkpt lat="41.71816018578883" lon="-8.45284260707885"><ele>482.0</ele><time>2026-04-18T16:10:46.001Z</time></trkpt><trkpt lat="41.71806601278485" lon="-8.4528654241755"><ele>482.0</ele><time>2026-04-18T16:10:48.001Z</time></trkpt><trkpt lat="41.71796168642578" lon="-8.452877122717963"><ele>482.00000000000006</ele><time>2026-04-18T16:10:50.001Z</time></trkpt><trkpt lat="41.71783705370274" lon="-8.452878072051362"><ele>482.00000000000006</ele><time>2026-04-18T16:10:52.001Z</time></trkpt><trkpt lat="41.717773848650346" lon="-8.452857471648391"><ele>482.0</ele><time>2026-04-18T16:10:53.001Z</time></trkpt><trkpt lat="41.71771232312031" lon="-8.452816975452087"><ele>482.0</ele><time>2026-04-18T16:10:54.001Z</time></trkpt><trkpt lat="41.71763572544699" lon="-8.452696185273346"><ele>478.3333333333333</ele><time>2026-04-18T16:10:56.001Z</time></trkpt><trkpt lat="41.717609266818336" lon="-8.452606340098656"><ele>474.66666666666663</ele><time>2026-04-18T16:10:57.001Z</time></trkpt><trkpt lat="41.71759843853289" lon="-8.452509893026624"><ele>471.0</ele><time>2026-04-18T16:10:58.001Z</time></trkpt><trkpt lat="41.717592125661305" lon="-8.45240136450608"><ele>467.33333333333337</ele><time>2026-04-18T16:10:59.001Z</time></trkpt><trkpt lat="41.71756831314466" lon="-8.45224425185188"><ele>463.6666666666667</ele><time>2026-04-18T16:11:01.001Z</time></trkpt><trkpt lat="41.71755764997961" lon="-8.452151835778489"><ele>460.0</ele><time>2026-04-18T16:11:02.001Z</time></trkpt><trkpt lat="41.717556215481984" lon="-8.452063516951975"><ele>460.00000000000006</ele><time>2026-04-18T16:11:03.001Z</time></trkpt><trkpt lat="41.71755772946385" lon="-8.451968368096516"><ele>460.0</ele><time>2026-04-18T16:11:04.001Z</time></trkpt><trkpt lat="41.71756127000699" lon="-8.45185317738346"><ele>460.0</ele><time>2026-04-18T16:11:05.001Z</time></trkpt><trkpt lat="41.717571199014934" lon="-8.451734690227422"><ele>460.0</ele><time>2026-04-18T16:11:06.001Z</time></trkpt><trkpt lat="41.71756742706409" lon="-8.451610676569924"><ele>460.00000000000006</ele><time>2026-04-18T16:11:07.001Z</time></trkpt><trkpt lat="41.71756561029926" lon="-8.451508346663033"><ele>460.0</ele><time>2026-04-18T16:11:08.001Z</time></trkpt><trkpt lat="41.71755899479079" lon="-8.451419393518036"><ele>459.6</ele><time>2026-04-18T16:11:09.001Z</time></trkpt><trkpt lat="41.71749551655915" lon="-8.451285250048"><ele>459.2</ele><time>2026-04-18T16:11:11Z</time></trkpt><trkpt lat="41.71741225195288" lon="-8.45123648864552"><ele>458.79999999999995</ele><time>2026-04-18T16:11:12Z</time></trkpt><trkpt lat="41.71731385555543" lon="-8.45119254533875"><ele>458.4</ele><time>2026-04-18T16:11:13Z</time></trkpt><trkpt lat="41.717250451326066" lon="-8.451164274407446"><ele>458.0</ele><time>2026-04-18T16:11:14Z</time></trkpt><trkpt lat="41.71722082656436" lon="-8.451073465972835"><ele>458.0</ele><time>2026-04-18T16:11:16Z</time></trkpt><trkpt lat="41.717256711886726" lon="-8.45094846126344"><ele>457.99999999999994</ele><time>2026-04-18T16:11:18Z</time></trkpt><trkpt lat="41.7173141639718" lon="-8.450849367856891"><ele>457.99999999999994</ele><time>2026-04-18T16:11:20Z</time></trkpt><trkpt lat="41.71736542837018" lon="-8.450739392836992"><ele>458.0</ele><time>2026-04-18T16:11:22Z</time></trkpt><trkpt lat="41.71741679540914" lon="-8.450647327947516"><ele>458.0</ele><time>2026-04-18T16:11:24Z</time></trkpt><trkpt lat="41.71746943153344" lon="-8.450528524760767"><ele>458.0</ele><time>2026-04-18T16:11:26Z</time></trkpt><trkpt lat="41.71754872832703" lon="-8.450480226890974"><ele>457.99999999999994</ele><time>2026-04-18T16:11:28Z</time></trkpt><trkpt lat="41.71769830493266" lon="-8.450485456324316"><ele>457.99999999999994</ele><time>2026-04-18T16:11:30Z</time></trkpt><trkpt lat="41.717793856547" lon="-8.450485855836762"><ele>458.0</ele><time>2026-04-18T16:11:31Z</time></trkpt><trkpt lat="41.7178690551525" lon="-8.450454296450935"><ele>458.0</ele><time>2026-04-18T16:11:32Z</time></trkpt><trkpt lat="41.71793329752113" lon="-8.45037521067402"><ele>460.2</ele><time>2026-04-18T16:11:33Z</time></trkpt><trkpt lat="41.71800661227357" lon="-8.450263159671287"><ele>462.4</ele><time>2026-04-18T16:11:34Z</time></trkpt><trkpt lat="41.718086502423176" lon="-8.450150571670989"><ele>464.59999999999997</ele><time>2026-04-18T16:11:35Z</time></trkpt><trkpt lat="41.71817333080342" lon="-8.450049757165209"><ele>466.79999999999995</ele><time>2026-04-18T16:11:36Z</time></trkpt><trkpt lat="41.71824095797703" lon="-8.449968456671087"><ele>469.0</ele><time>2026-04-18T16:11:37Z</time></trkpt><trkpt lat="41.71829103190222" lon="-8.449874799495618"><ele>469.0</ele><time>2026-04-18T16:11:38Z</time></trkpt><trkpt lat="41.71832529931615" lon="-8.44975600060349"><ele>469.0</ele><time>2026-04-18T16:11:39Z</time></trkpt><trkpt lat="41.71834602182456" lon="-8.44962758773677"><ele>469.0</ele><time>2026-04-18T16:11:40Z</time></trkpt><trkpt lat="41.71834869036385" lon="-8.449501460990124"><ele>469.0</ele><time>2026-04-18T16:11:41Z</time></trkpt><trkpt lat="41.71836968583936" lon="-8.449388353333877"><ele>469.0</ele><time>2026-04-18T16:11:42Z</time></trkpt><trkpt lat="41.718423271889776" lon="-8.449283139326315"><ele>470.2</ele><time>2026-04-18T16:11:43Z</time></trkpt><trkpt lat="41.71847686258457" lon="-8.449178891601322"><ele>471.4</ele><time>2026-04-18T16:11:44Z</time></trkpt><trkpt lat="41.71852285215326" lon="-8.449083413761047"><ele>472.6</ele><time>2026-04-18T16:11:45Z</time></trkpt><trkpt lat="41.71858135147076" lon="-8.448981367715563"><ele>473.8</ele><time>2026-04-18T16:11:46Z</time></trkpt><trkpt lat="41.718643147796016" lon="-8.448877691652442"><ele>475.0</ele><time>2026-04-18T16:11:47Z</time></trkpt><trkpt lat="41.71869945426019" lon="-8.448763633674202"><ele>472.4</ele><time>2026-04-18T16:11:48Z</time></trkpt><trkpt lat="41.71875618590782" lon="-8.448658149655682"><ele>469.8</ele><time>2026-04-18T16:11:49Z</time></trkpt><trkpt lat="41.71882014859091" lon="-8.44854973351721"><ele>467.20000000000005</ele><time>2026-04-18T16:11:50Z</time></trkpt><trkpt lat="41.71890627882232" lon="-8.448457394087582"><ele>464.6</ele><time>2026-04-18T16:11:51Z</time></trkpt><trkpt lat="41.71900096019695" lon="-8.44837483602844"><ele>462.0</ele><time>2026-04-18T16:11:52Z</time></trkpt><trkpt lat="41.71908603834659" lon="-8.448290923160513"><ele>462.0</ele><time>2026-04-18T16:11:53Z</time></trkpt><trkpt lat="41.71915850692792" lon="-8.448204686539992"><ele>462.0</ele><time>2026-04-18T16:11:54Z</time></trkpt><trkpt lat="41.71922041736385" lon="-8.44811819741428"><ele>462.0</ele><time>2026-04-18T16:11:55Z</time></trkpt><trkpt lat="41.71926439167064" lon="-8.448013436960913"><ele>462.0</ele><time>2026-04-18T16:11:56Z</time></trkpt><trkpt lat="41.719297874123896" lon="-8.447910964570644"><ele>462.0</ele><time>2026-04-18T16:11:57Z</time></trkpt><trkpt lat="41.719314565367426" lon="-8.447809439591515"><ele>462.0</ele><time>2026-04-18T16:11:58Z</time></trkpt><trkpt lat="41.719316957948756" lon="-8.447713360665103"><ele>461.8333333333333</ele><time>2026-04-18T16:11:59Z</time></trkpt><trkpt lat="41.719300841810245" lon="-8.447625716277239"><ele>461.66666666666663</ele><time>2026-04-18T16:12:00Z</time></trkpt><trkpt lat="41.71926308968651" lon="-8.447539885063483"><ele>461.5</ele><time>2026-04-18T16:12:01Z</time></trkpt><trkpt lat="41.71920790807205" lon="-8.447489606847132"><ele>461.3333333333333</ele><time>2026-04-18T16:12:02Z</time></trkpt><trkpt lat="41.719129502827734" lon="-8.447467800457344"><ele>461.16666666666663</ele><time>2026-04-18T16:12:03Z</time></trkpt><trkpt lat="41.71902979406816" lon="-8.447476476916004"><ele>461.0</ele><time>2026-04-18T16:12:04Z</time></trkpt><trkpt lat="41.718929243565526" lon="-8.447503087807185"><ele>460.99999999999994</ele><time>2026-04-18T16:12:05Z</time></trkpt><trkpt lat="41.71883139682298" lon="-8.447534125095968"><ele>461.0</ele><time>2026-04-18T16:12:06Z</time></trkpt><trkpt lat="41.7187370681425" lon="-8.447563122112348"><ele>461.0</ele><time>2026-04-18T16:12:07Z</time></trkpt><trkpt lat="41.718650733277705" lon="-8.447573793862471"><ele>461.0</ele><time>2026-04-18T16:12:08Z</time></trkpt><trkpt lat="41.71857848651929" lon="-8.447547649908865"><ele>460.99999999999994</ele><time>2026-04-18T16:12:09Z</time></trkpt><trkpt lat="41.71851638013337" lon="-8.44750430695474"><ele>461.0</ele><time>2026-04-18T16:12:10Z</time></trkpt><trkpt lat="41.71841099203834" lon="-8.447404455104316"><ele>461.66666666666663</ele><time>2026-04-18T16:12:12Z</time></trkpt><trkpt lat="41.71836733322708" lon="-8.44733644377687"><ele>462.3333333333333</ele><time>2026-04-18T16:12:13Z</time></trkpt><trkpt lat="41.71831497314671" lon="-8.447258324388853"><ele>463.0</ele><time>2026-04-18T16:12:14Z</time></trkpt><trkpt lat="41.71826053421553" lon="-8.447171308543224"><ele>463.66666666666663</ele><time>2026-04-18T16:12:15Z</time></trkpt><trkpt lat="41.71818972015299" lon="-8.44709189799021"><ele>464.3333333333333</ele><time>2026-04-18T16:12:16Z</time></trkpt><trkpt lat="41.718112649656966" lon="-8.447021812364584"><ele>465.0</ele><time>2026-04-18T16:12:17Z</time></trkpt><trkpt lat="41.718038022807605" lon="-8.446969026985867"><ele>465.0</ele><time>2026-04-18T16:12:18Z</time></trkpt><trkpt lat="41.717960722445106" lon="-8.44691007136921"><ele>465.0</ele><time>2026-04-18T16:12:19Z</time></trkpt><trkpt lat="41.717876515883695" lon="-8.446853480469713"><ele>465.0</ele><time>2026-04-18T16:12:20Z</time></trkpt><trkpt lat="41.717788867149196" lon="-8.446804519120475"><ele>465.0</ele><time>2026-04-18T16:12:21Z</time></trkpt><trkpt lat="41.717705907569965" lon="-8.446744498135153"><ele>465.0</ele><time>2026-04-18T16:12:22Z</time></trkpt><trkpt lat="41.71763539714976" lon="-8.446688276916555"><ele>462.1666666666667</ele><time>2026-04-18T16:12:23Z</time></trkpt><trkpt lat="41.71757245215709" lon="-8.446632312417321"><ele>459.33333333333337</ele><time>2026-04-18T16:12:24Z</time></trkpt><trkpt lat="41.717515206558154" lon="-8.446572672690506"><ele>456.5</ele><time>2026-04-18T16:12:25Z</time></trkpt><trkpt lat="41.71746918472725" lon="-8.446502803972697"><ele>453.6666666666667</ele><time>2026-04-18T16:12:26Z</time></trkpt><trkpt lat="41.717428493191946" lon="-8.446406945994875"><ele>450.83333333333337</ele><time>2026-04-18T16:12:27Z</time></trkpt><trkpt lat="41.717413463888484" lon="-8.446297162517004"><ele>448.0</ele><time>2026-04-18T16:12:28Z</time></trkpt><trkpt lat="41.717418868660765" lon="-8.446194018944228"><ele>447.83333333333337</ele><time>2026-04-18T16:12:29Z</time></trkpt><trkpt lat="41.717420781885004" lon="-8.446099498442043"><ele>447.6666666666667</ele><time>2026-04-18T16:12:30Z</time></trkpt><trkpt lat="41.71741775393014" lon="-8.445999749416602"><ele>447.5</ele><time>2026-04-18T16:12:31Z</time></trkpt><trkpt lat="41.717413821697974" lon="-8.44589591084719"><ele>447.33333333333337</ele><time>2026-04-18T16:12:32Z</time></trkpt><trkpt lat="41.71742039148721" lon="-8.445785090208192"><ele>447.1666666666667</ele><time>2026-04-18T16:12:33Z</time></trkpt><trkpt lat="41.717426988847144" lon="-8.445691943070946"><ele>447.0</ele><time>2026-04-18T16:12:34Z</time></trkpt><trkpt lat="41.71746856812804" lon="-8.44554080827171"><ele>445.8333333333333</ele><time>2026-04-18T16:12:36Z</time></trkpt><trkpt lat="41.717505831407365" lon="-8.44545881345356"><ele>444.66666666666663</ele><time>2026-04-18T16:12:37Z</time></trkpt><trkpt lat="41.71754490697747" lon="-8.445382839981763"><ele>443.5</ele><time>2026-04-18T16:12:38Z</time></trkpt><trkpt lat="41.71759115708233" lon="-8.445242931743344"><ele>442.3333333333333</ele><time>2026-04-18T16:12:40Z</time></trkpt><trkpt lat="41.7176128522225" lon="-8.445160288239107"><ele>441.16666666666663</ele><time>2026-04-18T16:12:41Z</time></trkpt><trkpt lat="41.71762109876292" lon="-8.445021865711867"><ele>440.0</ele><time>2026-04-18T16:12:43Z</time></trkpt><trkpt lat="41.71761400579528" lon="-8.444911142693456"><ele>440.0</ele><time>2026-04-18T16:12:45Z</time></trkpt><trkpt lat="41.71759776789674" lon="-8.44478367903239"><ele>440.0</ele><time>2026-04-18T16:12:47Z</time></trkpt><trkpt lat="41.71757348057678" lon="-8.444669243502016"><ele>440.0</ele><time>2026-04-18T16:12:49.001Z</time></trkpt><trkpt lat="41.71754682440314" lon="-8.444547909307133"><ele>440.0</ele><time>2026-04-18T16:12:52.001Z</time></trkpt><trkpt lat="41.71749753027653" lon="-8.444467839926205"><ele>440.0</ele><time>2026-04-18T16:13:03.001Z</time></trkpt><trkpt lat="41.71738379059318" lon="-8.444351064103481"><ele>440.2</ele><time>2026-04-18T16:13:05.001Z</time></trkpt><trkpt lat="41.71731576623813" lon="-8.444281939343234"><ele>440.4</ele><time>2026-04-18T16:13:06.001Z</time></trkpt><trkpt lat="41.71723325887308" lon="-8.444199443546099"><ele>440.6</ele><time>2026-04-18T16:13:07.001Z</time></trkpt><trkpt lat="41.71714925871925" lon="-8.44412660765997"><ele>440.8</ele><time>2026-04-18T16:13:08.001Z</time></trkpt><trkpt lat="41.71703902785046" lon="-8.444070629343429"><ele>441.0</ele><time>2026-04-18T16:13:09.001Z</time></trkpt><trkpt lat="41.71691619029509" lon="-8.444002813011927"><ele>441.66666666666663</ele><time>2026-04-18T16:13:10.001Z</time></trkpt><trkpt lat="41.71678371306353" lon="-8.443913955333386"><ele>442.3333333333333</ele><time>2026-04-18T16:13:11.001Z</time></trkpt><trkpt lat="41.71665847208397" lon="-8.443799496732366"><ele>443.0</ele><time>2026-04-18T16:13:12.001Z</time></trkpt><trkpt lat="41.716536189301564" lon="-8.4436637132232"><ele>443.0</ele><time>2026-04-18T16:13:13.001Z</time></trkpt><trkpt lat="41.71642887608309" lon="-8.443548064315792"><ele>443.0</ele><time>2026-04-18T16:13:14.001Z</time></trkpt><trkpt lat="41.71632910367367" lon="-8.443437190369002"><ele>443.0</ele><time>2026-04-18T16:13:15.001Z</time></trkpt><trkpt lat="41.71623911186273" lon="-8.443328538328124"><ele>443.0</ele><time>2026-04-18T16:13:16Z</time></trkpt><trkpt lat="41.7161536148234" lon="-8.443224276731488"><ele>443.0</ele><time>2026-04-18T16:13:17Z</time></trkpt><trkpt lat="41.71607649303586" lon="-8.443129303952464"><ele>442.99999999999994</ele><time>2026-04-18T16:13:18Z</time></trkpt><trkpt lat="41.71600488417878" lon="-8.443038106705297"><ele>442.99999999999994</ele><time>2026-04-18T16:13:19Z</time></trkpt><trkpt lat="41.71592570736031" lon="-8.442960197093544"><ele>443.0</ele><time>2026-04-18T16:13:20Z</time></trkpt><trkpt lat="41.71583801882325" lon="-8.44288732160068"><ele>443.0</ele><time>2026-04-18T16:13:21Z</time></trkpt><trkpt lat="41.71574104837967" lon="-8.442827525438382"><ele>443.0</ele><time>2026-04-18T16:13:22Z</time></trkpt><trkpt lat="41.71563635380814" lon="-8.44279537085257"><ele>442.99999999999994</ele><time>2026-04-18T16:13:23Z</time></trkpt><trkpt lat="41.71553284375607" lon="-8.442780239775802"><ele>442.99999999999994</ele><time>2026-04-18T16:13:24Z</time></trkpt><trkpt lat="41.71542812934704" lon="-8.442777092998135"><ele>443.0</ele><time>2026-04-18T16:13:25Z</time></trkpt><trkpt lat="41.715319014413005" lon="-8.442770947770784"><ele>443.0</ele><time>2026-04-18T16:13:26Z</time></trkpt><trkpt lat="41.715204024944924" lon="-8.442773849224407"><ele>443.2</ele><time>2026-04-18T16:13:27Z</time></trkpt><trkpt lat="41.715097326769346" lon="-8.442773650464263"><ele>443.4</ele><time>2026-04-18T16:13:28Z</time></trkpt><trkpt lat="41.714982557913444" lon="-8.442783708723168"><ele>443.59999999999997</ele><time>2026-04-18T16:13:29Z</time></trkpt><trkpt lat="41.714870125811714" lon="-8.442810266069367"><ele>443.79999999999995</ele><time>2026-04-18T16:13:30Z</time></trkpt><trkpt lat="41.71477246312602" lon="-8.442884943117148"><ele>444.0</ele><time>2026-04-18T16:13:31Z</time></trkpt><trkpt lat="41.71468202026891" lon="-8.44299232193527"><ele>442.5</ele><time>2026-04-18T16:13:32Z</time></trkpt><trkpt lat="41.71459135177793" lon="-8.44309595138631"><ele>441.0</ele><time>2026-04-18T16:13:33Z</time></trkpt><trkpt lat="41.71449769244046" lon="-8.44316407406155"><ele>439.5</ele><time>2026-04-18T16:13:34Z</time></trkpt><trkpt lat="41.71438946950432" lon="-8.443189747406699"><ele>438.0</ele><time>2026-04-18T16:13:35Z</time></trkpt><trkpt lat="41.71427520147556" lon="-8.443174058004143"><ele>438.0</ele><time>2026-04-18T16:13:36Z</time></trkpt><trkpt lat="41.71415001114598" lon="-8.443116162241237"><ele>438.0</ele><time>2026-04-18T16:13:37Z</time></trkpt><trkpt lat="41.71400238696836" lon="-8.443078098171855"><ele>438.0</ele><time>2026-04-18T16:13:38Z</time></trkpt><trkpt lat="41.71385272063919" lon="-8.443051356523796"><ele>438.0</ele><time>2026-04-18T16:13:39Z</time></trkpt><trkpt lat="41.71368979643868" lon="-8.443028901709285"><ele>436.66666666666663</ele><time>2026-04-18T16:13:40Z</time></trkpt><trkpt lat="41.71353294809571" lon="-8.443023857043642"><ele>435.3333333333333</ele><time>2026-04-18T16:13:41Z</time></trkpt><trkpt lat="41.71338028906552" lon="-8.443032672418248"><ele>434.0</ele><time>2026-04-18T16:13:42Z</time></trkpt><trkpt lat="41.71323941123258" lon="-8.443051072485867"><ele>434.0</ele><time>2026-04-18T16:13:43Z</time></trkpt><trkpt lat="41.71311110471075" lon="-8.443069999630358"><ele>434.0</ele><time>2026-04-18T16:13:44Z</time></trkpt><trkpt lat="41.713005919418826" lon="-8.443073872198738"><ele>434.0</ele><time>2026-04-18T16:13:45Z</time></trkpt><trkpt lat="41.71291976395183" lon="-8.443043352696945"><ele>434.0</ele><time>2026-04-18T16:13:46Z</time></trkpt><trkpt lat="41.712827780559124" lon="-8.442983419416882"><ele>434.0</ele><time>2026-04-18T16:13:47Z</time></trkpt><trkpt lat="41.71273096977996" lon="-8.442892451746687"><ele>435.0</ele><time>2026-04-18T16:13:48Z</time></trkpt><trkpt lat="41.712644765766484" lon="-8.442785665078047"><ele>436.0</ele><time>2026-04-18T16:13:49Z</time></trkpt><trkpt lat="41.712569815253524" lon="-8.442665915191034"><ele>437.0</ele><time>2026-04-18T16:13:50Z</time></trkpt><trkpt lat="41.71251625796076" lon="-8.442537403297315"><ele>438.0</ele><time>2026-04-18T16:13:51Z</time></trkpt><trkpt lat="41.71246576573166" lon="-8.442419105326104"><ele>439.0</ele><time>2026-04-18T16:13:52Z</time></trkpt><trkpt lat="41.71239476383494" lon="-8.442331001237177"><ele>439.0</ele><time>2026-04-18T16:13:53Z</time></trkpt><trkpt lat="41.71230031530241" lon="-8.442269059802967"><ele>439.0</ele><time>2026-04-18T16:13:54Z</time></trkpt><trkpt lat="41.7121852183728" lon="-8.442236102987717"><ele>439.0</ele><time>2026-04-18T16:13:55Z</time></trkpt><trkpt lat="41.71206892595085" lon="-8.442213901701463"><ele>439.0</ele><time>2026-04-18T16:13:56Z</time></trkpt><trkpt lat="41.71196097877617" lon="-8.442195855758849"><ele>439.0</ele><time>2026-04-18T16:13:57Z</time></trkpt><trkpt lat="41.711861399680444" lon="-8.442185628767463"><ele>437.2</ele><time>2026-04-18T16:13:58Z</time></trkpt><trkpt lat="41.71177037286041" lon="-8.442201342846285"><ele>435.4</ele><time>2026-04-18T16:13:59Z</time></trkpt><trkpt lat="41.711690029339174" lon="-8.44226454354998"><ele>433.6</ele><time>2026-04-18T16:14:00Z</time></trkpt><trkpt lat="41.71161347857204" lon="-8.442351117393192"><ele>431.8</ele><time>2026-04-18T16:14:01Z</time></trkpt><trkpt lat="41.71152837106977" lon="-8.442400699817117"><ele>430.0</ele><time>2026-04-18T16:14:02Z</time></trkpt><trkpt lat="41.711426391473445" lon="-8.442388829794531"><ele>430.00000000000006</ele><time>2026-04-18T16:14:03Z</time></trkpt><trkpt lat="41.711321986724705" lon="-8.442363389295448"><ele>430.0</ele><time>2026-04-18T16:14:04Z</time></trkpt><trkpt lat="41.71122709829107" lon="-8.442354505373341"><ele>430.0</ele><time>2026-04-18T16:14:05Z</time></trkpt><trkpt lat="41.711154760202284" lon="-8.442358969224953"><ele>430.0</ele><time>2026-04-18T16:14:06Z</time></trkpt><trkpt lat="41.71107569679502" lon="-8.442362698014259"><ele>430.00000000000006</ele><time>2026-04-18T16:14:07Z</time></trkpt><trkpt lat="41.71099873745271" lon="-8.442344739767256"><ele>430.0</ele><time>2026-04-18T16:14:08Z</time></trkpt><trkpt lat="41.710925499897996" lon="-8.442302974314426"><ele>429.85714285714283</ele><time>2026-04-18T16:14:09Z</time></trkpt><trkpt lat="41.710861766463225" lon="-8.44227294998187"><ele>429.7142857142857</ele><time>2026-04-18T16:14:10Z</time></trkpt><trkpt lat="41.71079522531482" lon="-8.442250268969604"><ele>429.57142857142856</ele><time>2026-04-18T16:14:11Z</time></trkpt><trkpt lat="41.71072608126675" lon="-8.442207033527879"><ele>429.42857142857144</ele><time>2026-04-18T16:14:12Z</time></trkpt><trkpt lat="41.71066288983491" lon="-8.442158626474106"><ele>429.28571428571433</ele><time>2026-04-18T16:14:13Z</time></trkpt><trkpt lat="41.710599099789874" lon="-8.442111370361248"><ele>429.14285714285717</ele><time>2026-04-18T16:14:14Z</time></trkpt><trkpt lat="41.710546269985635" lon="-8.442062958915917"><ele>429.0</ele><time>2026-04-18T16:14:15Z</time></trkpt><trkpt lat="41.71048738936863" lon="-8.442001602434457"><ele>428.79999999999995</ele><time>2026-04-18T16:14:16Z</time></trkpt><trkpt lat="41.71043307388144" lon="-8.44193611580471"><ele>428.59999999999997</ele><time>2026-04-18T16:14:17Z</time></trkpt><trkpt lat="41.71035017165059" lon="-8.441826017692714"><ele>428.4</ele><time>2026-04-18T16:14:19Z</time></trkpt><trkpt lat="41.710255047481" lon="-8.441726291050935"><ele>428.2</ele><time>2026-04-18T16:14:21Z</time></trkpt><trkpt lat="41.71016443089938" lon="-8.441619526954948"><ele>428.0</ele><time>2026-04-18T16:14:23Z</time></trkpt><trkpt lat="41.71011081995795" lon="-8.441565833567184"><ele>427.99999999999994</ele><time>2026-04-18T16:14:24Z</time></trkpt><trkpt lat="41.710059771587154" lon="-8.441506272639593"><ele>428.0</ele><time>2026-04-18T16:14:25Z</time></trkpt><trkpt lat="41.709959152258385" lon="-8.441409286307488"><ele>428.0</ele><time>2026-04-18T16:14:27Z</time></trkpt><trkpt lat="41.709883153761105" lon="-8.441372326817534"><ele>428.0</ele><time>2026-04-18T16:14:28Z</time></trkpt><trkpt lat="41.70981115344543" lon="-8.441354955359264"><ele>427.99999999999994</ele><time>2026-04-18T16:14:29Z</time></trkpt><trkpt lat="41.70972805461999" lon="-8.441340289360642"><ele>428.0</ele><time>2026-04-18T16:14:30Z</time></trkpt><trkpt lat="41.70963816875764" lon="-8.44133745326342"><ele>428.0</ele><time>2026-04-18T16:14:31Z</time></trkpt><trkpt lat="41.70954551421421" lon="-8.441342843088155"><ele>427.99999999999994</ele><time>2026-04-18T16:14:32Z</time></trkpt><trkpt lat="41.70945198528828" lon="-8.441362666174749"><ele>427.99999999999994</ele><time>2026-04-18T16:14:33Z</time></trkpt><trkpt lat="41.70935917415004" lon="-8.441389277750275"><ele>428.0</ele><time>2026-04-18T16:14:34Z</time></trkpt><trkpt lat="41.70927213620127" lon="-8.441430124512243"><ele>428.0</ele><time>2026-04-18T16:14:35Z</time></trkpt><trkpt lat="41.70918313489951" lon="-8.441472410568032"><ele>427.8333333333333</ele><time>2026-04-18T16:14:36Z</time></trkpt><trkpt lat="41.70909969174952" lon="-8.441507872695597"><ele>427.66666666666663</ele><time>2026-04-18T16:14:37Z</time></trkpt><trkpt lat="41.70901984491092" lon="-8.441548320235952"><ele>427.5</ele><time>2026-04-18T16:14:38Z</time></trkpt><trkpt lat="41.708929247730765" lon="-8.44159697533281"><ele>427.33333333333337</ele><time>2026-04-18T16:14:39Z</time></trkpt><trkpt lat="41.70885137082198" lon="-8.441637993804942"><ele>427.1666666666667</ele><time>2026-04-18T16:14:40Z</time></trkpt><trkpt lat="41.708764627872235" lon="-8.441680605573952"><ele>427.0</ele><time>2026-04-18T16:14:41Z</time></trkpt><trkpt lat="41.708681312370885" lon="-8.44172295116873"><ele>427.00000000000006</ele><time>2026-04-18T16:14:42Z</time></trkpt><trkpt lat="41.70859815551733" lon="-8.441753156304179"><ele>427.0</ele><time>2026-04-18T16:14:43Z</time></trkpt><trkpt lat="41.708511703024776" lon="-8.441767571203613"><ele>427.0</ele><time>2026-04-18T16:14:44Z</time></trkpt><trkpt lat="41.70842312458668" lon="-8.441782757528285"><ele>427.0</ele><time>2026-04-18T16:14:45Z</time></trkpt><trkpt lat="41.70833423864456" lon="-8.441806780231154"><ele>427.00000000000006</ele><time>2026-04-18T16:14:46Z</time></trkpt><trkpt lat="41.70825856575363" lon="-8.441847928085794"><ele>427.0</ele><time>2026-04-18T16:14:47Z</time></trkpt><trkpt lat="41.708180977797845" lon="-8.441884226269803"><ele>427.33333333333337</ele><time>2026-04-18T16:14:48Z</time></trkpt><trkpt lat="41.708115310650825" lon="-8.441929697174285"><ele>427.6666666666667</ele><time>2026-04-18T16:14:49Z</time></trkpt><trkpt lat="41.708039005565816" lon="-8.441975842433717"><ele>428.0</ele><time>2026-04-18T16:14:50Z</time></trkpt><trkpt lat="41.70794713492808" lon="-8.44202536828004"><ele>428.33333333333337</ele><time>2026-04-18T16:14:51Z</time></trkpt><trkpt lat="41.70786029640802" lon="-8.442065170699152"><ele>428.6666666666667</ele><time>2026-04-18T16:14:52Z</time></trkpt><trkpt lat="41.70776696371089" lon="-8.442112517340627"><ele>429.0</ele><time>2026-04-18T16:14:53Z</time></trkpt><trkpt lat="41.70767603596402" lon="-8.442174281943098"><ele>429.0</ele><time>2026-04-18T16:14:54Z</time></trkpt><trkpt lat="41.707590120716354" lon="-8.442245622033617"><ele>429.0</ele><time>2026-04-18T16:14:55Z</time></trkpt><trkpt lat="41.7075058393044" lon="-8.442322010653383"><ele>429.0</ele><time>2026-04-18T16:14:56Z</time></trkpt><trkpt lat="41.70741702624539" lon="-8.442395478377897"><ele>429.0</ele><time>2026-04-18T16:14:57Z</time></trkpt><trkpt lat="41.70733944617175" lon="-8.44245563109668"><ele>429.0</ele><time>2026-04-18T16:14:58Z</time></trkpt><trkpt lat="41.70725656640525" lon="-8.44251939239768"><ele>429.0</ele><time>2026-04-18T16:14:59Z</time></trkpt><trkpt lat="41.70716964516754" lon="-8.442579805036427"><ele>429.0</ele><time>2026-04-18T16:15:00Z</time></trkpt><trkpt lat="41.70709667661347" lon="-8.442625787142758"><ele>429.0</ele><time>2026-04-18T16:15:01Z</time></trkpt><trkpt lat="41.707036490687145" lon="-8.442662989291218"><ele>429.0</ele><time>2026-04-18T16:15:02Z</time></trkpt><trkpt lat="41.7069779461838" lon="-8.442714618503564"><ele>429.0</ele><time>2026-04-18T16:15:03Z</time></trkpt><trkpt lat="41.70689561171365" lon="-8.442762243945493"><ele>429.0</ele><time>2026-04-18T16:15:04.001Z</time></trkpt><trkpt lat="41.70680791398328" lon="-8.442813160582205"><ele>426.0</ele><time>2026-04-18T16:15:05.001Z</time></trkpt><trkpt lat="41.70670883665935" lon="-8.442869782157635"><ele>423.0</ele><time>2026-04-18T16:15:06.001Z</time></trkpt><trkpt lat="41.70659986914407" lon="-8.442932589380513"><ele>420.0</ele><time>2026-04-18T16:15:07.001Z</time></trkpt><trkpt lat="41.70648786923308" lon="-8.442988460889982"><ele>417.0</ele><time>2026-04-18T16:15:08.001Z</time></trkpt><trkpt lat="41.70639115346426" lon="-8.443051670369798"><ele>421.20000000000005</ele><time>2026-04-18T16:15:09.001Z</time></trkpt><trkpt lat="41.70628617831393" lon="-8.443090516817982"><ele>425.4</ele><time>2026-04-18T16:15:10.001Z</time></trkpt><trkpt lat="41.70617313090434" lon="-8.443102805281606"><ele>429.59999999999997</ele><time>2026-04-18T16:15:11.001Z</time></trkpt><trkpt lat="41.70606560616302" lon="-8.443090551407314"><ele>433.79999999999995</ele><time>2026-04-18T16:15:12.001Z</time></trkpt><trkpt lat="41.70597104292159" lon="-8.443061954313828"><ele>438.0</ele><time>2026-04-18T16:15:13.001Z</time></trkpt><trkpt lat="41.705896848699254" lon="-8.443068741961012"><ele>438.0</ele><time>2026-04-18T16:15:14.001Z</time></trkpt><trkpt lat="41.70582871880604" lon="-8.443102040836354"><ele>438.0</ele><time>2026-04-18T16:15:15.001Z</time></trkpt><trkpt lat="41.7057652666834" lon="-8.443142498342151"><ele>438.0</ele><time>2026-04-18T16:15:16.001Z</time></trkpt><trkpt lat="41.705702256975414" lon="-8.443192160106625"><ele>438.0</ele><time>2026-04-18T16:15:17.001Z</time></trkpt><trkpt lat="41.705639613568735" lon="-8.443252942803058"><ele>438.0</ele><time>2026-04-18T16:15:18.001Z</time></trkpt><trkpt lat="41.70557660495317" lon="-8.443338875817604"><ele>438.0</ele><time>2026-04-18T16:15:19.001Z</time></trkpt><trkpt lat="41.705507729051156" lon="-8.44344164565728"><ele>438.0</ele><time>2026-04-18T16:15:20.001Z</time></trkpt><trkpt lat="41.70542538444456" lon="-8.443537172404174"><ele>437.99999999999994</ele><time>2026-04-18T16:15:21.001Z</time></trkpt><trkpt lat="41.70533542452591" lon="-8.443610970103041"><ele>437.99999999999994</ele><time>2026-04-18T16:15:22Z</time></trkpt><trkpt lat="41.70522794921836" lon="-8.443672677487834"><ele>438.0</ele><time>2026-04-18T16:15:23Z</time></trkpt><trkpt lat="41.70511626508017" lon="-8.443723546854848"><ele>438.0</ele><time>2026-04-18T16:15:24Z</time></trkpt><trkpt lat="41.70501089598368" lon="-8.44376578237973"><ele>440.2</ele><time>2026-04-18T16:15:25Z</time></trkpt><trkpt lat="41.70489858872243" lon="-8.443813083743894"><ele>442.4</ele><time>2026-04-18T16:15:26Z</time></trkpt><trkpt lat="41.704796147959584" lon="-8.443868184353589"><ele>444.59999999999997</ele><time>2026-04-18T16:15:27Z</time></trkpt><trkpt lat="41.70471609254069" lon="-8.443921141081672"><ele>446.79999999999995</ele><time>2026-04-18T16:15:28Z</time></trkpt><trkpt lat="41.70465123194555" lon="-8.44399069657751"><ele>449.0</ele><time>2026-04-18T16:15:29Z</time></trkpt><trkpt lat="41.70461230822851" lon="-8.444066660241338"><ele>449.0</ele><time>2026-04-18T16:15:30Z</time></trkpt><trkpt lat="41.70458186267693" lon="-8.444254757582618"><ele>449.0</ele><time>2026-04-18T16:15:32Z</time></trkpt><trkpt lat="41.70458307729691" lon="-8.444356982001146"><ele>449.0</ele><time>2026-04-18T16:15:33Z</time></trkpt><trkpt lat="41.70458757691847" lon="-8.444465850375156"><ele>449.0</ele><time>2026-04-18T16:15:34Z</time></trkpt><trkpt lat="41.704604515381625" lon="-8.444589310435493"><ele>449.0</ele><time>2026-04-18T16:15:35Z</time></trkpt><trkpt lat="41.70461783763555" lon="-8.4447356732262"><ele>452.25</ele><time>2026-04-18T16:15:36Z</time></trkpt><trkpt lat="41.704616745436184" lon="-8.444894588462294"><ele>455.5</ele><time>2026-04-18T16:15:37Z</time></trkpt><trkpt lat="41.70460422685859" lon="-8.445060379947392"><ele>458.75</ele><time>2026-04-18T16:15:38Z</time></trkpt><trkpt lat="41.70458112965761" lon="-8.445234245801373"><ele>462.0</ele><time>2026-04-18T16:15:39Z</time></trkpt><trkpt lat="41.70455309125216" lon="-8.445396529225969"><ele>464.0</ele><time>2026-04-18T16:15:40Z</time></trkpt><trkpt lat="41.70451368044365" lon="-8.445554277715594"><ele>466.0</ele><time>2026-04-18T16:15:41Z</time></trkpt><trkpt lat="41.70446096497758" lon="-8.445713553460664"><ele>468.0</ele><time>2026-04-18T16:15:42Z</time></trkpt><trkpt lat="41.704404891330036" lon="-8.445882193722195"><ele>470.0</ele><time>2026-04-18T16:15:43Z</time></trkpt><trkpt lat="41.70436108972092" lon="-8.446022172836058"><ele>468.4</ele><time>2026-04-18T16:15:44Z</time></trkpt><trkpt lat="41.70432895509828" lon="-8.446145426911169"><ele>466.8</ele><time>2026-04-18T16:15:45Z</time></trkpt><trkpt lat="41.704311363557046" lon="-8.446282757480438"><ele>465.20000000000005</ele><time>2026-04-18T16:15:46Z</time></trkpt><trkpt lat="41.70429182240527" lon="-8.446427612812473"><ele>463.6</ele><time>2026-04-18T16:15:47Z</time></trkpt><trkpt lat="41.70428863192623" lon="-8.446548423486448"><ele>462.0</ele><time>2026-04-18T16:15:48Z</time></trkpt><trkpt lat="41.704287661610906" lon="-8.44667426248474"><ele>462.0</ele><time>2026-04-18T16:15:49Z</time></trkpt><trkpt lat="41.7042940603596" lon="-8.446783444102698"><ele>462.0</ele><time>2026-04-18T16:15:50Z</time></trkpt><trkpt lat="41.70430341632739" lon="-8.44687512874688"><ele>462.0</ele><time>2026-04-18T16:15:51Z</time></trkpt><trkpt lat="41.70429708590285" lon="-8.447031090530153"><ele>462.0</ele><time>2026-04-18T16:15:53Z</time></trkpt><trkpt lat="41.70428834496544" lon="-8.447115637279397"><ele>462.0</ele><time>2026-04-18T16:15:54Z</time></trkpt><trkpt lat="41.70427092132351" lon="-8.447199825815572"><ele>462.0</ele><time>2026-04-18T16:15:55Z</time></trkpt><trkpt lat="41.70424678151908" lon="-8.447290405831703"><ele>461.8333333333333</ele><time>2026-04-18T16:15:56Z</time></trkpt><trkpt lat="41.704208548269264" lon="-8.447394518136807"><ele>461.66666666666663</ele><time>2026-04-18T16:15:57Z</time></trkpt><trkpt lat="41.704161934372" lon="-8.447479268508303"><ele>461.5</ele><time>2026-04-18T16:15:58Z</time></trkpt><trkpt lat="41.704114830837746" lon="-8.447549275787793"><ele>461.3333333333333</ele><time>2026-04-18T16:15:59Z</time></trkpt><trkpt lat="41.70406621314809" lon="-8.447610520794976"><ele>461.16666666666663</ele><time>2026-04-18T16:16:00Z</time></trkpt><trkpt lat="41.7040093902738" lon="-8.447666475933287"><ele>461.0</ele><time>2026-04-18T16:16:01Z</time></trkpt><trkpt lat="41.70390475602232" lon="-8.447765752256737"><ele>460.99999999999994</ele><time>2026-04-18T16:16:03Z</time></trkpt><trkpt lat="41.703844638297035" lon="-8.447828879872414"><ele>461.0</ele><time>2026-04-18T16:16:04Z</time></trkpt><trkpt lat="41.70377285668109" lon="-8.447940362399759"><ele>461.0</ele><time>2026-04-18T16:16:06Z</time></trkpt><trkpt lat="41.703723696854844" lon="-8.44802046088073"><ele>461.0</ele><time>2026-04-18T16:16:08Z</time></trkpt><trkpt lat="41.703635695065934" lon="-8.448042200500142"><ele>460.99999999999994</ele><time>2026-04-18T16:16:11Z</time></trkpt><trkpt lat="41.703570213487126" lon="-8.44808101492043"><ele>461.0</ele><time>2026-04-18T16:16:14Z</time></trkpt><trkpt lat="41.70349509171784" lon="-8.448108775699216"><ele>460.5</ele><time>2026-04-18T16:16:18Z</time></trkpt><trkpt lat="41.70336197580457" lon="-8.448169601727194"><ele>460.0</ele><time>2026-04-18T16:16:20Z</time></trkpt><trkpt lat="41.703250743954555" lon="-8.448201544780014"><ele>459.5</ele><time>2026-04-18T16:16:21Z</time></trkpt><trkpt lat="41.70313232119744" lon="-8.448233131455783"><ele>459.0</ele><time>2026-04-18T16:16:22Z</time></trkpt><trkpt lat="41.70300114721896" lon="-8.448276336006089"><ele>459.0</ele><time>2026-04-18T16:16:23Z</time></trkpt><trkpt lat="41.702872902131034" lon="-8.448323630664234"><ele>459.0</ele><time>2026-04-18T16:16:24Z</time></trkpt><trkpt lat="41.70277062169068" lon="-8.44835815039472"><ele>459.0</ele><time>2026-04-18T16:16:25Z</time></trkpt><trkpt lat="41.70268099014819" lon="-8.448389369002072"><ele>459.0</ele><time>2026-04-18T16:16:26Z</time></trkpt><trkpt lat="41.70258998408533" lon="-8.44841188083539"><ele>459.0</ele><time>2026-04-18T16:16:27Z</time></trkpt><trkpt lat="41.7024966726442" lon="-8.44841413979451"><ele>458.6</ele><time>2026-04-18T16:16:28Z</time></trkpt><trkpt lat="41.7023946478573" lon="-8.448409087893722"><ele>458.2</ele><time>2026-04-18T16:16:29Z</time></trkpt><trkpt lat="41.70228584460823" lon="-8.448406376727378"><ele>457.80000000000007</ele><time>2026-04-18T16:16:30Z</time></trkpt><trkpt lat="41.702170621699395" lon="-8.448413775999477"><ele>457.40000000000003</ele><time>2026-04-18T16:16:31Z</time></trkpt><trkpt lat="41.70206687110469" lon="-8.448436391020843"><ele>457.0</ele><time>2026-04-18T16:16:32Z</time></trkpt><trkpt lat="41.70196444201136" lon="-8.448486447599654"><ele>455.5</ele><time>2026-04-18T16:16:33Z</time></trkpt><trkpt lat="41.70185435330728" lon="-8.44855152164597"><ele>454.0</ele><time>2026-04-18T16:16:34Z</time></trkpt><trkpt lat="41.70174267896878" lon="-8.448619827662423"><ele>452.5</ele><time>2026-04-18T16:16:35Z</time></trkpt><trkpt lat="41.70163826744003" lon="-8.448667318570811"><ele>451.0</ele><time>2026-04-18T16:16:36Z</time></trkpt><trkpt lat="41.70151933839134" lon="-8.448704914487049"><ele>451.0</ele><time>2026-04-18T16:16:37Z</time></trkpt><trkpt lat="41.70139514119663" lon="-8.448732236370237"><ele>451.0</ele><time>2026-04-18T16:16:38Z</time></trkpt><trkpt lat="41.70125640137984" lon="-8.448751430880153"><ele>451.0</ele><time>2026-04-18T16:16:39Z</time></trkpt><trkpt lat="41.70114054082851" lon="-8.44877531425331"><ele>451.0</ele><time>2026-04-18T16:16:40Z</time></trkpt><trkpt lat="41.701014028210956" lon="-8.448802507890111"><ele>457.0</ele><time>2026-04-18T16:16:41Z</time></trkpt><trkpt lat="41.700890081473396" lon="-8.448831812453431"><ele>463.0</ele><time>2026-04-18T16:16:42Z</time></trkpt><trkpt lat="41.70077265648498" lon="-8.448877363971171"><ele>469.0</ele><time>2026-04-18T16:16:43Z</time></trkpt><trkpt lat="41.7006712641039" lon="-8.448925898163322"><ele>475.0</ele><time>2026-04-18T16:16:44Z</time></trkpt><trkpt lat="41.70056937117112" lon="-8.448955908389811"><ele>475.0</ele><time>2026-04-18T16:16:45Z</time></trkpt><trkpt lat="41.700468810351325" lon="-8.448983687462887"><ele>475.0</ele><time>2026-04-18T16:16:46Z</time></trkpt><trkpt lat="41.700372874806895" lon="-8.449015065317267"><ele>475.0</ele><time>2026-04-18T16:16:47Z</time></trkpt><trkpt lat="41.70027134567939" lon="-8.449050965055271"><ele>475.0</ele><time>2026-04-18T16:16:48Z</time></trkpt><trkpt lat="41.70017624858386" lon="-8.449085206145888"><ele>475.0</ele><time>2026-04-18T16:16:49Z</time></trkpt><trkpt lat="41.70006844816898" lon="-8.449134102562109"><ele>473.50000000000006</ele><time>2026-04-18T16:16:50Z</time></trkpt><trkpt lat="41.69997216643952" lon="-8.44918167123289"><ele>472.0</ele><time>2026-04-18T16:16:51Z</time></trkpt><trkpt lat="41.69989226916919" lon="-8.449228072475476"><ele>470.5</ele><time>2026-04-18T16:16:52Z</time></trkpt><trkpt lat="41.69982743485295" lon="-8.449278687825469"><ele>469.0</ele><time>2026-04-18T16:16:53Z</time></trkpt><trkpt lat="41.69977641939166" lon="-8.44934550742781"><ele>467.50000000000006</ele><time>2026-04-18T16:16:54Z</time></trkpt><trkpt lat="41.69973022141043" lon="-8.44942392546184"><ele>466.0</ele><time>2026-04-18T16:16:55Z</time></trkpt><trkpt lat="41.69970438863351" lon="-8.449531559240885"><ele>467.5</ele><time>2026-04-18T16:16:56Z</time></trkpt><trkpt lat="41.69968692174199" lon="-8.449669443105051"><ele>469.0</ele><time>2026-04-18T16:16:57Z</time></trkpt><trkpt lat="41.69965591544273" lon="-8.449820115598483"><ele>470.5</ele><time>2026-04-18T16:16:58Z</time></trkpt><trkpt lat="41.69961604895351" lon="-8.449983133278726"><ele>472.0</ele><time>2026-04-18T16:16:59Z</time></trkpt><trkpt lat="41.699572961068874" lon="-8.450127567437454"><ele>472.0</ele><time>2026-04-18T16:17:00.001Z</time></trkpt><trkpt lat="41.69952986254054" lon="-8.450268342277804"><ele>472.0</ele><time>2026-04-18T16:17:01.001Z</time></trkpt><trkpt lat="41.69948206844527" lon="-8.450428959982553"><ele>472.0</ele><time>2026-04-18T16:17:02.001Z</time></trkpt><trkpt lat="41.69942901281327" lon="-8.45060253581109"><ele>472.0</ele><time>2026-04-18T16:17:03.001Z</time></trkpt><trkpt lat="41.69937426666248" lon="-8.450767924842344"><ele>471.5</ele><time>2026-04-18T16:17:04.001Z</time></trkpt><trkpt lat="41.69932966188453" lon="-8.450910527753273"><ele>471.0</ele><time>2026-04-18T16:17:05.001Z</time></trkpt><trkpt lat="41.69928807652264" lon="-8.451059462746665"><ele>470.5</ele><time>2026-04-18T16:17:06.001Z</time></trkpt><trkpt lat="41.699240696043816" lon="-8.451208031236312"><ele>470.0</ele><time>2026-04-18T16:17:07.001Z</time></trkpt><trkpt lat="41.69918490144381" lon="-8.451361087525283"><ele>470.0</ele><time>2026-04-18T16:17:08.001Z</time></trkpt><trkpt lat="41.69914129046068" lon="-8.451507777514252"><ele>470.0</ele><time>2026-04-18T16:17:09.001Z</time></trkpt><trkpt lat="41.69909721675165" lon="-8.451645889220691"><ele>470.0</ele><time>2026-04-18T16:17:10.001Z</time></trkpt><trkpt lat="41.69904523783631" lon="-8.451774891116273"><ele>470.0</ele><time>2026-04-18T16:17:11.001Z</time></trkpt><trkpt lat="41.699005789827524" lon="-8.451874255437327"><ele>470.0</ele><time>2026-04-18T16:17:12.001Z</time></trkpt><trkpt lat="41.69897111948481" lon="-8.451975922561749"><ele>469.99999999999994</ele><time>2026-04-18T16:17:13.001Z</time></trkpt><trkpt lat="41.69892767953319" lon="-8.452057763668215"><ele>470.0</ele><time>2026-04-18T16:17:14.001Z</time></trkpt><trkpt lat="41.69886792108727" lon="-8.452129838585096"><ele>470.0</ele><time>2026-04-18T16:17:15.001Z</time></trkpt><trkpt lat="41.698795600851625" lon="-8.452162006665947"><ele>470.0</ele><time>2026-04-18T16:17:16.001Z</time></trkpt><trkpt lat="41.698714142104016" lon="-8.45216590908559"><ele>469.99999999999994</ele><time>2026-04-18T16:17:17.001Z</time></trkpt><trkpt lat="41.69861413425146" lon="-8.452164239183983"><ele>470.0</ele><time>2026-04-18T16:17:18.001Z</time></trkpt><trkpt lat="41.69851048235466" lon="-8.452152814706393"><ele>469.6</ele><time>2026-04-18T16:17:19.001Z</time></trkpt><trkpt lat="41.69840218308417" lon="-8.45214439319128"><ele>469.2</ele><time>2026-04-18T16:17:20.001Z</time></trkpt><trkpt lat="41.69829355527467" lon="-8.452153551352952"><ele>468.79999999999995</ele><time>2026-04-18T16:17:21.001Z</time></trkpt><trkpt lat="41.69818323096459" lon="-8.452166566374425"><ele>468.4</ele><time>2026-04-18T16:17:22.001Z</time></trkpt><trkpt lat="41.69806593303567" lon="-8.452177567095097"><ele>468.0</ele><time>2026-04-18T16:17:23.001Z</time></trkpt><trkpt lat="41.69794257676583" lon="-8.452191326585503"><ele>468.0</ele><time>2026-04-18T16:17:24.001Z</time></trkpt><trkpt lat="41.697813604647955" lon="-8.452214064128487"><ele>468.0</ele><time>2026-04-18T16:17:25.001Z</time></trkpt><trkpt lat="41.69768524831211" lon="-8.452234911941856"><ele>468.0</ele><time>2026-04-18T16:17:26.001Z</time></trkpt><trkpt lat="41.69757172355667" lon="-8.452252137365381"><ele>468.0</ele><time>2026-04-18T16:17:27.001Z</time></trkpt><trkpt lat="41.69747419493095" lon="-8.452265308136322"><ele>468.1666666666667</ele><time>2026-04-18T16:17:28Z</time></trkpt><trkpt lat="41.69738841352997" lon="-8.452286677914397"><ele>468.33333333333337</ele><time>2026-04-18T16:17:29Z</time></trkpt><trkpt lat="41.6973085322249" lon="-8.452317940982658"><ele>468.5</ele><time>2026-04-18T16:17:30Z</time></trkpt><trkpt lat="41.69723224766984" lon="-8.452377319146978"><ele>468.6666666666667</ele><time>2026-04-18T16:17:31Z</time></trkpt><trkpt lat="41.697151908372" lon="-8.452452048384556"><ele>468.83333333333337</ele><time>2026-04-18T16:17:32Z</time></trkpt><trkpt lat="41.697076288347375" lon="-8.452516430796294"><ele>469.0</ele><time>2026-04-18T16:17:33Z</time></trkpt><trkpt lat="41.69698767300604" lon="-8.45257762180959"><ele>469.00000000000006</ele><time>2026-04-18T16:17:34Z</time></trkpt><trkpt lat="41.69691954269161" lon="-8.452646982291213"><ele>469.0</ele><time>2026-04-18T16:17:35Z</time></trkpt><trkpt lat="41.696842204517345" lon="-8.452703240376401"><ele>469.0</ele><time>2026-04-18T16:17:36Z</time></trkpt><trkpt lat="41.696758012964345" lon="-8.45274849126585"><ele>469.0</ele><time>2026-04-18T16:17:37Z</time></trkpt><trkpt lat="41.69666956499442" lon="-8.452777842418255"><ele>469.00000000000006</ele><time>2026-04-18T16:17:38Z</time></trkpt><trkpt lat="41.69658627496455" lon="-8.452783397499582"><ele>469.0</ele><time>2026-04-18T16:17:39Z</time></trkpt><trkpt lat="41.69651331487945" lon="-8.45278441426123"><ele>469.50000000000006</ele><time>2026-04-18T16:17:40Z</time></trkpt><trkpt lat="41.69640964542381" lon="-8.452740522992025"><ele>470.0</ele><time>2026-04-18T16:17:42Z</time></trkpt><trkpt lat="41.6963776537825" lon="-8.452650010558498"><ele>470.5</ele><time>2026-04-18T16:17:44Z</time></trkpt><trkpt lat="41.696366045785496" lon="-8.452558671728777"><ele>471.0</ele><time>2026-04-18T16:17:46Z</time></trkpt><trkpt lat="41.696344182031446" lon="-8.452472087091532"><ele>471.50000000000006</ele><time>2026-04-18T16:17:48Z</time></trkpt><trkpt lat="41.69631215152663" lon="-8.452380804238308"><ele>472.0</ele><time>2026-04-18T16:17:50Z</time></trkpt><trkpt lat="41.69627077881932" lon="-8.452295851015016"><ele>472.0</ele><time>2026-04-18T16:17:52Z</time></trkpt><trkpt lat="41.69622263510388" lon="-8.452187149100123"><ele>472.00000000000006</ele><time>2026-04-18T16:17:55Z</time></trkpt><trkpt lat="41.696173362021625" lon="-8.452066308823277"><ele>472.00000000000006</ele><time>2026-04-18T16:17:57Z</time></trkpt><trkpt lat="41.69612141313336" lon="-8.451917476209024"><ele>472.0</ele><time>2026-04-18T16:17:59Z</time></trkpt><trkpt lat="41.69610525278089" lon="-8.451830606676312"><ele>472.0</ele><time>2026-04-18T16:18:00Z</time></trkpt><trkpt lat="41.696056757302316" lon="-8.45167762939649"><ele>470.20000000000005</ele><time>2026-04-18T16:18:02Z</time></trkpt><trkpt lat="41.69600493348415" lon="-8.451624684872774"><ele>468.40000000000003</ele><time>2026-04-18T16:18:03Z</time></trkpt><trkpt lat="41.69591345562634" lon="-8.451575463295177"><ele>466.59999999999997</ele><time>2026-04-18T16:18:05Z</time></trkpt><trkpt lat="41.69579543690946" lon="-8.451531417669868"><ele>464.79999999999995</ele><time>2026-04-18T16:18:07Z</time></trkpt><trkpt lat="41.695686020596625" lon="-8.45148312015051"><ele>463.0</ele><time>2026-04-18T16:18:09Z</time></trkpt><trkpt lat="41.69562601115835" lon="-8.451451667741399"><ele>463.0</ele><time>2026-04-18T16:18:10Z</time></trkpt><trkpt lat="41.69552782880019" lon="-8.451434418453855"><ele>462.99999999999994</ele><time>2026-04-18T16:18:12Z</time></trkpt><trkpt lat="41.69541537961334" lon="-8.451401756260442"><ele>462.99999999999994</ele><time>2026-04-18T16:18:14Z</time></trkpt><trkpt lat="41.69530671297705" lon="-8.451352447341609"><ele>463.0</ele><time>2026-04-18T16:18:16Z</time></trkpt><trkpt lat="41.695243098635316" lon="-8.451312066246604"><ele>463.0</ele><time>2026-04-18T16:18:17Z</time></trkpt><trkpt lat="41.69519161068272" lon="-8.45123581212555"><ele>459.59999999999997</ele><time>2026-04-18T16:18:18Z</time></trkpt><trkpt lat="41.69515063423711" lon="-8.451166370923707"><ele>456.19999999999993</ele><time>2026-04-18T16:18:19Z</time></trkpt><trkpt lat="41.69510643801727" lon="-8.451101910547516"><ele>452.8</ele><time>2026-04-18T16:18:20Z</time></trkpt><trkpt lat="41.69503572753946" lon="-8.450982459966824"><ele>449.4</ele><time>2026-04-18T16:18:22Z</time></trkpt><trkpt lat="41.69497312617161" lon="-8.450867021668031"><ele>446.0</ele><time>2026-04-18T16:18:24Z</time></trkpt><trkpt lat="41.694891084138334" lon="-8.450776731499293"><ele>445.99999999999994</ele><time>2026-04-18T16:18:26Z</time></trkpt><trkpt lat="41.694800316219506" lon="-8.450678338970791"><ele>446.0</ele><time>2026-04-18T16:18:28Z</time></trkpt><trkpt lat="41.694750852644916" lon="-8.450624808843902"><ele>446.0</ele><time>2026-04-18T16:18:29Z</time></trkpt><trkpt lat="41.694669056614764" lon="-8.450572056027122"><ele>446.0</ele><time>2026-04-18T16:18:31Z</time></trkpt><trkpt lat="41.69459772584284" lon="-8.450515364803644"><ele>445.99999999999994</ele><time>2026-04-18T16:18:34Z</time></trkpt><trkpt lat="41.694540385362075" lon="-8.4504784064037"><ele>446.0</ele><time>2026-04-18T16:18:37Z</time></trkpt><trkpt lat="41.6944937456094" lon="-8.450409306378583"><ele>445.6</ele><time>2026-04-18T16:19:02Z</time></trkpt><trkpt lat="41.69442616257842" lon="-8.450365815919415"><ele>445.20000000000005</ele><time>2026-04-18T16:19:06Z</time></trkpt><trkpt lat="41.69431237114264" lon="-8.450279268275414"><ele>444.79999999999995</ele><time>2026-04-18T16:19:08Z</time></trkpt><trkpt lat="41.69419620931772" lon="-8.450195870758172"><ele>444.4</ele><time>2026-04-18T16:19:10Z</time></trkpt><trkpt lat="41.69411312251707" lon="-8.45013891651601"><ele>444.0</ele><time>2026-04-18T16:19:11Z</time></trkpt><trkpt lat="41.69403419386166" lon="-8.45008773229891"><ele>441.8333333333333</ele><time>2026-04-18T16:19:12Z</time></trkpt><trkpt lat="41.69395668638007" lon="-8.450043331324334"><ele>439.66666666666663</ele><time>2026-04-18T16:19:13Z</time></trkpt><trkpt lat="41.69388191201411" lon="-8.449986093169779"><ele>437.5</ele><time>2026-04-18T16:19:14Z</time></trkpt><trkpt lat="41.69380779289924" lon="-8.44992443263403"><ele>435.3333333333333</ele><time>2026-04-18T16:19:15Z</time></trkpt><trkpt lat="41.69373730290757" lon="-8.449864488383394"><ele>433.16666666666663</ele><time>2026-04-18T16:19:16Z</time></trkpt><trkpt lat="41.693676783784575" lon="-8.449810974825464"><ele>431.0</ele><time>2026-04-18T16:19:17Z</time></trkpt><trkpt lat="41.69356576258045" lon="-8.449736730733704"><ele>427.4</ele><time>2026-04-18T16:19:19Z</time></trkpt><trkpt lat="41.69346099473268" lon="-8.449608616539791"><ele>423.8</ele><time>2026-04-18T16:19:21Z</time></trkpt><trkpt lat="41.69340558638887" lon="-8.449528762542386"><ele>420.2</ele><time>2026-04-18T16:19:22Z</time></trkpt><trkpt lat="41.69336125826767" lon="-8.44945883172277"><ele>416.59999999999997</ele><time>2026-04-18T16:19:23Z</time></trkpt><trkpt lat="41.69328734971777" lon="-8.44933628044806"><ele>413.0</ele><time>2026-04-18T16:19:25Z</time></trkpt><trkpt lat="41.693219063424" lon="-8.449244375291407"><ele>413.0</ele><time>2026-04-18T16:19:27Z</time></trkpt><trkpt lat="41.693121596725106" lon="-8.449255954471775"><ele>413.0</ele><time>2026-04-18T16:19:29Z</time></trkpt><trkpt lat="41.6930736194928" lon="-8.449323257988201"><ele>413.0</ele><time>2026-04-18T16:19:30Z</time></trkpt><trkpt lat="41.69303512255477" lon="-8.449483532846942"><ele>413.0</ele><time>2026-04-18T16:19:32Z</time></trkpt><trkpt lat="41.69300778057797" lon="-8.44958373137664"><ele>413.0</ele><time>2026-04-18T16:19:33Z</time></trkpt><trkpt lat="41.692975596051646" lon="-8.449691146844605"><ele>412.59999999999997</ele><time>2026-04-18T16:19:34Z</time></trkpt><trkpt lat="41.69294706611882" lon="-8.449793911279324"><ele>412.2</ele><time>2026-04-18T16:19:35Z</time></trkpt><trkpt lat="41.692910498049194" lon="-8.449907045292457"><ele>411.8</ele><time>2026-04-18T16:19:36Z</time></trkpt><trkpt lat="41.692853823039684" lon="-8.450025089191634"><ele>411.4</ele><time>2026-04-18T16:19:37Z</time></trkpt><trkpt lat="41.69277699540015" lon="-8.45014130987695"><ele>411.0</ele><time>2026-04-18T16:19:38Z</time></trkpt><trkpt lat="41.69268582979832" lon="-8.450240828663393"><ele>411.0</ele><time>2026-04-18T16:19:39Z</time></trkpt><trkpt lat="41.69259307435358" lon="-8.450324762328524"><ele>411.0</ele><time>2026-04-18T16:19:40Z</time></trkpt><trkpt lat="41.69249819971012" lon="-8.450380988201397"><ele>411.0</ele><time>2026-04-18T16:19:41Z</time></trkpt><trkpt lat="41.69240623459184" lon="-8.45042691583362"><ele>411.0</ele><time>2026-04-18T16:19:42Z</time></trkpt><trkpt lat="41.69230493171959" lon="-8.45046257513245"><ele>411.0</ele><time>2026-04-18T16:19:43Z</time></trkpt><trkpt lat="41.692196638028676" lon="-8.450497111019592"><ele>415.20000000000005</ele><time>2026-04-18T16:19:44Z</time></trkpt><trkpt lat="41.692102282267534" lon="-8.45054986938525"><ele>419.40000000000003</ele><time>2026-04-18T16:19:45Z</time></trkpt><trkpt lat="41.69201461631077" lon="-8.450597345971916"><ele>423.6</ele><time>2026-04-18T16:19:46Z</time></trkpt><trkpt lat="41.691932071406605" lon="-8.450639819499104"><ele>427.8</ele><time>2026-04-18T16:19:47Z</time></trkpt><trkpt lat="41.69182725951365" lon="-8.450671764637441"><ele>432.0</ele><time>2026-04-18T16:19:48Z</time></trkpt><trkpt lat="41.69173300924434" lon="-8.450683194086396"><ele>432.0</ele><time>2026-04-18T16:19:49Z</time></trkpt><trkpt lat="41.691653747575785" lon="-8.450690940316653"><ele>432.0</ele><time>2026-04-18T16:19:50Z</time></trkpt><trkpt lat="41.69157998971618" lon="-8.450702110344585"><ele>432.0</ele><time>2026-04-18T16:19:51Z</time></trkpt><trkpt lat="41.69150236554262" lon="-8.450714631125058"><ele>432.0</ele><time>2026-04-18T16:19:52Z</time></trkpt><trkpt lat="41.6914296402638" lon="-8.450723312760244"><ele>432.0</ele><time>2026-04-18T16:19:53Z</time></trkpt><trkpt lat="41.69135716002639" lon="-8.45071638955283"><ele>432.0</ele><time>2026-04-18T16:19:54Z</time></trkpt><trkpt lat="41.691286960988364" lon="-8.45069303861246"><ele>432.0</ele><time>2026-04-18T16:19:55Z</time></trkpt><trkpt lat="41.69121637428327" lon="-8.450658912261733"><ele>432.0</ele><time>2026-04-18T16:19:56Z</time></trkpt><trkpt lat="41.69116021360069" lon="-8.450600400787494"><ele>432.0</ele><time>2026-04-18T16:19:57Z</time></trkpt><trkpt lat="41.69105264754552" lon="-8.450534443540407"><ele>432.0</ele><time>2026-04-18T16:19:59Z</time></trkpt><trkpt lat="41.69098367935945" lon="-8.45055766582872"><ele>432.0</ele><time>2026-04-18T16:20:00Z</time></trkpt><trkpt lat="41.6909222752533" lon="-8.45058935698826"><ele>432.0</ele><time>2026-04-18T16:20:01Z</time></trkpt><trkpt lat="41.690806724466725" lon="-8.450652561520814"><ele>431.0</ele><time>2026-04-18T16:20:03Z</time></trkpt><trkpt lat="41.69073573588415" lon="-8.450694943659242"><ele>430.0</ele><time>2026-04-18T16:20:04Z</time></trkpt><trkpt lat="41.690664683132475" lon="-8.45074706158857"><ele>429.0</ele><time>2026-04-18T16:20:05Z</time></trkpt><trkpt lat="41.690603306475396" lon="-8.450811282826121"><ele>428.0</ele><time>2026-04-18T16:20:06Z</time></trkpt><trkpt lat="41.69054551340617" lon="-8.450851448032841"><ele>427.0</ele><time>2026-04-18T16:20:07Z</time></trkpt><trkpt lat="41.69048014984877" lon="-8.450884559551724"><ele>426.0</ele><time>2026-04-18T16:20:08Z</time></trkpt><trkpt lat="41.690421152055954" lon="-8.450923526173307"><ele>425.0</ele><time>2026-04-18T16:20:09Z</time></trkpt><trkpt lat="41.690315529360525" lon="-8.450962556052712"><ele>422.2</ele><time>2026-04-18T16:20:11Z</time></trkpt><trkpt lat="41.690204794605826" lon="-8.450955412775697"><ele>419.4</ele><time>2026-04-18T16:20:13Z</time></trkpt><trkpt lat="41.6900880139867" lon="-8.45092732313643"><ele>416.6</ele><time>2026-04-18T16:20:15Z</time></trkpt><trkpt lat="41.69002455212517" lon="-8.450904144749178"><ele>413.8</ele><time>2026-04-18T16:20:16Z</time></trkpt><trkpt lat="41.6899621400015" lon="-8.450884172613396"><ele>411.0</ele><time>2026-04-18T16:20:17Z</time></trkpt><trkpt lat="41.68984232377588" lon="-8.450836506923515"><ele>411.0</ele><time>2026-04-18T16:20:19Z</time></trkpt><trkpt lat="41.689777419714474" lon="-8.450800628083625"><ele>411.0</ele><time>2026-04-18T16:20:20Z</time></trkpt><trkpt lat="41.689672558206176" lon="-8.450719940669494"><ele>411.0</ele><time>2026-04-18T16:20:22Z</time></trkpt><trkpt lat="41.68961049333019" lon="-8.450683105827911"><ele>411.0</ele><time>2026-04-18T16:20:23Z</time></trkpt><trkpt lat="41.68954516377953" lon="-8.450651206666901"><ele>411.0</ele><time>2026-04-18T16:20:24Z</time></trkpt><trkpt lat="41.6894838055145" lon="-8.450604938132688"><ele>411.0</ele><time>2026-04-18T16:20:25Z</time></trkpt><trkpt lat="41.68942126260463" lon="-8.45057123022598"><ele>409.1666666666667</ele><time>2026-04-18T16:20:26Z</time></trkpt><trkpt lat="41.68935226858637" lon="-8.450546809732073"><ele>407.33333333333337</ele><time>2026-04-18T16:20:27Z</time></trkpt><trkpt lat="41.689285920573205" lon="-8.450522873135515"><ele>405.5</ele><time>2026-04-18T16:20:28Z</time></trkpt><trkpt lat="41.689213983933236" lon="-8.450509384975474"><ele>403.6666666666667</ele><time>2026-04-18T16:20:29Z</time></trkpt><trkpt lat="41.689147525189455" lon="-8.450498569338546"><ele>401.83333333333337</ele><time>2026-04-18T16:20:30Z</time></trkpt><trkpt lat="41.6890252723497" lon="-8.450474094751902"><ele>400.0</ele><time>2026-04-18T16:20:32Z</time></trkpt><trkpt lat="41.688900233714065" lon="-8.450467504780615"><ele>400.00000000000006</ele><time>2026-04-18T16:20:34Z</time></trkpt><trkpt lat="41.68883722759653" lon="-8.450454189664772"><ele>400.0</ele><time>2026-04-18T16:20:35Z</time></trkpt><trkpt lat="41.68876264250495" lon="-8.45046275758936"><ele>400.0</ele><time>2026-04-18T16:20:36Z</time></trkpt><trkpt lat="41.68870212033603" lon="-8.450488780108772"><ele>400.0</ele><time>2026-04-18T16:20:37Z</time></trkpt><trkpt lat="41.68859098555187" lon="-8.450541038148081"><ele>400.00000000000006</ele><time>2026-04-18T16:20:39Z</time></trkpt><trkpt lat="41.68849525343327" lon="-8.450583589730288"><ele>400.0</ele><time>2026-04-18T16:20:41Z</time></trkpt><trkpt lat="41.68842912460787" lon="-8.450624883873601"><ele>397.6666666666667</ele><time>2026-04-18T16:20:43Z</time></trkpt><trkpt lat="41.68837366379265" lon="-8.450573144107878"><ele>395.33333333333337</ele><time>2026-04-18T16:20:48Z</time></trkpt><trkpt lat="41.68840162716814" lon="-8.450483933896573"><ele>393.0</ele><time>2026-04-18T16:20:50Z</time></trkpt><trkpt lat="41.688443157937535" lon="-8.450401359982862"><ele>390.66666666666663</ele><time>2026-04-18T16:20:52Z</time></trkpt><trkpt lat="41.68847579586663" lon="-8.450328517490037"><ele>388.3333333333333</ele><time>2026-04-18T16:20:53Z</time></trkpt><trkpt lat="41.68851174606567" lon="-8.450184017615946"><ele>386.0</ele><time>2026-04-18T16:20:55Z</time></trkpt><trkpt lat="41.68852846479001" lon="-8.450094478395615"><ele>385.99999999999994</ele><time>2026-04-18T16:20:56Z</time></trkpt><trkpt lat="41.68856954392319" lon="-8.450006849385495"><ele>386.0</ele><time>2026-04-18T16:20:57Z</time></trkpt><trkpt lat="41.688607805196035" lon="-8.449927117659355"><ele>386.0</ele><time>2026-04-18T16:20:58Z</time></trkpt><trkpt lat="41.688644748715646" lon="-8.449855731431999"><ele>386.0</ele><time>2026-04-18T16:20:59Z</time></trkpt><trkpt lat="41.68867065828257" lon="-8.449776183340932"><ele>385.99999999999994</ele><time>2026-04-18T16:21:00Z</time></trkpt><trkpt lat="41.68872358593818" lon="-8.449646859637667"><ele>386.0</ele><time>2026-04-18T16:21:02Z</time></trkpt><trkpt lat="41.68878557615763" lon="-8.449491110466418"><ele>383.8333333333333</ele><time>2026-04-18T16:21:04Z</time></trkpt><trkpt lat="41.68883302563999" lon="-8.449391458529433"><ele>381.66666666666663</ele><time>2026-04-18T16:21:05Z</time></trkpt><trkpt lat="41.68887199620867" lon="-8.449305232289765"><ele>379.5</ele><time>2026-04-18T16:21:06Z</time></trkpt><trkpt lat="41.688891412668234" lon="-8.449218746003204"><ele>377.3333333333333</ele><time>2026-04-18T16:21:07Z</time></trkpt><trkpt lat="41.68890694961448" lon="-8.449117397548761"><ele>375.16666666666663</ele><time>2026-04-18T16:21:08Z</time></trkpt><trkpt lat="41.6889249987409" lon="-8.449022767358965"><ele>373.0</ele><time>2026-04-18T16:21:09Z</time></trkpt><trkpt lat="41.688957102238724" lon="-8.448918425029193"><ele>373.0</ele><time>2026-04-18T16:21:10Z</time></trkpt><trkpt lat="41.688974606307696" lon="-8.448835774493261"><ele>373.0</ele><time>2026-04-18T16:21:11Z</time></trkpt><trkpt lat="41.68898278011223" lon="-8.44873249332621"><ele>373.0</ele><time>2026-04-18T16:21:12Z</time></trkpt><trkpt lat="41.68898138980432" lon="-8.448620148015177"><ele>373.0</ele><time>2026-04-18T16:21:13Z</time></trkpt><trkpt lat="41.68898546410316" lon="-8.448505122103912"><ele>373.0</ele><time>2026-04-18T16:21:14Z</time></trkpt><trkpt lat="41.68899335023621" lon="-8.448415133553402"><ele>373.0</ele><time>2026-04-18T16:21:15Z</time></trkpt><trkpt lat="41.68901077096352" lon="-8.448322793362355"><ele>371.5</ele><time>2026-04-18T16:21:16Z</time></trkpt><trkpt lat="41.68904618270285" lon="-8.44818801931093"><ele>370.0</ele><time>2026-04-18T16:21:18Z</time></trkpt><trkpt lat="41.689014572211555" lon="-8.448112328176483"><ele>368.5</ele><time>2026-04-18T16:21:19Z</time></trkpt><trkpt lat="41.68896048439443" lon="-8.44803699165782"><ele>367.0</ele><time>2026-04-18T16:21:20Z</time></trkpt><trkpt lat="41.688913082673935" lon="-8.447957843537074"><ele>365.5</ele><time>2026-04-18T16:21:21Z</time></trkpt><trkpt lat="41.688856236554045" lon="-8.44790251481806"><ele>364.0</ele><time>2026-04-18T16:21:22Z</time></trkpt><trkpt lat="41.6887855402036" lon="-8.44786476533893"><ele>364.0</ele><time>2026-04-18T16:21:23Z</time></trkpt><trkpt lat="41.6887127360056" lon="-8.44783083411013"><ele>364.0</ele><time>2026-04-18T16:21:24Z</time></trkpt><trkpt lat="41.68863365042392" lon="-8.447798613425004"><ele>364.0</ele><time>2026-04-18T16:21:25Z</time></trkpt><trkpt lat="41.68855996627442" lon="-8.4477447255043"><ele>364.0</ele><time>2026-04-18T16:21:26Z</time></trkpt><trkpt lat="41.68848422518633" lon="-8.447708840810865"><ele>364.0</ele><time>2026-04-18T16:21:27Z</time></trkpt><trkpt lat="41.68840665351324" lon="-8.447664543586857"><ele>364.0</ele><time>2026-04-18T16:21:28Z</time></trkpt><trkpt lat="41.68834147284106" lon="-8.447621318938705"><ele>362.4</ele><time>2026-04-18T16:21:29Z</time></trkpt><trkpt lat="41.688245306782214" lon="-8.44754621337363"><ele>360.79999999999995</ele><time>2026-04-18T16:21:31Z</time></trkpt><trkpt lat="41.68818845438654" lon="-8.44750663390668"><ele>359.20000000000005</ele><time>2026-04-18T16:21:32Z</time></trkpt><trkpt lat="41.68809175289826" lon="-8.447401912341729"><ele>357.6</ele><time>2026-04-18T16:21:34Z</time></trkpt><trkpt lat="41.68798492216425" lon="-8.447308010260713"><ele>356.0</ele><time>2026-04-18T16:21:36Z</time></trkpt><trkpt lat="41.68792700717618" lon="-8.447253009007543"><ele>356.0</ele><time>2026-04-18T16:21:37Z</time></trkpt><trkpt lat="41.68786874014811" lon="-8.44721126370901"><ele>356.0</ele><time>2026-04-18T16:21:38Z</time></trkpt><trkpt lat="41.6878109577794" lon="-8.447160849732969"><ele>356.0</ele><time>2026-04-18T16:21:39Z</time></trkpt><trkpt lat="41.68775080439368" lon="-8.447115983329946"><ele>356.0</ele><time>2026-04-18T16:21:40Z</time></trkpt><trkpt lat="41.68764744783888" lon="-8.447062186040842"><ele>356.0</ele><time>2026-04-18T16:21:42Z</time></trkpt><trkpt lat="41.687570026634546" lon="-8.44704803160701"><ele>356.0</ele><time>2026-04-18T16:21:44Z</time></trkpt><trkpt lat="41.68747927659249" lon="-8.446956233301153"><ele>352.6666666666667</ele><time>2026-04-18T16:21:46Z</time></trkpt><trkpt lat="41.68741865989366" lon="-8.446929254413051"><ele>349.33333333333337</ele><time>2026-04-18T16:21:47Z</time></trkpt><trkpt lat="41.687311879963936" lon="-8.446853797299612"><ele>346.0</ele><time>2026-04-18T16:21:49Z</time></trkpt><trkpt lat="41.68725591621697" lon="-8.446798315935817"><ele>342.6666666666667</ele><time>2026-04-18T16:21:50Z</time></trkpt><trkpt lat="41.68719685697859" lon="-8.446743325742437"><ele>339.3333333333333</ele><time>2026-04-18T16:21:51Z</time></trkpt><trkpt lat="41.68714534818001" lon="-8.446671620319583"><ele>336.0</ele><time>2026-04-18T16:21:52Z</time></trkpt><trkpt lat="41.68707055191335" lon="-8.446562383809923"><ele>336.0</ele><time>2026-04-18T16:21:54Z</time></trkpt><trkpt lat="41.686999158609055" lon="-8.446460779885298"><ele>336.0</ele><time>2026-04-18T16:21:56Z</time></trkpt><trkpt lat="41.686928798218105" lon="-8.44643211455018"><ele>336.0</ele><time>2026-04-18T16:21:57Z</time></trkpt><trkpt lat="41.6868082868672" lon="-8.446374859742276"><ele>336.0</ele><time>2026-04-18T16:21:59Z</time></trkpt><trkpt lat="41.686742914828486" lon="-8.446365306517457"><ele>336.0</ele><time>2026-04-18T16:22:00Z</time></trkpt><trkpt lat="41.686683108678544" lon="-8.446395636428917"><ele>336.0</ele><time>2026-04-18T16:22:01Z</time></trkpt><trkpt lat="41.686615965717706" lon="-8.446422628648858"><ele>334.0</ele><time>2026-04-18T16:22:02Z</time></trkpt><trkpt lat="41.68655057502568" lon="-8.446457892588363"><ele>332.0</ele><time>2026-04-18T16:22:03Z</time></trkpt><trkpt lat="41.68647760051841" lon="-8.446503841935286"><ele>330.0</ele><time>2026-04-18T16:22:04Z</time></trkpt><trkpt lat="41.686407971069535" lon="-8.446539148760822"><ele>328.0</ele><time>2026-04-18T16:22:05Z</time></trkpt><trkpt lat="41.68634433501307" lon="-8.446568770838738"><ele>326.0</ele><time>2026-04-18T16:22:06Z</time></trkpt><trkpt lat="41.68628045912899" lon="-8.44659833582366"><ele>324.0</ele><time>2026-04-18T16:22:07Z</time></trkpt><trkpt lat="41.68619099330048" lon="-8.446682197627705"><ele>324.0</ele><time>2026-04-18T16:22:09Z</time></trkpt><trkpt lat="41.68611823720507" lon="-8.446756148187271"><ele>324.0</ele><time>2026-04-18T16:22:11Z</time></trkpt><trkpt lat="41.68603649540902" lon="-8.446829336596622"><ele>324.0</ele><time>2026-04-18T16:22:13Z</time></trkpt><trkpt lat="41.685980068029814" lon="-8.446870156382811"><ele>324.0</ele><time>2026-04-18T16:22:14Z</time></trkpt><trkpt lat="41.685930273373565" lon="-8.446926230567989"><ele>324.0</ele><time>2026-04-18T16:22:15Z</time></trkpt><trkpt lat="41.68584491673976" lon="-8.447018876429702"><ele>324.0</ele><time>2026-04-18T16:22:17Z</time></trkpt><trkpt lat="41.68579217839231" lon="-8.447069466394812"><ele>321.6666666666667</ele><time>2026-04-18T16:22:18Z</time></trkpt><trkpt lat="41.68574627124328" lon="-8.447131262125843"><ele>319.3333333333333</ele><time>2026-04-18T16:22:19Z</time></trkpt><trkpt lat="41.68569425894279" lon="-8.447206817624615"><ele>317.0</ele><time>2026-04-18T16:22:20Z</time></trkpt><trkpt lat="41.68562991284557" lon="-8.447287419183935"><ele>314.66666666666663</ele><time>2026-04-18T16:22:22Z</time></trkpt><trkpt lat="41.685544253035566" lon="-8.447318667835697"><ele>312.3333333333333</ele><time>2026-04-18T16:22:24Z</time></trkpt><trkpt lat="41.68544663848756" lon="-8.447378681918536"><ele>310.0</ele><time>2026-04-18T16:22:26Z</time></trkpt><trkpt lat="41.685353817089805" lon="-8.447430429979812"><ele>306.0</ele><time>2026-04-18T16:22:28Z</time></trkpt><trkpt lat="41.68524718432183" lon="-8.447485145061911"><ele>302.0</ele><time>2026-04-18T16:22:30Z</time></trkpt><trkpt lat="41.685145339303276" lon="-8.447537527600181"><ele>298.0</ele><time>2026-04-18T16:22:32Z</time></trkpt><trkpt lat="41.68510689211537" lon="-8.44760612994646"><ele>294.0</ele><time>2026-04-18T16:22:33Z</time></trkpt><trkpt lat="41.68507766929428" lon="-8.447694273860712"><ele>290.0</ele><time>2026-04-18T16:22:34Z</time></trkpt><trkpt lat="41.68503796983276" lon="-8.447829364206449"><ele>290.0</ele><time>2026-04-18T16:22:36Z</time></trkpt><trkpt lat="41.68496758440006" lon="-8.4479335107017"><ele>290.0</ele><time>2026-04-18T16:22:38Z</time></trkpt><trkpt lat="41.68491928420702" lon="-8.44799794041477"><ele>290.0</ele><time>2026-04-18T16:22:39Z</time></trkpt><trkpt lat="41.684859483706006" lon="-8.44804214050527"><ele>290.0</ele><time>2026-04-18T16:22:40Z</time></trkpt><trkpt lat="41.684797037549096" lon="-8.448063611470833"><ele>290.0</ele><time>2026-04-18T16:22:41Z</time></trkpt><trkpt lat="41.684733236150976" lon="-8.448089524130491"><ele>290.0</ele><time>2026-04-18T16:22:42Z</time></trkpt><trkpt lat="41.68466905879507" lon="-8.448108253435906"><ele>290.0</ele><time>2026-04-18T16:22:43Z</time></trkpt><trkpt lat="41.68460383767758" lon="-8.448130219579"><ele>289.7142857142857</ele><time>2026-04-18T16:22:44Z</time></trkpt><trkpt lat="41.684541860378836" lon="-8.448168779921726"><ele>289.42857142857144</ele><time>2026-04-18T16:22:45Z</time></trkpt><trkpt lat="41.68448598131096" lon="-8.448209801584317"><ele>289.14285714285717</ele><time>2026-04-18T16:22:46Z</time></trkpt><trkpt lat="41.68442116699107" lon="-8.448254052154592"><ele>288.8571428571429</ele><time>2026-04-18T16:22:47Z</time></trkpt><trkpt lat="41.68435702870969" lon="-8.448305915832359"><ele>288.57142857142856</ele><time>2026-04-18T16:22:48Z</time></trkpt><trkpt lat="41.68429787578205" lon="-8.4483970001195"><ele>288.28571428571433</ele><time>2026-04-18T16:22:49Z</time></trkpt><trkpt lat="41.684248016970194" lon="-8.448477346804726"><ele>288.0</ele><time>2026-04-18T16:22:50Z</time></trkpt><trkpt lat="41.68421065514266" lon="-8.448548009528276"><ele>288.0</ele><time>2026-04-18T16:22:51Z</time></trkpt><trkpt lat="41.68412499129448" lon="-8.44864559340575"><ele>288.0</ele><time>2026-04-18T16:22:53Z</time></trkpt><trkpt lat="41.684034771728896" lon="-8.448685620007696"><ele>288.0</ele><time>2026-04-18T16:22:55Z</time></trkpt><trkpt lat="41.68392001799546" lon="-8.448701783981775"><ele>288.0</ele><time>2026-04-18T16:22:57Z</time></trkpt><trkpt lat="41.683817180080304" lon="-8.448651893718841"><ele>288.0</ele><time>2026-04-18T16:22:59Z</time></trkpt><trkpt lat="41.683722683576654" lon="-8.448581824258452"><ele>288.0</ele><time>2026-04-18T16:23:01Z</time></trkpt><trkpt lat="41.683614302472456" lon="-8.448501155004552"><ele>288.0</ele><time>2026-04-18T16:23:03Z</time></trkpt><trkpt lat="41.68350359140331" lon="-8.44848809383187"><ele>288.0</ele><time>2026-04-18T16:23:05Z</time></trkpt><trkpt lat="41.68344107358495" lon="-8.448473137977931"><ele>288.0</ele><time>2026-04-18T16:23:06Z</time></trkpt><trkpt lat="41.68334640778978" lon="-8.448402439593798"><ele>288.0</ele><time>2026-04-18T16:23:08Z</time></trkpt><trkpt lat="41.683301071878084" lon="-8.448331557044396"><ele>286.2</ele><time>2026-04-18T16:23:09Z</time></trkpt><trkpt lat="41.68324158792069" lon="-8.44820810630015"><ele>284.4</ele><time>2026-04-18T16:23:11Z</time></trkpt><trkpt lat="41.68314238867489" lon="-8.448150877744826"><ele>282.59999999999997</ele><time>2026-04-18T16:23:13Z</time></trkpt><trkpt lat="41.68307643551964" lon="-8.44815697107659"><ele>280.8</ele><time>2026-04-18T16:23:14Z</time></trkpt><trkpt lat="41.68297654464856" lon="-8.44820126076039"><ele>279.0</ele><time>2026-04-18T16:23:16Z</time></trkpt><trkpt lat="41.68287805768353" lon="-8.448223986052177"><ele>279.0</ele><time>2026-04-18T16:23:18Z</time></trkpt><trkpt lat="41.68278504276937" lon="-8.44823161908722"><ele>279.0</ele><time>2026-04-18T16:23:20Z</time></trkpt><trkpt lat="41.682675265657515" lon="-8.44826295453031"><ele>279.0</ele><time>2026-04-18T16:23:22Z</time></trkpt><trkpt lat="41.68257425454788" lon="-8.448257007424008"><ele>279.0</ele><time>2026-04-18T16:23:24Z</time></trkpt><trkpt lat="41.68254231362859" lon="-8.448155120063316"><ele>279.0</ele><time>2026-04-18T16:23:26Z</time></trkpt><trkpt lat="41.682576504470646" lon="-8.447988362856133"><ele>276.8333333333333</ele><time>2026-04-18T16:23:28Z</time></trkpt><trkpt lat="41.68261758283918" lon="-8.447878002597962"><ele>274.6666666666667</ele><time>2026-04-18T16:23:29Z</time></trkpt><trkpt lat="41.682681359854264" lon="-8.447764698552596"><ele>272.5</ele><time>2026-04-18T16:23:30Z</time></trkpt><trkpt lat="41.68273971723626" lon="-8.447678767359438"><ele>270.33333333333337</ele><time>2026-04-18T16:23:31Z</time></trkpt><trkpt lat="41.682789075670556" lon="-8.447590533821646"><ele>268.1666666666667</ele><time>2026-04-18T16:23:32Z</time></trkpt><trkpt lat="41.68282703082417" lon="-8.447510059508113"><ele>266.0</ele><time>2026-04-18T16:23:33Z</time></trkpt><trkpt lat="41.68284048351308" lon="-8.447425914063789"><ele>266.0</ele><time>2026-04-18T16:23:34Z</time></trkpt><trkpt lat="41.68283682415391" lon="-8.44733950295458"><ele>266.0</ele><time>2026-04-18T16:23:35Z</time></trkpt><trkpt lat="41.682819669016425" lon="-8.447242827300185"><ele>266.0</ele><time>2026-04-18T16:23:36Z</time></trkpt><trkpt lat="41.682801253139054" lon="-8.447153494389124"><ele>266.0</ele><time>2026-04-18T16:23:37Z</time></trkpt><trkpt lat="41.68281967271425" lon="-8.446988210242914"><ele>266.0</ele><time>2026-04-18T16:23:39Z</time></trkpt><trkpt lat="41.68284251273254" lon="-8.446898604962712"><ele>266.0</ele><time>2026-04-18T16:23:40Z</time></trkpt><trkpt lat="41.682885721526326" lon="-8.446808485052902"><ele>263.2</ele><time>2026-04-18T16:23:41Z</time></trkpt><trkpt lat="41.68291451862274" lon="-8.446728143640975"><ele>260.40000000000003</ele><time>2026-04-18T16:23:42Z</time></trkpt><trkpt lat="41.682958805783876" lon="-8.446591309123491"><ele>257.6</ele><time>2026-04-18T16:23:44Z</time></trkpt><trkpt lat="41.682988417799564" lon="-8.44647309718591"><ele>254.8</ele><time>2026-04-18T16:23:46Z</time></trkpt><trkpt lat="41.68306102436707" lon="-8.446381768295222"><ele>252.0</ele><time>2026-04-18T16:23:48Z</time></trkpt><trkpt lat="41.68314325523296" lon="-8.446270398123112"><ele>250.66666666666666</ele><time>2026-04-18T16:23:50Z</time></trkpt><trkpt lat="41.68320530676642" lon="-8.446185284726809"><ele>249.33333333333331</ele><time>2026-04-18T16:23:52Z</time></trkpt><trkpt lat="41.68323324539192" lon="-8.446089871176214"><ele>248.0</ele><time>2026-04-18T16:23:54Z</time></trkpt><trkpt lat="41.68321381090651" lon="-8.445972909614525"><ele>246.66666666666666</ele><time>2026-04-18T16:23:56Z</time></trkpt><trkpt lat="41.6831662584874" lon="-8.445840704594124"><ele>245.33333333333331</ele><time>2026-04-18T16:23:58Z</time></trkpt><trkpt lat="41.68312217372355" lon="-8.445776867906265"><ele>244.0</ele><time>2026-04-18T16:23:59Z</time></trkpt><trkpt lat="41.68304975741947" lon="-8.445662342364697"><ele>244.0</ele><time>2026-04-18T16:24:01Z</time></trkpt><trkpt lat="41.68300736944932" lon="-8.445522618655643"><ele>243.99999999999997</ele><time>2026-04-18T16:24:03Z</time></trkpt><trkpt lat="41.68302170740423" lon="-8.445365376784801"><ele>243.99999999999997</ele><time>2026-04-18T16:24:05Z</time></trkpt><trkpt lat="41.68305500842561" lon="-8.445276610439693"><ele>244.0</ele><time>2026-04-18T16:24:06Z</time></trkpt><trkpt lat="41.683093386830535" lon="-8.44518593967765"><ele>244.0</ele><time>2026-04-18T16:24:07Z</time></trkpt><trkpt lat="41.68313475105329" lon="-8.445106296799464"><ele>243.49999999999997</ele><time>2026-04-18T16:24:08Z</time></trkpt><trkpt lat="41.683170592538886" lon="-8.445012000357908"><ele>243.0</ele><time>2026-04-18T16:24:09Z</time></trkpt><trkpt lat="41.68319136651312" lon="-8.444911921032656"><ele>242.5</ele><time>2026-04-18T16:24:10Z</time></trkpt><trkpt lat="41.68321784071857" lon="-8.444827812076099"><ele>242.0</ele><time>2026-04-18T16:24:11Z</time></trkpt><trkpt lat="41.683226261014354" lon="-8.444742903501355"><ele>241.49999999999997</ele><time>2026-04-18T16:24:12Z</time></trkpt><trkpt lat="41.68325008538309" lon="-8.444650176090418"><ele>241.0</ele><time>2026-04-18T16:24:13Z</time></trkpt><trkpt lat="41.683191154955786" lon="-8.444523134674245"><ele>238.4</ele><time>2026-04-18T16:24:15Z</time></trkpt><trkpt lat="41.6830718922234" lon="-8.4444836100925"><ele>235.8</ele><time>2026-04-18T16:24:17Z</time></trkpt><trkpt lat="41.6829528482226" lon="-8.444505019129013"><ele>233.20000000000002</ele><time>2026-04-18T16:24:19Z</time></trkpt><trkpt lat="41.68285644534796" lon="-8.444546750801274"><ele>230.60000000000002</ele><time>2026-04-18T16:24:21Z</time></trkpt><trkpt lat="41.68277663478819" lon="-8.444590588243289"><ele>228.0</ele><time>2026-04-18T16:24:23Z</time></trkpt><trkpt lat="41.68271086460998" lon="-8.444558984783457"><ele>228.0</ele><time>2026-04-18T16:24:25Z</time></trkpt><trkpt lat="41.682698985362805" lon="-8.444456039232564"><ele>228.0</ele><time>2026-04-18T16:24:27Z</time></trkpt><trkpt lat="41.68275038744768" lon="-8.4443206471424"><ele>228.0</ele><time>2026-04-18T16:24:29Z</time></trkpt><trkpt lat="41.68279255247432" lon="-8.444241407459186"><ele>228.0</ele><time>2026-04-18T16:24:30Z</time></trkpt><trkpt lat="41.682870262847686" lon="-8.444121139472362"><ele>228.0</ele><time>2026-04-18T16:24:32Z</time></trkpt><trkpt lat="41.68294644437461" lon="-8.444012525766421"><ele>228.0</ele><time>2026-04-18T16:24:34Z</time></trkpt><trkpt lat="41.6830189947868" lon="-8.443965787190375"><ele>228.0</ele><time>2026-04-18T16:24:35Z</time></trkpt><trkpt lat="41.68315639977417" lon="-8.443882779538443"><ele>228.0</ele><time>2026-04-18T16:24:37Z</time></trkpt><trkpt lat="41.68323845523143" lon="-8.443834041534833"><ele>228.0</ele><time>2026-04-18T16:24:38Z</time></trkpt><trkpt lat="41.68331049268437" lon="-8.443806568797351"><ele>228.0</ele><time>2026-04-18T16:24:39Z</time></trkpt><trkpt lat="41.68338439469713" lon="-8.44377867949136"><ele>228.16666666666666</ele><time>2026-04-18T16:24:40Z</time></trkpt><trkpt lat="41.68344638105205" lon="-8.443762279043929"><ele>228.33333333333331</ele><time>2026-04-18T16:24:41Z</time></trkpt><trkpt lat="41.68354473156768" lon="-8.443762226074009"><ele>228.5</ele><time>2026-04-18T16:24:43Z</time></trkpt><trkpt lat="41.6836096084707" lon="-8.443767324101715"><ele>228.66666666666666</ele><time>2026-04-18T16:24:44Z</time></trkpt><trkpt lat="41.68371533239832" lon="-8.443799197208188"><ele>228.83333333333331</ele><time>2026-04-18T16:24:46Z</time></trkpt><trkpt lat="41.68378812822442" lon="-8.443815832801468"><ele>229.0</ele><time>2026-04-18T16:24:47Z</time></trkpt><trkpt lat="41.68390245079073" lon="-8.443875137927723"><ele>228.99999999999997</ele><time>2026-04-18T16:24:49Z</time></trkpt><trkpt lat="41.68398023820529" lon="-8.443958306197887"><ele>229.0</ele><time>2026-04-18T16:24:51Z</time></trkpt><trkpt lat="41.68406834651837" lon="-8.443956152649386"><ele>229.0</ele><time>2026-04-18T16:24:53Z</time></trkpt><trkpt lat="41.684139271363264" lon="-8.44390034060656"><ele>229.0</ele><time>2026-04-18T16:24:54Z</time></trkpt><trkpt lat="41.684161820737245" lon="-8.443815473302552"><ele>228.99999999999997</ele><time>2026-04-18T16:24:55Z</time></trkpt><trkpt lat="41.6841666516048" lon="-8.443730449608374"><ele>229.0</ele><time>2026-04-18T16:24:56Z</time></trkpt><trkpt lat="41.68418670481428" lon="-8.443617696419427"><ele>226.49999999999997</ele><time>2026-04-18T16:24:58Z</time></trkpt><trkpt lat="41.684196349473936" lon="-8.443506516947213"><ele>224.0</ele><time>2026-04-18T16:25:00Z</time></trkpt><trkpt lat="41.68421767558289" lon="-8.443413876503174"><ele>221.5</ele><time>2026-04-18T16:25:02Z</time></trkpt><trkpt lat="41.684223174103465" lon="-8.44326233652343"><ele>219.0</ele><time>2026-04-18T16:25:04Z</time></trkpt><trkpt lat="41.684217007604246" lon="-8.443110381499984"><ele>216.49999999999997</ele><time>2026-04-18T16:25:06Z</time></trkpt><trkpt lat="41.68421767382476" lon="-8.443024012644333"><ele>214.0</ele><time>2026-04-18T16:25:07Z</time></trkpt><trkpt lat="41.68423716805198" lon="-8.442882612009166"><ele>213.0</ele><time>2026-04-18T16:25:09Z</time></trkpt><trkpt lat="41.68424075167148" lon="-8.442732267555465"><ele>211.99999999999997</ele><time>2026-04-18T16:25:11Z</time></trkpt><trkpt lat="41.684261778038966" lon="-8.442611865142146"><ele>211.0</ele><time>2026-04-18T16:25:13Z</time></trkpt><trkpt lat="41.68427404327406" lon="-8.442483130085932"><ele>210.0</ele><time>2026-04-18T16:25:16Z</time></trkpt><trkpt lat="41.68428937087771" lon="-8.442381905373514"><ele>209.0</ele><time>2026-04-18T16:25:18Z</time></trkpt><trkpt lat="41.684307971482994" lon="-8.442268551868027"><ele>209.00000000000003</ele><time>2026-04-18T16:25:21Z</time></trkpt><trkpt lat="41.68427772166647" lon="-8.442184720337632"><ele>209.0</ele><time>2026-04-18T16:25:24Z</time></trkpt><trkpt lat="41.684211296305186" lon="-8.442142167452275"><ele>209.0</ele><time>2026-04-18T16:28:34Z</time></trkpt><trkpt lat="41.684262228296596" lon="-8.442092192155489"><ele>209.0</ele><time>2026-04-18T16:28:36Z</time></trkpt><trkpt lat="41.68432742693924" lon="-8.442034823928052"><ele>209.00000000000003</ele><time>2026-04-18T16:28:38Z</time></trkpt><trkpt lat="41.684421267085135" lon="-8.441963431198895"><ele>209.0</ele><time>2026-04-18T16:28:40Z</time></trkpt><trkpt lat="41.684483614876086" lon="-8.441945950842593"><ele>207.39999999999998</ele><time>2026-04-18T16:28:41Z</time></trkpt><trkpt lat="41.68458888565218" lon="-8.441921230245885"><ele>205.8</ele><time>2026-04-18T16:28:43Z</time></trkpt><trkpt lat="41.684689597121796" lon="-8.441829936614852"><ele>204.2</ele><time>2026-04-18T16:28:45Z</time></trkpt><trkpt lat="41.68475394448919" lon="-8.441693132151933"><ele>202.60000000000002</ele><time>2026-04-18T16:28:47Z</time></trkpt><trkpt lat="41.684738842818234" lon="-8.441606021858219"><ele>201.0</ele><time>2026-04-18T16:28:48Z</time></trkpt><trkpt lat="41.684745186189446" lon="-8.441508787048358"><ele>201.0</ele><time>2026-04-18T16:28:49Z</time></trkpt><trkpt lat="41.684755661725006" lon="-8.441418440215594"><ele>201.0</ele><time>2026-04-18T16:28:50Z</time></trkpt><trkpt lat="41.68478836267853" lon="-8.441335910048306"><ele>201.0</ele><time>2026-04-18T16:28:51Z</time></trkpt><trkpt lat="41.68482499938948" lon="-8.441262067593403"><ele>201.0</ele><time>2026-04-18T16:28:52Z</time></trkpt><trkpt lat="41.68488279735548" lon="-8.441198719549007"><ele>201.0</ele><time>2026-04-18T16:28:53Z</time></trkpt><trkpt lat="41.68492312735741" lon="-8.441121520690043"><ele>201.0</ele><time>2026-04-18T16:28:54Z</time></trkpt><trkpt lat="41.68494381329363" lon="-8.441037958808597"><ele>201.0</ele><time>2026-04-18T16:28:55Z</time></trkpt><trkpt lat="41.684947884408636" lon="-8.440933626078246"><ele>199.83333333333334</ele><time>2026-04-18T16:28:56Z</time></trkpt><trkpt lat="41.684963259179675" lon="-8.440823647617893"><ele>198.66666666666669</ele><time>2026-04-18T16:28:57Z</time></trkpt><trkpt lat="41.68497523025467" lon="-8.440717775771683"><ele>197.5</ele><time>2026-04-18T16:28:58Z</time></trkpt><trkpt lat="41.68498126446706" lon="-8.440611224032496"><ele>196.33333333333334</ele><time>2026-04-18T16:28:59Z</time></trkpt><trkpt lat="41.684986158771075" lon="-8.440520545903903"><ele>195.16666666666669</ele><time>2026-04-18T16:29:00Z</time></trkpt><trkpt lat="41.68499129887354" lon="-8.440419429864589"><ele>194.0</ele><time>2026-04-18T16:29:01Z</time></trkpt><trkpt lat="41.684995306573214" lon="-8.440312653260426"><ele>194.0</ele><time>2026-04-18T16:29:02Z</time></trkpt><trkpt lat="41.68499816828823" lon="-8.44019985602547"><ele>194.0</ele><time>2026-04-18T16:29:03Z</time></trkpt><trkpt lat="41.68499571241355" lon="-8.44009139902425"><ele>194.0</ele><time>2026-04-18T16:29:04Z</time></trkpt><trkpt lat="41.68499216450992" lon="-8.439994984766711"><ele>194.0</ele><time>2026-04-18T16:29:05Z</time></trkpt><trkpt lat="41.684977701727846" lon="-8.439889727067728"><ele>194.0</ele><time>2026-04-18T16:29:07Z</time></trkpt><trkpt lat="41.684906058243584" lon="-8.439655253764267"><ele>200.0</ele><time>2026-04-18T16:29:10Z</time></trkpt><trkpt lat="41.68529130382366" lon="-8.439632059411677"><ele>206.0</ele><time>2026-04-18T16:29:11Z</time></trkpt><trkpt lat="41.68533193950881" lon="-8.43956495641889"><ele>206.00000000000003</ele><time>2026-04-18T16:29:12Z</time></trkpt><trkpt lat="41.68538722753399" lon="-8.439501933255864"><ele>206.0</ele><time>2026-04-18T16:29:13Z</time></trkpt><trkpt lat="41.68544077803956" lon="-8.439421331484462"><ele>206.0</ele><time>2026-04-18T16:29:14Z</time></trkpt><trkpt lat="41.6854981288494" lon="-8.439278214029367"><ele>206.0</ele><time>2026-04-18T16:29:16Z</time></trkpt><trkpt lat="41.68552426212764" lon="-8.439197830817672"><ele>206.00000000000003</ele><time>2026-04-18T16:29:17Z</time></trkpt><trkpt lat="41.68555506616753" lon="-8.439100704751631"><ele>206.0</ele><time>2026-04-18T16:29:18Z</time></trkpt><trkpt lat="41.68558571895298" lon="-8.438994897365433"><ele>206.00000000000003</ele><time>2026-04-18T16:29:19Z</time></trkpt><trkpt lat="41.685615921690804" lon="-8.43889925607246"><ele>206.0</ele><time>2026-04-18T16:29:20Z</time></trkpt><trkpt lat="41.685645623254224" lon="-8.438809703741137"><ele>206.0</ele><time>2026-04-18T16:29:21Z</time></trkpt><trkpt lat="41.68568741875062" lon="-8.438712190307644"><ele>206.0</ele><time>2026-04-18T16:29:22Z</time></trkpt><trkpt lat="41.68573678700783" lon="-8.438618992506711"><ele>206.00000000000003</ele><time>2026-04-18T16:29:23Z</time></trkpt><trkpt lat="41.68578405254448" lon="-8.438516520205422"><ele>206.0</ele><time>2026-04-18T16:29:24Z</time></trkpt><trkpt lat="41.68583148678736" lon="-8.438436078698468"><ele>206.50000000000003</ele><time>2026-04-18T16:29:25Z</time></trkpt><trkpt lat="41.68586469116235" lon="-8.438353830709332"><ele>207.0</ele><time>2026-04-18T16:29:26Z</time></trkpt><trkpt lat="41.68590314492296" lon="-8.438268956426594"><ele>207.5</ele><time>2026-04-18T16:29:27Z</time></trkpt><trkpt lat="41.68595611609432" lon="-8.438185897492447"><ele>208.0</ele><time>2026-04-18T16:29:28Z</time></trkpt><trkpt lat="41.6860136349194" lon="-8.438119545397466"><ele>208.50000000000003</ele><time>2026-04-18T16:29:29Z</time></trkpt><trkpt lat="41.68608231550337" lon="-8.438059124371634"><ele>209.0</ele><time>2026-04-18T16:29:30Z</time></trkpt><trkpt lat="41.686151849499325" lon="-8.438005639136291"><ele>208.33333333333334</ele><time>2026-04-18T16:29:31Z</time></trkpt><trkpt lat="41.686218459481545" lon="-8.437942778240155"><ele>207.66666666666669</ele><time>2026-04-18T16:29:32Z</time></trkpt><trkpt lat="41.68627046917769" lon="-8.437871256034859"><ele>207.0</ele><time>2026-04-18T16:29:33Z</time></trkpt><trkpt lat="41.6863235203333" lon="-8.437788497261415"><ele>206.33333333333331</ele><time>2026-04-18T16:29:34Z</time></trkpt><trkpt lat="41.68636680003049" lon="-8.437701683364988"><ele>205.66666666666666</ele><time>2026-04-18T16:29:35Z</time></trkpt><trkpt lat="41.68642190888043" lon="-8.437624543009806"><ele>205.0</ele><time>2026-04-18T16:29:36Z</time></trkpt><trkpt lat="41.686476435285165" lon="-8.43755379643269"><ele>204.99999999999997</ele><time>2026-04-18T16:29:37Z</time></trkpt><trkpt lat="41.686546534916076" lon="-8.437511547323005"><ele>205.0</ele><time>2026-04-18T16:29:38Z</time></trkpt><trkpt lat="41.686616004798864" lon="-8.437484191775667"><ele>205.0</ele><time>2026-04-18T16:29:39Z</time></trkpt><trkpt lat="41.68670252252627" lon="-8.437475418698225"><ele>205.0</ele><time>2026-04-18T16:29:40Z</time></trkpt><trkpt lat="41.686781811805105" lon="-8.437464388139832"><ele>204.99999999999997</ele><time>2026-04-18T16:29:41Z</time></trkpt><trkpt lat="41.68685171995846" lon="-8.437455652555261"><ele>205.0</ele><time>2026-04-18T16:29:42Z</time></trkpt><trkpt lat="41.686935167712065" lon="-8.437437187429746"><ele>205.33333333333331</ele><time>2026-04-18T16:29:43Z</time></trkpt><trkpt lat="41.687016657275215" lon="-8.437427786811597"><ele>205.66666666666666</ele><time>2026-04-18T16:29:44Z</time></trkpt><trkpt lat="41.68710023613593" lon="-8.437419103043474"><ele>206.0</ele><time>2026-04-18T16:29:45Z</time></trkpt><trkpt lat="41.68717420855146" lon="-8.437412646943606"><ele>206.33333333333331</ele><time>2026-04-18T16:29:46Z</time></trkpt><trkpt lat="41.68725592237456" lon="-8.437385650630592"><ele>206.66666666666666</ele><time>2026-04-18T16:29:48Z</time></trkpt><trkpt lat="41.6873449333773" lon="-8.437334435045813"><ele>207.0</ele><time>2026-04-18T16:29:50Z</time></trkpt><trkpt lat="41.68745345694508" lon="-8.437321841568483"><ele>207.0</ele><time>2026-04-18T16:29:53Z</time></trkpt><trkpt lat="41.68758450283205" lon="-8.437341685049002"><ele>207.0</ele><time>2026-04-18T16:29:55Z</time></trkpt><trkpt lat="41.68768279415692" lon="-8.437365368014666"><ele>207.0</ele><time>2026-04-18T16:29:57Z</time></trkpt><trkpt lat="41.68779369775553" lon="-8.43734881715804"><ele>207.0</ele><time>2026-04-18T16:29:59Z</time></trkpt><trkpt lat="41.68785783918532" lon="-8.437315464589705"><ele>207.0</ele><time>2026-04-18T16:30:01Z</time></trkpt><trkpt lat="41.687924980528614" lon="-8.437297158223148"><ele>208.2</ele><time>2026-04-18T16:30:03Z</time></trkpt><trkpt lat="41.68800325277408" lon="-8.437261560952008"><ele>209.39999999999998</ele><time>2026-04-18T16:30:11Z</time></trkpt><trkpt lat="41.688071187427134" lon="-8.437190671273006"><ele>210.60000000000002</ele><time>2026-04-18T16:30:13Z</time></trkpt><trkpt lat="41.688150010128965" lon="-8.437138515688023"><ele>211.8</ele><time>2026-04-18T16:30:15Z</time></trkpt><trkpt lat="41.68824793158961" lon="-8.437069653872431"><ele>213.0</ele><time>2026-04-18T16:30:17Z</time></trkpt><trkpt lat="41.688327010589234" lon="-8.436985959759207"><ele>214.0</ele><time>2026-04-18T16:30:19Z</time></trkpt><trkpt lat="41.688391824408036" lon="-8.436971858238858"><ele>215.0</ele><time>2026-04-18T16:30:21Z</time></trkpt><trkpt lat="41.6884666281136" lon="-8.436976142160383"><ele>216.0</ele><time>2026-04-18T16:30:22Z</time></trkpt><trkpt lat="41.68857589605848" lon="-8.437023578758938"><ele>217.0</ele><time>2026-04-18T16:30:24Z</time></trkpt><trkpt lat="41.68867737871298" lon="-8.437083810104435"><ele>218.0</ele><time>2026-04-18T16:30:26Z</time></trkpt><trkpt lat="41.688738513032845" lon="-8.437108487953696"><ele>219.0</ele><time>2026-04-18T16:30:27Z</time></trkpt><trkpt lat="41.68883130768002" lon="-8.437131141427145"><ele>219.66666666666666</ele><time>2026-04-18T16:30:29Z</time></trkpt><trkpt lat="41.688900141928606" lon="-8.437172045608985"><ele>220.33333333333331</ele><time>2026-04-18T16:30:31Z</time></trkpt><trkpt lat="41.688962905293096" lon="-8.437194049761485"><ele>221.0</ele><time>2026-04-18T16:30:33Z</time></trkpt><trkpt lat="41.68904784238328" lon="-8.437248832221396"><ele>221.66666666666666</ele><time>2026-04-18T16:30:35Z</time></trkpt><trkpt lat="41.689127266386684" lon="-8.437314717862016"><ele>222.33333333333331</ele><time>2026-04-18T16:30:37Z</time></trkpt><trkpt lat="41.689187324569204" lon="-8.43736760696502"><ele>223.0</ele><time>2026-04-18T16:30:39Z</time></trkpt><trkpt lat="41.68926396595636" lon="-8.437420445415047"><ele>222.99999999999997</ele><time>2026-04-18T16:30:42Z</time></trkpt><trkpt lat="41.689194928727765" lon="-8.437407750492552"><ele>223.0</ele><time>2026-04-18T16:30:55Z</time></trkpt><trkpt lat="41.68915305438022" lon="-8.437477904538108"><ele>223.0</ele><time>2026-04-18T16:30:58Z</time></trkpt><trkpt lat="41.689197090634934" lon="-8.437587971182715"><ele>223.0</ele><time>2026-04-18T16:31:01Z</time></trkpt><trkpt lat="41.689111578909255" lon="-8.437639963582892"><ele>222.99999999999997</ele><time>2026-04-18T16:31:12Z</time></trkpt><trkpt lat="41.68906194373533" lon="-8.437559645847106"><ele>223.0</ele><time>2026-04-18T16:31:15Z</time></trkpt><trkpt lat="41.689107910455746" lon="-8.437467265182363"><ele>222.99999999999997</ele><time>2026-04-18T16:31:20Z</time></trkpt><trkpt lat="41.68918458706904" lon="-8.437471602675242"><ele>223.0</ele><time>2026-04-18T16:31:23Z</time></trkpt><trkpt lat="41.689259298505924" lon="-8.437426346183049"><ele>223.0</ele><time>2026-04-18T16:32:19Z</time></trkpt><trkpt lat="41.68933680273893" lon="-8.43744358484134"><ele>223.0</ele><time>2026-04-18T16:32:23Z</time></trkpt><trkpt lat="41.68930941738703" lon="-8.437553595077889"><ele>222.99999999999997</ele><time>2026-04-18T16:32:28Z</time></trkpt><trkpt lat="41.68929223963549" lon="-8.437706626061363"><ele>223.0</ele><time>2026-04-18T16:32:31Z</time></trkpt><trkpt lat="41.68926759557461" lon="-8.437808726859007"><ele>222.99999999999997</ele><time>2026-04-18T16:32:33Z</time></trkpt><trkpt lat="41.6892527127989" lon="-8.437894036177708"><ele>223.0</ele><time>2026-04-18T16:32:35Z</time></trkpt><trkpt lat="41.68923493764485" lon="-8.438007197122722"><ele>223.0</ele><time>2026-04-18T16:32:37Z</time></trkpt><trkpt lat="41.68921274238917" lon="-8.438133296921142"><ele>223.0</ele><time>2026-04-18T16:32:40Z</time></trkpt><trkpt lat="41.689173696116725" lon="-8.4382424290288"><ele>222.99999999999997</ele><time>2026-04-18T16:32:43Z</time></trkpt><trkpt lat="41.68917715503948" lon="-8.438329132797131"><ele>223.0</ele><time>2026-04-18T16:32:45Z</time></trkpt><trkpt lat="41.68919934755148" lon="-8.43841588513178"><ele>224.33333333333331</ele><time>2026-04-18T16:32:47Z</time></trkpt><trkpt lat="41.68920693629226" lon="-8.438536324035322"><ele>225.66666666666666</ele><time>2026-04-18T16:32:49Z</time></trkpt><trkpt lat="41.68919990759295" lon="-8.438640796620737"><ele>227.0</ele><time>2026-04-18T16:32:51Z</time></trkpt><trkpt lat="41.68917991816622" lon="-8.438759302210183"><ele>228.33333333333331</ele><time>2026-04-18T16:32:53Z</time></trkpt><trkpt lat="41.689141792110654" lon="-8.438869308233176"><ele>229.66666666666666</ele><time>2026-04-18T16:32:55Z</time></trkpt><trkpt lat="41.68911090087753" lon="-8.438974120612507"><ele>231.0</ele><time>2026-04-18T16:32:57Z</time></trkpt><trkpt lat="41.68906285056648" lon="-8.43904860069419"><ele>233.33333333333334</ele><time>2026-04-18T16:32:59Z</time></trkpt><trkpt lat="41.68900909140671" lon="-8.43913225355033"><ele>235.66666666666669</ele><time>2026-04-18T16:33:01Z</time></trkpt><trkpt lat="41.68897405148444" lon="-8.439222008831074"><ele>238.0</ele><time>2026-04-18T16:33:03Z</time></trkpt><trkpt lat="41.68891976136029" lon="-8.43932068095551"><ele>240.33333333333334</ele><time>2026-04-18T16:33:06Z</time></trkpt><trkpt lat="41.68886671890661" lon="-8.43939294998667"><ele>242.66666666666669</ele><time>2026-04-18T16:33:09Z</time></trkpt><trkpt lat="41.68881453742443" lon="-8.439446550682224"><ele>245.0</ele><time>2026-04-18T16:33:11Z</time></trkpt><trkpt lat="41.688754051602885" lon="-8.439487039198179"><ele>245.0</ele><time>2026-04-18T16:33:13Z</time></trkpt><trkpt lat="41.68868055374213" lon="-8.43951759369217"><ele>245.0</ele><time>2026-04-18T16:33:16Z</time></trkpt><trkpt lat="41.688620931454814" lon="-8.439571302833187"><ele>245.0</ele><time>2026-04-18T16:33:19Z</time></trkpt><trkpt lat="41.68855618181848" lon="-8.439554639145621"><ele>245.0</ele><time>2026-04-18T16:33:35Z</time></trkpt><trkpt lat="41.68849011590003" lon="-8.439498609028924"><ele>245.0</ele><time>2026-04-18T16:33:43Z</time></trkpt><trkpt lat="41.68842454793319" lon="-8.439467155398757"><ele>245.0</ele><time>2026-04-18T16:33:47Z</time></trkpt><trkpt lat="41.68835743057963" lon="-8.439411177671923"><ele>245.0</ele><time>2026-04-18T16:33:51Z</time></trkpt><trkpt lat="41.688309432174265" lon="-8.439341791723187"><ele>244.33333333333334</ele><time>2026-04-18T16:33:54Z</time></trkpt><trkpt lat="41.68826698633472" lon="-8.439258491764829"><ele>243.66666666666669</ele><time>2026-04-18T16:33:58Z</time></trkpt><trkpt lat="41.68823217178334" lon="-8.439162590941256"><ele>243.0</ele><time>2026-04-18T16:34:01Z</time></trkpt><trkpt lat="41.68823302720812" lon="-8.439073481972471"><ele>242.33333333333331</ele><time>2026-04-18T16:34:03Z</time></trkpt><trkpt lat="41.68827952958136" lon="-8.438998123653576"><ele>241.66666666666666</ele><time>2026-04-18T16:34:05Z</time></trkpt><trkpt lat="41.68836051442404" lon="-8.438995347038123"><ele>241.0</ele><time>2026-04-18T16:34:07Z</time></trkpt><trkpt lat="41.6884329760875" lon="-8.439060731507032"><ele>240.99999999999997</ele><time>2026-04-18T16:34:09Z</time></trkpt><trkpt lat="41.68849008420369" lon="-8.439127846537378"><ele>241.0</ele><time>2026-04-18T16:34:11Z</time></trkpt><trkpt lat="41.688552819191976" lon="-8.439207419176896"><ele>241.0</ele><time>2026-04-18T16:34:16Z</time></trkpt><trkpt lat="41.68863448496928" lon="-8.439213541990824"><ele>241.0</ele><time>2026-04-18T16:34:18Z</time></trkpt><trkpt lat="41.688724983877954" lon="-8.439219374554698"><ele>240.99999999999997</ele><time>2026-04-18T16:34:20Z</time></trkpt><trkpt lat="41.68879044182366" lon="-8.439152152276503"><ele>241.0</ele><time>2026-04-18T16:34:22Z</time></trkpt><trkpt lat="41.68886070478644" lon="-8.439151945636349"><ele>241.57142857142858</ele><time>2026-04-18T16:34:24Z</time></trkpt><trkpt lat="41.688932845600945" lon="-8.439174064429922"><ele>242.14285714285717</ele><time>2026-04-18T16:34:26Z</time></trkpt><trkpt lat="41.68899364942682" lon="-8.439205323587759"><ele>242.71428571428572</ele><time>2026-04-18T16:34:30Z</time></trkpt><trkpt lat="41.6890490744315" lon="-8.439161431426497"><ele>243.28571428571428</ele><time>2026-04-18T16:34:35Z</time></trkpt><trkpt lat="41.6890775229439" lon="-8.439074824313714"><ele>243.85714285714286</ele><time>2026-04-18T16:34:41Z</time></trkpt><trkpt lat="41.68911446413329" lon="-8.438999971368174"><ele>244.42857142857144</ele><time>2026-04-18T16:35:00Z</time></trkpt><trkpt lat="41.689146401871156" lon="-8.43890219957531"><ele>245.0</ele><time>2026-04-18T16:35:03Z</time></trkpt><trkpt lat="41.68917378226566" lon="-8.438794859605455"><ele>242.66666666666669</ele><time>2026-04-18T16:35:06Z</time></trkpt><trkpt lat="41.6892073808094" lon="-8.438670167937053"><ele>240.33333333333334</ele><time>2026-04-18T16:35:08Z</time></trkpt><trkpt lat="41.689197958191734" lon="-8.438546121751104"><ele>238.0</ele><time>2026-04-18T16:35:10Z</time></trkpt><trkpt lat="41.68918359839402" lon="-8.438461897571132"><ele>235.66666666666669</ele><time>2026-04-18T16:35:12Z</time></trkpt><trkpt lat="41.689179975469024" lon="-8.438344482090232"><ele>233.33333333333334</ele><time>2026-04-18T16:35:14Z</time></trkpt><trkpt lat="41.68918705581362" lon="-8.438240941783539"><ele>231.0</ele><time>2026-04-18T16:35:16Z</time></trkpt><trkpt lat="41.68921787846582" lon="-8.43811193956824"><ele>231.0</ele><time>2026-04-18T16:35:18Z</time></trkpt><trkpt lat="41.689244313004046" lon="-8.437987155030164"><ele>231.00000000000003</ele><time>2026-04-18T16:35:20Z</time></trkpt><trkpt lat="41.68925445498554" lon="-8.437863736465438"><ele>231.00000000000003</ele><time>2026-04-18T16:35:22Z</time></trkpt><trkpt lat="41.68927248732885" lon="-8.437740873120271"><ele>231.0</ele><time>2026-04-18T16:35:24Z</time></trkpt><trkpt lat="41.68929653765018" lon="-8.437626058861989"><ele>231.0</ele><time>2026-04-18T16:35:26Z</time></trkpt><trkpt lat="41.689296537454155" lon="-8.437514899124853"><ele>229.4</ele><time>2026-04-18T16:35:28Z</time></trkpt><trkpt lat="41.68925506392755" lon="-8.437433911454079"><ele>227.8</ele><time>2026-04-18T16:35:30Z</time></trkpt><trkpt lat="41.68916341467586" lon="-8.437361614652994"><ele>226.20000000000002</ele><time>2026-04-18T16:35:32Z</time></trkpt><trkpt lat="41.68909107301589" lon="-8.437297614384057"><ele>224.60000000000002</ele><time>2026-04-18T16:35:34Z</time></trkpt><trkpt lat="41.68901219849536" lon="-8.437241277787018"><ele>223.0</ele><time>2026-04-18T16:35:36Z</time></trkpt><trkpt lat="41.6889192660432" lon="-8.437205424576959"><ele>223.0</ele><time>2026-04-18T16:35:38Z</time></trkpt><trkpt lat="41.68883405152045" lon="-8.437164463881384"><ele>223.0</ele><time>2026-04-18T16:35:39Z</time></trkpt><trkpt lat="41.68872924419452" lon="-8.437100097920899"><ele>223.0</ele><time>2026-04-18T16:35:40Z</time></trkpt><trkpt lat="41.68862832249273" lon="-8.437042036558653"><ele>223.0</ele><time>2026-04-18T16:35:41Z</time></trkpt><trkpt lat="41.68852351154616" lon="-8.436995505692533"><ele>223.0</ele><time>2026-04-18T16:35:42Z</time></trkpt><trkpt lat="41.68845374057686" lon="-8.43697665015372"><ele>222.2</ele><time>2026-04-18T16:35:43Z</time></trkpt><trkpt lat="41.68832695022724" lon="-8.436990734316812"><ele>221.4</ele><time>2026-04-18T16:35:45Z</time></trkpt><trkpt lat="41.68824770582369" lon="-8.437064985692926"><ele>220.59999999999997</ele><time>2026-04-18T16:35:47Z</time></trkpt><trkpt lat="41.688185287246924" lon="-8.437078643463343"><ele>219.79999999999998</ele><time>2026-04-18T16:35:49Z</time></trkpt><trkpt lat="41.68811640133051" lon="-8.437022493432963"><ele>219.0</ele><time>2026-04-18T16:35:51Z</time></trkpt><trkpt lat="41.688033052703126" lon="-8.436949471315438"><ele>219.0</ele><time>2026-04-18T16:35:54Z</time></trkpt><trkpt lat="41.687943417624005" lon="-8.436911954621724"><ele>218.99999999999997</ele><time>2026-04-18T16:35:57Z</time></trkpt><trkpt lat="41.68789471096204" lon="-8.43684742235678"><ele>218.99999999999997</ele><time>2026-04-18T16:36:00Z</time></trkpt><trkpt lat="41.68788081260098" lon="-8.43673273897441"><ele>219.0</ele><time>2026-04-18T16:36:02Z</time></trkpt><trkpt lat="41.68783615070573" lon="-8.436606885531017"><ele>219.0</ele><time>2026-04-18T16:36:05Z</time></trkpt><trkpt lat="41.68774921638644" lon="-8.436514230692877"><ele>217.33333333333334</ele><time>2026-04-18T16:36:07Z</time></trkpt><trkpt lat="41.687723289021555" lon="-8.436425716954076"><ele>215.66666666666669</ele><time>2026-04-18T16:36:10Z</time></trkpt><trkpt lat="41.68769164191772" lon="-8.436352141478205"><ele>214.0</ele><time>2026-04-18T16:36:12Z</time></trkpt><trkpt lat="41.68762803714509" lon="-8.436293272821066"><ele>212.33333333333334</ele><time>2026-04-18T16:36:15Z</time></trkpt><trkpt lat="41.68753537376161" lon="-8.436256126386555"><ele>210.66666666666669</ele><time>2026-04-18T16:36:17Z</time></trkpt><trkpt lat="41.687526281216286" lon="-8.436120929198928"><ele>209.0</ele><time>2026-04-18T16:36:20Z</time></trkpt><trkpt lat="41.68757257418654" lon="-8.436001061216388"><ele>202.0</ele><time>2026-04-18T16:36:23Z</time></trkpt><trkpt lat="41.687590350299104" lon="-8.43588699424817"><ele>202.0</ele><time>2026-04-18T16:36:25Z</time></trkpt><trkpt lat="41.68761329355042" lon="-8.435773926269741"><ele>202.0</ele><time>2026-04-18T16:36:27Z</time></trkpt><trkpt lat="41.687624740626035" lon="-8.43567872620062"><ele>202.0</ele><time>2026-04-18T16:36:30Z</time></trkpt></trkseg></trk></gpx>